<?xml version="1.0" encoding="UTF-8" standalone="no" ?>
<gpx xmlns="http://www.topografix.com/GPX/1/1" xmlns:xsi="http://www.w3.org/2001/XMLSchema-instance" xsi:schemaLocation="http://www.topografix.com/GPX/1/1 http://www.topografix.com/GPX/1/1/gpx.xsd" version="1.1" creator="VisuGPX - https://www.visugpx.com">
  <metadata>
    <name>la st cham vtt 2010</name>
    <desc><![CDATA[itineraire de la St cham VTT 2010
parcours 45Km]]></desc>
  </metadata>
  <trk>
    <name><![CDATA[Trk001-MNT]]></name>
    <trkseg>
      <trkpt lat="45.47204" lon="4.53086">
        <ele>389.44751</ele>
        <time>2010-04-25T07:43:38Z</time>
      </trkpt>
      <trkpt lat="45.47177" lon="4.53078">
        <ele>390.252502</ele>
        <time>2010-04-25T07:43:58Z</time>
      </trkpt>
      <trkpt lat="45.4717" lon="4.53071">
        <ele>390.627502</ele>
        <time>2010-04-25T07:44:03Z</time>
      </trkpt>
      <trkpt lat="45.47163" lon="4.53064">
        <ele>390.973877</ele>
        <time>2010-04-25T07:44:08Z</time>
      </trkpt>
      <trkpt lat="45.47155" lon="4.53066">
        <ele>391.018524</ele>
        <time>2010-04-25T07:44:13Z</time>
      </trkpt>
      <trkpt lat="45.47145" lon="4.53063">
        <ele>391.20401</ele>
        <time>2010-04-25T07:44:18Z</time>
      </trkpt>
      <trkpt lat="45.47137" lon="4.53054">
        <ele>391.479309</ele>
        <time>2010-04-25T07:44:23Z</time>
      </trkpt>
      <trkpt lat="45.47129" lon="4.53046">
        <ele>391.700195</ele>
        <time>2010-04-25T07:44:29Z</time>
      </trkpt>
      <trkpt lat="45.4712" lon="4.53034">
        <ele>391.930389</ele>
        <time>2010-04-25T07:44:34Z</time>
      </trkpt>
      <trkpt lat="45.47109" lon="4.53024">
        <ele>392.301239</ele>
        <time>2010-04-25T07:44:39Z</time>
      </trkpt>
      <trkpt lat="45.47101" lon="4.53015">
        <ele>392.637512</ele>
        <time>2010-04-25T07:44:44Z</time>
      </trkpt>
      <trkpt lat="45.47092" lon="4.53005">
        <ele>392.977509</ele>
        <time>2010-04-25T07:44:49Z</time>
      </trkpt>
      <trkpt lat="45.47084" lon="4.52994">
        <ele>393.336243</ele>
        <time>2010-04-25T07:44:54Z</time>
      </trkpt>
      <trkpt lat="45.47074" lon="4.52984">
        <ele>393.71875</ele>
        <time>2010-04-25T07:44:59Z</time>
      </trkpt>
      <trkpt lat="45.47062" lon="4.5297">
        <ele>394.191254</ele>
        <time>2010-04-25T07:45:04Z</time>
      </trkpt>
      <trkpt lat="45.47052" lon="4.52956">
        <ele>394.638763</ele>
        <time>2010-04-25T07:45:09Z</time>
      </trkpt>
      <trkpt lat="45.47042" lon="4.52944">
        <ele>395.05127</ele>
        <time>2010-04-25T07:45:14Z</time>
      </trkpt>
      <trkpt lat="45.47033" lon="4.52929">
        <ele>395.48999</ele>
        <time>2010-04-25T07:45:19Z</time>
      </trkpt>
      <trkpt lat="45.47018" lon="4.52915">
        <ele>396.023743</ele>
        <time>2010-04-25T07:45:25Z</time>
      </trkpt>
      <trkpt lat="45.47008" lon="4.52907">
        <ele>396.378754</ele>
        <time>2010-04-25T07:45:30Z</time>
      </trkpt>
      <trkpt lat="45.47001" lon="4.52904">
        <ele>396.579987</ele>
        <time>2010-04-25T07:45:35Z</time>
      </trkpt>
      <trkpt lat="45.46994" lon="4.52895">
        <ele>396.845001</ele>
        <time>2010-04-25T07:45:41Z</time>
      </trkpt>
      <trkpt lat="45.46997" lon="4.52884">
        <ele>396.767487</ele>
        <time>2010-04-25T07:45:47Z</time>
      </trkpt>
      <trkpt lat="45.4701" lon="4.52863">
        <ele>396.505005</ele>
        <time>2010-04-25T07:45:52Z</time>
      </trkpt>
      <trkpt lat="45.47022" lon="4.52847">
        <ele>396.23999</ele>
        <time>2010-04-25T07:45:57Z</time>
      </trkpt>
      <trkpt lat="45.47034" lon="4.52832">
        <ele>396.008759</ele>
        <time>2010-04-25T07:46:02Z</time>
      </trkpt>
      <trkpt lat="45.47034" lon="4.52809">
        <ele>396.381256</ele>
        <time>2010-04-25T07:46:07Z</time>
      </trkpt>
      <trkpt lat="45.47023" lon="4.52794">
        <ele>396.867493</ele>
        <time>2010-04-25T07:46:12Z</time>
      </trkpt>
      <trkpt lat="45.47007" lon="4.5279">
        <ele>397.278748</ele>
        <time>2010-04-25T07:46:17Z</time>
      </trkpt>
      <trkpt lat="45.46992" lon="4.52785">
        <ele>397.672485</ele>
        <time>2010-04-25T07:46:22Z</time>
      </trkpt>
      <trkpt lat="45.4698" lon="4.5278">
        <ele>398.012512</ele>
        <time>2010-04-25T07:46:27Z</time>
      </trkpt>
      <trkpt lat="45.46967" lon="4.52774">
        <ele>398.401245</ele>
        <time>2010-04-25T07:46:32Z</time>
      </trkpt>
      <trkpt lat="45.46952" lon="4.52769">
        <ele>398.797516</ele>
        <time>2010-04-25T07:46:37Z</time>
      </trkpt>
      <trkpt lat="45.46938" lon="4.52764">
        <ele>399.317505</ele>
        <time>2010-04-25T07:46:42Z</time>
      </trkpt>
      <trkpt lat="45.46924" lon="4.52758">
        <ele>400.033752</ele>
        <time>2010-04-25T07:46:47Z</time>
      </trkpt>
      <trkpt lat="45.46911" lon="4.52751">
        <ele>400.707489</ele>
        <time>2010-04-25T07:46:52Z</time>
      </trkpt>
      <trkpt lat="45.46898" lon="4.52745">
        <ele>401.401245</ele>
        <time>2010-04-25T07:46:57Z</time>
      </trkpt>
      <trkpt lat="45.46884" lon="4.52739">
        <ele>402.096252</ele>
        <time>2010-04-25T07:47:02Z</time>
      </trkpt>
      <trkpt lat="45.4687" lon="4.52734">
        <ele>402.785004</ele>
        <time>2010-04-25T07:47:07Z</time>
      </trkpt>
      <trkpt lat="45.46857" lon="4.52728">
        <ele>403.476257</ele>
        <time>2010-04-25T07:47:12Z</time>
      </trkpt>
      <trkpt lat="45.46842" lon="4.52723">
        <ele>404.329163</ele>
        <time>2010-04-25T07:47:17Z</time>
      </trkpt>
      <trkpt lat="45.46826" lon="4.52717">
        <ele>405.184387</ele>
        <time>2010-04-25T07:47:22Z</time>
      </trkpt>
      <trkpt lat="45.46811" lon="4.52712">
        <ele>405.97229</ele>
        <time>2010-04-25T07:47:27Z</time>
      </trkpt>
      <trkpt lat="45.46797" lon="4.52705">
        <ele>406.86969</ele>
        <time>2010-04-25T07:47:32Z</time>
      </trkpt>
      <trkpt lat="45.46786" lon="4.52698">
        <ele>407.627502</ele>
        <time>2010-04-25T07:47:37Z</time>
      </trkpt>
      <trkpt lat="45.46788" lon="4.52677">
        <ele>407.990051</ele>
        <time>2010-04-25T07:47:42Z</time>
      </trkpt>
      <trkpt lat="45.46791" lon="4.52656">
        <ele>408.369446</ele>
        <time>2010-04-25T07:47:47Z</time>
      </trkpt>
      <trkpt lat="45.46792" lon="4.52633">
        <ele>408.892487</ele>
        <time>2010-04-25T07:47:52Z</time>
      </trkpt>
      <trkpt lat="45.46791" lon="4.52609">
        <ele>409.325012</ele>
        <time>2010-04-25T07:47:58Z</time>
      </trkpt>
      <trkpt lat="45.4679" lon="4.52588">
        <ele>409.69751</ele>
        <time>2010-04-25T07:48:03Z</time>
      </trkpt>
      <trkpt lat="45.4679" lon="4.52568">
        <ele>410.070007</ele>
        <time>2010-04-25T07:48:08Z</time>
      </trkpt>
      <trkpt lat="45.46788" lon="4.52548">
        <ele>410.481232</ele>
        <time>2010-04-25T07:48:13Z</time>
      </trkpt>
      <trkpt lat="45.46786" lon="4.52528">
        <ele>410.871246</ele>
        <time>2010-04-25T07:48:18Z</time>
      </trkpt>
      <trkpt lat="45.46784" lon="4.52507">
        <ele>411.311249</ele>
        <time>2010-04-25T07:48:23Z</time>
      </trkpt>
      <trkpt lat="45.46782" lon="4.52484">
        <ele>411.766266</ele>
        <time>2010-04-25T07:48:28Z</time>
      </trkpt>
      <trkpt lat="45.46781" lon="4.52463">
        <ele>412.171265</ele>
        <time>2010-04-25T07:48:33Z</time>
      </trkpt>
      <trkpt lat="45.46779" lon="4.52442">
        <ele>412.607513</ele>
        <time>2010-04-25T07:48:38Z</time>
      </trkpt>
      <trkpt lat="45.46778" lon="4.52421">
        <ele>412.745758</ele>
        <time>2010-04-25T07:48:43Z</time>
      </trkpt>
      <trkpt lat="45.46776" lon="4.52399">
        <ele>412.857849</ele>
        <time>2010-04-25T07:48:48Z</time>
      </trkpt>
      <trkpt lat="45.46774" lon="4.52377">
        <ele>412.944519</ele>
        <time>2010-04-25T07:48:53Z</time>
      </trkpt>
      <trkpt lat="45.4677" lon="4.52356">
        <ele>413.407501</ele>
        <time>2010-04-25T07:48:58Z</time>
      </trkpt>
      <trkpt lat="45.46764" lon="4.52335">
        <ele>414.014984</ele>
        <time>2010-04-25T07:49:03Z</time>
      </trkpt>
      <trkpt lat="45.46758" lon="4.52316">
        <ele>414.601257</ele>
        <time>2010-04-25T07:49:08Z</time>
      </trkpt>
      <trkpt lat="45.4675" lon="4.52297">
        <ele>415.029999</ele>
        <time>2010-04-25T07:49:13Z</time>
      </trkpt>
      <trkpt lat="45.46745" lon="4.52277">
        <ele>415.285004</ele>
        <time>2010-04-25T07:49:18Z</time>
      </trkpt>
      <trkpt lat="45.46743" lon="4.52263">
        <ele>415.399994</ele>
        <time>2010-04-25T07:49:23Z</time>
      </trkpt>
      <trkpt lat="45.46741" lon="4.52254">
        <ele>415.48999</ele>
        <time>2010-04-25T07:49:29Z</time>
      </trkpt>
      <trkpt lat="45.4674" lon="4.52247">
        <ele>415.549988</ele>
        <time>2010-04-25T07:49:36Z</time>
      </trkpt>
      <trkpt lat="45.46737" lon="4.52231">
        <ele>415.679993</ele>
        <time>2010-04-25T07:49:41Z</time>
      </trkpt>
      <trkpt lat="45.46735" lon="4.52206">
        <ele>415.804993</ele>
        <time>2010-04-25T07:49:46Z</time>
      </trkpt>
      <trkpt lat="45.46732" lon="4.52178">
        <ele>415.870514</ele>
        <time>2010-04-25T07:49:51Z</time>
      </trkpt>
      <trkpt lat="45.46726" lon="4.52151">
        <ele>415.788208</ele>
        <time>2010-04-25T07:49:56Z</time>
      </trkpt>
      <trkpt lat="45.46716" lon="4.52124">
        <ele>415.821655</ele>
        <time>2010-04-25T07:50:01Z</time>
      </trkpt>
      <trkpt lat="45.46705" lon="4.52096">
        <ele>415.38385</ele>
        <time>2010-04-25T07:50:06Z</time>
      </trkpt>
      <trkpt lat="45.46694" lon="4.52067">
        <ele>415.046661</ele>
        <time>2010-04-25T07:50:11Z</time>
      </trkpt>
      <trkpt lat="45.46688" lon="4.52036">
        <ele>414.75528</ele>
        <time>2010-04-25T07:50:16Z</time>
      </trkpt>
      <trkpt lat="45.46685" lon="4.52007">
        <ele>414.655365</ele>
        <time>2010-04-25T07:50:21Z</time>
      </trkpt>
      <trkpt lat="45.46682" lon="4.51978">
        <ele>414.649994</ele>
        <time>2010-04-25T07:50:26Z</time>
      </trkpt>
      <trkpt lat="45.46679" lon="4.51953">
        <ele>415.029999</ele>
        <time>2010-04-25T07:50:31Z</time>
      </trkpt>
      <trkpt lat="45.46675" lon="4.51933">
        <ele>415.369995</ele>
        <time>2010-04-25T07:50:36Z</time>
      </trkpt>
      <trkpt lat="45.46672" lon="4.51901">
        <ele>415.700012</ele>
        <time>2010-04-25T07:50:42Z</time>
      </trkpt>
      <trkpt lat="45.46671" lon="4.51879">
        <ele>415.839996</ele>
        <time>2010-04-25T07:50:47Z</time>
      </trkpt>
      <trkpt lat="45.46671" lon="4.51853">
        <ele>416.043762</ele>
        <time>2010-04-25T07:50:52Z</time>
      </trkpt>
      <trkpt lat="45.46668" lon="4.51825">
        <ele>416.733765</ele>
        <time>2010-04-25T07:50:57Z</time>
      </trkpt>
      <trkpt lat="45.46666" lon="4.51799">
        <ele>417.420013</ele>
        <time>2010-04-25T07:51:02Z</time>
      </trkpt>
      <trkpt lat="45.46664" lon="4.51779">
        <ele>417.470459</ele>
        <time>2010-04-25T07:51:07Z</time>
      </trkpt>
      <trkpt lat="45.46663" lon="4.51768">
        <ele>417.474213</ele>
        <time>2010-04-25T07:51:12Z</time>
      </trkpt>
      <trkpt lat="45.4666" lon="4.5175">
        <ele>417.459717</ele>
        <time>2010-04-25T07:51:20Z</time>
      </trkpt>
      <trkpt lat="45.46656" lon="4.51726">
        <ele>417.57251</ele>
        <time>2010-04-25T07:51:25Z</time>
      </trkpt>
      <trkpt lat="45.46651" lon="4.51698">
        <ele>417.940002</ele>
        <time>2010-04-25T07:51:30Z</time>
      </trkpt>
      <trkpt lat="45.46647" lon="4.51671">
        <ele>418.227997</ele>
        <time>2010-04-25T07:51:35Z</time>
      </trkpt>
      <trkpt lat="45.46645" lon="4.51643">
        <ele>418.051239</ele>
        <time>2010-04-25T07:51:40Z</time>
      </trkpt>
      <trkpt lat="45.46645" lon="4.5161">
        <ele>417.576263</ele>
        <time>2010-04-25T07:51:45Z</time>
      </trkpt>
      <trkpt lat="45.46644" lon="4.51574">
        <ele>417.11499</ele>
        <time>2010-04-25T07:51:50Z</time>
      </trkpt>
      <trkpt lat="45.46643" lon="4.51537">
        <ele>416.606262</ele>
        <time>2010-04-25T07:51:55Z</time>
      </trkpt>
      <trkpt lat="45.46642" lon="4.515">
        <ele>416.15625</ele>
        <time>2010-04-25T07:52:00Z</time>
      </trkpt>
      <trkpt lat="45.46637" lon="4.51466">
        <ele>416.049988</ele>
        <time>2010-04-25T07:52:05Z</time>
      </trkpt>
      <trkpt lat="45.46632" lon="4.51433">
        <ele>415.858734</ele>
        <time>2010-04-25T07:52:10Z</time>
      </trkpt>
      <trkpt lat="45.46623" lon="4.51411">
        <ele>416.168762</ele>
        <time>2010-04-25T07:52:15Z</time>
      </trkpt>
      <trkpt lat="45.46608" lon="4.51415">
        <ele>417.242493</ele>
        <time>2010-04-25T07:52:20Z</time>
      </trkpt>
      <trkpt lat="45.46595" lon="4.51419">
        <ele>418.206238</ele>
        <time>2010-04-25T07:52:25Z</time>
      </trkpt>
      <trkpt lat="45.4658" lon="4.51423">
        <ele>419.227509</ele>
        <time>2010-04-25T07:52:30Z</time>
      </trkpt>
      <trkpt lat="45.46568" lon="4.51427">
        <ele>420.089996</ele>
        <time>2010-04-25T07:52:35Z</time>
      </trkpt>
      <trkpt lat="45.46555" lon="4.5143">
        <ele>421.077026</ele>
        <time>2010-04-25T07:52:40Z</time>
      </trkpt>
      <trkpt lat="45.46543" lon="4.51434">
        <ele>422.078217</ele>
        <time>2010-04-25T07:52:45Z</time>
      </trkpt>
      <trkpt lat="45.46533" lon="4.51428">
        <ele>422.72702</ele>
        <time>2010-04-25T07:52:50Z</time>
      </trkpt>
      <trkpt lat="45.46532" lon="4.51408">
        <ele>422.285675</ele>
        <time>2010-04-25T07:52:55Z</time>
      </trkpt>
      <trkpt lat="45.4653" lon="4.51385">
        <ele>421.720001</ele>
        <time>2010-04-25T07:53:00Z</time>
      </trkpt>
      <trkpt lat="45.46528" lon="4.51359">
        <ele>421.07251</ele>
        <time>2010-04-25T07:53:05Z</time>
      </trkpt>
      <trkpt lat="45.46521" lon="4.51334">
        <ele>420.605865</ele>
        <time>2010-04-25T07:53:10Z</time>
      </trkpt>
      <trkpt lat="45.46505" lon="4.5132">
        <ele>420.597382</ele>
        <time>2010-04-25T07:53:15Z</time>
      </trkpt>
      <trkpt lat="45.46489" lon="4.51323">
        <ele>421.351105</ele>
        <time>2010-04-25T07:53:20Z</time>
      </trkpt>
      <trkpt lat="45.46477" lon="4.51331">
        <ele>422.355377</ele>
        <time>2010-04-25T07:53:25Z</time>
      </trkpt>
      <trkpt lat="45.46466" lon="4.51341">
        <ele>423.697845</ele>
        <time>2010-04-25T07:53:30Z</time>
      </trkpt>
      <trkpt lat="45.46457" lon="4.5135">
        <ele>424.915009</ele>
        <time>2010-04-25T07:53:35Z</time>
      </trkpt>
      <trkpt lat="45.46448" lon="4.51359">
        <ele>426.089996</ele>
        <time>2010-04-25T07:53:40Z</time>
      </trkpt>
      <trkpt lat="45.46438" lon="4.51368">
        <ele>427.297485</ele>
        <time>2010-04-25T07:53:45Z</time>
      </trkpt>
      <trkpt lat="45.46429" lon="4.51377">
        <ele>428.434998</ele>
        <time>2010-04-25T07:53:50Z</time>
      </trkpt>
      <trkpt lat="45.46419" lon="4.51386">
        <ele>429.48999</ele>
        <time>2010-04-25T07:53:55Z</time>
      </trkpt>
      <trkpt lat="45.4641" lon="4.51396">
        <ele>430.5</ele>
        <time>2010-04-25T07:54:00Z</time>
      </trkpt>
      <trkpt lat="45.46401" lon="4.51402">
        <ele>431.285004</ele>
        <time>2010-04-25T07:54:05Z</time>
      </trkpt>
      <trkpt lat="45.46393" lon="4.51409">
        <ele>432.176575</ele>
        <time>2010-04-25T07:54:10Z</time>
      </trkpt>
      <trkpt lat="45.46383" lon="4.51401">
        <ele>432.141479</ele>
        <time>2010-04-25T07:54:15Z</time>
      </trkpt>
      <trkpt lat="45.46372" lon="4.51376">
        <ele>431.20282</ele>
        <time>2010-04-25T07:54:20Z</time>
      </trkpt>
      <trkpt lat="45.46357" lon="4.51341">
        <ele>429.670715</ele>
        <time>2010-04-25T07:54:25Z</time>
      </trkpt>
      <trkpt lat="45.4634" lon="4.51304">
        <ele>426.51236</ele>
        <time>2010-04-25T07:54:30Z</time>
      </trkpt>
      <trkpt lat="45.46328" lon="4.51283">
        <ele>424.221527</ele>
        <time>2010-04-25T07:54:35Z</time>
      </trkpt>
      <trkpt lat="45.46321" lon="4.51272">
        <ele>423.084442</ele>
        <time>2010-04-25T07:54:40Z</time>
      </trkpt>
      <trkpt lat="45.46323" lon="4.51249">
        <ele>418.846649</ele>
        <time>2010-04-25T07:54:47Z</time>
      </trkpt>
      <trkpt lat="45.46326" lon="4.51219">
        <ele>413.623383</ele>
        <time>2010-04-25T07:54:52Z</time>
      </trkpt>
      <trkpt lat="45.46326" lon="4.51201">
        <ele>410.458374</ele>
        <time>2010-04-25T07:54:57Z</time>
      </trkpt>
      <trkpt lat="45.46328" lon="4.51192">
        <ele>408.93222</ele>
        <time>2010-04-25T07:55:03Z</time>
      </trkpt>
      <trkpt lat="45.46325" lon="4.51189">
        <ele>408.297607</ele>
        <time>2010-04-25T07:55:09Z</time>
      </trkpt>
      <trkpt lat="45.46323" lon="4.51183">
        <ele>407.223358</ele>
        <time>2010-04-25T07:55:15Z</time>
      </trkpt>
      <trkpt lat="45.46317" lon="4.51168">
        <ele>404.349426</ele>
        <time>2010-04-25T07:55:20Z</time>
      </trkpt>
      <trkpt lat="45.46305" lon="4.51149">
        <ele>400.354309</ele>
        <time>2010-04-25T07:55:25Z</time>
      </trkpt>
      <trkpt lat="45.46303" lon="4.51156">
        <ele>401.591431</ele>
        <time>2010-04-25T07:55:30Z</time>
      </trkpt>
      <trkpt lat="45.4631" lon="4.51149">
        <ele>400.643616</ele>
        <time>2010-04-25T07:55:35Z</time>
      </trkpt>
      <trkpt lat="45.4631" lon="4.51154">
        <ele>401.611908</ele>
        <time>2010-04-25T07:55:40Z</time>
      </trkpt>
      <trkpt lat="45.46302" lon="4.51159">
        <ele>402.164551</ele>
        <time>2010-04-25T07:55:45Z</time>
      </trkpt>
      <trkpt lat="45.46294" lon="4.51163">
        <ele>403.048065</ele>
        <time>2010-04-25T07:55:50Z</time>
      </trkpt>
      <trkpt lat="45.46291" lon="4.51159">
        <ele>402.580658</ele>
        <time>2010-04-25T07:55:55Z</time>
      </trkpt>
      <trkpt lat="45.46284" lon="4.51157">
        <ele>402.672791</ele>
        <time>2010-04-25T07:56:00Z</time>
      </trkpt>
      <trkpt lat="45.46267" lon="4.51143">
        <ele>401.501221</ele>
        <time>2010-04-25T07:56:10Z</time>
      </trkpt>
      <trkpt lat="45.46261" lon="4.51141">
        <ele>401.691711</ele>
        <time>2010-04-25T07:56:15Z</time>
      </trkpt>
      <trkpt lat="45.46255" lon="4.51139">
        <ele>402.281189</ele>
        <time>2010-04-25T07:56:21Z</time>
      </trkpt>
      <trkpt lat="45.4625" lon="4.51139">
        <ele>402.856995</ele>
        <time>2010-04-25T07:56:26Z</time>
      </trkpt>
      <trkpt lat="45.46246" lon="4.51138">
        <ele>403.401215</ele>
        <time>2010-04-25T07:56:32Z</time>
      </trkpt>
      <trkpt lat="45.46242" lon="4.51138">
        <ele>403.828033</ele>
        <time>2010-04-25T07:56:37Z</time>
      </trkpt>
      <trkpt lat="45.46239" lon="4.51137">
        <ele>404.284729</ele>
        <time>2010-04-25T07:56:42Z</time>
      </trkpt>
      <trkpt lat="45.46232" lon="4.51138">
        <ele>404.932404</ele>
        <time>2010-04-25T07:56:47Z</time>
      </trkpt>
      <trkpt lat="45.46221" lon="4.51137">
        <ele>406.180267</ele>
        <time>2010-04-25T07:56:54Z</time>
      </trkpt>
      <trkpt lat="45.46213" lon="4.51137">
        <ele>407.121063</ele>
        <time>2010-04-25T07:56:59Z</time>
      </trkpt>
      <trkpt lat="45.46205" lon="4.51135">
        <ele>408.943054</ele>
        <time>2010-04-25T07:57:05Z</time>
      </trkpt>
      <trkpt lat="45.46196" lon="4.51138">
        <ele>410.686127</ele>
        <time>2010-04-25T07:57:11Z</time>
      </trkpt>
      <trkpt lat="45.46189" lon="4.51141">
        <ele>412.446411</ele>
        <time>2010-04-25T07:57:16Z</time>
      </trkpt>
      <trkpt lat="45.46183" lon="4.51142">
        <ele>413.874115</ele>
        <time>2010-04-25T07:57:21Z</time>
      </trkpt>
      <trkpt lat="45.46175" lon="4.51141">
        <ele>415.686005</ele>
        <time>2010-04-25T07:57:26Z</time>
      </trkpt>
      <trkpt lat="45.46166" lon="4.51142">
        <ele>417.677704</ele>
        <time>2010-04-25T07:57:31Z</time>
      </trkpt>
      <trkpt lat="45.46158" lon="4.51144">
        <ele>418.447662</ele>
        <time>2010-04-25T07:57:36Z</time>
      </trkpt>
      <trkpt lat="45.46148" lon="4.51148">
        <ele>419.190002</ele>
        <time>2010-04-25T07:57:41Z</time>
      </trkpt>
      <trkpt lat="45.46138" lon="4.51155">
        <ele>419.589386</ele>
        <time>2010-04-25T07:57:46Z</time>
      </trkpt>
      <trkpt lat="45.46125" lon="4.51163">
        <ele>419.996643</ele>
        <time>2010-04-25T07:57:51Z</time>
      </trkpt>
      <trkpt lat="45.46115" lon="4.51173">
        <ele>419.819244</ele>
        <time>2010-04-25T07:57:56Z</time>
      </trkpt>
      <trkpt lat="45.46104" lon="4.51184">
        <ele>419.638885</ele>
        <time>2010-04-25T07:58:01Z</time>
      </trkpt>
      <trkpt lat="45.46095" lon="4.51194">
        <ele>419.647034</ele>
        <time>2010-04-25T07:58:06Z</time>
      </trkpt>
      <trkpt lat="45.46084" lon="4.51203">
        <ele>419.956482</ele>
        <time>2010-04-25T07:58:11Z</time>
      </trkpt>
      <trkpt lat="45.46071" lon="4.51213">
        <ele>420.369995</ele>
        <time>2010-04-25T07:58:16Z</time>
      </trkpt>
      <trkpt lat="45.46057" lon="4.5122">
        <ele>421.119995</ele>
        <time>2010-04-25T07:58:21Z</time>
      </trkpt>
      <trkpt lat="45.46045" lon="4.51232">
        <ele>421.390015</ele>
        <time>2010-04-25T07:58:26Z</time>
      </trkpt>
      <trkpt lat="45.46033" lon="4.51246">
        <ele>421.545013</ele>
        <time>2010-04-25T07:58:31Z</time>
      </trkpt>
      <trkpt lat="45.46024" lon="4.51257">
        <ele>421.717529</ele>
        <time>2010-04-25T07:58:36Z</time>
      </trkpt>
      <trkpt lat="45.46013" lon="4.51268">
        <ele>422.242188</ele>
        <time>2010-04-25T07:58:41Z</time>
      </trkpt>
      <trkpt lat="45.46004" lon="4.51278">
        <ele>422.488403</ele>
        <time>2010-04-25T07:58:46Z</time>
      </trkpt>
      <trkpt lat="45.45997" lon="4.51286">
        <ele>422.457733</ele>
        <time>2010-04-25T07:58:51Z</time>
      </trkpt>
      <trkpt lat="45.45988" lon="4.51293">
        <ele>422.454926</ele>
        <time>2010-04-25T07:58:56Z</time>
      </trkpt>
      <trkpt lat="45.45979" lon="4.51296">
        <ele>422.926361</ele>
        <time>2010-04-25T07:59:01Z</time>
      </trkpt>
      <trkpt lat="45.45969" lon="4.51297">
        <ele>423.790436</ele>
        <time>2010-04-25T07:59:06Z</time>
      </trkpt>
      <trkpt lat="45.45961" lon="4.51295">
        <ele>424.656311</ele>
        <time>2010-04-25T07:59:11Z</time>
      </trkpt>
      <trkpt lat="45.45953" lon="4.51294">
        <ele>425.549469</ele>
        <time>2010-04-25T07:59:16Z</time>
      </trkpt>
      <trkpt lat="45.45945" lon="4.51292">
        <ele>426.560699</ele>
        <time>2010-04-25T07:59:21Z</time>
      </trkpt>
      <trkpt lat="45.45939" lon="4.51288">
        <ele>427.412628</ele>
        <time>2010-04-25T07:59:26Z</time>
      </trkpt>
      <trkpt lat="45.45932" lon="4.51284">
        <ele>428.519379</ele>
        <time>2010-04-25T07:59:31Z</time>
      </trkpt>
      <trkpt lat="45.45925" lon="4.5128">
        <ele>429.714844</ele>
        <time>2010-04-25T07:59:36Z</time>
      </trkpt>
      <trkpt lat="45.45918" lon="4.51277">
        <ele>430.740875</ele>
        <time>2010-04-25T07:59:41Z</time>
      </trkpt>
      <trkpt lat="45.45912" lon="4.51273">
        <ele>431.705353</ele>
        <time>2010-04-25T07:59:46Z</time>
      </trkpt>
      <trkpt lat="45.45905" lon="4.51269">
        <ele>432.839172</ele>
        <time>2010-04-25T07:59:51Z</time>
      </trkpt>
      <trkpt lat="45.45898" lon="4.51264">
        <ele>433.97229</ele>
        <time>2010-04-25T07:59:56Z</time>
      </trkpt>
      <trkpt lat="45.45891" lon="4.5126">
        <ele>435.020233</ele>
        <time>2010-04-25T08:00:01Z</time>
      </trkpt>
      <trkpt lat="45.45884" lon="4.51256">
        <ele>436.037689</ele>
        <time>2010-04-25T08:00:06Z</time>
      </trkpt>
      <trkpt lat="45.45876" lon="4.51251">
        <ele>437.025818</ele>
        <time>2010-04-25T08:00:11Z</time>
      </trkpt>
      <trkpt lat="45.45868" lon="4.51246">
        <ele>437.848846</ele>
        <time>2010-04-25T08:00:16Z</time>
      </trkpt>
      <trkpt lat="45.45859" lon="4.51243">
        <ele>438.708191</ele>
        <time>2010-04-25T08:00:21Z</time>
      </trkpt>
      <trkpt lat="45.45851" lon="4.5124">
        <ele>439.439728</ele>
        <time>2010-04-25T08:00:26Z</time>
      </trkpt>
      <trkpt lat="45.45842" lon="4.51238">
        <ele>439.768127</ele>
        <time>2010-04-25T08:00:31Z</time>
      </trkpt>
      <trkpt lat="45.45834" lon="4.51235">
        <ele>439.947144</ele>
        <time>2010-04-25T08:00:36Z</time>
      </trkpt>
      <trkpt lat="45.45825" lon="4.51232">
        <ele>440.117065</ele>
        <time>2010-04-25T08:00:41Z</time>
      </trkpt>
      <trkpt lat="45.45817" lon="4.51229">
        <ele>440.243561</ele>
        <time>2010-04-25T08:00:46Z</time>
      </trkpt>
      <trkpt lat="45.45808" lon="4.51227">
        <ele>440.387268</ele>
        <time>2010-04-25T08:00:51Z</time>
      </trkpt>
      <trkpt lat="45.45799" lon="4.51226">
        <ele>440.708527</ele>
        <time>2010-04-25T08:00:56Z</time>
      </trkpt>
      <trkpt lat="45.45788" lon="4.51223">
        <ele>441.188171</ele>
        <time>2010-04-25T08:01:01Z</time>
      </trkpt>
      <trkpt lat="45.45778" lon="4.51222">
        <ele>441.674255</ele>
        <time>2010-04-25T08:01:06Z</time>
      </trkpt>
      <trkpt lat="45.45767" lon="4.5122">
        <ele>442.216278</ele>
        <time>2010-04-25T08:01:11Z</time>
      </trkpt>
      <trkpt lat="45.45755" lon="4.51218">
        <ele>442.774872</ele>
        <time>2010-04-25T08:01:16Z</time>
      </trkpt>
      <trkpt lat="45.45744" lon="4.51218">
        <ele>443.373688</ele>
        <time>2010-04-25T08:01:21Z</time>
      </trkpt>
      <trkpt lat="45.45733" lon="4.51218">
        <ele>444.025879</ele>
        <time>2010-04-25T08:01:26Z</time>
      </trkpt>
      <trkpt lat="45.45725" lon="4.51214">
        <ele>444.342651</ele>
        <time>2010-04-25T08:01:32Z</time>
      </trkpt>
      <trkpt lat="45.45725" lon="4.51198">
        <ele>443.833954</ele>
        <time>2010-04-25T08:01:37Z</time>
      </trkpt>
      <trkpt lat="45.45731" lon="4.51168">
        <ele>442.244995</ele>
        <time>2010-04-25T08:01:42Z</time>
      </trkpt>
      <trkpt lat="45.45736" lon="4.51136">
        <ele>440.39624</ele>
        <time>2010-04-25T08:01:47Z</time>
      </trkpt>
      <trkpt lat="45.45743" lon="4.51095">
        <ele>437.195679</ele>
        <time>2010-04-25T08:01:52Z</time>
      </trkpt>
      <trkpt lat="45.45751" lon="4.51052">
        <ele>432.577515</ele>
        <time>2010-04-25T08:01:57Z</time>
      </trkpt>
      <trkpt lat="45.45759" lon="4.51019">
        <ele>427.712494</ele>
        <time>2010-04-25T08:02:02Z</time>
      </trkpt>
      <trkpt lat="45.4575" lon="4.50985">
        <ele>424.139801</ele>
        <time>2010-04-25T08:02:07Z</time>
      </trkpt>
      <trkpt lat="45.45731" lon="4.50948">
        <ele>420.97171</ele>
        <time>2010-04-25T08:02:12Z</time>
      </trkpt>
      <trkpt lat="45.45696" lon="4.50917">
        <ele>418.551147</ele>
        <time>2010-04-25T08:02:17Z</time>
      </trkpt>
      <trkpt lat="45.45662" lon="4.50884">
        <ele>414.666138</ele>
        <time>2010-04-25T08:02:22Z</time>
      </trkpt>
      <trkpt lat="45.45628" lon="4.50838">
        <ele>413.440521</ele>
        <time>2010-04-25T08:02:27Z</time>
      </trkpt>
      <trkpt lat="45.45594" lon="4.5079">
        <ele>414.88501</ele>
        <time>2010-04-25T08:02:32Z</time>
      </trkpt>
      <trkpt lat="45.45571" lon="4.50745">
        <ele>412.057892</ele>
        <time>2010-04-25T08:02:37Z</time>
      </trkpt>
      <trkpt lat="45.4556" lon="4.50723">
        <ele>410.108032</ele>
        <time>2010-04-25T08:02:42Z</time>
      </trkpt>
      <trkpt lat="45.45548" lon="4.50701">
        <ele>408.712158</ele>
        <time>2010-04-25T08:02:47Z</time>
      </trkpt>
      <trkpt lat="45.45537" lon="4.50676">
        <ele>407.236206</ele>
        <time>2010-04-25T08:02:52Z</time>
      </trkpt>
      <trkpt lat="45.45534" lon="4.50647">
        <ele>405.314484</ele>
        <time>2010-04-25T08:02:57Z</time>
      </trkpt>
      <trkpt lat="45.45535" lon="4.50616">
        <ele>403.255768</ele>
        <time>2010-04-25T08:03:02Z</time>
      </trkpt>
      <trkpt lat="45.45538" lon="4.50585">
        <ele>401.620667</ele>
        <time>2010-04-25T08:03:07Z</time>
      </trkpt>
      <trkpt lat="45.45542" lon="4.50557">
        <ele>400.626862</ele>
        <time>2010-04-25T08:03:12Z</time>
      </trkpt>
      <trkpt lat="45.45546" lon="4.50529">
        <ele>400.014832</ele>
        <time>2010-04-25T08:03:17Z</time>
      </trkpt>
      <trkpt lat="45.4555" lon="4.505">
        <ele>400</ele>
        <time>2010-04-25T08:03:22Z</time>
      </trkpt>
      <trkpt lat="45.45553" lon="4.5047">
        <ele>400.329041</ele>
        <time>2010-04-25T08:03:27Z</time>
      </trkpt>
      <trkpt lat="45.45551" lon="4.50452">
        <ele>402.021912</ele>
        <time>2010-04-25T08:03:32Z</time>
      </trkpt>
      <trkpt lat="45.45533" lon="4.50449">
        <ele>403.555481</ele>
        <time>2010-04-25T08:03:37Z</time>
      </trkpt>
      <trkpt lat="45.45515" lon="4.50448">
        <ele>404.916382</ele>
        <time>2010-04-25T08:03:42Z</time>
      </trkpt>
      <trkpt lat="45.45499" lon="4.50448">
        <ele>406.118744</ele>
        <time>2010-04-25T08:03:47Z</time>
      </trkpt>
      <trkpt lat="45.45484" lon="4.50449">
        <ele>407.321259</ele>
        <time>2010-04-25T08:03:52Z</time>
      </trkpt>
      <trkpt lat="45.4547" lon="4.50451">
        <ele>408.264984</ele>
        <time>2010-04-25T08:03:57Z</time>
      </trkpt>
      <trkpt lat="45.45456" lon="4.50452">
        <ele>409.447021</ele>
        <time>2010-04-25T08:04:02Z</time>
      </trkpt>
      <trkpt lat="45.45442" lon="4.50454">
        <ele>410.951172</ele>
        <time>2010-04-25T08:04:07Z</time>
      </trkpt>
      <trkpt lat="45.45428" lon="4.50458">
        <ele>412.297028</ele>
        <time>2010-04-25T08:04:12Z</time>
      </trkpt>
      <trkpt lat="45.45416" lon="4.5046">
        <ele>413.642456</ele>
        <time>2010-04-25T08:04:17Z</time>
      </trkpt>
      <trkpt lat="45.45402" lon="4.5046">
        <ele>414.576385</ele>
        <time>2010-04-25T08:04:22Z</time>
      </trkpt>
      <trkpt lat="45.45388" lon="4.50456">
        <ele>415.688232</ele>
        <time>2010-04-25T08:04:27Z</time>
      </trkpt>
      <trkpt lat="45.45374" lon="4.50456">
        <ele>416.605255</ele>
        <time>2010-04-25T08:04:32Z</time>
      </trkpt>
      <trkpt lat="45.45361" lon="4.5045">
        <ele>417.299988</ele>
        <time>2010-04-25T08:04:37Z</time>
      </trkpt>
      <trkpt lat="45.45349" lon="4.50444">
        <ele>417.75</ele>
        <time>2010-04-25T08:04:42Z</time>
      </trkpt>
      <trkpt lat="45.45341" lon="4.50436">
        <ele>418.350006</ele>
        <time>2010-04-25T08:04:47Z</time>
      </trkpt>
      <trkpt lat="45.45337" lon="4.50422">
        <ele>419.431244</ele>
        <time>2010-04-25T08:04:52Z</time>
      </trkpt>
      <trkpt lat="45.45331" lon="4.50414">
        <ele>420</ele>
        <time>2010-04-25T08:04:57Z</time>
      </trkpt>
      <trkpt lat="45.45321" lon="4.50405">
        <ele>420.613129</ele>
        <time>2010-04-25T08:05:02Z</time>
      </trkpt>
      <trkpt lat="45.45311" lon="4.50395">
        <ele>421.105133</ele>
        <time>2010-04-25T08:05:07Z</time>
      </trkpt>
      <trkpt lat="45.45302" lon="4.50386">
        <ele>421.637848</ele>
        <time>2010-04-25T08:05:12Z</time>
      </trkpt>
      <trkpt lat="45.45297" lon="4.50377">
        <ele>422.299072</ele>
        <time>2010-04-25T08:05:17Z</time>
      </trkpt>
      <trkpt lat="45.45288" lon="4.50372">
        <ele>422.659821</ele>
        <time>2010-04-25T08:05:22Z</time>
      </trkpt>
      <trkpt lat="45.4528" lon="4.5037">
        <ele>422.805786</ele>
        <time>2010-04-25T08:05:27Z</time>
      </trkpt>
      <trkpt lat="45.45276" lon="4.50364">
        <ele>423.59964</ele>
        <time>2010-04-25T08:05:32Z</time>
      </trkpt>
      <trkpt lat="45.45278" lon="4.50354">
        <ele>424.411774</ele>
        <time>2010-04-25T08:05:37Z</time>
      </trkpt>
      <trkpt lat="45.45275" lon="4.50345">
        <ele>425.461731</ele>
        <time>2010-04-25T08:05:42Z</time>
      </trkpt>
      <trkpt lat="45.45272" lon="4.50336">
        <ele>426.551788</ele>
        <time>2010-04-25T08:05:47Z</time>
      </trkpt>
      <trkpt lat="45.45268" lon="4.50329">
        <ele>427.437744</ele>
        <time>2010-04-25T08:05:52Z</time>
      </trkpt>
      <trkpt lat="45.45265" lon="4.50322">
        <ele>428.244171</ele>
        <time>2010-04-25T08:05:57Z</time>
      </trkpt>
      <trkpt lat="45.45261" lon="4.50315">
        <ele>429.126221</ele>
        <time>2010-04-25T08:06:03Z</time>
      </trkpt>
      <trkpt lat="45.45257" lon="4.50308">
        <ele>429.978851</ele>
        <time>2010-04-25T08:06:09Z</time>
      </trkpt>
      <trkpt lat="45.45255" lon="4.50302">
        <ele>430.685791</ele>
        <time>2010-04-25T08:06:14Z</time>
      </trkpt>
      <trkpt lat="45.45251" lon="4.50296">
        <ele>431.518127</ele>
        <time>2010-04-25T08:06:19Z</time>
      </trkpt>
      <trkpt lat="45.45246" lon="4.5029">
        <ele>432.482483</ele>
        <time>2010-04-25T08:06:24Z</time>
      </trkpt>
      <trkpt lat="45.45244" lon="4.50287">
        <ele>432.940399</ele>
        <time>2010-04-25T08:06:29Z</time>
      </trkpt>
      <trkpt lat="45.45241" lon="4.50281">
        <ele>433.648315</ele>
        <time>2010-04-25T08:06:34Z</time>
      </trkpt>
      <trkpt lat="45.45238" lon="4.50279">
        <ele>434.131042</ele>
        <time>2010-04-25T08:06:39Z</time>
      </trkpt>
      <trkpt lat="45.45232" lon="4.50275">
        <ele>435.433075</ele>
        <time>2010-04-25T08:06:44Z</time>
      </trkpt>
      <trkpt lat="45.45223" lon="4.50273">
        <ele>437.038605</ele>
        <time>2010-04-25T08:06:49Z</time>
      </trkpt>
      <trkpt lat="45.45215" lon="4.50271">
        <ele>438.462128</ele>
        <time>2010-04-25T08:06:54Z</time>
      </trkpt>
      <trkpt lat="45.45208" lon="4.50274">
        <ele>439.263885</ele>
        <time>2010-04-25T08:06:59Z</time>
      </trkpt>
      <trkpt lat="45.45203" lon="4.50277">
        <ele>439.895416</ele>
        <time>2010-04-25T08:07:04Z</time>
      </trkpt>
      <trkpt lat="45.45197" lon="4.50284">
        <ele>440.316711</ele>
        <time>2010-04-25T08:07:09Z</time>
      </trkpt>
      <trkpt lat="45.4519" lon="4.50293">
        <ele>440.957214</ele>
        <time>2010-04-25T08:07:14Z</time>
      </trkpt>
      <trkpt lat="45.45184" lon="4.50299">
        <ele>442.238373</ele>
        <time>2010-04-25T08:07:19Z</time>
      </trkpt>
      <trkpt lat="45.45178" lon="4.50307">
        <ele>442.932587</ele>
        <time>2010-04-25T08:07:25Z</time>
      </trkpt>
      <trkpt lat="45.45173" lon="4.50314">
        <ele>443.424896</ele>
        <time>2010-04-25T08:07:30Z</time>
      </trkpt>
      <trkpt lat="45.45166" lon="4.50321">
        <ele>444.175537</ele>
        <time>2010-04-25T08:07:35Z</time>
      </trkpt>
      <trkpt lat="45.45159" lon="4.50326">
        <ele>445.202179</ele>
        <time>2010-04-25T08:07:40Z</time>
      </trkpt>
      <trkpt lat="45.4515" lon="4.50331">
        <ele>446.293365</ele>
        <time>2010-04-25T08:07:45Z</time>
      </trkpt>
      <trkpt lat="45.45141" lon="4.50334">
        <ele>446.846802</ele>
        <time>2010-04-25T08:07:50Z</time>
      </trkpt>
      <trkpt lat="45.45131" lon="4.50336">
        <ele>447.238129</ele>
        <time>2010-04-25T08:07:55Z</time>
      </trkpt>
      <trkpt lat="45.45121" lon="4.50339">
        <ele>447.373444</ele>
        <time>2010-04-25T08:08:00Z</time>
      </trkpt>
      <trkpt lat="45.45112" lon="4.50339">
        <ele>448.280212</ele>
        <time>2010-04-25T08:08:05Z</time>
      </trkpt>
      <trkpt lat="45.45104" lon="4.50337">
        <ele>449.519989</ele>
        <time>2010-04-25T08:08:10Z</time>
      </trkpt>
      <trkpt lat="45.45094" lon="4.50336">
        <ele>449.891113</ele>
        <time>2010-04-25T08:08:15Z</time>
      </trkpt>
      <trkpt lat="45.45084" lon="4.50333">
        <ele>450.769287</ele>
        <time>2010-04-25T08:08:20Z</time>
      </trkpt>
      <trkpt lat="45.45074" lon="4.5033">
        <ele>451.700623</ele>
        <time>2010-04-25T08:08:25Z</time>
      </trkpt>
      <trkpt lat="45.45064" lon="4.50328">
        <ele>452.636047</ele>
        <time>2010-04-25T08:08:30Z</time>
      </trkpt>
      <trkpt lat="45.45055" lon="4.50326">
        <ele>452.997253</ele>
        <time>2010-04-25T08:08:35Z</time>
      </trkpt>
      <trkpt lat="45.45042" lon="4.50324">
        <ele>452.111572</ele>
        <time>2010-04-25T08:08:41Z</time>
      </trkpt>
      <trkpt lat="45.45033" lon="4.50322">
        <ele>451.728485</ele>
        <time>2010-04-25T08:08:46Z</time>
      </trkpt>
      <trkpt lat="45.45024" lon="4.50321">
        <ele>451.152771</ele>
        <time>2010-04-25T08:08:51Z</time>
      </trkpt>
      <trkpt lat="45.45012" lon="4.50315">
        <ele>451.45578</ele>
        <time>2010-04-25T08:08:57Z</time>
      </trkpt>
      <trkpt lat="45.45005" lon="4.50308">
        <ele>453.04715</ele>
        <time>2010-04-25T08:09:02Z</time>
      </trkpt>
      <trkpt lat="45.44999" lon="4.50304">
        <ele>453.902435</ele>
        <time>2010-04-25T08:09:07Z</time>
      </trkpt>
      <trkpt lat="45.44994" lon="4.50299">
        <ele>455.056</ele>
        <time>2010-04-25T08:09:12Z</time>
      </trkpt>
      <trkpt lat="45.44987" lon="4.50292">
        <ele>456.638458</ele>
        <time>2010-04-25T08:09:18Z</time>
      </trkpt>
      <trkpt lat="45.44981" lon="4.50285">
        <ele>458.405487</ele>
        <time>2010-04-25T08:09:24Z</time>
      </trkpt>
      <trkpt lat="45.44977" lon="4.50279">
        <ele>460.085999</ele>
        <time>2010-04-25T08:09:29Z</time>
      </trkpt>
      <trkpt lat="45.44972" lon="4.50272">
        <ele>461.638641</ele>
        <time>2010-04-25T08:09:34Z</time>
      </trkpt>
      <trkpt lat="45.44966" lon="4.50267">
        <ele>463.121643</ele>
        <time>2010-04-25T08:09:40Z</time>
      </trkpt>
      <trkpt lat="45.44961" lon="4.50262">
        <ele>464.307159</ele>
        <time>2010-04-25T08:09:45Z</time>
      </trkpt>
      <trkpt lat="45.44955" lon="4.50259">
        <ele>465.153992</ele>
        <time>2010-04-25T08:09:50Z</time>
      </trkpt>
      <trkpt lat="45.44949" lon="4.50255">
        <ele>466.252594</ele>
        <time>2010-04-25T08:09:55Z</time>
      </trkpt>
      <trkpt lat="45.44942" lon="4.50251">
        <ele>467.153107</ele>
        <time>2010-04-25T08:10:00Z</time>
      </trkpt>
      <trkpt lat="45.44937" lon="4.50246">
        <ele>468.38562</ele>
        <time>2010-04-25T08:10:05Z</time>
      </trkpt>
      <trkpt lat="45.44929" lon="4.50242">
        <ele>469.286835</ele>
        <time>2010-04-25T08:10:11Z</time>
      </trkpt>
      <trkpt lat="45.44923" lon="4.5024">
        <ele>469.964996</ele>
        <time>2010-04-25T08:10:16Z</time>
      </trkpt>
      <trkpt lat="45.44917" lon="4.50237">
        <ele>470.779999</ele>
        <time>2010-04-25T08:10:21Z</time>
      </trkpt>
      <trkpt lat="45.44911" lon="4.50233">
        <ele>471.929993</ele>
        <time>2010-04-25T08:10:26Z</time>
      </trkpt>
      <trkpt lat="45.44912" lon="4.50225">
        <ele>473.637512</ele>
        <time>2010-04-25T08:10:31Z</time>
      </trkpt>
      <trkpt lat="45.4492" lon="4.50221">
        <ele>474.209991</ele>
        <time>2010-04-25T08:10:38Z</time>
      </trkpt>
      <trkpt lat="45.44926" lon="4.50218">
        <ele>474.537323</ele>
        <time>2010-04-25T08:10:44Z</time>
      </trkpt>
      <trkpt lat="45.44932" lon="4.50217">
        <ele>474.647522</ele>
        <time>2010-04-25T08:10:49Z</time>
      </trkpt>
      <trkpt lat="45.44938" lon="4.50214">
        <ele>475.088715</ele>
        <time>2010-04-25T08:10:54Z</time>
      </trkpt>
      <trkpt lat="45.44942" lon="4.50208">
        <ele>476.344879</ele>
        <time>2010-04-25T08:11:00Z</time>
      </trkpt>
      <trkpt lat="45.44935" lon="4.50206">
        <ele>477.035095</ele>
        <time>2010-04-25T08:11:05Z</time>
      </trkpt>
      <trkpt lat="45.44926" lon="4.50207">
        <ele>477.106598</ele>
        <time>2010-04-25T08:11:10Z</time>
      </trkpt>
      <trkpt lat="45.44915" lon="4.50208">
        <ele>477.170013</ele>
        <time>2010-04-25T08:11:15Z</time>
      </trkpt>
      <trkpt lat="45.44903" lon="4.5021">
        <ele>477.3125</ele>
        <time>2010-04-25T08:11:20Z</time>
      </trkpt>
      <trkpt lat="45.44892" lon="4.50211">
        <ele>477.452484</ele>
        <time>2010-04-25T08:11:25Z</time>
      </trkpt>
      <trkpt lat="45.44884" lon="4.50211">
        <ele>477.647491</ele>
        <time>2010-04-25T08:11:30Z</time>
      </trkpt>
      <trkpt lat="45.44875" lon="4.50211">
        <ele>477.885468</ele>
        <time>2010-04-25T08:11:35Z</time>
      </trkpt>
      <trkpt lat="45.44866" lon="4.50212">
        <ele>477.830933</ele>
        <time>2010-04-25T08:11:40Z</time>
      </trkpt>
      <trkpt lat="45.44858" lon="4.50211">
        <ele>478.27243</ele>
        <time>2010-04-25T08:11:45Z</time>
      </trkpt>
      <trkpt lat="45.4485" lon="4.50208">
        <ele>479.039154</ele>
        <time>2010-04-25T08:11:51Z</time>
      </trkpt>
      <trkpt lat="45.44843" lon="4.50206">
        <ele>479.601166</ele>
        <time>2010-04-25T08:11:56Z</time>
      </trkpt>
      <trkpt lat="45.44835" lon="4.50204">
        <ele>480.291626</ele>
        <time>2010-04-25T08:12:01Z</time>
      </trkpt>
      <trkpt lat="45.44826" lon="4.50202">
        <ele>481.374786</ele>
        <time>2010-04-25T08:12:07Z</time>
      </trkpt>
      <trkpt lat="45.44819" lon="4.50204">
        <ele>481.506195</ele>
        <time>2010-04-25T08:12:12Z</time>
      </trkpt>
      <trkpt lat="45.44812" lon="4.50207">
        <ele>481.526337</ele>
        <time>2010-04-25T08:12:17Z</time>
      </trkpt>
      <trkpt lat="45.44801" lon="4.5021">
        <ele>481.900726</ele>
        <time>2010-04-25T08:12:22Z</time>
      </trkpt>
      <trkpt lat="45.44791" lon="4.50211">
        <ele>482.613495</ele>
        <time>2010-04-25T08:12:27Z</time>
      </trkpt>
      <trkpt lat="45.44781" lon="4.5021">
        <ele>483.65686</ele>
        <time>2010-04-25T08:12:32Z</time>
      </trkpt>
      <trkpt lat="45.44773" lon="4.50207">
        <ele>484.861328</ele>
        <time>2010-04-25T08:12:37Z</time>
      </trkpt>
      <trkpt lat="45.44765" lon="4.50205">
        <ele>486.080444</ele>
        <time>2010-04-25T08:12:42Z</time>
      </trkpt>
      <trkpt lat="45.44758" lon="4.50203">
        <ele>487.073883</ele>
        <time>2010-04-25T08:12:47Z</time>
      </trkpt>
      <trkpt lat="45.4475" lon="4.50203">
        <ele>487.641846</ele>
        <time>2010-04-25T08:12:52Z</time>
      </trkpt>
      <trkpt lat="45.44743" lon="4.50204">
        <ele>488.095001</ele>
        <time>2010-04-25T08:12:57Z</time>
      </trkpt>
      <trkpt lat="45.44735" lon="4.50206">
        <ele>488.543762</ele>
        <time>2010-04-25T08:13:02Z</time>
      </trkpt>
      <trkpt lat="45.44727" lon="4.50206">
        <ele>489.058746</ele>
        <time>2010-04-25T08:13:07Z</time>
      </trkpt>
      <trkpt lat="45.4472" lon="4.50208">
        <ele>489.328735</ele>
        <time>2010-04-25T08:13:12Z</time>
      </trkpt>
      <trkpt lat="45.44713" lon="4.5021">
        <ele>489.665009</ele>
        <time>2010-04-25T08:13:17Z</time>
      </trkpt>
      <trkpt lat="45.44703" lon="4.50212">
        <ele>489.955017</ele>
        <time>2010-04-25T08:13:23Z</time>
      </trkpt>
      <trkpt lat="45.44695" lon="4.50216">
        <ele>489.937073</ele>
        <time>2010-04-25T08:13:28Z</time>
      </trkpt>
      <trkpt lat="45.44688" lon="4.50219">
        <ele>490.166046</ele>
        <time>2010-04-25T08:13:33Z</time>
      </trkpt>
      <trkpt lat="45.44679" lon="4.50222">
        <ele>490.544525</ele>
        <time>2010-04-25T08:13:38Z</time>
      </trkpt>
      <trkpt lat="45.4467" lon="4.50225">
        <ele>490.894806</ele>
        <time>2010-04-25T08:13:43Z</time>
      </trkpt>
      <trkpt lat="45.44661" lon="4.50227">
        <ele>491.427795</ele>
        <time>2010-04-25T08:13:48Z</time>
      </trkpt>
      <trkpt lat="45.44653" lon="4.50229">
        <ele>491.893066</ele>
        <time>2010-04-25T08:13:53Z</time>
      </trkpt>
      <trkpt lat="45.44645" lon="4.50232">
        <ele>492.384918</ele>
        <time>2010-04-25T08:13:58Z</time>
      </trkpt>
      <trkpt lat="45.44636" lon="4.50234">
        <ele>492.963013</ele>
        <time>2010-04-25T08:14:03Z</time>
      </trkpt>
      <trkpt lat="45.44626" lon="4.50237">
        <ele>493.627045</ele>
        <time>2010-04-25T08:14:08Z</time>
      </trkpt>
      <trkpt lat="45.44616" lon="4.5024">
        <ele>494.139038</ele>
        <time>2010-04-25T08:14:13Z</time>
      </trkpt>
      <trkpt lat="45.44608" lon="4.50241">
        <ele>494.851471</ele>
        <time>2010-04-25T08:14:18Z</time>
      </trkpt>
      <trkpt lat="45.446" lon="4.50243">
        <ele>495.549988</ele>
        <time>2010-04-25T08:14:23Z</time>
      </trkpt>
      <trkpt lat="45.44592" lon="4.50244">
        <ele>496.336121</ele>
        <time>2010-04-25T08:14:28Z</time>
      </trkpt>
      <trkpt lat="45.44584" lon="4.50245">
        <ele>497.107605</ele>
        <time>2010-04-25T08:14:33Z</time>
      </trkpt>
      <trkpt lat="45.44577" lon="4.50248">
        <ele>497.651184</ele>
        <time>2010-04-25T08:14:38Z</time>
      </trkpt>
      <trkpt lat="45.44571" lon="4.5025">
        <ele>498.111755</ele>
        <time>2010-04-25T08:14:43Z</time>
      </trkpt>
      <trkpt lat="45.44561" lon="4.50255">
        <ele>498.672485</ele>
        <time>2010-04-25T08:14:49Z</time>
      </trkpt>
      <trkpt lat="45.44554" lon="4.5026">
        <ele>498.886261</ele>
        <time>2010-04-25T08:14:54Z</time>
      </trkpt>
      <trkpt lat="45.44545" lon="4.50268">
        <ele>498.82251</ele>
        <time>2010-04-25T08:14:59Z</time>
      </trkpt>
      <trkpt lat="45.44537" lon="4.50272">
        <ele>499.452484</ele>
        <time>2010-04-25T08:15:05Z</time>
      </trkpt>
      <trkpt lat="45.4453" lon="4.50276">
        <ele>499.744995</ele>
        <time>2010-04-25T08:15:10Z</time>
      </trkpt>
      <trkpt lat="45.44522" lon="4.50282">
        <ele>499.827484</ele>
        <time>2010-04-25T08:15:15Z</time>
      </trkpt>
      <trkpt lat="45.44514" lon="4.50286">
        <ele>500.190765</ele>
        <time>2010-04-25T08:15:20Z</time>
      </trkpt>
      <trkpt lat="45.44505" lon="4.50289">
        <ele>500.93396</ele>
        <time>2010-04-25T08:15:25Z</time>
      </trkpt>
      <trkpt lat="45.44496" lon="4.50291">
        <ele>501.972992</ele>
        <time>2010-04-25T08:15:30Z</time>
      </trkpt>
      <trkpt lat="45.44485" lon="4.50295">
        <ele>502.683319</ele>
        <time>2010-04-25T08:15:35Z</time>
      </trkpt>
      <trkpt lat="45.44477" lon="4.50299">
        <ele>503.309082</ele>
        <time>2010-04-25T08:15:40Z</time>
      </trkpt>
      <trkpt lat="45.4447" lon="4.50301">
        <ele>503.910614</ele>
        <time>2010-04-25T08:15:45Z</time>
      </trkpt>
      <trkpt lat="45.44468" lon="4.50303">
        <ele>504.057617</ele>
        <time>2010-04-25T08:15:50Z</time>
      </trkpt>
      <trkpt lat="45.44466" lon="4.50305">
        <ele>504.258575</ele>
        <time>2010-04-25T08:15:58Z</time>
      </trkpt>
      <trkpt lat="45.44466" lon="4.50301">
        <ele>504.755859</ele>
        <time>2010-04-25T08:16:04Z</time>
      </trkpt>
      <trkpt lat="45.44459" lon="4.50306">
        <ele>505.593079</ele>
        <time>2010-04-25T08:16:11Z</time>
      </trkpt>
      <trkpt lat="45.44453" lon="4.50313">
        <ele>506.220123</ele>
        <time>2010-04-25T08:16:16Z</time>
      </trkpt>
      <trkpt lat="45.4445" lon="4.50324">
        <ele>506.167206</ele>
        <time>2010-04-25T08:16:21Z</time>
      </trkpt>
      <trkpt lat="45.44446" lon="4.50338">
        <ele>506.278412</ele>
        <time>2010-04-25T08:16:27Z</time>
      </trkpt>
      <trkpt lat="45.44442" lon="4.50354">
        <ele>506.300842</ele>
        <time>2010-04-25T08:16:32Z</time>
      </trkpt>
      <trkpt lat="45.44438" lon="4.50371">
        <ele>506.321259</ele>
        <time>2010-04-25T08:16:37Z</time>
      </trkpt>
      <trkpt lat="45.44434" lon="4.50383">
        <ele>506.787628</ele>
        <time>2010-04-25T08:16:42Z</time>
      </trkpt>
      <trkpt lat="45.44432" lon="4.50393">
        <ele>507.170471</ele>
        <time>2010-04-25T08:16:47Z</time>
      </trkpt>
      <trkpt lat="45.44428" lon="4.50403">
        <ele>507.768036</ele>
        <time>2010-04-25T08:16:52Z</time>
      </trkpt>
      <trkpt lat="45.44425" lon="4.50413">
        <ele>508.392487</ele>
        <time>2010-04-25T08:16:57Z</time>
      </trkpt>
      <trkpt lat="45.44421" lon="4.50424">
        <ele>509.167511</ele>
        <time>2010-04-25T08:17:02Z</time>
      </trkpt>
      <trkpt lat="45.44418" lon="4.50435">
        <ele>509.784698</ele>
        <time>2010-04-25T08:17:07Z</time>
      </trkpt>
      <trkpt lat="45.44414" lon="4.50449">
        <ele>509.847992</ele>
        <time>2010-04-25T08:17:12Z</time>
      </trkpt>
      <trkpt lat="45.4441" lon="4.50461">
        <ele>510.021606</ele>
        <time>2010-04-25T08:17:17Z</time>
      </trkpt>
      <trkpt lat="45.44407" lon="4.50473">
        <ele>510.029907</ele>
        <time>2010-04-25T08:17:22Z</time>
      </trkpt>
      <trkpt lat="45.44403" lon="4.50484">
        <ele>510.078125</ele>
        <time>2010-04-25T08:17:27Z</time>
      </trkpt>
      <trkpt lat="45.44397" lon="4.50495">
        <ele>510.780914</ele>
        <time>2010-04-25T08:17:33Z</time>
      </trkpt>
      <trkpt lat="45.44392" lon="4.50505">
        <ele>511.271149</ele>
        <time>2010-04-25T08:17:38Z</time>
      </trkpt>
      <trkpt lat="45.44386" lon="4.50514">
        <ele>511.618988</ele>
        <time>2010-04-25T08:17:43Z</time>
      </trkpt>
      <trkpt lat="45.44381" lon="4.5052">
        <ele>512.193054</ele>
        <time>2010-04-25T08:17:48Z</time>
      </trkpt>
      <trkpt lat="45.44374" lon="4.50527">
        <ele>512.897278</ele>
        <time>2010-04-25T08:17:53Z</time>
      </trkpt>
      <trkpt lat="45.44367" lon="4.50533">
        <ele>513.84137</ele>
        <time>2010-04-25T08:17:58Z</time>
      </trkpt>
      <trkpt lat="45.4436" lon="4.50539">
        <ele>514.568237</ele>
        <time>2010-04-25T08:18:03Z</time>
      </trkpt>
      <trkpt lat="45.44352" lon="4.50546">
        <ele>515.262268</ele>
        <time>2010-04-25T08:18:08Z</time>
      </trkpt>
      <trkpt lat="45.44344" lon="4.50553">
        <ele>515.923523</ele>
        <time>2010-04-25T08:18:13Z</time>
      </trkpt>
      <trkpt lat="45.44336" lon="4.50558">
        <ele>516.599121</ele>
        <time>2010-04-25T08:18:19Z</time>
      </trkpt>
      <trkpt lat="45.44331" lon="4.50563">
        <ele>516.474243</ele>
        <time>2010-04-25T08:18:24Z</time>
      </trkpt>
      <trkpt lat="45.44322" lon="4.50573">
        <ele>516.43158</ele>
        <time>2010-04-25T08:18:29Z</time>
      </trkpt>
      <trkpt lat="45.44314" lon="4.50576">
        <ele>517.355896</ele>
        <time>2010-04-25T08:18:34Z</time>
      </trkpt>
      <trkpt lat="45.44308" lon="4.50581">
        <ele>517.256836</ele>
        <time>2010-04-25T08:18:39Z</time>
      </trkpt>
      <trkpt lat="45.44299" lon="4.50594">
        <ele>516.469604</ele>
        <time>2010-04-25T08:18:45Z</time>
      </trkpt>
      <trkpt lat="45.44294" lon="4.50597">
        <ele>516.63147</ele>
        <time>2010-04-25T08:18:50Z</time>
      </trkpt>
      <trkpt lat="45.44286" lon="4.50605">
        <ele>516.401245</ele>
        <time>2010-04-25T08:18:55Z</time>
      </trkpt>
      <trkpt lat="45.44274" lon="4.5061">
        <ele>517.590027</ele>
        <time>2010-04-25T08:19:00Z</time>
      </trkpt>
      <trkpt lat="45.44259" lon="4.50624">
        <ele>517.958008</ele>
        <time>2010-04-25T08:19:05Z</time>
      </trkpt>
      <trkpt lat="45.44248" lon="4.50637">
        <ele>517.793823</ele>
        <time>2010-04-25T08:19:10Z</time>
      </trkpt>
      <trkpt lat="45.44242" lon="4.50643">
        <ele>517.861023</ele>
        <time>2010-04-25T08:19:15Z</time>
      </trkpt>
      <trkpt lat="45.44236" lon="4.50648">
        <ele>518.372681</ele>
        <time>2010-04-25T08:19:20Z</time>
      </trkpt>
      <trkpt lat="45.4423" lon="4.50649">
        <ele>519.666443</ele>
        <time>2010-04-25T08:19:27Z</time>
      </trkpt>
      <trkpt lat="45.44227" lon="4.50651">
        <ele>519.924255</ele>
        <time>2010-04-25T08:19:32Z</time>
      </trkpt>
      <trkpt lat="45.44224" lon="4.50651">
        <ele>520.758423</ele>
        <time>2010-04-25T08:19:40Z</time>
      </trkpt>
      <trkpt lat="45.44221" lon="4.50651">
        <ele>521.246399</ele>
        <time>2010-04-25T08:19:46Z</time>
      </trkpt>
      <trkpt lat="45.44219" lon="4.50651">
        <ele>521.922302</ele>
        <time>2010-04-25T08:19:53Z</time>
      </trkpt>
      <trkpt lat="45.44216" lon="4.5065">
        <ele>522.648682</ele>
        <time>2010-04-25T08:19:59Z</time>
      </trkpt>
      <trkpt lat="45.44212" lon="4.50651">
        <ele>523.403198</ele>
        <time>2010-04-25T08:20:08Z</time>
      </trkpt>
      <trkpt lat="45.44206" lon="4.50652">
        <ele>524.586182</ele>
        <time>2010-04-25T08:20:13Z</time>
      </trkpt>
      <trkpt lat="45.44201" lon="4.50655">
        <ele>525.244873</ele>
        <time>2010-04-25T08:20:19Z</time>
      </trkpt>
      <trkpt lat="45.44199" lon="4.50653">
        <ele>525.881042</ele>
        <time>2010-04-25T08:20:24Z</time>
      </trkpt>
      <trkpt lat="45.44196" lon="4.50653">
        <ele>526.76239</ele>
        <time>2010-04-25T08:20:29Z</time>
      </trkpt>
      <trkpt lat="45.44192" lon="4.50653">
        <ele>527.813782</ele>
        <time>2010-04-25T08:20:35Z</time>
      </trkpt>
      <trkpt lat="45.44188" lon="4.50653">
        <ele>528.830261</ele>
        <time>2010-04-25T08:20:42Z</time>
      </trkpt>
      <trkpt lat="45.44184" lon="4.50653">
        <ele>529.929443</ele>
        <time>2010-04-25T08:20:48Z</time>
      </trkpt>
      <trkpt lat="45.44182" lon="4.50654">
        <ele>530.304443</ele>
        <time>2010-04-25T08:20:54Z</time>
      </trkpt>
      <trkpt lat="45.44176" lon="4.50658">
        <ele>531.141541</ele>
        <time>2010-04-25T08:20:59Z</time>
      </trkpt>
      <trkpt lat="45.44171" lon="4.5066">
        <ele>532</ele>
        <time>2010-04-25T08:21:05Z</time>
      </trkpt>
      <trkpt lat="45.44159" lon="4.5068">
        <ele>530.407166</ele>
        <time>2010-04-25T08:21:10Z</time>
      </trkpt>
      <trkpt lat="45.44136" lon="4.50707">
        <ele>529.624512</ele>
        <time>2010-04-25T08:21:15Z</time>
      </trkpt>
      <trkpt lat="45.44113" lon="4.5072">
        <ele>531.529114</ele>
        <time>2010-04-25T08:21:20Z</time>
      </trkpt>
      <trkpt lat="45.44088" lon="4.50731">
        <ele>532.998718</ele>
        <time>2010-04-25T08:21:26Z</time>
      </trkpt>
      <trkpt lat="45.44067" lon="4.50742">
        <ele>533.071228</ele>
        <time>2010-04-25T08:21:31Z</time>
      </trkpt>
      <trkpt lat="45.44049" lon="4.50751">
        <ele>532.284363</ele>
        <time>2010-04-25T08:21:36Z</time>
      </trkpt>
      <trkpt lat="45.44027" lon="4.50763">
        <ele>530.860596</ele>
        <time>2010-04-25T08:21:41Z</time>
      </trkpt>
      <trkpt lat="45.44008" lon="4.50773">
        <ele>528.929382</ele>
        <time>2010-04-25T08:21:46Z</time>
      </trkpt>
      <trkpt lat="45.4399" lon="4.50773">
        <ele>528.761536</ele>
        <time>2010-04-25T08:21:51Z</time>
      </trkpt>
      <trkpt lat="45.43967" lon="4.50769">
        <ele>529.325684</ele>
        <time>2010-04-25T08:21:56Z</time>
      </trkpt>
      <trkpt lat="45.43941" lon="4.50754">
        <ele>528.120422</ele>
        <time>2010-04-25T08:22:01Z</time>
      </trkpt>
      <trkpt lat="45.43918" lon="4.50733">
        <ele>529.543091</ele>
        <time>2010-04-25T08:22:06Z</time>
      </trkpt>
      <trkpt lat="45.43896" lon="4.50711">
        <ele>526.264709</ele>
        <time>2010-04-25T08:22:11Z</time>
      </trkpt>
      <trkpt lat="45.4388" lon="4.50686">
        <ele>526.452393</ele>
        <time>2010-04-25T08:22:16Z</time>
      </trkpt>
      <trkpt lat="45.43866" lon="4.5066">
        <ele>526.052002</ele>
        <time>2010-04-25T08:22:21Z</time>
      </trkpt>
      <trkpt lat="45.43856" lon="4.50633">
        <ele>526.3526</ele>
        <time>2010-04-25T08:22:26Z</time>
      </trkpt>
      <trkpt lat="45.43835" lon="4.50618">
        <ele>521.015076</ele>
        <time>2010-04-25T08:22:31Z</time>
      </trkpt>
      <trkpt lat="45.43814" lon="4.50603">
        <ele>518.337524</ele>
        <time>2010-04-25T08:22:36Z</time>
      </trkpt>
      <trkpt lat="45.43794" lon="4.50583">
        <ele>519.996033</ele>
        <time>2010-04-25T08:22:41Z</time>
      </trkpt>
      <trkpt lat="45.43781" lon="4.50574">
        <ele>518.957214</ele>
        <time>2010-04-25T08:22:48Z</time>
      </trkpt>
      <trkpt lat="45.43775" lon="4.5057">
        <ele>518.573853</ele>
        <time>2010-04-25T08:22:54Z</time>
      </trkpt>
      <trkpt lat="45.43764" lon="4.50561">
        <ele>518.614807</ele>
        <time>2010-04-25T08:22:59Z</time>
      </trkpt>
      <trkpt lat="45.43746" lon="4.50551">
        <ele>517.12616</ele>
        <time>2010-04-25T08:23:04Z</time>
      </trkpt>
      <trkpt lat="45.43729" lon="4.50546">
        <ele>514.952271</ele>
        <time>2010-04-25T08:23:09Z</time>
      </trkpt>
      <trkpt lat="45.43707" lon="4.50533">
        <ele>513.163208</ele>
        <time>2010-04-25T08:23:14Z</time>
      </trkpt>
      <trkpt lat="45.43687" lon="4.50521">
        <ele>513.200623</ele>
        <time>2010-04-25T08:23:19Z</time>
      </trkpt>
      <trkpt lat="45.43661" lon="4.50505">
        <ele>513.877625</ele>
        <time>2010-04-25T08:23:24Z</time>
      </trkpt>
      <trkpt lat="45.43628" lon="4.505">
        <ele>513.803772</ele>
        <time>2010-04-25T08:23:29Z</time>
      </trkpt>
      <trkpt lat="45.43599" lon="4.50506">
        <ele>514.523254</ele>
        <time>2010-04-25T08:23:34Z</time>
      </trkpt>
      <trkpt lat="45.43591" lon="4.50517">
        <ele>515.714233</ele>
        <time>2010-04-25T08:23:39Z</time>
      </trkpt>
      <trkpt lat="45.43596" lon="4.50526">
        <ele>513.867859</ele>
        <time>2010-04-25T08:23:44Z</time>
      </trkpt>
      <trkpt lat="45.43605" lon="4.50535">
        <ele>513.202393</ele>
        <time>2010-04-25T08:23:49Z</time>
      </trkpt>
      <trkpt lat="45.43614" lon="4.50542">
        <ele>512.23468</ele>
        <time>2010-04-25T08:23:54Z</time>
      </trkpt>
      <trkpt lat="45.43624" lon="4.50552">
        <ele>512.822205</ele>
        <time>2010-04-25T08:23:59Z</time>
      </trkpt>
      <trkpt lat="45.4363" lon="4.50566">
        <ele>514.0401</ele>
        <time>2010-04-25T08:24:05Z</time>
      </trkpt>
      <trkpt lat="45.43634" lon="4.50573">
        <ele>514.378601</ele>
        <time>2010-04-25T08:24:10Z</time>
      </trkpt>
      <trkpt lat="45.43636" lon="4.50582">
        <ele>514.912903</ele>
        <time>2010-04-25T08:24:15Z</time>
      </trkpt>
      <trkpt lat="45.43639" lon="4.5059">
        <ele>514.996643</ele>
        <time>2010-04-25T08:24:20Z</time>
      </trkpt>
      <trkpt lat="45.43642" lon="4.50596">
        <ele>515.469177</ele>
        <time>2010-04-25T08:24:25Z</time>
      </trkpt>
      <trkpt lat="45.43646" lon="4.50604">
        <ele>516.144165</ele>
        <time>2010-04-25T08:24:31Z</time>
      </trkpt>
      <trkpt lat="45.43649" lon="4.50611">
        <ele>517.337708</ele>
        <time>2010-04-25T08:24:36Z</time>
      </trkpt>
      <trkpt lat="45.43651" lon="4.50619">
        <ele>518.332153</ele>
        <time>2010-04-25T08:24:41Z</time>
      </trkpt>
      <trkpt lat="45.43653" lon="4.50627">
        <ele>519.816345</ele>
        <time>2010-04-25T08:24:47Z</time>
      </trkpt>
      <trkpt lat="45.43657" lon="4.50632">
        <ele>520.007202</ele>
        <time>2010-04-25T08:24:53Z</time>
      </trkpt>
      <trkpt lat="45.43661" lon="4.50636">
        <ele>519.563721</ele>
        <time>2010-04-25T08:24:58Z</time>
      </trkpt>
      <trkpt lat="45.43666" lon="4.50641">
        <ele>519.319763</ele>
        <time>2010-04-25T08:25:03Z</time>
      </trkpt>
      <trkpt lat="45.43668" lon="4.50648">
        <ele>520.317139</ele>
        <time>2010-04-25T08:25:08Z</time>
      </trkpt>
      <trkpt lat="45.4367" lon="4.50655">
        <ele>521.247009</ele>
        <time>2010-04-25T08:25:13Z</time>
      </trkpt>
      <trkpt lat="45.43671" lon="4.50661">
        <ele>522.150208</ele>
        <time>2010-04-25T08:25:18Z</time>
      </trkpt>
      <trkpt lat="45.43674" lon="4.50668">
        <ele>522.491333</ele>
        <time>2010-04-25T08:25:23Z</time>
      </trkpt>
      <trkpt lat="45.43675" lon="4.50676">
        <ele>523.479248</ele>
        <time>2010-04-25T08:25:28Z</time>
      </trkpt>
      <trkpt lat="45.43678" lon="4.50685">
        <ele>524.285034</ele>
        <time>2010-04-25T08:25:34Z</time>
      </trkpt>
      <trkpt lat="45.43679" lon="4.50693">
        <ele>525.380615</ele>
        <time>2010-04-25T08:25:39Z</time>
      </trkpt>
      <trkpt lat="45.4368" lon="4.50702">
        <ele>526.866943</ele>
        <time>2010-04-25T08:25:45Z</time>
      </trkpt>
      <trkpt lat="45.43681" lon="4.50709">
        <ele>527.783081</ele>
        <time>2010-04-25T08:25:50Z</time>
      </trkpt>
      <trkpt lat="45.43681" lon="4.50719">
        <ele>529.865295</ele>
        <time>2010-04-25T08:25:55Z</time>
      </trkpt>
      <trkpt lat="45.43681" lon="4.50728">
        <ele>530.895813</ele>
        <time>2010-04-25T08:26:00Z</time>
      </trkpt>
      <trkpt lat="45.43681" lon="4.50738">
        <ele>532.115845</ele>
        <time>2010-04-25T08:26:05Z</time>
      </trkpt>
      <trkpt lat="45.43682" lon="4.50747">
        <ele>532.992676</ele>
        <time>2010-04-25T08:26:10Z</time>
      </trkpt>
      <trkpt lat="45.43683" lon="4.50753">
        <ele>533.336548</ele>
        <time>2010-04-25T08:26:16Z</time>
      </trkpt>
      <trkpt lat="45.43684" lon="4.5076">
        <ele>534.134338</ele>
        <time>2010-04-25T08:26:21Z</time>
      </trkpt>
      <trkpt lat="45.43682" lon="4.50767">
        <ele>535.3974</ele>
        <time>2010-04-25T08:26:27Z</time>
      </trkpt>
      <trkpt lat="45.43681" lon="4.5077">
        <ele>536.062683</ele>
        <time>2010-04-25T08:26:36Z</time>
      </trkpt>
      <trkpt lat="45.43682" lon="4.50774">
        <ele>536.444763</ele>
        <time>2010-04-25T08:26:41Z</time>
      </trkpt>
      <trkpt lat="45.43681" lon="4.50778">
        <ele>537.101563</ele>
        <time>2010-04-25T08:26:46Z</time>
      </trkpt>
      <trkpt lat="45.43681" lon="4.50785">
        <ele>537.867859</ele>
        <time>2010-04-25T08:26:52Z</time>
      </trkpt>
      <trkpt lat="45.4368" lon="4.50791">
        <ele>538.375366</ele>
        <time>2010-04-25T08:26:58Z</time>
      </trkpt>
      <trkpt lat="45.43679" lon="4.50797">
        <ele>538.860474</ele>
        <time>2010-04-25T08:27:06Z</time>
      </trkpt>
      <trkpt lat="45.43678" lon="4.50803">
        <ele>539.244324</ele>
        <time>2010-04-25T08:27:11Z</time>
      </trkpt>
      <trkpt lat="45.43678" lon="4.5081">
        <ele>539.540161</ele>
        <time>2010-04-25T08:27:17Z</time>
      </trkpt>
      <trkpt lat="45.43678" lon="4.50814">
        <ele>539.640137</ele>
        <time>2010-04-25T08:27:22Z</time>
      </trkpt>
      <trkpt lat="45.43678" lon="4.50818">
        <ele>539.878723</ele>
        <time>2010-04-25T08:27:27Z</time>
      </trkpt>
      <trkpt lat="45.43676" lon="4.50825">
        <ele>540.362061</ele>
        <time>2010-04-25T08:27:33Z</time>
      </trkpt>
      <trkpt lat="45.43674" lon="4.50831">
        <ele>541.020203</ele>
        <time>2010-04-25T08:27:39Z</time>
      </trkpt>
      <trkpt lat="45.43673" lon="4.50836">
        <ele>541.648804</ele>
        <time>2010-04-25T08:27:45Z</time>
      </trkpt>
      <trkpt lat="45.4367" lon="4.50843">
        <ele>542.367737</ele>
        <time>2010-04-25T08:27:51Z</time>
      </trkpt>
      <trkpt lat="45.43665" lon="4.5085">
        <ele>543.568237</ele>
        <time>2010-04-25T08:27:57Z</time>
      </trkpt>
      <trkpt lat="45.43663" lon="4.50856">
        <ele>543.701294</ele>
        <time>2010-04-25T08:28:02Z</time>
      </trkpt>
      <trkpt lat="45.43661" lon="4.50864">
        <ele>543.877563</ele>
        <time>2010-04-25T08:28:07Z</time>
      </trkpt>
      <trkpt lat="45.43659" lon="4.50869">
        <ele>543.905396</ele>
        <time>2010-04-25T08:28:14Z</time>
      </trkpt>
      <trkpt lat="45.43658" lon="4.50873">
        <ele>543.934448</ele>
        <time>2010-04-25T08:28:19Z</time>
      </trkpt>
      <trkpt lat="45.43655" lon="4.50883">
        <ele>544.051819</ele>
        <time>2010-04-25T08:28:24Z</time>
      </trkpt>
      <trkpt lat="45.4365" lon="4.50894">
        <ele>544.239624</ele>
        <time>2010-04-25T08:28:29Z</time>
      </trkpt>
      <trkpt lat="45.43645" lon="4.50905">
        <ele>544.327515</ele>
        <time>2010-04-25T08:28:34Z</time>
      </trkpt>
      <trkpt lat="45.43638" lon="4.50914">
        <ele>544.538513</ele>
        <time>2010-04-25T08:28:39Z</time>
      </trkpt>
      <trkpt lat="45.43628" lon="4.5092">
        <ele>545.009888</ele>
        <time>2010-04-25T08:28:44Z</time>
      </trkpt>
      <trkpt lat="45.4362" lon="4.50925">
        <ele>545.557922</ele>
        <time>2010-04-25T08:28:49Z</time>
      </trkpt>
      <trkpt lat="45.43605" lon="4.50925">
        <ele>547.615173</ele>
        <time>2010-04-25T08:28:59Z</time>
      </trkpt>
      <trkpt lat="45.43599" lon="4.50923">
        <ele>548.306274</ele>
        <time>2010-04-25T08:29:04Z</time>
      </trkpt>
      <trkpt lat="45.43592" lon="4.50922">
        <ele>548.965393</ele>
        <time>2010-04-25T08:29:09Z</time>
      </trkpt>
      <trkpt lat="45.43582" lon="4.50924">
        <ele>549.42041</ele>
        <time>2010-04-25T08:29:14Z</time>
      </trkpt>
      <trkpt lat="45.43572" lon="4.50928">
        <ele>549.395325</ele>
        <time>2010-04-25T08:29:19Z</time>
      </trkpt>
      <trkpt lat="45.4356" lon="4.50937">
        <ele>548.54541</ele>
        <time>2010-04-25T08:29:24Z</time>
      </trkpt>
      <trkpt lat="45.43545" lon="4.50948">
        <ele>548.342651</ele>
        <time>2010-04-25T08:29:29Z</time>
      </trkpt>
      <trkpt lat="45.43532" lon="4.50955">
        <ele>548.623169</ele>
        <time>2010-04-25T08:29:34Z</time>
      </trkpt>
      <trkpt lat="45.43521" lon="4.50959">
        <ele>549.218262</ele>
        <time>2010-04-25T08:29:39Z</time>
      </trkpt>
      <trkpt lat="45.4351" lon="4.50964">
        <ele>549.871521</ele>
        <time>2010-04-25T08:29:44Z</time>
      </trkpt>
      <trkpt lat="45.43499" lon="4.50969">
        <ele>550.50177</ele>
        <time>2010-04-25T08:29:49Z</time>
      </trkpt>
      <trkpt lat="45.43488" lon="4.50972">
        <ele>551.156921</ele>
        <time>2010-04-25T08:29:54Z</time>
      </trkpt>
      <trkpt lat="45.43479" lon="4.50976">
        <ele>551.463257</ele>
        <time>2010-04-25T08:29:59Z</time>
      </trkpt>
      <trkpt lat="45.43468" lon="4.50981">
        <ele>551.835022</ele>
        <time>2010-04-25T08:30:04Z</time>
      </trkpt>
      <trkpt lat="45.43456" lon="4.50985">
        <ele>552.565002</ele>
        <time>2010-04-25T08:30:09Z</time>
      </trkpt>
      <trkpt lat="45.43446" lon="4.50986">
        <ele>553.844971</ele>
        <time>2010-04-25T08:30:14Z</time>
      </trkpt>
      <trkpt lat="45.43434" lon="4.50987">
        <ele>555.202515</ele>
        <time>2010-04-25T08:30:19Z</time>
      </trkpt>
      <trkpt lat="45.43423" lon="4.50996">
        <ele>554.63855</ele>
        <time>2010-04-25T08:30:24Z</time>
      </trkpt>
      <trkpt lat="45.43412" lon="4.51004">
        <ele>554.529724</ele>
        <time>2010-04-25T08:30:29Z</time>
      </trkpt>
      <trkpt lat="45.43402" lon="4.5101">
        <ele>554.85083</ele>
        <time>2010-04-25T08:30:34Z</time>
      </trkpt>
      <trkpt lat="45.43396" lon="4.51018">
        <ele>554.126099</ele>
        <time>2010-04-25T08:30:39Z</time>
      </trkpt>
      <trkpt lat="45.43389" lon="4.51019">
        <ele>554.965088</ele>
        <time>2010-04-25T08:30:44Z</time>
      </trkpt>
      <trkpt lat="45.43379" lon="4.51025">
        <ele>555.646057</ele>
        <time>2010-04-25T08:30:49Z</time>
      </trkpt>
      <trkpt lat="45.43369" lon="4.5103">
        <ele>556.624695</ele>
        <time>2010-04-25T08:30:54Z</time>
      </trkpt>
      <trkpt lat="45.43357" lon="4.51037">
        <ele>557.242371</ele>
        <time>2010-04-25T08:30:59Z</time>
      </trkpt>
      <trkpt lat="45.43348" lon="4.51042">
        <ele>558.188782</ele>
        <time>2010-04-25T08:31:04Z</time>
      </trkpt>
      <trkpt lat="45.4334" lon="4.51047">
        <ele>558.32019</ele>
        <time>2010-04-25T08:31:09Z</time>
      </trkpt>
      <trkpt lat="45.43333" lon="4.51051">
        <ele>558.965027</ele>
        <time>2010-04-25T08:31:14Z</time>
      </trkpt>
      <trkpt lat="45.43327" lon="4.51054">
        <ele>558.590027</ele>
        <time>2010-04-25T08:31:19Z</time>
      </trkpt>
      <trkpt lat="45.4332" lon="4.51056">
        <ele>558.732483</ele>
        <time>2010-04-25T08:31:24Z</time>
      </trkpt>
      <trkpt lat="45.43312" lon="4.5106">
        <ele>558.580017</ele>
        <time>2010-04-25T08:31:29Z</time>
      </trkpt>
      <trkpt lat="45.43304" lon="4.51062">
        <ele>558.89502</ele>
        <time>2010-04-25T08:31:34Z</time>
      </trkpt>
      <trkpt lat="45.43296" lon="4.51062">
        <ele>559.8125</ele>
        <time>2010-04-25T08:31:39Z</time>
      </trkpt>
      <trkpt lat="45.43288" lon="4.51061">
        <ele>560.799988</ele>
        <time>2010-04-25T08:31:44Z</time>
      </trkpt>
      <trkpt lat="45.43281" lon="4.51058">
        <ele>561.747253</ele>
        <time>2010-04-25T08:31:49Z</time>
      </trkpt>
      <trkpt lat="45.43274" lon="4.51055">
        <ele>562.466003</ele>
        <time>2010-04-25T08:31:54Z</time>
      </trkpt>
      <trkpt lat="45.43267" lon="4.51053">
        <ele>563.300476</ele>
        <time>2010-04-25T08:31:59Z</time>
      </trkpt>
      <trkpt lat="45.43261" lon="4.51051">
        <ele>563.857056</ele>
        <time>2010-04-25T08:32:04Z</time>
      </trkpt>
      <trkpt lat="45.43255" lon="4.51049">
        <ele>564.503845</ele>
        <time>2010-04-25T08:32:09Z</time>
      </trkpt>
      <trkpt lat="45.43248" lon="4.51048">
        <ele>564.953857</ele>
        <time>2010-04-25T08:32:14Z</time>
      </trkpt>
      <trkpt lat="45.43241" lon="4.51045">
        <ele>565.690063</ele>
        <time>2010-04-25T08:32:19Z</time>
      </trkpt>
      <trkpt lat="45.43235" lon="4.51043">
        <ele>566.532043</ele>
        <time>2010-04-25T08:32:24Z</time>
      </trkpt>
      <trkpt lat="45.43229" lon="4.5104">
        <ele>567.40741</ele>
        <time>2010-04-25T08:32:29Z</time>
      </trkpt>
      <trkpt lat="45.43223" lon="4.51037">
        <ele>568.328857</ele>
        <time>2010-04-25T08:32:34Z</time>
      </trkpt>
      <trkpt lat="45.43216" lon="4.51034">
        <ele>569.117004</ele>
        <time>2010-04-25T08:32:39Z</time>
      </trkpt>
      <trkpt lat="45.4321" lon="4.51032">
        <ele>569.84314</ele>
        <time>2010-04-25T08:32:44Z</time>
      </trkpt>
      <trkpt lat="45.43204" lon="4.5103">
        <ele>570.600281</ele>
        <time>2010-04-25T08:32:49Z</time>
      </trkpt>
      <trkpt lat="45.43197" lon="4.51026">
        <ele>571.642456</ele>
        <time>2010-04-25T08:32:55Z</time>
      </trkpt>
      <trkpt lat="45.4319" lon="4.51024">
        <ele>572.644592</ele>
        <time>2010-04-25T08:33:00Z</time>
      </trkpt>
      <trkpt lat="45.43185" lon="4.51022">
        <ele>573.547974</ele>
        <time>2010-04-25T08:33:05Z</time>
      </trkpt>
      <trkpt lat="45.43179" lon="4.5102">
        <ele>574.308472</ele>
        <time>2010-04-25T08:33:10Z</time>
      </trkpt>
      <trkpt lat="45.43172" lon="4.5102">
        <ele>574.779968</ele>
        <time>2010-04-25T08:33:15Z</time>
      </trkpt>
      <trkpt lat="45.43166" lon="4.51019">
        <ele>575.307495</ele>
        <time>2010-04-25T08:33:20Z</time>
      </trkpt>
      <trkpt lat="45.4316" lon="4.51017">
        <ele>576.137512</ele>
        <time>2010-04-25T08:33:25Z</time>
      </trkpt>
      <trkpt lat="45.43154" lon="4.51015">
        <ele>576.962524</ele>
        <time>2010-04-25T08:33:31Z</time>
      </trkpt>
      <trkpt lat="45.43148" lon="4.51014">
        <ele>577.835022</ele>
        <time>2010-04-25T08:33:37Z</time>
      </trkpt>
      <trkpt lat="45.43142" lon="4.51014">
        <ele>578.54248</ele>
        <time>2010-04-25T08:33:43Z</time>
      </trkpt>
      <trkpt lat="45.43137" lon="4.51014">
        <ele>579.159973</ele>
        <time>2010-04-25T08:33:48Z</time>
      </trkpt>
      <trkpt lat="45.4313" lon="4.51014">
        <ele>579.752502</ele>
        <time>2010-04-25T08:33:54Z</time>
      </trkpt>
      <trkpt lat="45.43125" lon="4.51014">
        <ele>580.122498</ele>
        <time>2010-04-25T08:33:59Z</time>
      </trkpt>
      <trkpt lat="45.4312" lon="4.51014">
        <ele>580.742493</ele>
        <time>2010-04-25T08:34:04Z</time>
      </trkpt>
      <trkpt lat="45.43113" lon="4.51013">
        <ele>581.625</ele>
        <time>2010-04-25T08:34:10Z</time>
      </trkpt>
      <trkpt lat="45.43107" lon="4.51013">
        <ele>582.252258</ele>
        <time>2010-04-25T08:34:15Z</time>
      </trkpt>
      <trkpt lat="45.43102" lon="4.51012">
        <ele>582.91217</ele>
        <time>2010-04-25T08:34:20Z</time>
      </trkpt>
      <trkpt lat="45.43096" lon="4.51011">
        <ele>583.635986</ele>
        <time>2010-04-25T08:34:26Z</time>
      </trkpt>
      <trkpt lat="45.43091" lon="4.5101">
        <ele>584.37323</ele>
        <time>2010-04-25T08:34:32Z</time>
      </trkpt>
      <trkpt lat="45.43085" lon="4.51008">
        <ele>585.196594</ele>
        <time>2010-04-25T08:34:38Z</time>
      </trkpt>
      <trkpt lat="45.43081" lon="4.51007">
        <ele>585.973022</ele>
        <time>2010-04-25T08:34:44Z</time>
      </trkpt>
      <trkpt lat="45.43076" lon="4.51006">
        <ele>586.72229</ele>
        <time>2010-04-25T08:34:50Z</time>
      </trkpt>
      <trkpt lat="45.43071" lon="4.51004">
        <ele>587.549194</ele>
        <time>2010-04-25T08:34:56Z</time>
      </trkpt>
      <trkpt lat="45.43066" lon="4.51001">
        <ele>588.751465</ele>
        <time>2010-04-25T08:35:02Z</time>
      </trkpt>
      <trkpt lat="45.43061" lon="4.50999">
        <ele>589.324158</ele>
        <time>2010-04-25T08:35:07Z</time>
      </trkpt>
      <trkpt lat="45.43056" lon="4.50998">
        <ele>589.532898</ele>
        <time>2010-04-25T08:35:13Z</time>
      </trkpt>
      <trkpt lat="45.4305" lon="4.50995">
        <ele>590.05719</ele>
        <time>2010-04-25T08:35:19Z</time>
      </trkpt>
      <trkpt lat="45.43044" lon="4.50994">
        <ele>590.334229</ele>
        <time>2010-04-25T08:35:25Z</time>
      </trkpt>
      <trkpt lat="45.43039" lon="4.50992">
        <ele>590.835999</ele>
        <time>2010-04-25T08:35:30Z</time>
      </trkpt>
      <trkpt lat="45.43033" lon="4.50989">
        <ele>591.423096</ele>
        <time>2010-04-25T08:35:35Z</time>
      </trkpt>
      <trkpt lat="45.43026" lon="4.50987">
        <ele>592.097534</ele>
        <time>2010-04-25T08:35:40Z</time>
      </trkpt>
      <trkpt lat="45.43019" lon="4.50984">
        <ele>592.991394</ele>
        <time>2010-04-25T08:35:45Z</time>
      </trkpt>
      <trkpt lat="45.4301" lon="4.5098">
        <ele>594.864136</ele>
        <time>2010-04-25T08:35:50Z</time>
      </trkpt>
      <trkpt lat="45.43" lon="4.50978">
        <ele>596.201111</ele>
        <time>2010-04-25T08:35:55Z</time>
      </trkpt>
      <trkpt lat="45.4299" lon="4.50977">
        <ele>596.988159</ele>
        <time>2010-04-25T08:36:00Z</time>
      </trkpt>
      <trkpt lat="45.42981" lon="4.50978">
        <ele>597.429565</ele>
        <time>2010-04-25T08:36:05Z</time>
      </trkpt>
      <trkpt lat="45.42972" lon="4.50982">
        <ele>598.032288</ele>
        <time>2010-04-25T08:36:10Z</time>
      </trkpt>
      <trkpt lat="45.42966" lon="4.50988">
        <ele>599.179199</ele>
        <time>2010-04-25T08:36:15Z</time>
      </trkpt>
      <trkpt lat="45.4296" lon="4.50997">
        <ele>599.779663</ele>
        <time>2010-04-25T08:36:20Z</time>
      </trkpt>
      <trkpt lat="45.42956" lon="4.51005">
        <ele>600.427734</ele>
        <time>2010-04-25T08:36:25Z</time>
      </trkpt>
      <trkpt lat="45.42952" lon="4.51014">
        <ele>600.88269</ele>
        <time>2010-04-25T08:36:30Z</time>
      </trkpt>
      <trkpt lat="45.4295" lon="4.51022">
        <ele>601.445984</ele>
        <time>2010-04-25T08:36:35Z</time>
      </trkpt>
      <trkpt lat="45.42949" lon="4.51031">
        <ele>601.690491</ele>
        <time>2010-04-25T08:36:40Z</time>
      </trkpt>
      <trkpt lat="45.42947" lon="4.51039">
        <ele>601.821533</ele>
        <time>2010-04-25T08:36:45Z</time>
      </trkpt>
      <trkpt lat="45.42946" lon="4.51048">
        <ele>601.934143</ele>
        <time>2010-04-25T08:36:50Z</time>
      </trkpt>
      <trkpt lat="45.42945" lon="4.51056">
        <ele>602.197693</ele>
        <time>2010-04-25T08:36:55Z</time>
      </trkpt>
      <trkpt lat="45.42944" lon="4.51065">
        <ele>602.253235</ele>
        <time>2010-04-25T08:37:00Z</time>
      </trkpt>
      <trkpt lat="45.42942" lon="4.51076">
        <ele>602.629761</ele>
        <time>2010-04-25T08:37:05Z</time>
      </trkpt>
      <trkpt lat="45.42939" lon="4.51086">
        <ele>602.638306</ele>
        <time>2010-04-25T08:37:10Z</time>
      </trkpt>
      <trkpt lat="45.42937" lon="4.51098">
        <ele>602.630127</ele>
        <time>2010-04-25T08:37:15Z</time>
      </trkpt>
      <trkpt lat="45.42933" lon="4.5111">
        <ele>602.91095</ele>
        <time>2010-04-25T08:37:21Z</time>
      </trkpt>
      <trkpt lat="45.42926" lon="4.51118">
        <ele>604.454285</ele>
        <time>2010-04-25T08:37:26Z</time>
      </trkpt>
      <trkpt lat="45.42916" lon="4.5113">
        <ele>604.789612</ele>
        <time>2010-04-25T08:37:31Z</time>
      </trkpt>
      <trkpt lat="45.42906" lon="4.51143">
        <ele>604.116272</ele>
        <time>2010-04-25T08:37:36Z</time>
      </trkpt>
      <trkpt lat="45.42895" lon="4.51156">
        <ele>602.588745</ele>
        <time>2010-04-25T08:37:41Z</time>
      </trkpt>
      <trkpt lat="45.42881" lon="4.51166">
        <ele>601.911255</ele>
        <time>2010-04-25T08:37:46Z</time>
      </trkpt>
      <trkpt lat="45.42865" lon="4.51177">
        <ele>601.232483</ele>
        <time>2010-04-25T08:37:51Z</time>
      </trkpt>
      <trkpt lat="45.42848" lon="4.51182">
        <ele>601.755005</ele>
        <time>2010-04-25T08:37:56Z</time>
      </trkpt>
      <trkpt lat="45.42833" lon="4.51184">
        <ele>602.950439</ele>
        <time>2010-04-25T08:38:01Z</time>
      </trkpt>
      <trkpt lat="45.4282" lon="4.51184">
        <ele>603.027954</ele>
        <time>2010-04-25T08:38:06Z</time>
      </trkpt>
      <trkpt lat="45.42806" lon="4.51183">
        <ele>603.373474</ele>
        <time>2010-04-25T08:38:11Z</time>
      </trkpt>
      <trkpt lat="45.42793" lon="4.51181">
        <ele>603.911072</ele>
        <time>2010-04-25T08:38:16Z</time>
      </trkpt>
      <trkpt lat="45.4278" lon="4.51178">
        <ele>603.73053</ele>
        <time>2010-04-25T08:38:21Z</time>
      </trkpt>
      <trkpt lat="45.42765" lon="4.5117">
        <ele>603.885315</ele>
        <time>2010-04-25T08:38:26Z</time>
      </trkpt>
      <trkpt lat="45.42748" lon="4.51158">
        <ele>604.753296</ele>
        <time>2010-04-25T08:38:31Z</time>
      </trkpt>
      <trkpt lat="45.42732" lon="4.5114">
        <ele>604.940002</ele>
        <time>2010-04-25T08:38:36Z</time>
      </trkpt>
      <trkpt lat="45.42718" lon="4.51124">
        <ele>604.954224</ele>
        <time>2010-04-25T08:38:41Z</time>
      </trkpt>
      <trkpt lat="45.42702" lon="4.51107">
        <ele>605.13208</ele>
        <time>2010-04-25T08:38:46Z</time>
      </trkpt>
      <trkpt lat="45.42684" lon="4.5109">
        <ele>605.111694</ele>
        <time>2010-04-25T08:38:51Z</time>
      </trkpt>
      <trkpt lat="45.42666" lon="4.51073">
        <ele>605.391602</ele>
        <time>2010-04-25T08:38:56Z</time>
      </trkpt>
      <trkpt lat="45.42651" lon="4.51057">
        <ele>605.964722</ele>
        <time>2010-04-25T08:39:01Z</time>
      </trkpt>
      <trkpt lat="45.42639" lon="4.51041">
        <ele>606.486267</ele>
        <time>2010-04-25T08:39:06Z</time>
      </trkpt>
      <trkpt lat="45.4263" lon="4.51026">
        <ele>607.276794</ele>
        <time>2010-04-25T08:39:11Z</time>
      </trkpt>
      <trkpt lat="45.42623" lon="4.51014">
        <ele>608.323303</ele>
        <time>2010-04-25T08:39:16Z</time>
      </trkpt>
      <trkpt lat="45.42619" lon="4.51003">
        <ele>609.3703</ele>
        <time>2010-04-25T08:39:21Z</time>
      </trkpt>
      <trkpt lat="45.42613" lon="4.50993">
        <ele>609.704529</ele>
        <time>2010-04-25T08:39:26Z</time>
      </trkpt>
      <trkpt lat="45.42606" lon="4.50983">
        <ele>610.23114</ele>
        <time>2010-04-25T08:39:31Z</time>
      </trkpt>
      <trkpt lat="45.42598" lon="4.50971">
        <ele>610.642334</ele>
        <time>2010-04-25T08:39:36Z</time>
      </trkpt>
      <trkpt lat="45.42588" lon="4.50959">
        <ele>610.513245</ele>
        <time>2010-04-25T08:39:41Z</time>
      </trkpt>
      <trkpt lat="45.42575" lon="4.50945">
        <ele>610.343567</ele>
        <time>2010-04-25T08:39:46Z</time>
      </trkpt>
      <trkpt lat="45.42561" lon="4.5093">
        <ele>610.514771</ele>
        <time>2010-04-25T08:39:51Z</time>
      </trkpt>
      <trkpt lat="45.42548" lon="4.50917">
        <ele>611.170593</ele>
        <time>2010-04-25T08:39:56Z</time>
      </trkpt>
      <trkpt lat="45.42535" lon="4.50904">
        <ele>612.19989</ele>
        <time>2010-04-25T08:40:01Z</time>
      </trkpt>
      <trkpt lat="45.4252" lon="4.50893">
        <ele>613.533691</ele>
        <time>2010-04-25T08:40:06Z</time>
      </trkpt>
      <trkpt lat="45.42502" lon="4.5089">
        <ele>614.691406</ele>
        <time>2010-04-25T08:40:11Z</time>
      </trkpt>
      <trkpt lat="45.42487" lon="4.50894">
        <ele>613.656494</ele>
        <time>2010-04-25T08:40:16Z</time>
      </trkpt>
      <trkpt lat="45.42475" lon="4.50899">
        <ele>612.869263</ele>
        <time>2010-04-25T08:40:21Z</time>
      </trkpt>
      <trkpt lat="45.42465" lon="4.50903">
        <ele>613.581909</ele>
        <time>2010-04-25T08:40:26Z</time>
      </trkpt>
      <trkpt lat="45.42455" lon="4.50905">
        <ele>614.815796</ele>
        <time>2010-04-25T08:40:31Z</time>
      </trkpt>
      <trkpt lat="45.42447" lon="4.50906">
        <ele>616.297424</ele>
        <time>2010-04-25T08:40:36Z</time>
      </trkpt>
      <trkpt lat="45.42439" lon="4.50906">
        <ele>617.833435</ele>
        <time>2010-04-25T08:40:41Z</time>
      </trkpt>
      <trkpt lat="45.42434" lon="4.50907">
        <ele>618.807739</ele>
        <time>2010-04-25T08:40:46Z</time>
      </trkpt>
      <trkpt lat="45.42427" lon="4.50908">
        <ele>619.831726</ele>
        <time>2010-04-25T08:40:51Z</time>
      </trkpt>
      <trkpt lat="45.42422" lon="4.50908">
        <ele>620.921326</ele>
        <time>2010-04-25T08:40:56Z</time>
      </trkpt>
      <trkpt lat="45.42415" lon="4.50909">
        <ele>622.272705</ele>
        <time>2010-04-25T08:41:02Z</time>
      </trkpt>
      <trkpt lat="45.42409" lon="4.50909">
        <ele>623.369629</ele>
        <time>2010-04-25T08:41:08Z</time>
      </trkpt>
      <trkpt lat="45.42403" lon="4.5091">
        <ele>624.617554</ele>
        <time>2010-04-25T08:41:13Z</time>
      </trkpt>
      <trkpt lat="45.42396" lon="4.50914">
        <ele>625.063843</ele>
        <time>2010-04-25T08:41:18Z</time>
      </trkpt>
      <trkpt lat="45.4239" lon="4.50918">
        <ele>625.442444</ele>
        <time>2010-04-25T08:41:23Z</time>
      </trkpt>
      <trkpt lat="45.42382" lon="4.50923">
        <ele>624.855835</ele>
        <time>2010-04-25T08:41:28Z</time>
      </trkpt>
      <trkpt lat="45.42376" lon="4.50924">
        <ele>625.177063</ele>
        <time>2010-04-25T08:41:33Z</time>
      </trkpt>
      <trkpt lat="45.42371" lon="4.50924">
        <ele>625.447083</ele>
        <time>2010-04-25T08:41:38Z</time>
      </trkpt>
      <trkpt lat="45.42366" lon="4.50926">
        <ele>625.338745</ele>
        <time>2010-04-25T08:41:43Z</time>
      </trkpt>
      <trkpt lat="45.4236" lon="4.50929">
        <ele>625.177551</ele>
        <time>2010-04-25T08:41:48Z</time>
      </trkpt>
      <trkpt lat="45.4235" lon="4.50925">
        <ele>626.412659</ele>
        <time>2010-04-25T08:41:53Z</time>
      </trkpt>
      <trkpt lat="45.42342" lon="4.50917">
        <ele>626.661194</ele>
        <time>2010-04-25T08:41:58Z</time>
      </trkpt>
      <trkpt lat="45.42339" lon="4.50906">
        <ele>626.490051</ele>
        <time>2010-04-25T08:42:03Z</time>
      </trkpt>
      <trkpt lat="45.42336" lon="4.50894">
        <ele>625.840515</ele>
        <time>2010-04-25T08:42:08Z</time>
      </trkpt>
      <trkpt lat="45.42333" lon="4.50881">
        <ele>625.503601</ele>
        <time>2010-04-25T08:42:13Z</time>
      </trkpt>
      <trkpt lat="45.42331" lon="4.50869">
        <ele>625.421631</ele>
        <time>2010-04-25T08:42:18Z</time>
      </trkpt>
      <trkpt lat="45.42332" lon="4.50856">
        <ele>626.4151</ele>
        <time>2010-04-25T08:42:23Z</time>
      </trkpt>
      <trkpt lat="45.42337" lon="4.50847">
        <ele>629.252136</ele>
        <time>2010-04-25T08:42:28Z</time>
      </trkpt>
      <trkpt lat="45.4234" lon="4.50838">
        <ele>631.347229</ele>
        <time>2010-04-25T08:42:33Z</time>
      </trkpt>
      <trkpt lat="45.4234" lon="4.50826">
        <ele>632.452942</ele>
        <time>2010-04-25T08:42:38Z</time>
      </trkpt>
      <trkpt lat="45.4234" lon="4.50811">
        <ele>633.397705</ele>
        <time>2010-04-25T08:42:43Z</time>
      </trkpt>
      <trkpt lat="45.42339" lon="4.50796">
        <ele>634.329468</ele>
        <time>2010-04-25T08:42:48Z</time>
      </trkpt>
      <trkpt lat="45.42336" lon="4.50779">
        <ele>635.511597</ele>
        <time>2010-04-25T08:42:54Z</time>
      </trkpt>
      <trkpt lat="45.42331" lon="4.50766">
        <ele>636.010376</ele>
        <time>2010-04-25T08:42:59Z</time>
      </trkpt>
      <trkpt lat="45.42323" lon="4.50754">
        <ele>635.507202</ele>
        <time>2010-04-25T08:43:05Z</time>
      </trkpt>
      <trkpt lat="45.42311" lon="4.50743">
        <ele>634.731445</ele>
        <time>2010-04-25T08:43:10Z</time>
      </trkpt>
      <trkpt lat="45.42299" lon="4.50735">
        <ele>633.697632</ele>
        <time>2010-04-25T08:43:15Z</time>
      </trkpt>
      <trkpt lat="45.42285" lon="4.50729">
        <ele>632.646484</ele>
        <time>2010-04-25T08:43:21Z</time>
      </trkpt>
      <trkpt lat="45.42275" lon="4.50724">
        <ele>632.46228</ele>
        <time>2010-04-25T08:43:26Z</time>
      </trkpt>
      <trkpt lat="45.42267" lon="4.50719">
        <ele>632.611389</ele>
        <time>2010-04-25T08:43:31Z</time>
      </trkpt>
      <trkpt lat="45.42259" lon="4.50713">
        <ele>633.429993</ele>
        <time>2010-04-25T08:43:36Z</time>
      </trkpt>
      <trkpt lat="45.4225" lon="4.50706">
        <ele>634.762512</ele>
        <time>2010-04-25T08:43:42Z</time>
      </trkpt>
      <trkpt lat="45.42243" lon="4.50701">
        <ele>635.51001</ele>
        <time>2010-04-25T08:43:48Z</time>
      </trkpt>
      <trkpt lat="45.42236" lon="4.50696">
        <ele>636.058777</ele>
        <time>2010-04-25T08:43:54Z</time>
      </trkpt>
      <trkpt lat="45.42228" lon="4.50693">
        <ele>636.147522</ele>
        <time>2010-04-25T08:43:59Z</time>
      </trkpt>
      <trkpt lat="45.42221" lon="4.50689">
        <ele>636.36377</ele>
        <time>2010-04-25T08:44:04Z</time>
      </trkpt>
      <trkpt lat="45.42214" lon="4.50685">
        <ele>637.464111</ele>
        <time>2010-04-25T08:44:09Z</time>
      </trkpt>
      <trkpt lat="45.42205" lon="4.50678">
        <ele>641.98999</ele>
        <time>2010-04-25T08:44:14Z</time>
      </trkpt>
      <trkpt lat="45.42198" lon="4.50672">
        <ele>645.686035</ele>
        <time>2010-04-25T08:44:19Z</time>
      </trkpt>
      <trkpt lat="45.42191" lon="4.50678">
        <ele>645.802917</ele>
        <time>2010-04-25T08:44:24Z</time>
      </trkpt>
      <trkpt lat="45.42186" lon="4.50686">
        <ele>645.109985</ele>
        <time>2010-04-25T08:44:29Z</time>
      </trkpt>
      <trkpt lat="45.42184" lon="4.50695">
        <ele>644.04126</ele>
        <time>2010-04-25T08:44:34Z</time>
      </trkpt>
      <trkpt lat="45.4218" lon="4.50702">
        <ele>643.65448</ele>
        <time>2010-04-25T08:44:39Z</time>
      </trkpt>
      <trkpt lat="45.42175" lon="4.50712">
        <ele>643.700928</ele>
        <time>2010-04-25T08:44:45Z</time>
      </trkpt>
      <trkpt lat="45.4217" lon="4.50719">
        <ele>644.677734</ele>
        <time>2010-04-25T08:44:50Z</time>
      </trkpt>
      <trkpt lat="45.42164" lon="4.50725">
        <ele>645.425842</ele>
        <time>2010-04-25T08:44:55Z</time>
      </trkpt>
      <trkpt lat="45.42157" lon="4.50731">
        <ele>645.627258</ele>
        <time>2010-04-25T08:45:01Z</time>
      </trkpt>
      <trkpt lat="45.42152" lon="4.50736">
        <ele>645.747681</ele>
        <time>2010-04-25T08:45:06Z</time>
      </trkpt>
      <trkpt lat="45.42147" lon="4.50741">
        <ele>645.688049</ele>
        <time>2010-04-25T08:45:11Z</time>
      </trkpt>
      <trkpt lat="45.42141" lon="4.50746">
        <ele>645.716675</ele>
        <time>2010-04-25T08:45:16Z</time>
      </trkpt>
      <trkpt lat="45.42135" lon="4.50751">
        <ele>646.126282</ele>
        <time>2010-04-25T08:45:21Z</time>
      </trkpt>
      <trkpt lat="45.42129" lon="4.50751">
        <ele>648.206177</ele>
        <time>2010-04-25T08:45:26Z</time>
      </trkpt>
      <trkpt lat="45.42122" lon="4.5075">
        <ele>650.352356</ele>
        <time>2010-04-25T08:45:31Z</time>
      </trkpt>
      <trkpt lat="45.42115" lon="4.50749">
        <ele>651.307922</ele>
        <time>2010-04-25T08:45:36Z</time>
      </trkpt>
      <trkpt lat="45.42107" lon="4.50748">
        <ele>652.589233</ele>
        <time>2010-04-25T08:45:41Z</time>
      </trkpt>
      <trkpt lat="45.421" lon="4.50748">
        <ele>653.305176</ele>
        <time>2010-04-25T08:45:46Z</time>
      </trkpt>
      <trkpt lat="45.42093" lon="4.50747">
        <ele>654.471497</ele>
        <time>2010-04-25T08:45:51Z</time>
      </trkpt>
      <trkpt lat="45.42086" lon="4.50746">
        <ele>655.557007</ele>
        <time>2010-04-25T08:45:56Z</time>
      </trkpt>
      <trkpt lat="45.42079" lon="4.50744">
        <ele>656.846802</ele>
        <time>2010-04-25T08:46:01Z</time>
      </trkpt>
      <trkpt lat="45.42073" lon="4.5074">
        <ele>657.77002</ele>
        <time>2010-04-25T08:46:06Z</time>
      </trkpt>
      <trkpt lat="45.42066" lon="4.50737">
        <ele>658.284973</ele>
        <time>2010-04-25T08:46:11Z</time>
      </trkpt>
      <trkpt lat="45.42058" lon="4.50734">
        <ele>658.794983</ele>
        <time>2010-04-25T08:46:16Z</time>
      </trkpt>
      <trkpt lat="45.4205" lon="4.5073">
        <ele>659.835022</ele>
        <time>2010-04-25T08:46:22Z</time>
      </trkpt>
      <trkpt lat="45.42043" lon="4.50725">
        <ele>660.849976</ele>
        <time>2010-04-25T08:46:27Z</time>
      </trkpt>
      <trkpt lat="45.42037" lon="4.50721">
        <ele>661.88501</ele>
        <time>2010-04-25T08:46:32Z</time>
      </trkpt>
      <trkpt lat="45.4203" lon="4.50716">
        <ele>662.507751</ele>
        <time>2010-04-25T08:46:37Z</time>
      </trkpt>
      <trkpt lat="45.42022" lon="4.50711">
        <ele>663.157043</ele>
        <time>2010-04-25T08:46:43Z</time>
      </trkpt>
      <trkpt lat="45.42015" lon="4.50706">
        <ele>663.619019</ele>
        <time>2010-04-25T08:46:49Z</time>
      </trkpt>
      <trkpt lat="45.42008" lon="4.50703">
        <ele>663.695557</ele>
        <time>2010-04-25T08:46:54Z</time>
      </trkpt>
      <trkpt lat="45.42001" lon="4.507">
        <ele>663.877502</ele>
        <time>2010-04-25T08:46:59Z</time>
      </trkpt>
      <trkpt lat="45.41995" lon="4.50696">
        <ele>664.348877</ele>
        <time>2010-04-25T08:47:04Z</time>
      </trkpt>
      <trkpt lat="45.41988" lon="4.50691">
        <ele>665.169739</ele>
        <time>2010-04-25T08:47:09Z</time>
      </trkpt>
      <trkpt lat="45.41981" lon="4.50687">
        <ele>665.732544</ele>
        <time>2010-04-25T08:47:14Z</time>
      </trkpt>
      <trkpt lat="45.41973" lon="4.50681">
        <ele>666.599792</ele>
        <time>2010-04-25T08:47:19Z</time>
      </trkpt>
      <trkpt lat="45.41964" lon="4.50677">
        <ele>667.087097</ele>
        <time>2010-04-25T08:47:24Z</time>
      </trkpt>
      <trkpt lat="45.41956" lon="4.50672">
        <ele>667.699341</ele>
        <time>2010-04-25T08:47:29Z</time>
      </trkpt>
      <trkpt lat="45.41949" lon="4.50669">
        <ele>668.177124</ele>
        <time>2010-04-25T08:47:34Z</time>
      </trkpt>
      <trkpt lat="45.41941" lon="4.50665">
        <ele>669.228271</ele>
        <time>2010-04-25T08:47:39Z</time>
      </trkpt>
      <trkpt lat="45.41932" lon="4.50662">
        <ele>670.495605</ele>
        <time>2010-04-25T08:47:45Z</time>
      </trkpt>
      <trkpt lat="45.41924" lon="4.50659">
        <ele>671.6427</ele>
        <time>2010-04-25T08:47:50Z</time>
      </trkpt>
      <trkpt lat="45.41916" lon="4.50658">
        <ele>672.153625</ele>
        <time>2010-04-25T08:47:55Z</time>
      </trkpt>
      <trkpt lat="45.41908" lon="4.50657">
        <ele>672.456421</ele>
        <time>2010-04-25T08:48:00Z</time>
      </trkpt>
      <trkpt lat="45.41899" lon="4.50659">
        <ele>671.936707</ele>
        <time>2010-04-25T08:48:05Z</time>
      </trkpt>
      <trkpt lat="45.41888" lon="4.5066">
        <ele>673.145813</ele>
        <time>2010-04-25T08:48:11Z</time>
      </trkpt>
      <trkpt lat="45.4188" lon="4.50661">
        <ele>673.873352</ele>
        <time>2010-04-25T08:48:16Z</time>
      </trkpt>
      <trkpt lat="45.41872" lon="4.50663">
        <ele>674.107178</ele>
        <time>2010-04-25T08:48:21Z</time>
      </trkpt>
      <trkpt lat="45.41864" lon="4.50665">
        <ele>674.484253</ele>
        <time>2010-04-25T08:48:26Z</time>
      </trkpt>
      <trkpt lat="45.41856" lon="4.50667">
        <ele>674.801514</ele>
        <time>2010-04-25T08:48:31Z</time>
      </trkpt>
      <trkpt lat="45.41848" lon="4.50669">
        <ele>675.273621</ele>
        <time>2010-04-25T08:48:36Z</time>
      </trkpt>
      <trkpt lat="45.41841" lon="4.50669">
        <ele>676.439392</ele>
        <time>2010-04-25T08:48:41Z</time>
      </trkpt>
      <trkpt lat="45.41833" lon="4.50671">
        <ele>676.871399</ele>
        <time>2010-04-25T08:48:46Z</time>
      </trkpt>
      <trkpt lat="45.41827" lon="4.50672">
        <ele>677.77063</ele>
        <time>2010-04-25T08:48:51Z</time>
      </trkpt>
      <trkpt lat="45.41821" lon="4.50673">
        <ele>678.357056</ele>
        <time>2010-04-25T08:48:56Z</time>
      </trkpt>
      <trkpt lat="45.41816" lon="4.50672">
        <ele>679.640686</ele>
        <time>2010-04-25T08:49:01Z</time>
      </trkpt>
      <trkpt lat="45.41808" lon="4.50672">
        <ele>680.651917</ele>
        <time>2010-04-25T08:49:07Z</time>
      </trkpt>
      <trkpt lat="45.41803" lon="4.50673">
        <ele>681.179016</ele>
        <time>2010-04-25T08:49:12Z</time>
      </trkpt>
      <trkpt lat="45.41795" lon="4.50674">
        <ele>681.77301</ele>
        <time>2010-04-25T08:49:18Z</time>
      </trkpt>
      <trkpt lat="45.4179" lon="4.50672">
        <ele>683.435913</ele>
        <time>2010-04-25T08:49:23Z</time>
      </trkpt>
      <trkpt lat="45.41784" lon="4.50674">
        <ele>683.717224</ele>
        <time>2010-04-25T08:49:28Z</time>
      </trkpt>
      <trkpt lat="45.41776" lon="4.50678">
        <ele>683.377075</ele>
        <time>2010-04-25T08:49:34Z</time>
      </trkpt>
      <trkpt lat="45.4177" lon="4.50679">
        <ele>683.926453</ele>
        <time>2010-04-25T08:49:39Z</time>
      </trkpt>
      <trkpt lat="45.41764" lon="4.50682">
        <ele>683.635193</ele>
        <time>2010-04-25T08:49:44Z</time>
      </trkpt>
      <trkpt lat="45.41757" lon="4.50683">
        <ele>683.734985</ele>
        <time>2010-04-25T08:49:49Z</time>
      </trkpt>
      <trkpt lat="45.41752" lon="4.50683">
        <ele>684.361023</ele>
        <time>2010-04-25T08:49:54Z</time>
      </trkpt>
      <trkpt lat="45.41746" lon="4.50682">
        <ele>685.107727</ele>
        <time>2010-04-25T08:49:59Z</time>
      </trkpt>
      <trkpt lat="45.4174" lon="4.50682">
        <ele>685.460938</ele>
        <time>2010-04-25T08:50:04Z</time>
      </trkpt>
      <trkpt lat="45.41734" lon="4.50682">
        <ele>686.113281</ele>
        <time>2010-04-25T08:50:09Z</time>
      </trkpt>
      <trkpt lat="45.41727" lon="4.5068">
        <ele>687.173279</ele>
        <time>2010-04-25T08:50:15Z</time>
      </trkpt>
      <trkpt lat="45.4172" lon="4.5068">
        <ele>687.747375</ele>
        <time>2010-04-25T08:50:20Z</time>
      </trkpt>
      <trkpt lat="45.41713" lon="4.5068">
        <ele>687.854614</ele>
        <time>2010-04-25T08:50:25Z</time>
      </trkpt>
      <trkpt lat="45.41706" lon="4.50678">
        <ele>688.521301</ele>
        <time>2010-04-25T08:50:31Z</time>
      </trkpt>
      <trkpt lat="45.417" lon="4.50674">
        <ele>689.66571</ele>
        <time>2010-04-25T08:50:36Z</time>
      </trkpt>
      <trkpt lat="45.41693" lon="4.5067">
        <ele>690.889099</ele>
        <time>2010-04-25T08:50:41Z</time>
      </trkpt>
      <trkpt lat="45.41686" lon="4.50666">
        <ele>692.155701</ele>
        <time>2010-04-25T08:50:47Z</time>
      </trkpt>
      <trkpt lat="45.4168" lon="4.50663">
        <ele>693.104858</ele>
        <time>2010-04-25T08:50:52Z</time>
      </trkpt>
      <trkpt lat="45.41675" lon="4.5066">
        <ele>693.967468</ele>
        <time>2010-04-25T08:50:57Z</time>
      </trkpt>
      <trkpt lat="45.41668" lon="4.50657">
        <ele>693.971924</ele>
        <time>2010-04-25T08:51:02Z</time>
      </trkpt>
      <trkpt lat="45.41662" lon="4.50654">
        <ele>693.913025</ele>
        <time>2010-04-25T08:51:07Z</time>
      </trkpt>
      <trkpt lat="45.41655" lon="4.50651">
        <ele>694.136902</ele>
        <time>2010-04-25T08:51:12Z</time>
      </trkpt>
      <trkpt lat="45.4165" lon="4.50646">
        <ele>694.820557</ele>
        <time>2010-04-25T08:51:17Z</time>
      </trkpt>
      <trkpt lat="45.41643" lon="4.5064">
        <ele>695.828308</ele>
        <time>2010-04-25T08:51:23Z</time>
      </trkpt>
      <trkpt lat="45.41636" lon="4.50634">
        <ele>696.605469</ele>
        <time>2010-04-25T08:51:29Z</time>
      </trkpt>
      <trkpt lat="45.4163" lon="4.5063">
        <ele>697.005005</ele>
        <time>2010-04-25T08:51:34Z</time>
      </trkpt>
      <trkpt lat="45.41624" lon="4.50625">
        <ele>697.219971</ele>
        <time>2010-04-25T08:51:39Z</time>
      </trkpt>
      <trkpt lat="45.41618" lon="4.50619">
        <ele>697.557495</ele>
        <time>2010-04-25T08:51:44Z</time>
      </trkpt>
      <trkpt lat="45.41611" lon="4.50614">
        <ele>697.637512</ele>
        <time>2010-04-25T08:51:49Z</time>
      </trkpt>
      <trkpt lat="45.41604" lon="4.50608">
        <ele>698.057495</ele>
        <time>2010-04-25T08:51:54Z</time>
      </trkpt>
      <trkpt lat="45.41597" lon="4.50602">
        <ele>698.537537</ele>
        <time>2010-04-25T08:51:59Z</time>
      </trkpt>
      <trkpt lat="45.4159" lon="4.50596">
        <ele>698.877502</ele>
        <time>2010-04-25T08:52:04Z</time>
      </trkpt>
      <trkpt lat="45.41583" lon="4.50589">
        <ele>699.327515</ele>
        <time>2010-04-25T08:52:09Z</time>
      </trkpt>
      <trkpt lat="45.41576" lon="4.50583">
        <ele>699.515137</ele>
        <time>2010-04-25T08:52:14Z</time>
      </trkpt>
      <trkpt lat="45.41569" lon="4.50577">
        <ele>699.578979</ele>
        <time>2010-04-25T08:52:19Z</time>
      </trkpt>
      <trkpt lat="45.41562" lon="4.5057">
        <ele>699.273438</ele>
        <time>2010-04-25T08:52:24Z</time>
      </trkpt>
      <trkpt lat="45.41555" lon="4.50564">
        <ele>698.623413</ele>
        <time>2010-04-25T08:52:29Z</time>
      </trkpt>
      <trkpt lat="45.41548" lon="4.50557">
        <ele>698.175171</ele>
        <time>2010-04-25T08:52:34Z</time>
      </trkpt>
      <trkpt lat="45.41543" lon="4.50548">
        <ele>698.370361</ele>
        <time>2010-04-25T08:52:39Z</time>
      </trkpt>
      <trkpt lat="45.41539" lon="4.50537">
        <ele>698.776245</ele>
        <time>2010-04-25T08:52:44Z</time>
      </trkpt>
      <trkpt lat="45.41535" lon="4.50531">
        <ele>698.131226</ele>
        <time>2010-04-25T08:52:50Z</time>
      </trkpt>
      <trkpt lat="45.41532" lon="4.50518">
        <ele>698.614197</ele>
        <time>2010-04-25T08:52:55Z</time>
      </trkpt>
      <trkpt lat="45.41528" lon="4.50498">
        <ele>698.30603</ele>
        <time>2010-04-25T08:53:00Z</time>
      </trkpt>
      <trkpt lat="45.41525" lon="4.50472">
        <ele>697.224915</ele>
        <time>2010-04-25T08:53:05Z</time>
      </trkpt>
      <trkpt lat="45.41525" lon="4.5045">
        <ele>697.260498</ele>
        <time>2010-04-25T08:53:10Z</time>
      </trkpt>
      <trkpt lat="45.41526" lon="4.50421">
        <ele>695.783508</ele>
        <time>2010-04-25T08:53:15Z</time>
      </trkpt>
      <trkpt lat="45.41527" lon="4.50381">
        <ele>693.367615</ele>
        <time>2010-04-25T08:53:20Z</time>
      </trkpt>
      <trkpt lat="45.41529" lon="4.50323">
        <ele>689.769226</ele>
        <time>2010-04-25T08:53:25Z</time>
      </trkpt>
      <trkpt lat="45.41531" lon="4.50258">
        <ele>685.502625</ele>
        <time>2010-04-25T08:53:30Z</time>
      </trkpt>
      <trkpt lat="45.4153" lon="4.50204">
        <ele>680.001892</ele>
        <time>2010-04-25T08:53:35Z</time>
      </trkpt>
      <trkpt lat="45.4154" lon="4.50144">
        <ele>681.790955</ele>
        <time>2010-04-25T08:53:40Z</time>
      </trkpt>
      <trkpt lat="45.41533" lon="4.50098">
        <ele>683.428162</ele>
        <time>2010-04-25T08:53:45Z</time>
      </trkpt>
      <trkpt lat="45.4151" lon="4.50068">
        <ele>680.129395</ele>
        <time>2010-04-25T08:53:50Z</time>
      </trkpt>
      <trkpt lat="45.41486" lon="4.50037">
        <ele>678.377502</ele>
        <time>2010-04-25T08:53:55Z</time>
      </trkpt>
      <trkpt lat="45.4146" lon="4.5">
        <ele>677.271423</ele>
        <time>2010-04-25T08:54:00Z</time>
      </trkpt>
      <trkpt lat="45.41442" lon="4.49967">
        <ele>678.015198</ele>
        <time>2010-04-25T08:54:05Z</time>
      </trkpt>
      <trkpt lat="45.41426" lon="4.49939">
        <ele>678.939026</ele>
        <time>2010-04-25T08:54:10Z</time>
      </trkpt>
      <trkpt lat="45.41413" lon="4.49914">
        <ele>680.119324</ele>
        <time>2010-04-25T08:54:15Z</time>
      </trkpt>
      <trkpt lat="45.41398" lon="4.49888">
        <ele>680.765686</ele>
        <time>2010-04-25T08:54:20Z</time>
      </trkpt>
      <trkpt lat="45.41382" lon="4.49871">
        <ele>679.083435</ele>
        <time>2010-04-25T08:54:25Z</time>
      </trkpt>
      <trkpt lat="45.41372" lon="4.49855">
        <ele>681.89856</ele>
        <time>2010-04-25T08:54:30Z</time>
      </trkpt>
      <trkpt lat="45.4136" lon="4.49842">
        <ele>686.223572</ele>
        <time>2010-04-25T08:54:35Z</time>
      </trkpt>
      <trkpt lat="45.41348" lon="4.49837">
        <ele>687.936401</ele>
        <time>2010-04-25T08:54:40Z</time>
      </trkpt>
      <trkpt lat="45.41342" lon="4.49841">
        <ele>687.758789</ele>
        <time>2010-04-25T08:54:45Z</time>
      </trkpt>
      <trkpt lat="45.4134" lon="4.49849">
        <ele>687.009155</ele>
        <time>2010-04-25T08:54:50Z</time>
      </trkpt>
      <trkpt lat="45.41339" lon="4.49858">
        <ele>686.100159</ele>
        <time>2010-04-25T08:54:55Z</time>
      </trkpt>
      <trkpt lat="45.41336" lon="4.49865">
        <ele>685.754395</ele>
        <time>2010-04-25T08:55:00Z</time>
      </trkpt>
      <trkpt lat="45.41335" lon="4.49873">
        <ele>685.410034</ele>
        <time>2010-04-25T08:55:05Z</time>
      </trkpt>
      <trkpt lat="45.41333" lon="4.49881">
        <ele>685.115784</ele>
        <time>2010-04-25T08:55:10Z</time>
      </trkpt>
      <trkpt lat="45.41333" lon="4.4989">
        <ele>684.608337</ele>
        <time>2010-04-25T08:55:16Z</time>
      </trkpt>
      <trkpt lat="45.41331" lon="4.49898">
        <ele>684.618896</ele>
        <time>2010-04-25T08:55:21Z</time>
      </trkpt>
      <trkpt lat="45.41328" lon="4.49906">
        <ele>685.782471</ele>
        <time>2010-04-25T08:55:27Z</time>
      </trkpt>
      <trkpt lat="45.41325" lon="4.49915">
        <ele>686.48999</ele>
        <time>2010-04-25T08:55:32Z</time>
      </trkpt>
      <trkpt lat="45.41324" lon="4.49924">
        <ele>686.469971</ele>
        <time>2010-04-25T08:55:37Z</time>
      </trkpt>
      <trkpt lat="45.41321" lon="4.4993">
        <ele>687.583923</ele>
        <time>2010-04-25T08:55:43Z</time>
      </trkpt>
      <trkpt lat="45.41318" lon="4.49939">
        <ele>688.371399</ele>
        <time>2010-04-25T08:55:48Z</time>
      </trkpt>
      <trkpt lat="45.41315" lon="4.49946">
        <ele>688.873535</ele>
        <time>2010-04-25T08:55:53Z</time>
      </trkpt>
      <trkpt lat="45.41311" lon="4.49957">
        <ele>689.831177</ele>
        <time>2010-04-25T08:55:59Z</time>
      </trkpt>
      <trkpt lat="45.41308" lon="4.49964">
        <ele>690.401672</ele>
        <time>2010-04-25T08:56:04Z</time>
      </trkpt>
      <trkpt lat="45.41305" lon="4.49968">
        <ele>691.195801</ele>
        <time>2010-04-25T08:56:09Z</time>
      </trkpt>
      <trkpt lat="45.41302" lon="4.49975">
        <ele>691.561401</ele>
        <time>2010-04-25T08:56:14Z</time>
      </trkpt>
      <trkpt lat="45.41298" lon="4.49983">
        <ele>691.934814</ele>
        <time>2010-04-25T08:56:19Z</time>
      </trkpt>
      <trkpt lat="45.4129" lon="4.49991">
        <ele>693.588989</ele>
        <time>2010-04-25T08:56:24Z</time>
      </trkpt>
      <trkpt lat="45.41281" lon="4.49998">
        <ele>695.049988</ele>
        <time>2010-04-25T08:56:29Z</time>
      </trkpt>
      <trkpt lat="45.41274" lon="4.49999">
        <ele>696.570007</ele>
        <time>2010-04-25T08:56:34Z</time>
      </trkpt>
      <trkpt lat="45.41268" lon="4.49997">
        <ele>698.47998</ele>
        <time>2010-04-25T08:56:40Z</time>
      </trkpt>
      <trkpt lat="45.41262" lon="4.49998">
        <ele>699.890015</ele>
        <time>2010-04-25T08:56:46Z</time>
      </trkpt>
      <trkpt lat="45.41257" lon="4.49999">
        <ele>700.880005</ele>
        <time>2010-04-25T08:56:52Z</time>
      </trkpt>
      <trkpt lat="45.41252" lon="4.50001">
        <ele>701.789978</ele>
        <time>2010-04-25T08:56:58Z</time>
      </trkpt>
      <trkpt lat="45.41247" lon="4.50005">
        <ele>701.969971</ele>
        <time>2010-04-25T08:57:03Z</time>
      </trkpt>
      <trkpt lat="45.41241" lon="4.50007">
        <ele>702.98999</ele>
        <time>2010-04-25T08:57:09Z</time>
      </trkpt>
      <trkpt lat="45.41235" lon="4.50009">
        <ele>703.989685</ele>
        <time>2010-04-25T08:57:15Z</time>
      </trkpt>
      <trkpt lat="45.41229" lon="4.50012">
        <ele>704.86676</ele>
        <time>2010-04-25T08:57:20Z</time>
      </trkpt>
      <trkpt lat="45.41223" lon="4.50016">
        <ele>705.493774</ele>
        <time>2010-04-25T08:57:26Z</time>
      </trkpt>
      <trkpt lat="45.41218" lon="4.5002">
        <ele>705.910828</ele>
        <time>2010-04-25T08:57:31Z</time>
      </trkpt>
      <trkpt lat="45.41212" lon="4.50024">
        <ele>706.492371</ele>
        <time>2010-04-25T08:57:36Z</time>
      </trkpt>
      <trkpt lat="45.41206" lon="4.50029">
        <ele>707.074219</ele>
        <time>2010-04-25T08:57:41Z</time>
      </trkpt>
      <trkpt lat="45.41201" lon="4.50033">
        <ele>707.47876</ele>
        <time>2010-04-25T08:57:46Z</time>
      </trkpt>
      <trkpt lat="45.41195" lon="4.50036">
        <ele>708.714233</ele>
        <time>2010-04-25T08:57:51Z</time>
      </trkpt>
      <trkpt lat="45.4119" lon="4.5004">
        <ele>709.23407</ele>
        <time>2010-04-25T08:57:57Z</time>
      </trkpt>
      <trkpt lat="45.41185" lon="4.50043">
        <ele>710.143433</ele>
        <time>2010-04-25T08:58:03Z</time>
      </trkpt>
      <trkpt lat="45.4118" lon="4.50042">
        <ele>712.003479</ele>
        <time>2010-04-25T08:58:09Z</time>
      </trkpt>
      <trkpt lat="45.41174" lon="4.50043">
        <ele>713.494568</ele>
        <time>2010-04-25T08:58:15Z</time>
      </trkpt>
      <trkpt lat="45.41168" lon="4.50046">
        <ele>714.923096</ele>
        <time>2010-04-25T08:58:21Z</time>
      </trkpt>
      <trkpt lat="45.41163" lon="4.50048">
        <ele>715.859985</ele>
        <time>2010-04-25T08:58:27Z</time>
      </trkpt>
      <trkpt lat="45.41158" lon="4.50052">
        <ele>716.61499</ele>
        <time>2010-04-25T08:58:33Z</time>
      </trkpt>
      <trkpt lat="45.41153" lon="4.50055">
        <ele>717.554993</ele>
        <time>2010-04-25T08:58:39Z</time>
      </trkpt>
      <trkpt lat="45.41148" lon="4.50059">
        <ele>718.405029</ele>
        <time>2010-04-25T08:58:45Z</time>
      </trkpt>
      <trkpt lat="45.41143" lon="4.50062">
        <ele>718.930054</ele>
        <time>2010-04-25T08:58:50Z</time>
      </trkpt>
      <trkpt lat="45.41138" lon="4.50063">
        <ele>719.729858</ele>
        <time>2010-04-25T08:58:56Z</time>
      </trkpt>
      <trkpt lat="45.41133" lon="4.50065">
        <ele>720.259216</ele>
        <time>2010-04-25T08:59:02Z</time>
      </trkpt>
      <trkpt lat="45.41128" lon="4.50067">
        <ele>720.907288</ele>
        <time>2010-04-25T08:59:08Z</time>
      </trkpt>
      <trkpt lat="45.41123" lon="4.50071">
        <ele>721.182007</ele>
        <time>2010-04-25T08:59:14Z</time>
      </trkpt>
      <trkpt lat="45.41117" lon="4.50074">
        <ele>721.733032</ele>
        <time>2010-04-25T08:59:19Z</time>
      </trkpt>
      <trkpt lat="45.4111" lon="4.50078">
        <ele>722.490845</ele>
        <time>2010-04-25T08:59:24Z</time>
      </trkpt>
      <trkpt lat="45.41103" lon="4.50084">
        <ele>722.970337</ele>
        <time>2010-04-25T08:59:29Z</time>
      </trkpt>
      <trkpt lat="45.41093" lon="4.50091">
        <ele>722.00061</ele>
        <time>2010-04-25T08:59:34Z</time>
      </trkpt>
      <trkpt lat="45.41085" lon="4.50093">
        <ele>721.746521</ele>
        <time>2010-04-25T08:59:39Z</time>
      </trkpt>
      <trkpt lat="45.41078" lon="4.50094">
        <ele>721.642212</ele>
        <time>2010-04-25T08:59:44Z</time>
      </trkpt>
      <trkpt lat="45.41068" lon="4.50096">
        <ele>721.522644</ele>
        <time>2010-04-25T08:59:50Z</time>
      </trkpt>
      <trkpt lat="45.41059" lon="4.50095">
        <ele>721.729797</ele>
        <time>2010-04-25T08:59:55Z</time>
      </trkpt>
      <trkpt lat="45.41043" lon="4.50091">
        <ele>719.867493</ele>
        <time>2010-04-25T09:00:00Z</time>
      </trkpt>
      <trkpt lat="45.41019" lon="4.50071">
        <ele>718.557495</ele>
        <time>2010-04-25T09:00:05Z</time>
      </trkpt>
      <trkpt lat="45.40992" lon="4.50038">
        <ele>716.443848</ele>
        <time>2010-04-25T09:00:10Z</time>
      </trkpt>
      <trkpt lat="45.40958" lon="4.50002">
        <ele>716.953857</ele>
        <time>2010-04-25T09:00:15Z</time>
      </trkpt>
      <trkpt lat="45.40921" lon="4.49982">
        <ele>715.387512</ele>
        <time>2010-04-25T09:00:20Z</time>
      </trkpt>
      <trkpt lat="45.4089" lon="4.49977">
        <ele>712.401855</ele>
        <time>2010-04-25T09:00:25Z</time>
      </trkpt>
      <trkpt lat="45.40863" lon="4.49974">
        <ele>710.348938</ele>
        <time>2010-04-25T09:00:30Z</time>
      </trkpt>
      <trkpt lat="45.40837" lon="4.49965">
        <ele>711.231995</ele>
        <time>2010-04-25T09:00:35Z</time>
      </trkpt>
      <trkpt lat="45.40813" lon="4.49955">
        <ele>711.108459</ele>
        <time>2010-04-25T09:00:40Z</time>
      </trkpt>
      <trkpt lat="45.40793" lon="4.4994">
        <ele>712.598572</ele>
        <time>2010-04-25T09:00:45Z</time>
      </trkpt>
      <trkpt lat="45.40772" lon="4.49924">
        <ele>710.673279</ele>
        <time>2010-04-25T09:00:50Z</time>
      </trkpt>
      <trkpt lat="45.40752" lon="4.49905">
        <ele>708.99585</ele>
        <time>2010-04-25T09:00:55Z</time>
      </trkpt>
      <trkpt lat="45.40739" lon="4.49883">
        <ele>708.932983</ele>
        <time>2010-04-25T09:01:00Z</time>
      </trkpt>
      <trkpt lat="45.40724" lon="4.4986">
        <ele>708.818542</ele>
        <time>2010-04-25T09:01:05Z</time>
      </trkpt>
      <trkpt lat="45.40713" lon="4.49837">
        <ele>710.904541</ele>
        <time>2010-04-25T09:01:10Z</time>
      </trkpt>
      <trkpt lat="45.40703" lon="4.49827">
        <ele>711.039429</ele>
        <time>2010-04-25T09:01:15Z</time>
      </trkpt>
      <trkpt lat="45.40693" lon="4.49821">
        <ele>711.74353</ele>
        <time>2010-04-25T09:01:20Z</time>
      </trkpt>
      <trkpt lat="45.40686" lon="4.49817">
        <ele>712.369568</ele>
        <time>2010-04-25T09:01:25Z</time>
      </trkpt>
      <trkpt lat="45.40678" lon="4.49817">
        <ele>711.694519</ele>
        <time>2010-04-25T09:01:30Z</time>
      </trkpt>
      <trkpt lat="45.40672" lon="4.49815">
        <ele>711.843872</ele>
        <time>2010-04-25T09:01:35Z</time>
      </trkpt>
      <trkpt lat="45.40666" lon="4.49812">
        <ele>711.981201</ele>
        <time>2010-04-25T09:01:40Z</time>
      </trkpt>
      <trkpt lat="45.40659" lon="4.49808">
        <ele>712.664734</ele>
        <time>2010-04-25T09:01:45Z</time>
      </trkpt>
      <trkpt lat="45.40652" lon="4.49804">
        <ele>712.961487</ele>
        <time>2010-04-25T09:01:50Z</time>
      </trkpt>
      <trkpt lat="45.40645" lon="4.49799">
        <ele>713.918823</ele>
        <time>2010-04-25T09:01:56Z</time>
      </trkpt>
      <trkpt lat="45.40639" lon="4.49792">
        <ele>715.290894</ele>
        <time>2010-04-25T09:02:02Z</time>
      </trkpt>
      <trkpt lat="45.40633" lon="4.49785">
        <ele>716.752258</ele>
        <time>2010-04-25T09:02:08Z</time>
      </trkpt>
      <trkpt lat="45.40627" lon="4.49781">
        <ele>716.739563</ele>
        <time>2010-04-25T09:02:13Z</time>
      </trkpt>
      <trkpt lat="45.40621" lon="4.49777">
        <ele>717.240417</ele>
        <time>2010-04-25T09:02:18Z</time>
      </trkpt>
      <trkpt lat="45.40615" lon="4.4977">
        <ele>718.186829</ele>
        <time>2010-04-25T09:02:23Z</time>
      </trkpt>
      <trkpt lat="45.4061" lon="4.49766">
        <ele>718.512024</ele>
        <time>2010-04-25T09:02:28Z</time>
      </trkpt>
      <trkpt lat="45.40605" lon="4.49763">
        <ele>718.663269</ele>
        <time>2010-04-25T09:02:33Z</time>
      </trkpt>
      <trkpt lat="45.40603" lon="4.4976">
        <ele>719.002869</ele>
        <time>2010-04-25T09:02:40Z</time>
      </trkpt>
      <trkpt lat="45.40601" lon="4.49757">
        <ele>719.673279</ele>
        <time>2010-04-25T09:02:45Z</time>
      </trkpt>
      <trkpt lat="45.40597" lon="4.49752">
        <ele>720.371033</ele>
        <time>2010-04-25T09:02:51Z</time>
      </trkpt>
      <trkpt lat="45.40595" lon="4.49748">
        <ele>721.025391</ele>
        <time>2010-04-25T09:02:56Z</time>
      </trkpt>
      <trkpt lat="45.40592" lon="4.49742">
        <ele>722.061584</ele>
        <time>2010-04-25T09:03:02Z</time>
      </trkpt>
      <trkpt lat="45.40589" lon="4.49738">
        <ele>722.857422</ele>
        <time>2010-04-25T09:03:08Z</time>
      </trkpt>
      <trkpt lat="45.40585" lon="4.49732">
        <ele>723.758911</ele>
        <time>2010-04-25T09:03:14Z</time>
      </trkpt>
      <trkpt lat="45.40581" lon="4.49727">
        <ele>724.210938</ele>
        <time>2010-04-25T09:03:20Z</time>
      </trkpt>
      <trkpt lat="45.40578" lon="4.49721">
        <ele>725.194336</ele>
        <time>2010-04-25T09:03:26Z</time>
      </trkpt>
      <trkpt lat="45.40573" lon="4.49714">
        <ele>726.05481</ele>
        <time>2010-04-25T09:03:31Z</time>
      </trkpt>
      <trkpt lat="45.40566" lon="4.49706">
        <ele>726.705933</ele>
        <time>2010-04-25T09:03:36Z</time>
      </trkpt>
      <trkpt lat="45.4056" lon="4.49697">
        <ele>727.085388</ele>
        <time>2010-04-25T09:03:41Z</time>
      </trkpt>
      <trkpt lat="45.40554" lon="4.49688">
        <ele>727.527344</ele>
        <time>2010-04-25T09:03:46Z</time>
      </trkpt>
      <trkpt lat="45.40549" lon="4.4968">
        <ele>728.015991</ele>
        <time>2010-04-25T09:03:51Z</time>
      </trkpt>
      <trkpt lat="45.40544" lon="4.49671">
        <ele>728.65033</ele>
        <time>2010-04-25T09:03:56Z</time>
      </trkpt>
      <trkpt lat="45.4054" lon="4.49661">
        <ele>729.653931</ele>
        <time>2010-04-25T09:04:01Z</time>
      </trkpt>
      <trkpt lat="45.40535" lon="4.4965">
        <ele>730.448669</ele>
        <time>2010-04-25T09:04:06Z</time>
      </trkpt>
      <trkpt lat="45.40531" lon="4.4964">
        <ele>731.464233</ele>
        <time>2010-04-25T09:04:11Z</time>
      </trkpt>
      <trkpt lat="45.40528" lon="4.49629">
        <ele>731.825317</ele>
        <time>2010-04-25T09:04:16Z</time>
      </trkpt>
      <trkpt lat="45.40524" lon="4.49617">
        <ele>732.055237</ele>
        <time>2010-04-25T09:04:21Z</time>
      </trkpt>
      <trkpt lat="45.40521" lon="4.49604">
        <ele>732.192322</ele>
        <time>2010-04-25T09:04:26Z</time>
      </trkpt>
      <trkpt lat="45.40519" lon="4.49591">
        <ele>732.750183</ele>
        <time>2010-04-25T09:04:31Z</time>
      </trkpt>
      <trkpt lat="45.40517" lon="4.49577">
        <ele>733.479187</ele>
        <time>2010-04-25T09:04:36Z</time>
      </trkpt>
      <trkpt lat="45.40515" lon="4.49564">
        <ele>733.471008</ele>
        <time>2010-04-25T09:04:41Z</time>
      </trkpt>
      <trkpt lat="45.40515" lon="4.49549">
        <ele>733.983154</ele>
        <time>2010-04-25T09:04:46Z</time>
      </trkpt>
      <trkpt lat="45.40514" lon="4.49535">
        <ele>734.146484</ele>
        <time>2010-04-25T09:04:51Z</time>
      </trkpt>
      <trkpt lat="45.40514" lon="4.4952">
        <ele>734.270386</ele>
        <time>2010-04-25T09:04:56Z</time>
      </trkpt>
      <trkpt lat="45.40513" lon="4.49501">
        <ele>734.295715</ele>
        <time>2010-04-25T09:05:01Z</time>
      </trkpt>
      <trkpt lat="45.40512" lon="4.4948">
        <ele>734.156799</ele>
        <time>2010-04-25T09:05:06Z</time>
      </trkpt>
      <trkpt lat="45.40513" lon="4.49456">
        <ele>734.346375</ele>
        <time>2010-04-25T09:05:11Z</time>
      </trkpt>
      <trkpt lat="45.40514" lon="4.49433">
        <ele>734.609131</ele>
        <time>2010-04-25T09:05:16Z</time>
      </trkpt>
      <trkpt lat="45.40516" lon="4.49411">
        <ele>734.709656</ele>
        <time>2010-04-25T09:05:21Z</time>
      </trkpt>
      <trkpt lat="45.40519" lon="4.49392">
        <ele>735.244995</ele>
        <time>2010-04-25T09:05:26Z</time>
      </trkpt>
      <trkpt lat="45.40522" lon="4.49369">
        <ele>736.078735</ele>
        <time>2010-04-25T09:05:31Z</time>
      </trkpt>
      <trkpt lat="45.40525" lon="4.49347">
        <ele>736.744995</ele>
        <time>2010-04-25T09:05:36Z</time>
      </trkpt>
      <trkpt lat="45.40526" lon="4.49322">
        <ele>736.494995</ele>
        <time>2010-04-25T09:05:41Z</time>
      </trkpt>
      <trkpt lat="45.40523" lon="4.49303">
        <ele>735.255554</ele>
        <time>2010-04-25T09:05:46Z</time>
      </trkpt>
      <trkpt lat="45.40522" lon="4.49288">
        <ele>734.873718</ele>
        <time>2010-04-25T09:05:51Z</time>
      </trkpt>
      <trkpt lat="45.40518" lon="4.49264">
        <ele>732.853088</ele>
        <time>2010-04-25T09:05:56Z</time>
      </trkpt>
      <trkpt lat="45.40515" lon="4.49229">
        <ele>731.25354</ele>
        <time>2010-04-25T09:06:01Z</time>
      </trkpt>
      <trkpt lat="45.40517" lon="4.49188">
        <ele>731.818604</ele>
        <time>2010-04-25T09:06:06Z</time>
      </trkpt>
      <trkpt lat="45.40513" lon="4.49156">
        <ele>727.53363</ele>
        <time>2010-04-25T09:06:11Z</time>
      </trkpt>
      <trkpt lat="45.4051" lon="4.49118">
        <ele>723.618774</ele>
        <time>2010-04-25T09:06:16Z</time>
      </trkpt>
      <trkpt lat="45.40506" lon="4.49067">
        <ele>717.477478</ele>
        <time>2010-04-25T09:06:21Z</time>
      </trkpt>
      <trkpt lat="45.40506" lon="4.49027">
        <ele>714.375</ele>
        <time>2010-04-25T09:06:26Z</time>
      </trkpt>
      <trkpt lat="45.40506" lon="4.49009">
        <ele>713.267517</ele>
        <time>2010-04-25T09:06:31Z</time>
      </trkpt>
      <trkpt lat="45.4051" lon="4.48985">
        <ele>713.496765</ele>
        <time>2010-04-25T09:06:36Z</time>
      </trkpt>
      <trkpt lat="45.40514" lon="4.48957">
        <ele>714.119446</ele>
        <time>2010-04-25T09:06:41Z</time>
      </trkpt>
      <trkpt lat="45.40518" lon="4.48927">
        <ele>714.501587</ele>
        <time>2010-04-25T09:06:46Z</time>
      </trkpt>
      <trkpt lat="45.40519" lon="4.48895">
        <ele>714.839233</ele>
        <time>2010-04-25T09:06:51Z</time>
      </trkpt>
      <trkpt lat="45.40512" lon="4.48866">
        <ele>714.342285</ele>
        <time>2010-04-25T09:06:56Z</time>
      </trkpt>
      <trkpt lat="45.40498" lon="4.4885">
        <ele>715.718384</ele>
        <time>2010-04-25T09:07:01Z</time>
      </trkpt>
      <trkpt lat="45.40484" lon="4.48841">
        <ele>717.18988</ele>
        <time>2010-04-25T09:07:06Z</time>
      </trkpt>
      <trkpt lat="45.40471" lon="4.48833">
        <ele>718.388367</ele>
        <time>2010-04-25T09:07:11Z</time>
      </trkpt>
      <trkpt lat="45.40458" lon="4.48827">
        <ele>718.552856</ele>
        <time>2010-04-25T09:07:16Z</time>
      </trkpt>
      <trkpt lat="45.40447" lon="4.48828">
        <ele>719.086914</ele>
        <time>2010-04-25T09:07:21Z</time>
      </trkpt>
      <trkpt lat="45.40435" lon="4.48836">
        <ele>720.989075</ele>
        <time>2010-04-25T09:07:26Z</time>
      </trkpt>
      <trkpt lat="45.40427" lon="4.48849">
        <ele>721.400635</ele>
        <time>2010-04-25T09:07:31Z</time>
      </trkpt>
      <trkpt lat="45.40422" lon="4.48866">
        <ele>720.42865</ele>
        <time>2010-04-25T09:07:36Z</time>
      </trkpt>
      <trkpt lat="45.4042" lon="4.48883">
        <ele>718.784607</ele>
        <time>2010-04-25T09:07:41Z</time>
      </trkpt>
      <trkpt lat="45.40416" lon="4.48902">
        <ele>718.369324</ele>
        <time>2010-04-25T09:07:46Z</time>
      </trkpt>
      <trkpt lat="45.40409" lon="4.48921">
        <ele>718.723694</ele>
        <time>2010-04-25T09:07:51Z</time>
      </trkpt>
      <trkpt lat="45.404" lon="4.48938">
        <ele>719.449463</ele>
        <time>2010-04-25T09:07:56Z</time>
      </trkpt>
      <trkpt lat="45.4039" lon="4.48952">
        <ele>719.678406</ele>
        <time>2010-04-25T09:08:01Z</time>
      </trkpt>
      <trkpt lat="45.40379" lon="4.48965">
        <ele>720.498779</ele>
        <time>2010-04-25T09:08:06Z</time>
      </trkpt>
      <trkpt lat="45.40371" lon="4.48976">
        <ele>721.72052</ele>
        <time>2010-04-25T09:08:11Z</time>
      </trkpt>
      <trkpt lat="45.40363" lon="4.48988">
        <ele>722.714905</ele>
        <time>2010-04-25T09:08:16Z</time>
      </trkpt>
      <trkpt lat="45.40356" lon="4.49001">
        <ele>722.907104</ele>
        <time>2010-04-25T09:08:21Z</time>
      </trkpt>
      <trkpt lat="45.40347" lon="4.49016">
        <ele>721.835815</ele>
        <time>2010-04-25T09:08:26Z</time>
      </trkpt>
      <trkpt lat="45.40339" lon="4.49031">
        <ele>721.239502</ele>
        <time>2010-04-25T09:08:31Z</time>
      </trkpt>
      <trkpt lat="45.4033" lon="4.49044">
        <ele>721.342957</ele>
        <time>2010-04-25T09:08:36Z</time>
      </trkpt>
      <trkpt lat="45.40319" lon="4.49052">
        <ele>723.342651</ele>
        <time>2010-04-25T09:08:41Z</time>
      </trkpt>
      <trkpt lat="45.40307" lon="4.49054">
        <ele>724.704346</ele>
        <time>2010-04-25T09:08:46Z</time>
      </trkpt>
      <trkpt lat="45.40295" lon="4.49052">
        <ele>723.954224</ele>
        <time>2010-04-25T09:08:51Z</time>
      </trkpt>
      <trkpt lat="45.40283" lon="4.49044">
        <ele>724.62323</ele>
        <time>2010-04-25T09:08:56Z</time>
      </trkpt>
      <trkpt lat="45.40274" lon="4.49032">
        <ele>726.672241</ele>
        <time>2010-04-25T09:09:01Z</time>
      </trkpt>
      <trkpt lat="45.40266" lon="4.49018">
        <ele>729.171814</ele>
        <time>2010-04-25T09:09:06Z</time>
      </trkpt>
      <trkpt lat="45.4026" lon="4.49002">
        <ele>730.756409</ele>
        <time>2010-04-25T09:09:11Z</time>
      </trkpt>
      <trkpt lat="45.40255" lon="4.48986">
        <ele>732.065002</ele>
        <time>2010-04-25T09:09:16Z</time>
      </trkpt>
      <trkpt lat="45.40249" lon="4.48967">
        <ele>732.366089</ele>
        <time>2010-04-25T09:09:22Z</time>
      </trkpt>
      <trkpt lat="45.40245" lon="4.48953">
        <ele>733.026672</ele>
        <time>2010-04-25T09:09:27Z</time>
      </trkpt>
      <trkpt lat="45.40242" lon="4.4894">
        <ele>733.426758</ele>
        <time>2010-04-25T09:09:32Z</time>
      </trkpt>
      <trkpt lat="45.40237" lon="4.48924">
        <ele>733.769714</ele>
        <time>2010-04-25T09:09:37Z</time>
      </trkpt>
      <trkpt lat="45.40232" lon="4.48908">
        <ele>734.685181</ele>
        <time>2010-04-25T09:09:42Z</time>
      </trkpt>
      <trkpt lat="45.40229" lon="4.48892">
        <ele>735.826843</ele>
        <time>2010-04-25T09:09:47Z</time>
      </trkpt>
      <trkpt lat="45.40225" lon="4.48876">
        <ele>736.462524</ele>
        <time>2010-04-25T09:09:52Z</time>
      </trkpt>
      <trkpt lat="45.40221" lon="4.48863">
        <ele>737.049988</ele>
        <time>2010-04-25T09:09:57Z</time>
      </trkpt>
      <trkpt lat="45.40215" lon="4.48851">
        <ele>738.678955</ele>
        <time>2010-04-25T09:10:02Z</time>
      </trkpt>
      <trkpt lat="45.40209" lon="4.4884">
        <ele>739.946472</ele>
        <time>2010-04-25T09:10:07Z</time>
      </trkpt>
      <trkpt lat="45.40202" lon="4.48829">
        <ele>740.480957</ele>
        <time>2010-04-25T09:10:12Z</time>
      </trkpt>
      <trkpt lat="45.40193" lon="4.48819">
        <ele>739.983643</ele>
        <time>2010-04-25T09:10:17Z</time>
      </trkpt>
      <trkpt lat="45.40185" lon="4.4881">
        <ele>739.02002</ele>
        <time>2010-04-25T09:10:22Z</time>
      </trkpt>
      <trkpt lat="45.40177" lon="4.48802">
        <ele>738.932495</ele>
        <time>2010-04-25T09:10:27Z</time>
      </trkpt>
      <trkpt lat="45.4017" lon="4.48792">
        <ele>740.137024</ele>
        <time>2010-04-25T09:10:32Z</time>
      </trkpt>
      <trkpt lat="45.40162" lon="4.48782">
        <ele>741.614746</ele>
        <time>2010-04-25T09:10:37Z</time>
      </trkpt>
      <trkpt lat="45.40154" lon="4.48772">
        <ele>742.85437</ele>
        <time>2010-04-25T09:10:42Z</time>
      </trkpt>
      <trkpt lat="45.40147" lon="4.48765">
        <ele>743.344543</ele>
        <time>2010-04-25T09:10:47Z</time>
      </trkpt>
      <trkpt lat="45.40141" lon="4.48759">
        <ele>743.838318</ele>
        <time>2010-04-25T09:10:52Z</time>
      </trkpt>
      <trkpt lat="45.40135" lon="4.48753">
        <ele>744.344971</ele>
        <time>2010-04-25T09:10:57Z</time>
      </trkpt>
      <trkpt lat="45.40129" lon="4.48746">
        <ele>745.526978</ele>
        <time>2010-04-25T09:11:02Z</time>
      </trkpt>
      <trkpt lat="45.40122" lon="4.4874">
        <ele>745.871643</ele>
        <time>2010-04-25T09:11:07Z</time>
      </trkpt>
      <trkpt lat="45.40116" lon="4.48733">
        <ele>746.293213</ele>
        <time>2010-04-25T09:11:12Z</time>
      </trkpt>
      <trkpt lat="45.4011" lon="4.48726">
        <ele>746.720276</ele>
        <time>2010-04-25T09:11:17Z</time>
      </trkpt>
      <trkpt lat="45.40105" lon="4.48718">
        <ele>748.029785</ele>
        <time>2010-04-25T09:11:22Z</time>
      </trkpt>
      <trkpt lat="45.40099" lon="4.48709">
        <ele>749.42511</ele>
        <time>2010-04-25T09:11:27Z</time>
      </trkpt>
      <trkpt lat="45.40091" lon="4.48703">
        <ele>750.539734</ele>
        <time>2010-04-25T09:11:32Z</time>
      </trkpt>
      <trkpt lat="45.40083" lon="4.48698">
        <ele>752.824768</ele>
        <time>2010-04-25T09:11:37Z</time>
      </trkpt>
      <trkpt lat="45.40075" lon="4.48693">
        <ele>754.241821</ele>
        <time>2010-04-25T09:11:42Z</time>
      </trkpt>
      <trkpt lat="45.40067" lon="4.48691">
        <ele>754.633667</ele>
        <time>2010-04-25T09:11:47Z</time>
      </trkpt>
      <trkpt lat="45.40057" lon="4.48697">
        <ele>754.462097</ele>
        <time>2010-04-25T09:11:52Z</time>
      </trkpt>
      <trkpt lat="45.40049" lon="4.48709">
        <ele>754.853821</ele>
        <time>2010-04-25T09:11:57Z</time>
      </trkpt>
      <trkpt lat="45.40045" lon="4.48722">
        <ele>756.231873</ele>
        <time>2010-04-25T09:12:02Z</time>
      </trkpt>
      <trkpt lat="45.40046" lon="4.48738">
        <ele>755.786011</ele>
        <time>2010-04-25T09:12:07Z</time>
      </trkpt>
      <trkpt lat="45.40049" lon="4.48757">
        <ele>754.865967</ele>
        <time>2010-04-25T09:12:12Z</time>
      </trkpt>
      <trkpt lat="45.40052" lon="4.48776">
        <ele>754.090637</ele>
        <time>2010-04-25T09:12:17Z</time>
      </trkpt>
      <trkpt lat="45.4005" lon="4.48796">
        <ele>753.85199</ele>
        <time>2010-04-25T09:12:22Z</time>
      </trkpt>
      <trkpt lat="45.40044" lon="4.48814">
        <ele>753.249634</ele>
        <time>2010-04-25T09:12:27Z</time>
      </trkpt>
      <trkpt lat="45.40032" lon="4.48826">
        <ele>754.399475</ele>
        <time>2010-04-25T09:12:32Z</time>
      </trkpt>
      <trkpt lat="45.40019" lon="4.48835">
        <ele>756.248352</ele>
        <time>2010-04-25T09:12:37Z</time>
      </trkpt>
      <trkpt lat="45.40006" lon="4.48844">
        <ele>757.887207</ele>
        <time>2010-04-25T09:12:42Z</time>
      </trkpt>
      <trkpt lat="45.39997" lon="4.48863">
        <ele>758.824341</ele>
        <time>2010-04-25T09:12:47Z</time>
      </trkpt>
      <trkpt lat="45.39995" lon="4.48884">
        <ele>759.19397</ele>
        <time>2010-04-25T09:12:52Z</time>
      </trkpt>
      <trkpt lat="45.39994" lon="4.48906">
        <ele>759.026306</ele>
        <time>2010-04-25T09:12:57Z</time>
      </trkpt>
      <trkpt lat="45.39989" lon="4.48926">
        <ele>759.389526</ele>
        <time>2010-04-25T09:13:02Z</time>
      </trkpt>
      <trkpt lat="45.39983" lon="4.48947">
        <ele>759.816406</ele>
        <time>2010-04-25T09:13:07Z</time>
      </trkpt>
      <trkpt lat="45.39975" lon="4.48965">
        <ele>760.736572</ele>
        <time>2010-04-25T09:13:12Z</time>
      </trkpt>
      <trkpt lat="45.39968" lon="4.4898">
        <ele>761.62677</ele>
        <time>2010-04-25T09:13:17Z</time>
      </trkpt>
      <trkpt lat="45.3996" lon="4.48994">
        <ele>762.429016</ele>
        <time>2010-04-25T09:13:22Z</time>
      </trkpt>
      <trkpt lat="45.39952" lon="4.49006">
        <ele>763.323242</ele>
        <time>2010-04-25T09:13:27Z</time>
      </trkpt>
      <trkpt lat="45.39946" lon="4.49015">
        <ele>763.494202</ele>
        <time>2010-04-25T09:13:32Z</time>
      </trkpt>
      <trkpt lat="45.3994" lon="4.49023">
        <ele>763.518311</ele>
        <time>2010-04-25T09:13:37Z</time>
      </trkpt>
      <trkpt lat="45.39931" lon="4.49029">
        <ele>764.049316</ele>
        <time>2010-04-25T09:13:47Z</time>
      </trkpt>
      <trkpt lat="45.39932" lon="4.49037">
        <ele>763.057983</ele>
        <time>2010-04-25T09:13:59Z</time>
      </trkpt>
      <trkpt lat="45.39949" lon="4.49092">
        <ele>750.397461</ele>
        <time>2010-04-25T09:14:05Z</time>
      </trkpt>
      <trkpt lat="45.39981" lon="4.49102">
        <ele>745.80426</ele>
        <time>2010-04-25T09:14:10Z</time>
      </trkpt>
      <trkpt lat="45.39994" lon="4.49131">
        <ele>740.56488</ele>
        <time>2010-04-25T09:14:15Z</time>
      </trkpt>
      <trkpt lat="45.3999" lon="4.49153">
        <ele>737.253662</ele>
        <time>2010-04-25T09:14:20Z</time>
      </trkpt>
      <trkpt lat="45.39968" lon="4.4915">
        <ele>736.899048</ele>
        <time>2010-04-25T09:14:25Z</time>
      </trkpt>
      <trkpt lat="45.39954" lon="4.49143">
        <ele>738.018066</ele>
        <time>2010-04-25T09:14:30Z</time>
      </trkpt>
      <trkpt lat="45.39936" lon="4.49138">
        <ele>737.532471</ele>
        <time>2010-04-25T09:14:35Z</time>
      </trkpt>
      <trkpt lat="45.39916" lon="4.49131">
        <ele>737.375244</ele>
        <time>2010-04-25T09:14:40Z</time>
      </trkpt>
      <trkpt lat="45.39899" lon="4.49123">
        <ele>737.86322</ele>
        <time>2010-04-25T09:14:45Z</time>
      </trkpt>
      <trkpt lat="45.39885" lon="4.49117">
        <ele>738.362549</ele>
        <time>2010-04-25T09:14:51Z</time>
      </trkpt>
      <trkpt lat="45.39876" lon="4.49114">
        <ele>737.93988</ele>
        <time>2010-04-25T09:14:56Z</time>
      </trkpt>
      <trkpt lat="45.39857" lon="4.49109">
        <ele>737.474243</ele>
        <time>2010-04-25T09:15:01Z</time>
      </trkpt>
      <trkpt lat="45.39824" lon="4.49097">
        <ele>734.994812</ele>
        <time>2010-04-25T09:15:06Z</time>
      </trkpt>
      <trkpt lat="45.39791" lon="4.49081">
        <ele>739.072205</ele>
        <time>2010-04-25T09:15:11Z</time>
      </trkpt>
      <trkpt lat="45.39783" lon="4.49108">
        <ele>734.274292</ele>
        <time>2010-04-25T09:15:16Z</time>
      </trkpt>
      <trkpt lat="45.39781" lon="4.49138">
        <ele>734.787903</ele>
        <time>2010-04-25T09:15:21Z</time>
      </trkpt>
      <trkpt lat="45.3978" lon="4.49164">
        <ele>735.502869</ele>
        <time>2010-04-25T09:15:26Z</time>
      </trkpt>
      <trkpt lat="45.39785" lon="4.49188">
        <ele>737.372375</ele>
        <time>2010-04-25T09:15:31Z</time>
      </trkpt>
      <trkpt lat="45.39792" lon="4.49207">
        <ele>737.664856</ele>
        <time>2010-04-25T09:15:36Z</time>
      </trkpt>
      <trkpt lat="45.39797" lon="4.49223">
        <ele>738.14563</ele>
        <time>2010-04-25T09:15:41Z</time>
      </trkpt>
      <trkpt lat="45.39802" lon="4.49236">
        <ele>738.583496</ele>
        <time>2010-04-25T09:15:46Z</time>
      </trkpt>
      <trkpt lat="45.39808" lon="4.4925">
        <ele>738.947327</ele>
        <time>2010-04-25T09:15:51Z</time>
      </trkpt>
      <trkpt lat="45.39813" lon="4.49262">
        <ele>738.971252</ele>
        <time>2010-04-25T09:15:56Z</time>
      </trkpt>
      <trkpt lat="45.39819" lon="4.49273">
        <ele>738.939392</ele>
        <time>2010-04-25T09:16:01Z</time>
      </trkpt>
      <trkpt lat="45.39825" lon="4.49285">
        <ele>738.960999</ele>
        <time>2010-04-25T09:16:06Z</time>
      </trkpt>
      <trkpt lat="45.39832" lon="4.49298">
        <ele>739.221741</ele>
        <time>2010-04-25T09:16:11Z</time>
      </trkpt>
      <trkpt lat="45.39838" lon="4.49308">
        <ele>739.216187</ele>
        <time>2010-04-25T09:16:16Z</time>
      </trkpt>
      <trkpt lat="45.39842" lon="4.49319">
        <ele>739.884705</ele>
        <time>2010-04-25T09:16:21Z</time>
      </trkpt>
      <trkpt lat="45.39846" lon="4.49329">
        <ele>740.562805</ele>
        <time>2010-04-25T09:16:26Z</time>
      </trkpt>
      <trkpt lat="45.39847" lon="4.49337">
        <ele>741.915527</ele>
        <time>2010-04-25T09:16:31Z</time>
      </trkpt>
      <trkpt lat="45.39849" lon="4.49347">
        <ele>743.330566</ele>
        <time>2010-04-25T09:16:36Z</time>
      </trkpt>
      <trkpt lat="45.39851" lon="4.49356">
        <ele>744.574463</ele>
        <time>2010-04-25T09:16:41Z</time>
      </trkpt>
      <trkpt lat="45.3985" lon="4.49365">
        <ele>746.339172</ele>
        <time>2010-04-25T09:16:46Z</time>
      </trkpt>
      <trkpt lat="45.3985" lon="4.49373">
        <ele>747.493591</ele>
        <time>2010-04-25T09:16:51Z</time>
      </trkpt>
      <trkpt lat="45.3985" lon="4.49382">
        <ele>748.901794</ele>
        <time>2010-04-25T09:16:56Z</time>
      </trkpt>
      <trkpt lat="45.3985" lon="4.49392">
        <ele>750.360229</ele>
        <time>2010-04-25T09:17:01Z</time>
      </trkpt>
      <trkpt lat="45.39851" lon="4.494">
        <ele>751.401001</ele>
        <time>2010-04-25T09:17:06Z</time>
      </trkpt>
      <trkpt lat="45.39851" lon="4.49406">
        <ele>752.148804</ele>
        <time>2010-04-25T09:17:11Z</time>
      </trkpt>
      <trkpt lat="45.3985" lon="4.49415">
        <ele>754.166504</ele>
        <time>2010-04-25T09:17:16Z</time>
      </trkpt>
      <trkpt lat="45.39849" lon="4.49423">
        <ele>755.456726</ele>
        <time>2010-04-25T09:17:21Z</time>
      </trkpt>
      <trkpt lat="45.39848" lon="4.4943">
        <ele>756.387939</ele>
        <time>2010-04-25T09:17:26Z</time>
      </trkpt>
      <trkpt lat="45.39848" lon="4.49438">
        <ele>757.436951</ele>
        <time>2010-04-25T09:17:31Z</time>
      </trkpt>
      <trkpt lat="45.39847" lon="4.49446">
        <ele>758.443726</ele>
        <time>2010-04-25T09:17:36Z</time>
      </trkpt>
      <trkpt lat="45.39846" lon="4.49454">
        <ele>759.654358</ele>
        <time>2010-04-25T09:17:41Z</time>
      </trkpt>
      <trkpt lat="45.39845" lon="4.49462">
        <ele>760.863098</ele>
        <time>2010-04-25T09:17:46Z</time>
      </trkpt>
      <trkpt lat="45.39843" lon="4.49471">
        <ele>762.03833</ele>
        <time>2010-04-25T09:17:51Z</time>
      </trkpt>
      <trkpt lat="45.39843" lon="4.49479">
        <ele>762.989563</ele>
        <time>2010-04-25T09:17:56Z</time>
      </trkpt>
      <trkpt lat="45.39842" lon="4.49488">
        <ele>763.807495</ele>
        <time>2010-04-25T09:18:01Z</time>
      </trkpt>
      <trkpt lat="45.39838" lon="4.49492">
        <ele>765.776245</ele>
        <time>2010-04-25T09:18:06Z</time>
      </trkpt>
      <trkpt lat="45.39834" lon="4.49485">
        <ele>767.13623</ele>
        <time>2010-04-25T09:18:11Z</time>
      </trkpt>
      <trkpt lat="45.39832" lon="4.49477">
        <ele>767.652893</ele>
        <time>2010-04-25T09:18:16Z</time>
      </trkpt>
      <trkpt lat="45.3983" lon="4.49469">
        <ele>767.733398</ele>
        <time>2010-04-25T09:18:21Z</time>
      </trkpt>
      <trkpt lat="45.39827" lon="4.49462">
        <ele>768.147766</ele>
        <time>2010-04-25T09:18:26Z</time>
      </trkpt>
      <trkpt lat="45.39825" lon="4.49455">
        <ele>768.40387</ele>
        <time>2010-04-25T09:18:31Z</time>
      </trkpt>
      <trkpt lat="45.39822" lon="4.49445">
        <ele>768.401245</ele>
        <time>2010-04-25T09:18:36Z</time>
      </trkpt>
      <trkpt lat="45.39819" lon="4.49433">
        <ele>768.489258</ele>
        <time>2010-04-25T09:18:41Z</time>
      </trkpt>
      <trkpt lat="45.39816" lon="4.4942">
        <ele>768.645081</ele>
        <time>2010-04-25T09:18:46Z</time>
      </trkpt>
      <trkpt lat="45.39811" lon="4.49404">
        <ele>767.63147</ele>
        <time>2010-04-25T09:18:52Z</time>
      </trkpt>
      <trkpt lat="45.39806" lon="4.49392">
        <ele>767.326721</ele>
        <time>2010-04-25T09:18:57Z</time>
      </trkpt>
      <trkpt lat="45.39802" lon="4.49379">
        <ele>767.008911</ele>
        <time>2010-04-25T09:19:02Z</time>
      </trkpt>
      <trkpt lat="45.39797" lon="4.49368">
        <ele>767.222473</ele>
        <time>2010-04-25T09:19:07Z</time>
      </trkpt>
      <trkpt lat="45.39792" lon="4.49358">
        <ele>767.569458</ele>
        <time>2010-04-25T09:19:12Z</time>
      </trkpt>
      <trkpt lat="45.39786" lon="4.49349">
        <ele>768.390137</ele>
        <time>2010-04-25T09:19:17Z</time>
      </trkpt>
      <trkpt lat="45.3978" lon="4.49339">
        <ele>768.903503</ele>
        <time>2010-04-25T09:19:22Z</time>
      </trkpt>
      <trkpt lat="45.39775" lon="4.49329">
        <ele>769.218323</ele>
        <time>2010-04-25T09:19:27Z</time>
      </trkpt>
      <trkpt lat="45.39769" lon="4.49319">
        <ele>769.595886</ele>
        <time>2010-04-25T09:19:32Z</time>
      </trkpt>
      <trkpt lat="45.39762" lon="4.49311">
        <ele>770.59967</ele>
        <time>2010-04-25T09:19:37Z</time>
      </trkpt>
      <trkpt lat="45.39755" lon="4.49304">
        <ele>772.454529</ele>
        <time>2010-04-25T09:19:43Z</time>
      </trkpt>
      <trkpt lat="45.39749" lon="4.49298">
        <ele>773.908997</ele>
        <time>2010-04-25T09:19:49Z</time>
      </trkpt>
      <trkpt lat="45.39744" lon="4.49291">
        <ele>774.874023</ele>
        <time>2010-04-25T09:19:54Z</time>
      </trkpt>
      <trkpt lat="45.39739" lon="4.49286">
        <ele>776.488647</ele>
        <time>2010-04-25T09:19:59Z</time>
      </trkpt>
      <trkpt lat="45.39734" lon="4.49289">
        <ele>779.351196</ele>
        <time>2010-04-25T09:20:05Z</time>
      </trkpt>
      <trkpt lat="45.39736" lon="4.49298">
        <ele>780.426697</ele>
        <time>2010-04-25T09:20:10Z</time>
      </trkpt>
      <trkpt lat="45.39738" lon="4.49306">
        <ele>781.218445</ele>
        <time>2010-04-25T09:20:16Z</time>
      </trkpt>
      <trkpt lat="45.3974" lon="4.49314">
        <ele>781.947632</ele>
        <time>2010-04-25T09:20:22Z</time>
      </trkpt>
      <trkpt lat="45.39742" lon="4.49321">
        <ele>782.893555</ele>
        <time>2010-04-25T09:20:27Z</time>
      </trkpt>
      <trkpt lat="45.39744" lon="4.49328">
        <ele>783.196228</ele>
        <time>2010-04-25T09:20:33Z</time>
      </trkpt>
      <trkpt lat="45.39745" lon="4.49335">
        <ele>784.604309</ele>
        <time>2010-04-25T09:20:39Z</time>
      </trkpt>
      <trkpt lat="45.39745" lon="4.4934">
        <ele>785.399048</ele>
        <time>2010-04-25T09:20:45Z</time>
      </trkpt>
      <trkpt lat="45.39747" lon="4.49347">
        <ele>785.97876</ele>
        <time>2010-04-25T09:20:51Z</time>
      </trkpt>
      <trkpt lat="45.39749" lon="4.49353">
        <ele>786.751648</ele>
        <time>2010-04-25T09:20:57Z</time>
      </trkpt>
      <trkpt lat="45.39751" lon="4.49361">
        <ele>787.193237</ele>
        <time>2010-04-25T09:21:03Z</time>
      </trkpt>
      <trkpt lat="45.39752" lon="4.49368">
        <ele>788.005615</ele>
        <time>2010-04-25T09:21:09Z</time>
      </trkpt>
      <trkpt lat="45.39753" lon="4.49375">
        <ele>788.539978</ele>
        <time>2010-04-25T09:21:15Z</time>
      </trkpt>
      <trkpt lat="45.39755" lon="4.49382">
        <ele>789.141296</ele>
        <time>2010-04-25T09:21:21Z</time>
      </trkpt>
      <trkpt lat="45.39755" lon="4.4939">
        <ele>790.475159</ele>
        <time>2010-04-25T09:21:27Z</time>
      </trkpt>
      <trkpt lat="45.39755" lon="4.49397">
        <ele>791.618286</ele>
        <time>2010-04-25T09:21:33Z</time>
      </trkpt>
      <trkpt lat="45.39755" lon="4.49403">
        <ele>792.540344</ele>
        <time>2010-04-25T09:21:39Z</time>
      </trkpt>
      <trkpt lat="45.39756" lon="4.4941">
        <ele>793.454224</ele>
        <time>2010-04-25T09:21:45Z</time>
      </trkpt>
      <trkpt lat="45.39757" lon="4.49416">
        <ele>794.111694</ele>
        <time>2010-04-25T09:21:50Z</time>
      </trkpt>
      <trkpt lat="45.39758" lon="4.49423">
        <ele>794.304688</ele>
        <time>2010-04-25T09:21:56Z</time>
      </trkpt>
      <trkpt lat="45.39758" lon="4.4943">
        <ele>794.950317</ele>
        <time>2010-04-25T09:22:02Z</time>
      </trkpt>
      <trkpt lat="45.39756" lon="4.49437">
        <ele>796.102478</ele>
        <time>2010-04-25T09:22:08Z</time>
      </trkpt>
      <trkpt lat="45.39756" lon="4.49444">
        <ele>796.676636</ele>
        <time>2010-04-25T09:22:13Z</time>
      </trkpt>
      <trkpt lat="45.39754" lon="4.4945">
        <ele>797.591125</ele>
        <time>2010-04-25T09:22:19Z</time>
      </trkpt>
      <trkpt lat="45.39753" lon="4.49458">
        <ele>798.704163</ele>
        <time>2010-04-25T09:22:25Z</time>
      </trkpt>
      <trkpt lat="45.39753" lon="4.49465">
        <ele>799.026855</ele>
        <time>2010-04-25T09:22:31Z</time>
      </trkpt>
      <trkpt lat="45.39752" lon="4.49471">
        <ele>799.905823</ele>
        <time>2010-04-25T09:22:37Z</time>
      </trkpt>
      <trkpt lat="45.3975" lon="4.49477">
        <ele>801.23175</ele>
        <time>2010-04-25T09:22:43Z</time>
      </trkpt>
      <trkpt lat="45.39748" lon="4.49483">
        <ele>802.029419</ele>
        <time>2010-04-25T09:22:48Z</time>
      </trkpt>
      <trkpt lat="45.39747" lon="4.49489">
        <ele>802.466187</ele>
        <time>2010-04-25T09:22:54Z</time>
      </trkpt>
      <trkpt lat="45.39746" lon="4.49495">
        <ele>802.75531</ele>
        <time>2010-04-25T09:22:59Z</time>
      </trkpt>
      <trkpt lat="45.39743" lon="4.49501">
        <ele>803.491028</ele>
        <time>2010-04-25T09:23:05Z</time>
      </trkpt>
      <trkpt lat="45.39741" lon="4.49508">
        <ele>804.258484</ele>
        <time>2010-04-25T09:23:10Z</time>
      </trkpt>
      <trkpt lat="45.39739" lon="4.49513">
        <ele>804.809448</ele>
        <time>2010-04-25T09:23:15Z</time>
      </trkpt>
      <trkpt lat="45.39737" lon="4.49518">
        <ele>805.208374</ele>
        <time>2010-04-25T09:23:21Z</time>
      </trkpt>
      <trkpt lat="45.39736" lon="4.49523">
        <ele>805.41864</ele>
        <time>2010-04-25T09:23:27Z</time>
      </trkpt>
      <trkpt lat="45.39734" lon="4.49529">
        <ele>806.058411</ele>
        <time>2010-04-25T09:23:33Z</time>
      </trkpt>
      <trkpt lat="45.39731" lon="4.49534">
        <ele>806.905457</ele>
        <time>2010-04-25T09:23:41Z</time>
      </trkpt>
      <trkpt lat="45.39729" lon="4.49538">
        <ele>807.267151</ele>
        <time>2010-04-25T09:23:46Z</time>
      </trkpt>
      <trkpt lat="45.39727" lon="4.49541">
        <ele>807.860352</ele>
        <time>2010-04-25T09:23:51Z</time>
      </trkpt>
      <trkpt lat="45.39724" lon="4.49545">
        <ele>808.453918</ele>
        <time>2010-04-25T09:23:57Z</time>
      </trkpt>
      <trkpt lat="45.39722" lon="4.49548">
        <ele>808.981384</ele>
        <time>2010-04-25T09:24:02Z</time>
      </trkpt>
      <trkpt lat="45.39719" lon="4.4955">
        <ele>809.489197</ele>
        <time>2010-04-25T09:24:08Z</time>
      </trkpt>
      <trkpt lat="45.39716" lon="4.49553">
        <ele>809.945435</ele>
        <time>2010-04-25T09:24:14Z</time>
      </trkpt>
      <trkpt lat="45.39708" lon="4.4956">
        <ele>811.461426</ele>
        <time>2010-04-25T09:24:23Z</time>
      </trkpt>
      <trkpt lat="45.39705" lon="4.49562">
        <ele>812.275085</ele>
        <time>2010-04-25T09:24:28Z</time>
      </trkpt>
      <trkpt lat="45.397" lon="4.49565">
        <ele>812.985779</ele>
        <time>2010-04-25T09:24:34Z</time>
      </trkpt>
      <trkpt lat="45.39697" lon="4.49568">
        <ele>813.555054</ele>
        <time>2010-04-25T09:24:40Z</time>
      </trkpt>
      <trkpt lat="45.39694" lon="4.49569">
        <ele>814.036011</ele>
        <time>2010-04-25T09:24:45Z</time>
      </trkpt>
      <trkpt lat="45.39691" lon="4.49571">
        <ele>814.411011</ele>
        <time>2010-04-25T09:24:50Z</time>
      </trkpt>
      <trkpt lat="45.39687" lon="4.49573">
        <ele>815.113525</ele>
        <time>2010-04-25T09:24:57Z</time>
      </trkpt>
      <trkpt lat="45.39685" lon="4.49572">
        <ele>815.887268</ele>
        <time>2010-04-25T09:25:03Z</time>
      </trkpt>
      <trkpt lat="45.3968" lon="4.49573">
        <ele>816.866638</ele>
        <time>2010-04-25T09:25:09Z</time>
      </trkpt>
      <trkpt lat="45.39676" lon="4.49572">
        <ele>818.05127</ele>
        <time>2010-04-25T09:25:15Z</time>
      </trkpt>
      <trkpt lat="45.39673" lon="4.49573">
        <ele>818.748047</ele>
        <time>2010-04-25T09:25:20Z</time>
      </trkpt>
      <trkpt lat="45.39669" lon="4.49574">
        <ele>819.463196</ele>
        <time>2010-04-25T09:25:26Z</time>
      </trkpt>
      <trkpt lat="45.39665" lon="4.49574">
        <ele>820.676331</ele>
        <time>2010-04-25T09:25:32Z</time>
      </trkpt>
      <trkpt lat="45.39661" lon="4.49574">
        <ele>821.525696</ele>
        <time>2010-04-25T09:25:38Z</time>
      </trkpt>
      <trkpt lat="45.39656" lon="4.49574">
        <ele>822.551514</ele>
        <time>2010-04-25T09:25:44Z</time>
      </trkpt>
      <trkpt lat="45.39652" lon="4.49574">
        <ele>823.576843</ele>
        <time>2010-04-25T09:25:50Z</time>
      </trkpt>
      <trkpt lat="45.39648" lon="4.49573">
        <ele>824.993591</ele>
        <time>2010-04-25T09:25:56Z</time>
      </trkpt>
      <trkpt lat="45.39643" lon="4.49573">
        <ele>826.148254</ele>
        <time>2010-04-25T09:26:01Z</time>
      </trkpt>
      <trkpt lat="45.39639" lon="4.49572">
        <ele>827.436279</ele>
        <time>2010-04-25T09:26:07Z</time>
      </trkpt>
      <trkpt lat="45.39634" lon="4.49571">
        <ele>828.684998</ele>
        <time>2010-04-25T09:26:13Z</time>
      </trkpt>
      <trkpt lat="45.39631" lon="4.49571">
        <ele>829.443115</ele>
        <time>2010-04-25T09:26:18Z</time>
      </trkpt>
      <trkpt lat="45.39627" lon="4.4957">
        <ele>830.798645</ele>
        <time>2010-04-25T09:26:24Z</time>
      </trkpt>
      <trkpt lat="45.39623" lon="4.4957">
        <ele>831.754395</ele>
        <time>2010-04-25T09:26:30Z</time>
      </trkpt>
      <trkpt lat="45.39619" lon="4.4957">
        <ele>832.570251</ele>
        <time>2010-04-25T09:26:36Z</time>
      </trkpt>
      <trkpt lat="45.39615" lon="4.4957">
        <ele>833.385315</ele>
        <time>2010-04-25T09:26:44Z</time>
      </trkpt>
      <trkpt lat="45.39613" lon="4.4957">
        <ele>833.96814</ele>
        <time>2010-04-25T09:26:51Z</time>
      </trkpt>
      <trkpt lat="45.3961" lon="4.49569">
        <ele>834.727966</ele>
        <time>2010-04-25T09:26:56Z</time>
      </trkpt>
      <trkpt lat="45.39608" lon="4.49564">
        <ele>836.485107</ele>
        <time>2010-04-25T09:27:01Z</time>
      </trkpt>
      <trkpt lat="45.39591" lon="4.49564">
        <ele>839.963867</ele>
        <time>2010-04-25T09:27:11Z</time>
      </trkpt>
      <trkpt lat="45.39587" lon="4.49565">
        <ele>840.619873</ele>
        <time>2010-04-25T09:27:18Z</time>
      </trkpt>
      <trkpt lat="45.39584" lon="4.49565">
        <ele>841.347717</ele>
        <time>2010-04-25T09:27:23Z</time>
      </trkpt>
      <trkpt lat="45.39582" lon="4.49564">
        <ele>842.23999</ele>
        <time>2010-04-25T09:27:29Z</time>
      </trkpt>
      <trkpt lat="45.39579" lon="4.49564">
        <ele>842.808777</ele>
        <time>2010-04-25T09:27:34Z</time>
      </trkpt>
      <trkpt lat="45.39576" lon="4.49563">
        <ele>843.532471</ele>
        <time>2010-04-25T09:27:39Z</time>
      </trkpt>
      <trkpt lat="45.39572" lon="4.49563">
        <ele>844.638733</ele>
        <time>2010-04-25T09:27:45Z</time>
      </trkpt>
      <trkpt lat="45.39569" lon="4.49563">
        <ele>845.405029</ele>
        <time>2010-04-25T09:27:50Z</time>
      </trkpt>
      <trkpt lat="45.39565" lon="4.49564">
        <ele>846.015015</ele>
        <time>2010-04-25T09:27:56Z</time>
      </trkpt>
      <trkpt lat="45.39561" lon="4.49565">
        <ele>846.586243</ele>
        <time>2010-04-25T09:28:02Z</time>
      </trkpt>
      <trkpt lat="45.39557" lon="4.49567">
        <ele>847.248779</ele>
        <time>2010-04-25T09:28:08Z</time>
      </trkpt>
      <trkpt lat="45.39552" lon="4.49567">
        <ele>848.157471</ele>
        <time>2010-04-25T09:28:15Z</time>
      </trkpt>
      <trkpt lat="45.39543" lon="4.49568">
        <ele>850.048767</ele>
        <time>2010-04-25T09:28:24Z</time>
      </trkpt>
      <trkpt lat="45.39538" lon="4.49569">
        <ele>850.872498</ele>
        <time>2010-04-25T09:28:29Z</time>
      </trkpt>
      <trkpt lat="45.39534" lon="4.49571">
        <ele>851.776489</ele>
        <time>2010-04-25T09:28:36Z</time>
      </trkpt>
      <trkpt lat="45.39531" lon="4.49569">
        <ele>853.095032</ele>
        <time>2010-04-25T09:28:41Z</time>
      </trkpt>
      <trkpt lat="45.39528" lon="4.4957">
        <ele>853.661987</ele>
        <time>2010-04-25T09:28:46Z</time>
      </trkpt>
      <trkpt lat="45.39526" lon="4.49571">
        <ele>854.237488</ele>
        <time>2010-04-25T09:28:51Z</time>
      </trkpt>
      <trkpt lat="45.39523" lon="4.49571">
        <ele>854.883423</ele>
        <time>2010-04-25T09:28:56Z</time>
      </trkpt>
      <trkpt lat="45.3952" lon="4.49573">
        <ele>855.290039</ele>
        <time>2010-04-25T09:29:01Z</time>
      </trkpt>
      <trkpt lat="45.39518" lon="4.49572">
        <ele>856.28186</ele>
        <time>2010-04-25T09:29:06Z</time>
      </trkpt>
      <trkpt lat="45.39521" lon="4.49566">
        <ele>857.050171</ele>
        <time>2010-04-25T09:29:12Z</time>
      </trkpt>
      <trkpt lat="45.3952" lon="4.49569">
        <ele>856.34436</ele>
        <time>2010-04-25T09:29:17Z</time>
      </trkpt>
      <trkpt lat="45.39516" lon="4.49571">
        <ele>857.164368</ele>
        <time>2010-04-25T09:29:23Z</time>
      </trkpt>
      <trkpt lat="45.39512" lon="4.4957">
        <ele>858.646423</ele>
        <time>2010-04-25T09:29:29Z</time>
      </trkpt>
      <trkpt lat="45.3951" lon="4.49571">
        <ele>859.143616</ele>
        <time>2010-04-25T09:29:34Z</time>
      </trkpt>
      <trkpt lat="45.39507" lon="4.4957">
        <ele>860.478943</ele>
        <time>2010-04-25T09:29:39Z</time>
      </trkpt>
      <trkpt lat="45.39504" lon="4.49571">
        <ele>860.8974</ele>
        <time>2010-04-25T09:29:44Z</time>
      </trkpt>
      <trkpt lat="45.395" lon="4.49569">
        <ele>862.527039</ele>
        <time>2010-04-25T09:29:49Z</time>
      </trkpt>
      <trkpt lat="45.39496" lon="4.4957">
        <ele>863.719666</ele>
        <time>2010-04-25T09:29:55Z</time>
      </trkpt>
      <trkpt lat="45.39493" lon="4.49572">
        <ele>863.947327</ele>
        <time>2010-04-25T09:30:01Z</time>
      </trkpt>
      <trkpt lat="45.39492" lon="4.49575">
        <ele>863.204529</ele>
        <time>2010-04-25T09:30:06Z</time>
      </trkpt>
      <trkpt lat="45.39489" lon="4.49577">
        <ele>863.676697</ele>
        <time>2010-04-25T09:30:11Z</time>
      </trkpt>
      <trkpt lat="45.39484" lon="4.49579">
        <ele>864.3255</ele>
        <time>2010-04-25T09:30:17Z</time>
      </trkpt>
      <trkpt lat="45.39479" lon="4.4958">
        <ele>865.463257</ele>
        <time>2010-04-25T09:30:25Z</time>
      </trkpt>
      <trkpt lat="45.39476" lon="4.49581">
        <ele>866.260803</ele>
        <time>2010-04-25T09:30:32Z</time>
      </trkpt>
      <trkpt lat="45.39471" lon="4.49581">
        <ele>867.833008</ele>
        <time>2010-04-25T09:30:38Z</time>
      </trkpt>
      <trkpt lat="45.39469" lon="4.49579">
        <ele>869.180298</ele>
        <time>2010-04-25T09:30:44Z</time>
      </trkpt>
      <trkpt lat="45.39466" lon="4.49576">
        <ele>870.900452</ele>
        <time>2010-04-25T09:30:51Z</time>
      </trkpt>
      <trkpt lat="45.39462" lon="4.4958">
        <ele>871.293274</ele>
        <time>2010-04-25T09:30:57Z</time>
      </trkpt>
      <trkpt lat="45.39459" lon="4.49579">
        <ele>872.345581</ele>
        <time>2010-04-25T09:31:02Z</time>
      </trkpt>
      <trkpt lat="45.39454" lon="4.49584">
        <ele>872.442871</ele>
        <time>2010-04-25T09:31:08Z</time>
      </trkpt>
      <trkpt lat="45.39453" lon="4.49584">
        <ele>872.78894</ele>
        <time>2010-04-25T09:31:14Z</time>
      </trkpt>
      <trkpt lat="45.39452" lon="4.49579">
        <ele>874.408264</ele>
        <time>2010-04-25T09:31:20Z</time>
      </trkpt>
      <trkpt lat="45.39448" lon="4.49578">
        <ele>875.936768</ele>
        <time>2010-04-25T09:31:25Z</time>
      </trkpt>
      <trkpt lat="45.39441" lon="4.49582">
        <ele>877.398926</ele>
        <time>2010-04-25T09:31:30Z</time>
      </trkpt>
      <trkpt lat="45.39435" lon="4.49587">
        <ele>878.176025</ele>
        <time>2010-04-25T09:31:35Z</time>
      </trkpt>
      <trkpt lat="45.3943" lon="4.49592">
        <ele>878.467773</ele>
        <time>2010-04-25T09:31:40Z</time>
      </trkpt>
      <trkpt lat="45.39424" lon="4.49596">
        <ele>879.739807</ele>
        <time>2010-04-25T09:31:46Z</time>
      </trkpt>
      <trkpt lat="45.39419" lon="4.49601">
        <ele>881.01239</ele>
        <time>2010-04-25T09:31:52Z</time>
      </trkpt>
      <trkpt lat="45.39417" lon="4.49604">
        <ele>881.460388</ele>
        <time>2010-04-25T09:31:58Z</time>
      </trkpt>
      <trkpt lat="45.39415" lon="4.49607">
        <ele>881.66217</ele>
        <time>2010-04-25T09:32:03Z</time>
      </trkpt>
      <trkpt lat="45.39411" lon="4.49614">
        <ele>882.221313</ele>
        <time>2010-04-25T09:32:10Z</time>
      </trkpt>
      <trkpt lat="45.39407" lon="4.49619">
        <ele>883.211853</ele>
        <time>2010-04-25T09:32:17Z</time>
      </trkpt>
      <trkpt lat="45.39405" lon="4.49625">
        <ele>883.183044</ele>
        <time>2010-04-25T09:32:24Z</time>
      </trkpt>
      <trkpt lat="45.39403" lon="4.49627">
        <ele>883.554077</ele>
        <time>2010-04-25T09:32:30Z</time>
      </trkpt>
      <trkpt lat="45.39397" lon="4.49638">
        <ele>884.151062</ele>
        <time>2010-04-25T09:32:35Z</time>
      </trkpt>
      <trkpt lat="45.39393" lon="4.49643">
        <ele>885.021179</ele>
        <time>2010-04-25T09:32:40Z</time>
      </trkpt>
      <trkpt lat="45.39394" lon="4.49642">
        <ele>884.725159</ele>
        <time>2010-04-25T09:32:53Z</time>
      </trkpt>
      <trkpt lat="45.3939" lon="4.49647">
        <ele>885.869202</ele>
        <time>2010-04-25T09:32:59Z</time>
      </trkpt>
      <trkpt lat="45.39385" lon="4.49649">
        <ele>887.371887</ele>
        <time>2010-04-25T09:33:05Z</time>
      </trkpt>
      <trkpt lat="45.39383" lon="4.49653">
        <ele>887.722473</ele>
        <time>2010-04-25T09:33:11Z</time>
      </trkpt>
      <trkpt lat="45.3938" lon="4.49657">
        <ele>888.170898</ele>
        <time>2010-04-25T09:33:16Z</time>
      </trkpt>
      <trkpt lat="45.39378" lon="4.4966">
        <ele>888.35791</ele>
        <time>2010-04-25T09:33:21Z</time>
      </trkpt>
      <trkpt lat="45.39376" lon="4.49663">
        <ele>888.934631</ele>
        <time>2010-04-25T09:33:27Z</time>
      </trkpt>
      <trkpt lat="45.39369" lon="4.49672">
        <ele>890.34259</ele>
        <time>2010-04-25T09:33:34Z</time>
      </trkpt>
      <trkpt lat="45.39366" lon="4.49676">
        <ele>890.825439</ele>
        <time>2010-04-25T09:33:41Z</time>
      </trkpt>
      <trkpt lat="45.39363" lon="4.49681">
        <ele>891.032471</ele>
        <time>2010-04-25T09:33:47Z</time>
      </trkpt>
      <trkpt lat="45.39359" lon="4.49686">
        <ele>891.667297</ele>
        <time>2010-04-25T09:33:53Z</time>
      </trkpt>
      <trkpt lat="45.39355" lon="4.49691">
        <ele>892.320435</ele>
        <time>2010-04-25T09:33:59Z</time>
      </trkpt>
      <trkpt lat="45.39354" lon="4.49696">
        <ele>891.885071</ele>
        <time>2010-04-25T09:34:06Z</time>
      </trkpt>
      <trkpt lat="45.39353" lon="4.497">
        <ele>891.459961</ele>
        <time>2010-04-25T09:34:11Z</time>
      </trkpt>
      <trkpt lat="45.39349" lon="4.49704">
        <ele>891.871582</ele>
        <time>2010-04-25T09:34:17Z</time>
      </trkpt>
      <trkpt lat="45.39345" lon="4.49708">
        <ele>892.197998</ele>
        <time>2010-04-25T09:34:23Z</time>
      </trkpt>
      <trkpt lat="45.3934" lon="4.4971">
        <ele>892.975647</ele>
        <time>2010-04-25T09:34:29Z</time>
      </trkpt>
      <trkpt lat="45.39334" lon="4.49712">
        <ele>893.847473</ele>
        <time>2010-04-25T09:34:35Z</time>
      </trkpt>
      <trkpt lat="45.39329" lon="4.49715">
        <ele>894.540283</ele>
        <time>2010-04-25T09:34:41Z</time>
      </trkpt>
      <trkpt lat="45.39328" lon="4.49716">
        <ele>894.585083</ele>
        <time>2010-04-25T09:34:46Z</time>
      </trkpt>
      <trkpt lat="45.39317" lon="4.49722">
        <ele>895.146973</ele>
        <time>2010-04-25T09:34:52Z</time>
      </trkpt>
      <trkpt lat="45.39309" lon="4.49724">
        <ele>896.239319</ele>
        <time>2010-04-25T09:34:58Z</time>
      </trkpt>
      <trkpt lat="45.393" lon="4.49728">
        <ele>895.949036</ele>
        <time>2010-04-25T09:35:03Z</time>
      </trkpt>
      <trkpt lat="45.39293" lon="4.4973">
        <ele>896.490417</ele>
        <time>2010-04-25T09:35:08Z</time>
      </trkpt>
      <trkpt lat="45.39285" lon="4.49728">
        <ele>898.104248</ele>
        <time>2010-04-25T09:35:14Z</time>
      </trkpt>
      <trkpt lat="45.39278" lon="4.49729">
        <ele>898.657776</ele>
        <time>2010-04-25T09:35:19Z</time>
      </trkpt>
      <trkpt lat="45.39273" lon="4.49728">
        <ele>899.784546</ele>
        <time>2010-04-25T09:35:24Z</time>
      </trkpt>
      <trkpt lat="45.39269" lon="4.49725">
        <ele>901.2547</ele>
        <time>2010-04-25T09:35:29Z</time>
      </trkpt>
      <trkpt lat="45.39263" lon="4.49725">
        <ele>902.13501</ele>
        <time>2010-04-25T09:35:34Z</time>
      </trkpt>
      <trkpt lat="45.39258" lon="4.49724">
        <ele>902.592529</ele>
        <time>2010-04-25T09:35:39Z</time>
      </trkpt>
      <trkpt lat="45.39252" lon="4.49724">
        <ele>903.087524</ele>
        <time>2010-04-25T09:35:45Z</time>
      </trkpt>
      <trkpt lat="45.39248" lon="4.49721">
        <ele>904.294983</ele>
        <time>2010-04-25T09:35:50Z</time>
      </trkpt>
      <trkpt lat="45.39241" lon="4.49721">
        <ele>904.580017</ele>
        <time>2010-04-25T09:35:55Z</time>
      </trkpt>
      <trkpt lat="45.39235" lon="4.49719">
        <ele>905.5625</ele>
        <time>2010-04-25T09:36:00Z</time>
      </trkpt>
      <trkpt lat="45.3923" lon="4.49718">
        <ele>906.60498</ele>
        <time>2010-04-25T09:36:06Z</time>
      </trkpt>
      <trkpt lat="45.39223" lon="4.49717">
        <ele>907.130005</ele>
        <time>2010-04-25T09:36:12Z</time>
      </trkpt>
      <trkpt lat="45.39219" lon="4.49715">
        <ele>908.302368</ele>
        <time>2010-04-25T09:36:18Z</time>
      </trkpt>
      <trkpt lat="45.39211" lon="4.49714">
        <ele>908.653381</ele>
        <time>2010-04-25T09:36:24Z</time>
      </trkpt>
      <trkpt lat="45.39206" lon="4.49711">
        <ele>910.191162</ele>
        <time>2010-04-25T09:36:29Z</time>
      </trkpt>
      <trkpt lat="45.39199" lon="4.4971">
        <ele>910.540833</ele>
        <time>2010-04-25T09:36:34Z</time>
      </trkpt>
      <trkpt lat="45.39192" lon="4.4971">
        <ele>910.718994</ele>
        <time>2010-04-25T09:36:40Z</time>
      </trkpt>
      <trkpt lat="45.39187" lon="4.49708">
        <ele>911.676575</ele>
        <time>2010-04-25T09:36:46Z</time>
      </trkpt>
      <trkpt lat="45.39182" lon="4.49708">
        <ele>912.063599</ele>
        <time>2010-04-25T09:36:51Z</time>
      </trkpt>
      <trkpt lat="45.39179" lon="4.49705">
        <ele>913.002136</ele>
        <time>2010-04-25T09:36:56Z</time>
      </trkpt>
      <trkpt lat="45.39174" lon="4.49706">
        <ele>912.819092</ele>
        <time>2010-04-25T09:37:01Z</time>
      </trkpt>
      <trkpt lat="45.39167" lon="4.49706">
        <ele>912.712646</ele>
        <time>2010-04-25T09:37:07Z</time>
      </trkpt>
      <trkpt lat="45.39163" lon="4.49705">
        <ele>913.116516</ele>
        <time>2010-04-25T09:37:13Z</time>
      </trkpt>
      <trkpt lat="45.39157" lon="4.49703">
        <ele>913.719727</ele>
        <time>2010-04-25T09:37:19Z</time>
      </trkpt>
      <trkpt lat="45.39154" lon="4.49699">
        <ele>914.972839</ele>
        <time>2010-04-25T09:37:24Z</time>
      </trkpt>
      <trkpt lat="45.39149" lon="4.49696">
        <ele>915.886169</ele>
        <time>2010-04-25T09:37:30Z</time>
      </trkpt>
      <trkpt lat="45.39144" lon="4.49694">
        <ele>916.616333</ele>
        <time>2010-04-25T09:37:35Z</time>
      </trkpt>
      <trkpt lat="45.39138" lon="4.49692">
        <ele>917.13324</ele>
        <time>2010-04-25T09:37:40Z</time>
      </trkpt>
      <trkpt lat="45.39132" lon="4.4969">
        <ele>917.898071</ele>
        <time>2010-04-25T09:37:46Z</time>
      </trkpt>
      <trkpt lat="45.39127" lon="4.49687">
        <ele>918.758728</ele>
        <time>2010-04-25T09:37:52Z</time>
      </trkpt>
      <trkpt lat="45.39122" lon="4.49685">
        <ele>918.748779</ele>
        <time>2010-04-25T09:37:57Z</time>
      </trkpt>
      <trkpt lat="45.39117" lon="4.49683">
        <ele>919.132507</ele>
        <time>2010-04-25T09:38:03Z</time>
      </trkpt>
      <trkpt lat="45.39112" lon="4.49679">
        <ele>920.0625</ele>
        <time>2010-04-25T09:38:09Z</time>
      </trkpt>
      <trkpt lat="45.39106" lon="4.49677">
        <ele>919.953735</ele>
        <time>2010-04-25T09:38:15Z</time>
      </trkpt>
      <trkpt lat="45.39101" lon="4.49675">
        <ele>920.40625</ele>
        <time>2010-04-25T09:38:20Z</time>
      </trkpt>
      <trkpt lat="45.39094" lon="4.49672">
        <ele>920.533752</ele>
        <time>2010-04-25T09:38:26Z</time>
      </trkpt>
      <trkpt lat="45.3909" lon="4.49667">
        <ele>921.992493</ele>
        <time>2010-04-25T09:38:32Z</time>
      </trkpt>
      <trkpt lat="45.39085" lon="4.49662">
        <ele>923.423767</ele>
        <time>2010-04-25T09:38:38Z</time>
      </trkpt>
      <trkpt lat="45.3908" lon="4.4966">
        <ele>923.513855</ele>
        <time>2010-04-25T09:38:43Z</time>
      </trkpt>
      <trkpt lat="45.39075" lon="4.49656">
        <ele>924.122986</ele>
        <time>2010-04-25T09:38:48Z</time>
      </trkpt>
      <trkpt lat="45.39068" lon="4.49653">
        <ele>924.427002</ele>
        <time>2010-04-25T09:38:53Z</time>
      </trkpt>
      <trkpt lat="45.39061" lon="4.49649">
        <ele>925.044006</ele>
        <time>2010-04-25T09:38:58Z</time>
      </trkpt>
      <trkpt lat="45.39056" lon="4.49645">
        <ele>925.829163</ele>
        <time>2010-04-25T09:39:03Z</time>
      </trkpt>
      <trkpt lat="45.39048" lon="4.49644">
        <ele>925.438477</ele>
        <time>2010-04-25T09:39:08Z</time>
      </trkpt>
      <trkpt lat="45.39041" lon="4.49643">
        <ele>924.810364</ele>
        <time>2010-04-25T09:39:13Z</time>
      </trkpt>
      <trkpt lat="45.39039" lon="4.49634">
        <ele>928.058472</ele>
        <time>2010-04-25T09:39:19Z</time>
      </trkpt>
      <trkpt lat="45.39046" lon="4.49633">
        <ele>929.818909</ele>
        <time>2010-04-25T09:39:24Z</time>
      </trkpt>
      <trkpt lat="45.39054" lon="4.49635">
        <ele>930.102112</ele>
        <time>2010-04-25T09:39:29Z</time>
      </trkpt>
      <trkpt lat="45.39061" lon="4.49637">
        <ele>930.067993</ele>
        <time>2010-04-25T09:39:34Z</time>
      </trkpt>
      <trkpt lat="45.39068" lon="4.49639">
        <ele>929.862488</ele>
        <time>2010-04-25T09:39:39Z</time>
      </trkpt>
      <trkpt lat="45.39073" lon="4.49643">
        <ele>928.966125</ele>
        <time>2010-04-25T09:39:44Z</time>
      </trkpt>
      <trkpt lat="45.3908" lon="4.49643">
        <ele>929.82959</ele>
        <time>2010-04-25T09:39:49Z</time>
      </trkpt>
      <trkpt lat="45.39087" lon="4.49641">
        <ele>931.690491</ele>
        <time>2010-04-25T09:39:55Z</time>
      </trkpt>
      <trkpt lat="45.39093" lon="4.4964">
        <ele>932.500671</ele>
        <time>2010-04-25T09:40:00Z</time>
      </trkpt>
      <trkpt lat="45.391" lon="4.4964">
        <ele>933.361816</ele>
        <time>2010-04-25T09:40:05Z</time>
      </trkpt>
      <trkpt lat="45.39108" lon="4.49639">
        <ele>934.798645</ele>
        <time>2010-04-25T09:40:10Z</time>
      </trkpt>
      <trkpt lat="45.39117" lon="4.49638">
        <ele>935.843201</ele>
        <time>2010-04-25T09:40:15Z</time>
      </trkpt>
      <trkpt lat="45.39125" lon="4.49637">
        <ele>937.203125</ele>
        <time>2010-04-25T09:40:20Z</time>
      </trkpt>
      <trkpt lat="45.39133" lon="4.49638">
        <ele>937.479004</ele>
        <time>2010-04-25T09:40:25Z</time>
      </trkpt>
      <trkpt lat="45.3914" lon="4.49637">
        <ele>938.087341</ele>
        <time>2010-04-25T09:40:30Z</time>
      </trkpt>
      <trkpt lat="45.39145" lon="4.49639">
        <ele>937.318237</ele>
        <time>2010-04-25T09:40:35Z</time>
      </trkpt>
      <trkpt lat="45.39151" lon="4.49639">
        <ele>937.487244</ele>
        <time>2010-04-25T09:40:40Z</time>
      </trkpt>
      <trkpt lat="45.39158" lon="4.49637">
        <ele>938.359741</ele>
        <time>2010-04-25T09:40:45Z</time>
      </trkpt>
      <trkpt lat="45.39165" lon="4.49632">
        <ele>940.373596</ele>
        <time>2010-04-25T09:40:50Z</time>
      </trkpt>
      <trkpt lat="45.39171" lon="4.49628">
        <ele>942.101379</ele>
        <time>2010-04-25T09:40:56Z</time>
      </trkpt>
      <trkpt lat="45.39175" lon="4.49625">
        <ele>943.181091</ele>
        <time>2010-04-25T09:41:02Z</time>
      </trkpt>
      <trkpt lat="45.3918" lon="4.49619">
        <ele>945.144226</ele>
        <time>2010-04-25T09:41:07Z</time>
      </trkpt>
      <trkpt lat="45.39186" lon="4.49615">
        <ele>946.263245</ele>
        <time>2010-04-25T09:41:13Z</time>
      </trkpt>
      <trkpt lat="45.39192" lon="4.49614">
        <ele>946.619873</ele>
        <time>2010-04-25T09:41:19Z</time>
      </trkpt>
      <trkpt lat="45.39197" lon="4.49611">
        <ele>947.193909</ele>
        <time>2010-04-25T09:41:24Z</time>
      </trkpt>
      <trkpt lat="45.39204" lon="4.49607">
        <ele>947.907471</ele>
        <time>2010-04-25T09:41:29Z</time>
      </trkpt>
      <trkpt lat="45.39209" lon="4.49602">
        <ele>948.986328</ele>
        <time>2010-04-25T09:41:35Z</time>
      </trkpt>
      <trkpt lat="45.39214" lon="4.49598">
        <ele>949.877563</ele>
        <time>2010-04-25T09:41:41Z</time>
      </trkpt>
      <trkpt lat="45.39219" lon="4.49595">
        <ele>950.321106</ele>
        <time>2010-04-25T09:41:47Z</time>
      </trkpt>
      <trkpt lat="45.39223" lon="4.49589">
        <ele>951.238342</ele>
        <time>2010-04-25T09:41:53Z</time>
      </trkpt>
      <trkpt lat="45.39227" lon="4.49582">
        <ele>951.444336</ele>
        <time>2010-04-25T09:41:58Z</time>
      </trkpt>
      <trkpt lat="45.39231" lon="4.49576">
        <ele>951.274658</ele>
        <time>2010-04-25T09:42:03Z</time>
      </trkpt>
      <trkpt lat="45.39236" lon="4.49568">
        <ele>951.022888</ele>
        <time>2010-04-25T09:42:09Z</time>
      </trkpt>
      <trkpt lat="45.39237" lon="4.49559">
        <ele>952.065491</ele>
        <time>2010-04-25T09:42:14Z</time>
      </trkpt>
      <trkpt lat="45.39239" lon="4.49548">
        <ele>952.935486</ele>
        <time>2010-04-25T09:42:19Z</time>
      </trkpt>
      <trkpt lat="45.39241" lon="4.49539">
        <ele>953.597839</ele>
        <time>2010-04-25T09:42:24Z</time>
      </trkpt>
      <trkpt lat="45.39243" lon="4.49529">
        <ele>953.998047</ele>
        <time>2010-04-25T09:42:29Z</time>
      </trkpt>
      <trkpt lat="45.39246" lon="4.4952">
        <ele>954.255737</ele>
        <time>2010-04-25T09:42:34Z</time>
      </trkpt>
      <trkpt lat="45.39249" lon="4.4951">
        <ele>954.41626</ele>
        <time>2010-04-25T09:42:39Z</time>
      </trkpt>
      <trkpt lat="45.39254" lon="4.49501">
        <ele>954.31543</ele>
        <time>2010-04-25T09:42:44Z</time>
      </trkpt>
      <trkpt lat="45.39256" lon="4.49493">
        <ele>954.598206</ele>
        <time>2010-04-25T09:42:49Z</time>
      </trkpt>
      <trkpt lat="45.39257" lon="4.49485">
        <ele>955.412292</ele>
        <time>2010-04-25T09:42:54Z</time>
      </trkpt>
      <trkpt lat="45.39257" lon="4.49477">
        <ele>956.399719</ele>
        <time>2010-04-25T09:42:59Z</time>
      </trkpt>
      <trkpt lat="45.39258" lon="4.49469">
        <ele>957.057556</ele>
        <time>2010-04-25T09:43:04Z</time>
      </trkpt>
      <trkpt lat="45.39258" lon="4.49459">
        <ele>958.210022</ele>
        <time>2010-04-25T09:43:09Z</time>
      </trkpt>
      <trkpt lat="45.3926" lon="4.4945">
        <ele>958.425232</ele>
        <time>2010-04-25T09:43:14Z</time>
      </trkpt>
      <trkpt lat="45.3926" lon="4.49442">
        <ele>959.028015</ele>
        <time>2010-04-25T09:43:19Z</time>
      </trkpt>
      <trkpt lat="45.39259" lon="4.49434">
        <ele>959.979431</ele>
        <time>2010-04-25T09:43:25Z</time>
      </trkpt>
      <trkpt lat="45.39259" lon="4.49424">
        <ele>960.806458</ele>
        <time>2010-04-25T09:43:30Z</time>
      </trkpt>
      <trkpt lat="45.39258" lon="4.49414">
        <ele>962.038696</ele>
        <time>2010-04-25T09:43:35Z</time>
      </trkpt>
      <trkpt lat="45.39258" lon="4.49407">
        <ele>962.75824</ele>
        <time>2010-04-25T09:43:40Z</time>
      </trkpt>
      <trkpt lat="45.39257" lon="4.49402">
        <ele>963.562134</ele>
        <time>2010-04-25T09:43:45Z</time>
      </trkpt>
      <trkpt lat="45.39255" lon="4.49395">
        <ele>964.463379</ele>
        <time>2010-04-25T09:43:50Z</time>
      </trkpt>
      <trkpt lat="45.39256" lon="4.49389">
        <ele>964.501404</ele>
        <time>2010-04-25T09:43:55Z</time>
      </trkpt>
      <trkpt lat="45.39258" lon="4.49381">
        <ele>964.493103</ele>
        <time>2010-04-25T09:44:01Z</time>
      </trkpt>
      <trkpt lat="45.39257" lon="4.49373">
        <ele>965.087097</ele>
        <time>2010-04-25T09:44:07Z</time>
      </trkpt>
      <trkpt lat="45.39257" lon="4.49368">
        <ele>965.615234</ele>
        <time>2010-04-25T09:44:12Z</time>
      </trkpt>
      <trkpt lat="45.39257" lon="4.49359">
        <ele>966.113831</ele>
        <time>2010-04-25T09:44:17Z</time>
      </trkpt>
      <trkpt lat="45.39256" lon="4.49349">
        <ele>966.898987</ele>
        <time>2010-04-25T09:44:23Z</time>
      </trkpt>
      <trkpt lat="45.39256" lon="4.49341">
        <ele>967.389709</ele>
        <time>2010-04-25T09:44:28Z</time>
      </trkpt>
      <trkpt lat="45.39255" lon="4.49332">
        <ele>968.129517</ele>
        <time>2010-04-25T09:44:34Z</time>
      </trkpt>
      <trkpt lat="45.39254" lon="4.49324">
        <ele>969.023499</ele>
        <time>2010-04-25T09:44:39Z</time>
      </trkpt>
      <trkpt lat="45.39252" lon="4.49314">
        <ele>969.867249</ele>
        <time>2010-04-25T09:44:44Z</time>
      </trkpt>
      <trkpt lat="45.39252" lon="4.49306">
        <ele>970.532532</ele>
        <time>2010-04-25T09:44:49Z</time>
      </trkpt>
      <trkpt lat="45.39249" lon="4.49297">
        <ele>971.906799</ele>
        <time>2010-04-25T09:44:55Z</time>
      </trkpt>
      <trkpt lat="45.39248" lon="4.49289">
        <ele>972.862244</ele>
        <time>2010-04-25T09:45:00Z</time>
      </trkpt>
      <trkpt lat="45.39246" lon="4.49282">
        <ele>973.936951</ele>
        <time>2010-04-25T09:45:05Z</time>
      </trkpt>
      <trkpt lat="45.39246" lon="4.49275">
        <ele>974.145874</ele>
        <time>2010-04-25T09:45:10Z</time>
      </trkpt>
      <trkpt lat="45.39245" lon="4.49265">
        <ele>974.919983</ele>
        <time>2010-04-25T09:45:16Z</time>
      </trkpt>
      <trkpt lat="45.39244" lon="4.49258">
        <ele>975.400024</ele>
        <time>2010-04-25T09:45:21Z</time>
      </trkpt>
      <trkpt lat="45.39243" lon="4.49249">
        <ele>975.719971</ele>
        <time>2010-04-25T09:45:27Z</time>
      </trkpt>
      <trkpt lat="45.39243" lon="4.49241">
        <ele>975.76001</ele>
        <time>2010-04-25T09:45:33Z</time>
      </trkpt>
      <trkpt lat="45.39242" lon="4.49233">
        <ele>976.080017</ele>
        <time>2010-04-25T09:45:39Z</time>
      </trkpt>
      <trkpt lat="45.39241" lon="4.49225">
        <ele>976.559998</ele>
        <time>2010-04-25T09:45:44Z</time>
      </trkpt>
      <trkpt lat="45.39238" lon="4.49216">
        <ele>977.559998</ele>
        <time>2010-04-25T09:45:50Z</time>
      </trkpt>
      <trkpt lat="45.39235" lon="4.49209">
        <ele>978.719971</ele>
        <time>2010-04-25T09:45:55Z</time>
      </trkpt>
      <trkpt lat="45.39233" lon="4.49202">
        <ele>979.515625</ele>
        <time>2010-04-25T09:46:00Z</time>
      </trkpt>
      <trkpt lat="45.39229" lon="4.49195">
        <ele>980.938843</ele>
        <time>2010-04-25T09:46:06Z</time>
      </trkpt>
      <trkpt lat="45.39225" lon="4.49188">
        <ele>982.041687</ele>
        <time>2010-04-25T09:46:12Z</time>
      </trkpt>
      <trkpt lat="45.39221" lon="4.4918">
        <ele>983.019287</ele>
        <time>2010-04-25T09:46:18Z</time>
      </trkpt>
      <trkpt lat="45.39218" lon="4.49172">
        <ele>983.779663</ele>
        <time>2010-04-25T09:46:23Z</time>
      </trkpt>
      <trkpt lat="45.39211" lon="4.49161">
        <ele>985.390564</ele>
        <time>2010-04-25T09:46:31Z</time>
      </trkpt>
      <trkpt lat="45.39209" lon="4.49155">
        <ele>985.920593</ele>
        <time>2010-04-25T09:46:37Z</time>
      </trkpt>
      <trkpt lat="45.39205" lon="4.49151">
        <ele>986.890076</ele>
        <time>2010-04-25T09:46:43Z</time>
      </trkpt>
      <trkpt lat="45.39203" lon="4.49147">
        <ele>987.311462</ele>
        <time>2010-04-25T09:46:48Z</time>
      </trkpt>
      <trkpt lat="45.39201" lon="4.49142">
        <ele>987.933533</ele>
        <time>2010-04-25T09:46:54Z</time>
      </trkpt>
      <trkpt lat="45.39197" lon="4.49137">
        <ele>988.588745</ele>
        <time>2010-04-25T09:47:00Z</time>
      </trkpt>
      <trkpt lat="45.39194" lon="4.49132">
        <ele>989.174988</ele>
        <time>2010-04-25T09:47:06Z</time>
      </trkpt>
      <trkpt lat="45.3919" lon="4.49127">
        <ele>989.818726</ele>
        <time>2010-04-25T09:47:12Z</time>
      </trkpt>
      <trkpt lat="45.39187" lon="4.49123">
        <ele>990.3125</ele>
        <time>2010-04-25T09:47:17Z</time>
      </trkpt>
      <trkpt lat="45.39184" lon="4.49119">
        <ele>990.932495</ele>
        <time>2010-04-25T09:47:23Z</time>
      </trkpt>
      <trkpt lat="45.39181" lon="4.49115">
        <ele>991.362976</ele>
        <time>2010-04-25T09:47:29Z</time>
      </trkpt>
      <trkpt lat="45.39178" lon="4.4911">
        <ele>991.81366</ele>
        <time>2010-04-25T09:47:35Z</time>
      </trkpt>
      <trkpt lat="45.39175" lon="4.49104">
        <ele>992.044067</ele>
        <time>2010-04-25T09:47:41Z</time>
      </trkpt>
      <trkpt lat="45.39172" lon="4.49099">
        <ele>992.538574</ele>
        <time>2010-04-25T09:47:48Z</time>
      </trkpt>
      <trkpt lat="45.39168" lon="4.49094">
        <ele>993.10376</ele>
        <time>2010-04-25T09:47:54Z</time>
      </trkpt>
      <trkpt lat="45.39166" lon="4.49089">
        <ele>993.255371</ele>
        <time>2010-04-25T09:48:02Z</time>
      </trkpt>
      <trkpt lat="45.3916" lon="4.49077">
        <ele>993.677246</ele>
        <time>2010-04-25T09:48:07Z</time>
      </trkpt>
      <trkpt lat="45.39156" lon="4.49071">
        <ele>994.04895</ele>
        <time>2010-04-25T09:48:13Z</time>
      </trkpt>
      <trkpt lat="45.39152" lon="4.49066">
        <ele>994.283691</ele>
        <time>2010-04-25T09:48:19Z</time>
      </trkpt>
      <trkpt lat="45.39148" lon="4.49061">
        <ele>994.559448</ele>
        <time>2010-04-25T09:48:25Z</time>
      </trkpt>
      <trkpt lat="45.39144" lon="4.49057">
        <ele>995.091492</ele>
        <time>2010-04-25T09:48:31Z</time>
      </trkpt>
      <trkpt lat="45.3914" lon="4.49054">
        <ele>995.831421</ele>
        <time>2010-04-25T09:48:37Z</time>
      </trkpt>
      <trkpt lat="45.39138" lon="4.49053">
        <ele>996.222778</ele>
        <time>2010-04-25T09:48:42Z</time>
      </trkpt>
      <trkpt lat="45.39132" lon="4.49051">
        <ele>997.228943</ele>
        <time>2010-04-25T09:48:47Z</time>
      </trkpt>
      <trkpt lat="45.39126" lon="4.49049">
        <ele>998.617065</ele>
        <time>2010-04-25T09:48:52Z</time>
      </trkpt>
      <trkpt lat="45.3912" lon="4.49047">
        <ele>999.968567</ele>
        <time>2010-04-25T09:48:58Z</time>
      </trkpt>
      <trkpt lat="45.39114" lon="4.49043">
        <ele>1001.087524</ele>
        <time>2010-04-25T09:49:04Z</time>
      </trkpt>
      <trkpt lat="45.39108" lon="4.49037">
        <ele>1001.825989</ele>
        <time>2010-04-25T09:49:10Z</time>
      </trkpt>
      <trkpt lat="45.39104" lon="4.49033">
        <ele>1002.272583</ele>
        <time>2010-04-25T09:49:16Z</time>
      </trkpt>
      <trkpt lat="45.391" lon="4.49026">
        <ele>1002.508423</ele>
        <time>2010-04-25T09:49:22Z</time>
      </trkpt>
      <trkpt lat="45.39095" lon="4.49019">
        <ele>1003.213013</ele>
        <time>2010-04-25T09:49:28Z</time>
      </trkpt>
      <trkpt lat="45.39091" lon="4.49012">
        <ele>1003.922668</ele>
        <time>2010-04-25T09:49:34Z</time>
      </trkpt>
      <trkpt lat="45.39088" lon="4.49004">
        <ele>1004.349304</ele>
        <time>2010-04-25T09:49:39Z</time>
      </trkpt>
      <trkpt lat="45.39085" lon="4.48996">
        <ele>1004.931152</ele>
        <time>2010-04-25T09:49:44Z</time>
      </trkpt>
      <trkpt lat="45.39082" lon="4.48989">
        <ele>1005.530762</ele>
        <time>2010-04-25T09:49:49Z</time>
      </trkpt>
      <trkpt lat="45.39079" lon="4.4898">
        <ele>1005.892029</ele>
        <time>2010-04-25T09:49:54Z</time>
      </trkpt>
      <trkpt lat="45.39077" lon="4.48972">
        <ele>1006.28241</ele>
        <time>2010-04-25T09:49:59Z</time>
      </trkpt>
      <trkpt lat="45.39074" lon="4.48966">
        <ele>1006.72168</ele>
        <time>2010-04-25T09:50:04Z</time>
      </trkpt>
      <trkpt lat="45.39073" lon="4.4896">
        <ele>1006.936584</ele>
        <time>2010-04-25T09:50:09Z</time>
      </trkpt>
      <trkpt lat="45.39071" lon="4.48953">
        <ele>1007.246277</ele>
        <time>2010-04-25T09:50:14Z</time>
      </trkpt>
      <trkpt lat="45.39069" lon="4.48947">
        <ele>1007.697571</ele>
        <time>2010-04-25T09:50:20Z</time>
      </trkpt>
      <trkpt lat="45.39066" lon="4.48941">
        <ele>1008.516052</ele>
        <time>2010-04-25T09:50:26Z</time>
      </trkpt>
      <trkpt lat="45.39062" lon="4.48933">
        <ele>1009.361084</ele>
        <time>2010-04-25T09:50:32Z</time>
      </trkpt>
      <trkpt lat="45.3906" lon="4.48926">
        <ele>1009.726501</ele>
        <time>2010-04-25T09:50:37Z</time>
      </trkpt>
      <trkpt lat="45.39058" lon="4.48919">
        <ele>1010.153442</ele>
        <time>2010-04-25T09:50:42Z</time>
      </trkpt>
      <trkpt lat="45.39055" lon="4.48911">
        <ele>1010.732483</ele>
        <time>2010-04-25T09:50:47Z</time>
      </trkpt>
      <trkpt lat="45.39054" lon="4.48902">
        <ele>1010.847473</ele>
        <time>2010-04-25T09:50:52Z</time>
      </trkpt>
      <trkpt lat="45.39052" lon="4.48894">
        <ele>1011.14502</ele>
        <time>2010-04-25T09:50:57Z</time>
      </trkpt>
      <trkpt lat="45.39051" lon="4.48884">
        <ele>1010.890015</ele>
        <time>2010-04-25T09:51:02Z</time>
      </trkpt>
      <trkpt lat="45.3905" lon="4.48875">
        <ele>1010.789978</ele>
        <time>2010-04-25T09:51:07Z</time>
      </trkpt>
      <trkpt lat="45.39048" lon="4.48866">
        <ele>1011.067505</ele>
        <time>2010-04-25T09:51:12Z</time>
      </trkpt>
      <trkpt lat="45.39044" lon="4.48858">
        <ele>1012.044983</ele>
        <time>2010-04-25T09:51:17Z</time>
      </trkpt>
      <trkpt lat="45.3904" lon="4.4885">
        <ele>1013.05249</ele>
        <time>2010-04-25T09:51:22Z</time>
      </trkpt>
      <trkpt lat="45.39038" lon="4.48841">
        <ele>1013.535034</ele>
        <time>2010-04-25T09:51:27Z</time>
      </trkpt>
      <trkpt lat="45.39035" lon="4.48831">
        <ele>1014.147522</ele>
        <time>2010-04-25T09:51:32Z</time>
      </trkpt>
      <trkpt lat="45.39033" lon="4.48822">
        <ele>1014.23999</ele>
        <time>2010-04-25T09:51:37Z</time>
      </trkpt>
      <trkpt lat="45.39031" lon="4.4881">
        <ele>1014.337524</ele>
        <time>2010-04-25T09:51:42Z</time>
      </trkpt>
      <trkpt lat="45.39029" lon="4.48795">
        <ele>1014.222473</ele>
        <time>2010-04-25T09:51:47Z</time>
      </trkpt>
      <trkpt lat="45.39026" lon="4.48783">
        <ele>1014.710022</ele>
        <time>2010-04-25T09:51:52Z</time>
      </trkpt>
      <trkpt lat="45.39022" lon="4.48772">
        <ele>1015.554993</ele>
        <time>2010-04-25T09:51:57Z</time>
      </trkpt>
      <trkpt lat="45.39019" lon="4.48762">
        <ele>1016.284973</ele>
        <time>2010-04-25T09:52:02Z</time>
      </trkpt>
      <trkpt lat="45.39015" lon="4.4875">
        <ele>1017.080017</ele>
        <time>2010-04-25T09:52:07Z</time>
      </trkpt>
      <trkpt lat="45.39012" lon="4.48737">
        <ele>1017.672485</ele>
        <time>2010-04-25T09:52:12Z</time>
      </trkpt>
      <trkpt lat="45.39009" lon="4.48726">
        <ele>1018.030029</ele>
        <time>2010-04-25T09:52:17Z</time>
      </trkpt>
      <trkpt lat="45.39006" lon="4.48714">
        <ele>1018.14502</ele>
        <time>2010-04-25T09:52:22Z</time>
      </trkpt>
      <trkpt lat="45.39005" lon="4.48702">
        <ele>1018</ele>
        <time>2010-04-25T09:52:27Z</time>
      </trkpt>
      <trkpt lat="45.39003" lon="4.4869">
        <ele>1017.79248</ele>
        <time>2010-04-25T09:52:32Z</time>
      </trkpt>
      <trkpt lat="45.39001" lon="4.48677">
        <ele>1018.269104</ele>
        <time>2010-04-25T09:52:37Z</time>
      </trkpt>
      <trkpt lat="45.38999" lon="4.48667">
        <ele>1018.599792</ele>
        <time>2010-04-25T09:52:42Z</time>
      </trkpt>
      <trkpt lat="45.39" lon="4.48656">
        <ele>1017.989441</ele>
        <time>2010-04-25T09:52:47Z</time>
      </trkpt>
      <trkpt lat="45.39" lon="4.48646">
        <ele>1017.793457</ele>
        <time>2010-04-25T09:52:52Z</time>
      </trkpt>
      <trkpt lat="45.38996" lon="4.48632">
        <ele>1018.791199</ele>
        <time>2010-04-25T09:52:57Z</time>
      </trkpt>
      <trkpt lat="45.38993" lon="4.48619">
        <ele>1019.220093</ele>
        <time>2010-04-25T09:53:02Z</time>
      </trkpt>
      <trkpt lat="45.38992" lon="4.48606">
        <ele>1019.265015</ele>
        <time>2010-04-25T09:53:07Z</time>
      </trkpt>
      <trkpt lat="45.38987" lon="4.48593">
        <ele>1020.170898</ele>
        <time>2010-04-25T09:53:12Z</time>
      </trkpt>
      <trkpt lat="45.38984" lon="4.4858">
        <ele>1020.812805</ele>
        <time>2010-04-25T09:53:17Z</time>
      </trkpt>
      <trkpt lat="45.3898" lon="4.48568">
        <ele>1021.537903</ele>
        <time>2010-04-25T09:53:22Z</time>
      </trkpt>
      <trkpt lat="45.38976" lon="4.48557">
        <ele>1022.747803</ele>
        <time>2010-04-25T09:53:27Z</time>
      </trkpt>
      <trkpt lat="45.38969" lon="4.48545">
        <ele>1023.629578</ele>
        <time>2010-04-25T09:53:32Z</time>
      </trkpt>
      <trkpt lat="45.38963" lon="4.48535">
        <ele>1024.054565</ele>
        <time>2010-04-25T09:53:37Z</time>
      </trkpt>
      <trkpt lat="45.38956" lon="4.48526">
        <ele>1024.906738</ele>
        <time>2010-04-25T09:53:42Z</time>
      </trkpt>
      <trkpt lat="45.38948" lon="4.48518">
        <ele>1025.998901</ele>
        <time>2010-04-25T09:53:47Z</time>
      </trkpt>
      <trkpt lat="45.38942" lon="4.48508">
        <ele>1026.736328</ele>
        <time>2010-04-25T09:53:52Z</time>
      </trkpt>
      <trkpt lat="45.38937" lon="4.48496">
        <ele>1027.086914</ele>
        <time>2010-04-25T09:53:57Z</time>
      </trkpt>
      <trkpt lat="45.38936" lon="4.48481">
        <ele>1028.22583</ele>
        <time>2010-04-25T09:54:02Z</time>
      </trkpt>
      <trkpt lat="45.38939" lon="4.48467">
        <ele>1029.085571</ele>
        <time>2010-04-25T09:54:07Z</time>
      </trkpt>
      <trkpt lat="45.38947" lon="4.48456">
        <ele>1028.587646</ele>
        <time>2010-04-25T09:54:12Z</time>
      </trkpt>
      <trkpt lat="45.38958" lon="4.48448">
        <ele>1027.580078</ele>
        <time>2010-04-25T09:54:17Z</time>
      </trkpt>
      <trkpt lat="45.38968" lon="4.48441">
        <ele>1026.38855</ele>
        <time>2010-04-25T09:54:22Z</time>
      </trkpt>
      <trkpt lat="45.38976" lon="4.48432">
        <ele>1026.18396</ele>
        <time>2010-04-25T09:54:27Z</time>
      </trkpt>
      <trkpt lat="45.38982" lon="4.48422">
        <ele>1026.377563</ele>
        <time>2010-04-25T09:54:32Z</time>
      </trkpt>
      <trkpt lat="45.38985" lon="4.48409">
        <ele>1026.952515</ele>
        <time>2010-04-25T09:54:37Z</time>
      </trkpt>
      <trkpt lat="45.38987" lon="4.48396">
        <ele>1027.611206</ele>
        <time>2010-04-25T09:54:42Z</time>
      </trkpt>
      <trkpt lat="45.3899" lon="4.48382">
        <ele>1028.402466</ele>
        <time>2010-04-25T09:54:47Z</time>
      </trkpt>
      <trkpt lat="45.3899" lon="4.48366">
        <ele>1029.538696</ele>
        <time>2010-04-25T09:54:52Z</time>
      </trkpt>
      <trkpt lat="45.38991" lon="4.48353">
        <ele>1029.55957</ele>
        <time>2010-04-25T09:54:57Z</time>
      </trkpt>
      <trkpt lat="45.38991" lon="4.4834">
        <ele>1029.598755</ele>
        <time>2010-04-25T09:55:02Z</time>
      </trkpt>
      <trkpt lat="45.38992" lon="4.48327">
        <ele>1029.540771</ele>
        <time>2010-04-25T09:55:07Z</time>
      </trkpt>
      <trkpt lat="45.38992" lon="4.48315">
        <ele>1029.624268</ele>
        <time>2010-04-25T09:55:12Z</time>
      </trkpt>
      <trkpt lat="45.3899" lon="4.48302">
        <ele>1029.750854</ele>
        <time>2010-04-25T09:55:17Z</time>
      </trkpt>
      <trkpt lat="45.38987" lon="4.48289">
        <ele>1029.988159</ele>
        <time>2010-04-25T09:55:22Z</time>
      </trkpt>
      <trkpt lat="45.38983" lon="4.48277">
        <ele>1030.21814</ele>
        <time>2010-04-25T09:55:27Z</time>
      </trkpt>
      <trkpt lat="45.38979" lon="4.48264">
        <ele>1030.323975</ele>
        <time>2010-04-25T09:55:32Z</time>
      </trkpt>
      <trkpt lat="45.38975" lon="4.48255">
        <ele>1030.429077</ele>
        <time>2010-04-25T09:55:37Z</time>
      </trkpt>
      <trkpt lat="45.38971" lon="4.48248">
        <ele>1030.528442</ele>
        <time>2010-04-25T09:55:42Z</time>
      </trkpt>
      <trkpt lat="45.38966" lon="4.48242">
        <ele>1030.64209</ele>
        <time>2010-04-25T09:55:47Z</time>
      </trkpt>
      <trkpt lat="45.3896" lon="4.48253">
        <ele>1031.232056</ele>
        <time>2010-04-25T09:55:54Z</time>
      </trkpt>
      <trkpt lat="45.38954" lon="4.48261">
        <ele>1031.840698</ele>
        <time>2010-04-25T09:55:59Z</time>
      </trkpt>
      <trkpt lat="45.38947" lon="4.48272">
        <ele>1032.636719</ele>
        <time>2010-04-25T09:56:04Z</time>
      </trkpt>
      <trkpt lat="45.38936" lon="4.48287">
        <ele>1034.081055</ele>
        <time>2010-04-25T09:56:10Z</time>
      </trkpt>
      <trkpt lat="45.38926" lon="4.483">
        <ele>1035.469971</ele>
        <time>2010-04-25T09:56:15Z</time>
      </trkpt>
      <trkpt lat="45.38915" lon="4.48312">
        <ele>1036.952515</ele>
        <time>2010-04-25T09:56:20Z</time>
      </trkpt>
      <trkpt lat="45.38903" lon="4.48325">
        <ele>1038.587524</ele>
        <time>2010-04-25T09:56:26Z</time>
      </trkpt>
      <trkpt lat="45.38894" lon="4.48335">
        <ele>1039.772461</ele>
        <time>2010-04-25T09:56:31Z</time>
      </trkpt>
      <trkpt lat="45.38885" lon="4.48345">
        <ele>1041.025024</ele>
        <time>2010-04-25T09:56:36Z</time>
      </trkpt>
      <trkpt lat="45.38876" lon="4.48356">
        <ele>1042.13501</ele>
        <time>2010-04-25T09:56:41Z</time>
      </trkpt>
      <trkpt lat="45.38866" lon="4.48366">
        <ele>1042.927612</ele>
        <time>2010-04-25T09:56:46Z</time>
      </trkpt>
      <trkpt lat="45.38859" lon="4.48373">
        <ele>1043.379761</ele>
        <time>2010-04-25T09:56:51Z</time>
      </trkpt>
      <trkpt lat="45.38852" lon="4.48379">
        <ele>1043.90271</ele>
        <time>2010-04-25T09:56:56Z</time>
      </trkpt>
      <trkpt lat="45.38845" lon="4.48384">
        <ele>1044.446655</ele>
        <time>2010-04-25T09:57:01Z</time>
      </trkpt>
      <trkpt lat="45.38838" lon="4.48389">
        <ele>1045.017456</ele>
        <time>2010-04-25T09:57:06Z</time>
      </trkpt>
      <trkpt lat="45.3883" lon="4.48391">
        <ele>1045.63501</ele>
        <time>2010-04-25T09:57:11Z</time>
      </trkpt>
      <trkpt lat="45.38824" lon="4.48391">
        <ele>1046.087524</ele>
        <time>2010-04-25T09:57:16Z</time>
      </trkpt>
      <trkpt lat="45.38817" lon="4.48393">
        <ele>1046.577515</ele>
        <time>2010-04-25T09:57:21Z</time>
      </trkpt>
      <trkpt lat="45.38811" lon="4.48397">
        <ele>1047.125</ele>
        <time>2010-04-25T09:57:26Z</time>
      </trkpt>
      <trkpt lat="45.38805" lon="4.48403">
        <ele>1047.734985</ele>
        <time>2010-04-25T09:57:31Z</time>
      </trkpt>
      <trkpt lat="45.38798" lon="4.4841">
        <ele>1048.402466</ele>
        <time>2010-04-25T09:57:36Z</time>
      </trkpt>
      <trkpt lat="45.38791" lon="4.48415">
        <ele>1049.050903</ele>
        <time>2010-04-25T09:57:41Z</time>
      </trkpt>
      <trkpt lat="45.38784" lon="4.4842">
        <ele>1049.861084</ele>
        <time>2010-04-25T09:57:47Z</time>
      </trkpt>
      <trkpt lat="45.38778" lon="4.48423">
        <ele>1050.45874</ele>
        <time>2010-04-25T09:57:52Z</time>
      </trkpt>
      <trkpt lat="45.38772" lon="4.48425">
        <ele>1051.003784</ele>
        <time>2010-04-25T09:57:57Z</time>
      </trkpt>
      <trkpt lat="45.38767" lon="4.48428">
        <ele>1051.491211</ele>
        <time>2010-04-25T09:58:02Z</time>
      </trkpt>
      <trkpt lat="45.38763" lon="4.48432">
        <ele>1051.95752</ele>
        <time>2010-04-25T09:58:07Z</time>
      </trkpt>
      <trkpt lat="45.38757" lon="4.48438">
        <ele>1052.555054</ele>
        <time>2010-04-25T09:58:14Z</time>
      </trkpt>
      <trkpt lat="45.38754" lon="4.48451">
        <ele>1053.038818</ele>
        <time>2010-04-25T09:58:24Z</time>
      </trkpt>
      <trkpt lat="45.38749" lon="4.48454">
        <ele>1053.496216</ele>
        <time>2010-04-25T09:58:30Z</time>
      </trkpt>
      <trkpt lat="45.38745" lon="4.48456">
        <ele>1053.9552</ele>
        <time>2010-04-25T09:58:36Z</time>
      </trkpt>
      <trkpt lat="45.38741" lon="4.48459">
        <ele>1054.386719</ele>
        <time>2010-04-25T09:58:42Z</time>
      </trkpt>
      <trkpt lat="45.38736" lon="4.48463">
        <ele>1054.920166</ele>
        <time>2010-04-25T09:58:48Z</time>
      </trkpt>
      <trkpt lat="45.38732" lon="4.48465">
        <ele>1055.415894</ele>
        <time>2010-04-25T09:58:54Z</time>
      </trkpt>
      <trkpt lat="45.38729" lon="4.48467">
        <ele>1055.777588</ele>
        <time>2010-04-25T09:58:59Z</time>
      </trkpt>
      <trkpt lat="45.38725" lon="4.4847">
        <ele>1056.293457</ele>
        <time>2010-04-25T09:59:05Z</time>
      </trkpt>
      <trkpt lat="45.38721" lon="4.48473">
        <ele>1056.767944</ele>
        <time>2010-04-25T09:59:11Z</time>
      </trkpt>
      <trkpt lat="45.38717" lon="4.48476">
        <ele>1057.280518</ele>
        <time>2010-04-25T09:59:17Z</time>
      </trkpt>
      <trkpt lat="45.38713" lon="4.48478">
        <ele>1057.813477</ele>
        <time>2010-04-25T09:59:23Z</time>
      </trkpt>
      <trkpt lat="45.38709" lon="4.48482">
        <ele>1058.297729</ele>
        <time>2010-04-25T09:59:29Z</time>
      </trkpt>
      <trkpt lat="45.38705" lon="4.48485">
        <ele>1058.901245</ele>
        <time>2010-04-25T09:59:36Z</time>
      </trkpt>
      <trkpt lat="45.38703" lon="4.48489">
        <ele>1059.344971</ele>
        <time>2010-04-25T09:59:42Z</time>
      </trkpt>
      <trkpt lat="45.387" lon="4.48492">
        <ele>1059.905029</ele>
        <time>2010-04-25T09:59:47Z</time>
      </trkpt>
      <trkpt lat="45.38696" lon="4.48494">
        <ele>1060.642456</ele>
        <time>2010-04-25T09:59:53Z</time>
      </trkpt>
      <trkpt lat="45.38692" lon="4.48498">
        <ele>1061.388794</ele>
        <time>2010-04-25T09:59:59Z</time>
      </trkpt>
      <trkpt lat="45.38689" lon="4.48501">
        <ele>1061.962524</ele>
        <time>2010-04-25T10:00:04Z</time>
      </trkpt>
      <trkpt lat="45.38686" lon="4.48504">
        <ele>1062.704956</ele>
        <time>2010-04-25T10:00:10Z</time>
      </trkpt>
      <trkpt lat="45.38682" lon="4.48509">
        <ele>1063.492554</ele>
        <time>2010-04-25T10:00:17Z</time>
      </trkpt>
      <trkpt lat="45.38678" lon="4.48513">
        <ele>1064.212524</ele>
        <time>2010-04-25T10:00:23Z</time>
      </trkpt>
      <trkpt lat="45.38668" lon="4.48512">
        <ele>1065.807495</ele>
        <time>2010-04-25T10:00:30Z</time>
      </trkpt>
      <trkpt lat="45.38664" lon="4.48516">
        <ele>1066.632568</ele>
        <time>2010-04-25T10:00:36Z</time>
      </trkpt>
      <trkpt lat="45.3866" lon="4.4852">
        <ele>1067.474976</ele>
        <time>2010-04-25T10:00:42Z</time>
      </trkpt>
      <trkpt lat="45.38656" lon="4.48523">
        <ele>1068.22998</ele>
        <time>2010-04-25T10:00:49Z</time>
      </trkpt>
      <trkpt lat="45.38654" lon="4.48526">
        <ele>1068.768799</ele>
        <time>2010-04-25T10:00:55Z</time>
      </trkpt>
      <trkpt lat="45.38649" lon="4.4853">
        <ele>1069.733765</ele>
        <time>2010-04-25T10:01:03Z</time>
      </trkpt>
      <trkpt lat="45.38646" lon="4.48535">
        <ele>1070.607544</ele>
        <time>2010-04-25T10:01:08Z</time>
      </trkpt>
      <trkpt lat="45.38644" lon="4.48534">
        <ele>1070.939941</ele>
        <time>2010-04-25T10:01:13Z</time>
      </trkpt>
      <trkpt lat="45.38641" lon="4.48535">
        <ele>1071.381226</ele>
        <time>2010-04-25T10:01:20Z</time>
      </trkpt>
      <trkpt lat="45.38639" lon="4.48534">
        <ele>1071.72998</ele>
        <time>2010-04-25T10:01:27Z</time>
      </trkpt>
      <trkpt lat="45.38637" lon="4.48534">
        <ele>1072.163696</ele>
        <time>2010-04-25T10:01:32Z</time>
      </trkpt>
      <trkpt lat="45.38635" lon="4.48537">
        <ele>1072.630005</ele>
        <time>2010-04-25T10:01:37Z</time>
      </trkpt>
      <trkpt lat="45.38637" lon="4.48541">
        <ele>1072.401245</ele>
        <time>2010-04-25T10:01:44Z</time>
      </trkpt>
      <trkpt lat="45.38633" lon="4.48551">
        <ele>1073.13562</ele>
        <time>2010-04-25T10:01:50Z</time>
      </trkpt>
      <trkpt lat="45.3863" lon="4.48559">
        <ele>1073.674561</ele>
        <time>2010-04-25T10:01:56Z</time>
      </trkpt>
      <trkpt lat="45.38626" lon="4.48567">
        <ele>1074.30188</ele>
        <time>2010-04-25T10:02:01Z</time>
      </trkpt>
      <trkpt lat="45.38621" lon="4.48572">
        <ele>1074.959839</ele>
        <time>2010-04-25T10:02:07Z</time>
      </trkpt>
      <trkpt lat="45.38617" lon="4.48579">
        <ele>1075.589722</ele>
        <time>2010-04-25T10:02:13Z</time>
      </trkpt>
      <trkpt lat="45.38612" lon="4.48583">
        <ele>1076.213623</ele>
        <time>2010-04-25T10:02:19Z</time>
      </trkpt>
      <trkpt lat="45.38607" lon="4.48588">
        <ele>1076.809692</ele>
        <time>2010-04-25T10:02:24Z</time>
      </trkpt>
      <trkpt lat="45.38601" lon="4.48595">
        <ele>1077.470215</ele>
        <time>2010-04-25T10:02:29Z</time>
      </trkpt>
      <trkpt lat="45.38595" lon="4.48601">
        <ele>1078.140625</ele>
        <time>2010-04-25T10:02:35Z</time>
      </trkpt>
      <trkpt lat="45.38591" lon="4.48608">
        <ele>1078.581909</ele>
        <time>2010-04-25T10:02:40Z</time>
      </trkpt>
      <trkpt lat="45.38587" lon="4.48616">
        <ele>1078.78479</ele>
        <time>2010-04-25T10:02:45Z</time>
      </trkpt>
      <trkpt lat="45.38581" lon="4.48624">
        <ele>1079.151001</ele>
        <time>2010-04-25T10:02:51Z</time>
      </trkpt>
      <trkpt lat="45.38575" lon="4.48631">
        <ele>1079.611206</ele>
        <time>2010-04-25T10:02:58Z</time>
      </trkpt>
      <trkpt lat="45.38569" lon="4.48636">
        <ele>1080.06604</ele>
        <time>2010-04-25T10:03:04Z</time>
      </trkpt>
      <trkpt lat="45.38564" lon="4.48642">
        <ele>1080.40332</ele>
        <time>2010-04-25T10:03:09Z</time>
      </trkpt>
      <trkpt lat="45.38557" lon="4.48648">
        <ele>1080.971191</ele>
        <time>2010-04-25T10:03:14Z</time>
      </trkpt>
      <trkpt lat="45.38551" lon="4.48655">
        <ele>1081.463135</ele>
        <time>2010-04-25T10:03:19Z</time>
      </trkpt>
      <trkpt lat="45.38547" lon="4.48661">
        <ele>1081.67395</ele>
        <time>2010-04-25T10:03:24Z</time>
      </trkpt>
      <trkpt lat="45.38541" lon="4.48668">
        <ele>1081.99585</ele>
        <time>2010-04-25T10:03:29Z</time>
      </trkpt>
      <trkpt lat="45.38536" lon="4.48677">
        <ele>1082.156982</ele>
        <time>2010-04-25T10:03:34Z</time>
      </trkpt>
      <trkpt lat="45.38529" lon="4.48688">
        <ele>1082.478394</ele>
        <time>2010-04-25T10:03:39Z</time>
      </trkpt>
      <trkpt lat="45.38522" lon="4.48702">
        <ele>1082.386963</ele>
        <time>2010-04-25T10:03:44Z</time>
      </trkpt>
      <trkpt lat="45.38516" lon="4.48715">
        <ele>1082.247559</ele>
        <time>2010-04-25T10:03:49Z</time>
      </trkpt>
      <trkpt lat="45.38509" lon="4.48724">
        <ele>1082.327515</ele>
        <time>2010-04-25T10:03:54Z</time>
      </trkpt>
      <trkpt lat="45.38501" lon="4.48735">
        <ele>1082.734985</ele>
        <time>2010-04-25T10:03:59Z</time>
      </trkpt>
      <trkpt lat="45.38493" lon="4.48748">
        <ele>1083.11499</ele>
        <time>2010-04-25T10:04:04Z</time>
      </trkpt>
      <trkpt lat="45.38486" lon="4.48764">
        <ele>1083.382446</ele>
        <time>2010-04-25T10:04:09Z</time>
      </trkpt>
      <trkpt lat="45.38475" lon="4.48783">
        <ele>1083.912476</ele>
        <time>2010-04-25T10:04:15Z</time>
      </trkpt>
      <trkpt lat="45.38466" lon="4.488">
        <ele>1084.425049</ele>
        <time>2010-04-25T10:04:20Z</time>
      </trkpt>
      <trkpt lat="45.38457" lon="4.48817">
        <ele>1084.765015</ele>
        <time>2010-04-25T10:04:25Z</time>
      </trkpt>
      <trkpt lat="45.38449" lon="4.48833">
        <ele>1085.094971</ele>
        <time>2010-04-25T10:04:30Z</time>
      </trkpt>
      <trkpt lat="45.38442" lon="4.4885">
        <ele>1085.367432</ele>
        <time>2010-04-25T10:04:35Z</time>
      </trkpt>
      <trkpt lat="45.38431" lon="4.48865">
        <ele>1085.91748</ele>
        <time>2010-04-25T10:04:40Z</time>
      </trkpt>
      <trkpt lat="45.3842" lon="4.48877">
        <ele>1086.405029</ele>
        <time>2010-04-25T10:04:45Z</time>
      </trkpt>
      <trkpt lat="45.38409" lon="4.48892">
        <ele>1086.66748</ele>
        <time>2010-04-25T10:04:50Z</time>
      </trkpt>
      <trkpt lat="45.38398" lon="4.48908">
        <ele>1086.83374</ele>
        <time>2010-04-25T10:04:55Z</time>
      </trkpt>
      <trkpt lat="45.38386" lon="4.48923">
        <ele>1087.136108</ele>
        <time>2010-04-25T10:05:00Z</time>
      </trkpt>
      <trkpt lat="45.38374" lon="4.4894">
        <ele>1087.119995</ele>
        <time>2010-04-25T10:05:05Z</time>
      </trkpt>
      <trkpt lat="45.3836" lon="4.48955">
        <ele>1086.977539</ele>
        <time>2010-04-25T10:05:10Z</time>
      </trkpt>
      <trkpt lat="45.38348" lon="4.4897">
        <ele>1086.782471</ele>
        <time>2010-04-25T10:05:15Z</time>
      </trkpt>
      <trkpt lat="45.38337" lon="4.48983">
        <ele>1086.589966</ele>
        <time>2010-04-25T10:05:20Z</time>
      </trkpt>
      <trkpt lat="45.38324" lon="4.48992">
        <ele>1086.555298</ele>
        <time>2010-04-25T10:05:25Z</time>
      </trkpt>
      <trkpt lat="45.3831" lon="4.49002">
        <ele>1086.67749</ele>
        <time>2010-04-25T10:05:30Z</time>
      </trkpt>
      <trkpt lat="45.38295" lon="4.49015">
        <ele>1086.77356</ele>
        <time>2010-04-25T10:05:36Z</time>
      </trkpt>
      <trkpt lat="45.38282" lon="4.49026">
        <ele>1087.144287</ele>
        <time>2010-04-25T10:05:41Z</time>
      </trkpt>
      <trkpt lat="45.38268" lon="4.49037">
        <ele>1087.80603</ele>
        <time>2010-04-25T10:05:46Z</time>
      </trkpt>
      <trkpt lat="45.38256" lon="4.49047">
        <ele>1088.527222</ele>
        <time>2010-04-25T10:05:51Z</time>
      </trkpt>
      <trkpt lat="45.38245" lon="4.49057">
        <ele>1089.365112</ele>
        <time>2010-04-25T10:05:56Z</time>
      </trkpt>
      <trkpt lat="45.38237" lon="4.49064">
        <ele>1090.067505</ele>
        <time>2010-04-25T10:06:01Z</time>
      </trkpt>
      <trkpt lat="45.38229" lon="4.49072">
        <ele>1090.827515</ele>
        <time>2010-04-25T10:06:07Z</time>
      </trkpt>
      <trkpt lat="45.38224" lon="4.49077">
        <ele>1091.286255</ele>
        <time>2010-04-25T10:06:12Z</time>
      </trkpt>
      <trkpt lat="45.38219" lon="4.49083">
        <ele>1091.77002</ele>
        <time>2010-04-25T10:06:17Z</time>
      </trkpt>
      <trkpt lat="45.38213" lon="4.49089">
        <ele>1092.331299</ele>
        <time>2010-04-25T10:06:23Z</time>
      </trkpt>
      <trkpt lat="45.38207" lon="4.49094">
        <ele>1092.878784</ele>
        <time>2010-04-25T10:06:28Z</time>
      </trkpt>
      <trkpt lat="45.38201" lon="4.49098">
        <ele>1093.482544</ele>
        <time>2010-04-25T10:06:33Z</time>
      </trkpt>
      <trkpt lat="45.38195" lon="4.49102">
        <ele>1093.941895</ele>
        <time>2010-04-25T10:06:38Z</time>
      </trkpt>
      <trkpt lat="45.38189" lon="4.49106">
        <ele>1094.082764</ele>
        <time>2010-04-25T10:06:43Z</time>
      </trkpt>
      <trkpt lat="45.38183" lon="4.4911">
        <ele>1094.161743</ele>
        <time>2010-04-25T10:06:48Z</time>
      </trkpt>
      <trkpt lat="45.38177" lon="4.49113">
        <ele>1094.259521</ele>
        <time>2010-04-25T10:06:53Z</time>
      </trkpt>
      <trkpt lat="45.3817" lon="4.49117">
        <ele>1094.308716</ele>
        <time>2010-04-25T10:06:59Z</time>
      </trkpt>
      <trkpt lat="45.38163" lon="4.4912">
        <ele>1094.44043</ele>
        <time>2010-04-25T10:07:04Z</time>
      </trkpt>
      <trkpt lat="45.38157" lon="4.49122">
        <ele>1094.520752</ele>
        <time>2010-04-25T10:07:09Z</time>
      </trkpt>
      <trkpt lat="45.3815" lon="4.49125">
        <ele>1094.515015</ele>
        <time>2010-04-25T10:07:14Z</time>
      </trkpt>
      <trkpt lat="45.38143" lon="4.49129">
        <ele>1094.962524</ele>
        <time>2010-04-25T10:07:19Z</time>
      </trkpt>
      <trkpt lat="45.38137" lon="4.49131">
        <ele>1095.412476</ele>
        <time>2010-04-25T10:07:24Z</time>
      </trkpt>
      <trkpt lat="45.38129" lon="4.49134">
        <ele>1096.030029</ele>
        <time>2010-04-25T10:07:29Z</time>
      </trkpt>
      <trkpt lat="45.38122" lon="4.49137">
        <ele>1096.442505</ele>
        <time>2010-04-25T10:07:34Z</time>
      </trkpt>
      <trkpt lat="45.38116" lon="4.4914">
        <ele>1096.83252</ele>
        <time>2010-04-25T10:07:39Z</time>
      </trkpt>
      <trkpt lat="45.38109" lon="4.49144">
        <ele>1097.189941</ele>
        <time>2010-04-25T10:07:44Z</time>
      </trkpt>
      <trkpt lat="45.38103" lon="4.49148">
        <ele>1097.509155</ele>
        <time>2010-04-25T10:07:49Z</time>
      </trkpt>
      <trkpt lat="45.38093" lon="4.49154">
        <ele>1098.107178</ele>
        <time>2010-04-25T10:07:54Z</time>
      </trkpt>
      <trkpt lat="45.38083" lon="4.49159">
        <ele>1098.995483</ele>
        <time>2010-04-25T10:07:59Z</time>
      </trkpt>
      <trkpt lat="45.38073" lon="4.49165">
        <ele>1099.31665</ele>
        <time>2010-04-25T10:08:04Z</time>
      </trkpt>
      <trkpt lat="45.38063" lon="4.49171">
        <ele>1099.445801</ele>
        <time>2010-04-25T10:08:09Z</time>
      </trkpt>
      <trkpt lat="45.38055" lon="4.49178">
        <ele>1099.458984</ele>
        <time>2010-04-25T10:08:14Z</time>
      </trkpt>
      <trkpt lat="45.38045" lon="4.49183">
        <ele>1099.979492</ele>
        <time>2010-04-25T10:08:20Z</time>
      </trkpt>
      <trkpt lat="45.38037" lon="4.49188">
        <ele>1100.291992</ele>
        <time>2010-04-25T10:08:25Z</time>
      </trkpt>
      <trkpt lat="45.38029" lon="4.49193">
        <ele>1100.751343</ele>
        <time>2010-04-25T10:08:30Z</time>
      </trkpt>
      <trkpt lat="45.38021" lon="4.49199">
        <ele>1101.357422</ele>
        <time>2010-04-25T10:08:35Z</time>
      </trkpt>
      <trkpt lat="45.38012" lon="4.49205">
        <ele>1102.062744</ele>
        <time>2010-04-25T10:08:40Z</time>
      </trkpt>
      <trkpt lat="45.38005" lon="4.49211">
        <ele>1102.603516</ele>
        <time>2010-04-25T10:08:45Z</time>
      </trkpt>
      <trkpt lat="45.37997" lon="4.49217">
        <ele>1103.358765</ele>
        <time>2010-04-25T10:08:50Z</time>
      </trkpt>
      <trkpt lat="45.37989" lon="4.49221">
        <ele>1104.187866</ele>
        <time>2010-04-25T10:08:55Z</time>
      </trkpt>
      <trkpt lat="45.37983" lon="4.49227">
        <ele>1104.257324</ele>
        <time>2010-04-25T10:09:00Z</time>
      </trkpt>
      <trkpt lat="45.37976" lon="4.49232">
        <ele>1104.44397</ele>
        <time>2010-04-25T10:09:05Z</time>
      </trkpt>
      <trkpt lat="45.37971" lon="4.49238">
        <ele>1104.625244</ele>
        <time>2010-04-25T10:09:10Z</time>
      </trkpt>
      <trkpt lat="45.37965" lon="4.49243">
        <ele>1104.932617</ele>
        <time>2010-04-25T10:09:16Z</time>
      </trkpt>
      <trkpt lat="45.37959" lon="4.49249">
        <ele>1105.411743</ele>
        <time>2010-04-25T10:09:22Z</time>
      </trkpt>
      <trkpt lat="45.37953" lon="4.49253">
        <ele>1106.009277</ele>
        <time>2010-04-25T10:09:27Z</time>
      </trkpt>
      <trkpt lat="45.37947" lon="4.4926">
        <ele>1106.568359</ele>
        <time>2010-04-25T10:09:32Z</time>
      </trkpt>
      <trkpt lat="45.37942" lon="4.49267">
        <ele>1106.964478</ele>
        <time>2010-04-25T10:09:37Z</time>
      </trkpt>
      <trkpt lat="45.37938" lon="4.49274">
        <ele>1107.502319</ele>
        <time>2010-04-25T10:09:42Z</time>
      </trkpt>
      <trkpt lat="45.37933" lon="4.49281">
        <ele>1108.174194</ele>
        <time>2010-04-25T10:09:48Z</time>
      </trkpt>
      <trkpt lat="45.37923" lon="4.49295">
        <ele>1109.66333</ele>
        <time>2010-04-25T10:09:58Z</time>
      </trkpt>
      <trkpt lat="45.3792" lon="4.49298">
        <ele>1109.964355</ele>
        <time>2010-04-25T10:10:03Z</time>
      </trkpt>
      <trkpt lat="45.37917" lon="4.49303">
        <ele>1110.192017</ele>
        <time>2010-04-25T10:10:09Z</time>
      </trkpt>
      <trkpt lat="45.37915" lon="4.49309">
        <ele>1110.206421</ele>
        <time>2010-04-25T10:10:15Z</time>
      </trkpt>
      <trkpt lat="45.37912" lon="4.49314">
        <ele>1110.436523</ele>
        <time>2010-04-25T10:10:21Z</time>
      </trkpt>
      <trkpt lat="45.37909" lon="4.49319">
        <ele>1110.706787</ele>
        <time>2010-04-25T10:10:27Z</time>
      </trkpt>
      <trkpt lat="45.37906" lon="4.4933">
        <ele>1110.738037</ele>
        <time>2010-04-25T10:10:36Z</time>
      </trkpt>
      <trkpt lat="45.37903" lon="4.49335">
        <ele>1111.131958</ele>
        <time>2010-04-25T10:10:42Z</time>
      </trkpt>
      <trkpt lat="45.37901" lon="4.49338">
        <ele>1111.395874</ele>
        <time>2010-04-25T10:10:47Z</time>
      </trkpt>
      <trkpt lat="45.37898" lon="4.49343">
        <ele>1111.897827</ele>
        <time>2010-04-25T10:10:53Z</time>
      </trkpt>
      <trkpt lat="45.37894" lon="4.49348">
        <ele>1112.683594</ele>
        <time>2010-04-25T10:10:59Z</time>
      </trkpt>
      <trkpt lat="45.37891" lon="4.49354">
        <ele>1113.317627</ele>
        <time>2010-04-25T10:11:05Z</time>
      </trkpt>
      <trkpt lat="45.37888" lon="4.49359">
        <ele>1114.05835</ele>
        <time>2010-04-25T10:11:11Z</time>
      </trkpt>
      <trkpt lat="45.37884" lon="4.49365">
        <ele>1114.841064</ele>
        <time>2010-04-25T10:11:17Z</time>
      </trkpt>
      <trkpt lat="45.37881" lon="4.49372">
        <ele>1115.393433</ele>
        <time>2010-04-25T10:11:23Z</time>
      </trkpt>
      <trkpt lat="45.37878" lon="4.49378">
        <ele>1116.283813</ele>
        <time>2010-04-25T10:11:29Z</time>
      </trkpt>
      <trkpt lat="45.37874" lon="4.49385">
        <ele>1117.051147</ele>
        <time>2010-04-25T10:11:35Z</time>
      </trkpt>
      <trkpt lat="45.37871" lon="4.49391">
        <ele>1117.491699</ele>
        <time>2010-04-25T10:11:41Z</time>
      </trkpt>
      <trkpt lat="45.37867" lon="4.49396">
        <ele>1118.067017</ele>
        <time>2010-04-25T10:11:47Z</time>
      </trkpt>
      <trkpt lat="45.37865" lon="4.49401">
        <ele>1118.499146</ele>
        <time>2010-04-25T10:11:53Z</time>
      </trkpt>
      <trkpt lat="45.37862" lon="4.49406">
        <ele>1119.014038</ele>
        <time>2010-04-25T10:11:59Z</time>
      </trkpt>
      <trkpt lat="45.37859" lon="4.49411">
        <ele>1119.432495</ele>
        <time>2010-04-25T10:12:05Z</time>
      </trkpt>
      <trkpt lat="45.37856" lon="4.49416">
        <ele>1119.838745</ele>
        <time>2010-04-25T10:12:11Z</time>
      </trkpt>
      <trkpt lat="45.37852" lon="4.49422">
        <ele>1120.38623</ele>
        <time>2010-04-25T10:12:17Z</time>
      </trkpt>
      <trkpt lat="45.37849" lon="4.49428">
        <ele>1120.755005</ele>
        <time>2010-04-25T10:12:23Z</time>
      </trkpt>
      <trkpt lat="45.37844" lon="4.49433">
        <ele>1121.454956</ele>
        <time>2010-04-25T10:12:29Z</time>
      </trkpt>
      <trkpt lat="45.37838" lon="4.49442">
        <ele>1122.401245</ele>
        <time>2010-04-25T10:12:41Z</time>
      </trkpt>
      <trkpt lat="45.37833" lon="4.49449">
        <ele>1123.157471</ele>
        <time>2010-04-25T10:12:46Z</time>
      </trkpt>
      <trkpt lat="45.37828" lon="4.49456">
        <ele>1123.829712</ele>
        <time>2010-04-25T10:12:51Z</time>
      </trkpt>
      <trkpt lat="45.37821" lon="4.49463">
        <ele>1124.358521</ele>
        <time>2010-04-25T10:12:57Z</time>
      </trkpt>
      <trkpt lat="45.37815" lon="4.49468">
        <ele>1124.844971</ele>
        <time>2010-04-25T10:13:02Z</time>
      </trkpt>
      <trkpt lat="45.3781" lon="4.49474">
        <ele>1125.063721</ele>
        <time>2010-04-25T10:13:07Z</time>
      </trkpt>
      <trkpt lat="45.37804" lon="4.49483">
        <ele>1125.091309</ele>
        <time>2010-04-25T10:13:12Z</time>
      </trkpt>
      <trkpt lat="45.37797" lon="4.49493">
        <ele>1125.513672</ele>
        <time>2010-04-25T10:13:17Z</time>
      </trkpt>
      <trkpt lat="45.37791" lon="4.49503">
        <ele>1126.024414</ele>
        <time>2010-04-25T10:13:22Z</time>
      </trkpt>
      <trkpt lat="45.37785" lon="4.49511">
        <ele>1126.623047</ele>
        <time>2010-04-25T10:13:27Z</time>
      </trkpt>
      <trkpt lat="45.3778" lon="4.49519">
        <ele>1127.02002</ele>
        <time>2010-04-25T10:13:32Z</time>
      </trkpt>
      <trkpt lat="45.37773" lon="4.49527">
        <ele>1127.460327</ele>
        <time>2010-04-25T10:13:37Z</time>
      </trkpt>
      <trkpt lat="45.37766" lon="4.49539">
        <ele>1127.520508</ele>
        <time>2010-04-25T10:13:43Z</time>
      </trkpt>
      <trkpt lat="45.3776" lon="4.49548">
        <ele>1127.545776</ele>
        <time>2010-04-25T10:13:48Z</time>
      </trkpt>
      <trkpt lat="45.37754" lon="4.49556">
        <ele>1127.620239</ele>
        <time>2010-04-25T10:13:53Z</time>
      </trkpt>
      <trkpt lat="45.3775" lon="4.49565">
        <ele>1127.650024</ele>
        <time>2010-04-25T10:13:58Z</time>
      </trkpt>
      <trkpt lat="45.37743" lon="4.49575">
        <ele>1128.025513</ele>
        <time>2010-04-25T10:14:03Z</time>
      </trkpt>
      <trkpt lat="45.37737" lon="4.49584">
        <ele>1128.513306</ele>
        <time>2010-04-25T10:14:08Z</time>
      </trkpt>
      <trkpt lat="45.37731" lon="4.49592">
        <ele>1129.060059</ele>
        <time>2010-04-25T10:14:13Z</time>
      </trkpt>
      <trkpt lat="45.37726" lon="4.49598">
        <ele>1129.541748</ele>
        <time>2010-04-25T10:14:18Z</time>
      </trkpt>
      <trkpt lat="45.3772" lon="4.49612">
        <ele>1129.612549</ele>
        <time>2010-04-25T10:14:23Z</time>
      </trkpt>
      <trkpt lat="45.37717" lon="4.49623">
        <ele>1129.512817</ele>
        <time>2010-04-25T10:14:28Z</time>
      </trkpt>
      <trkpt lat="45.37713" lon="4.49633">
        <ele>1129.790649</ele>
        <time>2010-04-25T10:14:33Z</time>
      </trkpt>
      <trkpt lat="45.37709" lon="4.49643">
        <ele>1130.176392</ele>
        <time>2010-04-25T10:14:38Z</time>
      </trkpt>
      <trkpt lat="45.37706" lon="4.49654">
        <ele>1130.186523</ele>
        <time>2010-04-25T10:14:43Z</time>
      </trkpt>
      <trkpt lat="45.37703" lon="4.49664">
        <ele>1130.664795</ele>
        <time>2010-04-25T10:14:48Z</time>
      </trkpt>
      <trkpt lat="45.377" lon="4.49674">
        <ele>1131.254639</ele>
        <time>2010-04-25T10:14:53Z</time>
      </trkpt>
      <trkpt lat="45.37695" lon="4.49685">
        <ele>1132.057861</ele>
        <time>2010-04-25T10:14:58Z</time>
      </trkpt>
      <trkpt lat="45.37692" lon="4.49695">
        <ele>1132.74292</ele>
        <time>2010-04-25T10:15:04Z</time>
      </trkpt>
      <trkpt lat="45.37688" lon="4.49703">
        <ele>1133.619263</ele>
        <time>2010-04-25T10:15:09Z</time>
      </trkpt>
      <trkpt lat="45.37684" lon="4.49713">
        <ele>1134.25769</ele>
        <time>2010-04-25T10:15:14Z</time>
      </trkpt>
      <trkpt lat="45.3768" lon="4.49724">
        <ele>1134.960083</ele>
        <time>2010-04-25T10:15:19Z</time>
      </trkpt>
      <trkpt lat="45.37676" lon="4.49735">
        <ele>1135.401123</ele>
        <time>2010-04-25T10:15:24Z</time>
      </trkpt>
      <trkpt lat="45.37672" lon="4.49747">
        <ele>1136.012817</ele>
        <time>2010-04-25T10:15:29Z</time>
      </trkpt>
      <trkpt lat="45.3767" lon="4.49759">
        <ele>1136.374512</ele>
        <time>2010-04-25T10:15:34Z</time>
      </trkpt>
      <trkpt lat="45.37666" lon="4.4977">
        <ele>1136.986694</ele>
        <time>2010-04-25T10:15:39Z</time>
      </trkpt>
      <trkpt lat="45.37665" lon="4.49783">
        <ele>1137.058716</ele>
        <time>2010-04-25T10:15:44Z</time>
      </trkpt>
      <trkpt lat="45.37663" lon="4.49795">
        <ele>1137.508301</ele>
        <time>2010-04-25T10:15:49Z</time>
      </trkpt>
      <trkpt lat="45.37661" lon="4.49808">
        <ele>1137.979492</ele>
        <time>2010-04-25T10:15:54Z</time>
      </trkpt>
      <trkpt lat="45.37659" lon="4.49822">
        <ele>1138.235474</ele>
        <time>2010-04-25T10:15:59Z</time>
      </trkpt>
      <trkpt lat="45.37657" lon="4.49835">
        <ele>1138.735718</ele>
        <time>2010-04-25T10:16:04Z</time>
      </trkpt>
      <trkpt lat="45.37653" lon="4.49845">
        <ele>1139.720703</ele>
        <time>2010-04-25T10:16:09Z</time>
      </trkpt>
      <trkpt lat="45.37651" lon="4.49854">
        <ele>1140.417236</ele>
        <time>2010-04-25T10:16:14Z</time>
      </trkpt>
      <trkpt lat="45.37649" lon="4.49868">
        <ele>1140.878174</ele>
        <time>2010-04-25T10:16:19Z</time>
      </trkpt>
      <trkpt lat="45.37645" lon="4.49881">
        <ele>1141.896973</ele>
        <time>2010-04-25T10:16:24Z</time>
      </trkpt>
      <trkpt lat="45.37644" lon="4.49893">
        <ele>1142.245605</ele>
        <time>2010-04-25T10:16:29Z</time>
      </trkpt>
      <trkpt lat="45.37641" lon="4.49902">
        <ele>1142.87085</ele>
        <time>2010-04-25T10:16:34Z</time>
      </trkpt>
      <trkpt lat="45.37641" lon="4.49913">
        <ele>1143.10144</ele>
        <time>2010-04-25T10:16:39Z</time>
      </trkpt>
      <trkpt lat="45.37638" lon="4.49924">
        <ele>1144.024902</ele>
        <time>2010-04-25T10:16:44Z</time>
      </trkpt>
      <trkpt lat="45.37635" lon="4.49932">
        <ele>1144.925537</ele>
        <time>2010-04-25T10:16:49Z</time>
      </trkpt>
      <trkpt lat="45.37632" lon="4.49941">
        <ele>1145.880005</ele>
        <time>2010-04-25T10:16:54Z</time>
      </trkpt>
      <trkpt lat="45.37629" lon="4.49949">
        <ele>1146.773804</ele>
        <time>2010-04-25T10:16:59Z</time>
      </trkpt>
      <trkpt lat="45.37625" lon="4.49955">
        <ele>1147.588013</ele>
        <time>2010-04-25T10:17:04Z</time>
      </trkpt>
      <trkpt lat="45.37622" lon="4.49961">
        <ele>1148.302002</ele>
        <time>2010-04-25T10:17:09Z</time>
      </trkpt>
      <trkpt lat="45.3762" lon="4.49964">
        <ele>1148.778809</ele>
        <time>2010-04-25T10:17:14Z</time>
      </trkpt>
      <trkpt lat="45.37618" lon="4.49968">
        <ele>1149.20459</ele>
        <time>2010-04-25T10:17:21Z</time>
      </trkpt>
      <trkpt lat="45.37612" lon="4.49977">
        <ele>1150.232056</ele>
        <time>2010-04-25T10:17:27Z</time>
      </trkpt>
      <trkpt lat="45.37608" lon="4.49984">
        <ele>1150.87561</ele>
        <time>2010-04-25T10:17:32Z</time>
      </trkpt>
      <trkpt lat="45.37603" lon="4.49993">
        <ele>1151.463135</ele>
        <time>2010-04-25T10:17:37Z</time>
      </trkpt>
      <trkpt lat="45.37597" lon="4.50004">
        <ele>1152.079102</ele>
        <time>2010-04-25T10:17:43Z</time>
      </trkpt>
      <trkpt lat="45.37592" lon="4.50012">
        <ele>1152.504028</ele>
        <time>2010-04-25T10:17:48Z</time>
      </trkpt>
      <trkpt lat="45.37587" lon="4.50022">
        <ele>1152.852295</ele>
        <time>2010-04-25T10:17:53Z</time>
      </trkpt>
      <trkpt lat="45.37582" lon="4.50031">
        <ele>1153.065674</ele>
        <time>2010-04-25T10:17:59Z</time>
      </trkpt>
      <trkpt lat="45.37576" lon="4.50038">
        <ele>1153.432495</ele>
        <time>2010-04-25T10:18:05Z</time>
      </trkpt>
      <trkpt lat="45.37571" lon="4.50047">
        <ele>1153.505005</ele>
        <time>2010-04-25T10:18:10Z</time>
      </trkpt>
      <trkpt lat="45.37564" lon="4.50057">
        <ele>1153.810059</ele>
        <time>2010-04-25T10:18:15Z</time>
      </trkpt>
      <trkpt lat="45.37558" lon="4.50066">
        <ele>1154.060059</ele>
        <time>2010-04-25T10:18:20Z</time>
      </trkpt>
      <trkpt lat="45.37552" lon="4.50072">
        <ele>1154.324951</ele>
        <time>2010-04-25T10:18:25Z</time>
      </trkpt>
      <trkpt lat="45.37546" lon="4.50081">
        <ele>1154.63501</ele>
        <time>2010-04-25T10:18:30Z</time>
      </trkpt>
      <trkpt lat="45.3754" lon="4.50089">
        <ele>1155.050049</ele>
        <time>2010-04-25T10:18:35Z</time>
      </trkpt>
      <trkpt lat="45.37533" lon="4.50097">
        <ele>1155.484985</ele>
        <time>2010-04-25T10:18:40Z</time>
      </trkpt>
      <trkpt lat="45.37526" lon="4.50109">
        <ele>1155.88501</ele>
        <time>2010-04-25T10:18:45Z</time>
      </trkpt>
      <trkpt lat="45.37519" lon="4.5012">
        <ele>1156.3125</ele>
        <time>2010-04-25T10:18:50Z</time>
      </trkpt>
      <trkpt lat="45.37512" lon="4.50132">
        <ele>1156.632446</ele>
        <time>2010-04-25T10:18:55Z</time>
      </trkpt>
      <trkpt lat="45.37506" lon="4.50142">
        <ele>1156.964966</ele>
        <time>2010-04-25T10:19:00Z</time>
      </trkpt>
      <trkpt lat="45.375" lon="4.50152">
        <ele>1157.266602</ele>
        <time>2010-04-25T10:19:05Z</time>
      </trkpt>
      <trkpt lat="45.37495" lon="4.50161">
        <ele>1157.5625</ele>
        <time>2010-04-25T10:19:10Z</time>
      </trkpt>
      <trkpt lat="45.37489" lon="4.50172">
        <ele>1158.262451</ele>
        <time>2010-04-25T10:19:15Z</time>
      </trkpt>
      <trkpt lat="45.37483" lon="4.50184">
        <ele>1158.912476</ele>
        <time>2010-04-25T10:19:20Z</time>
      </trkpt>
      <trkpt lat="45.37478" lon="4.50193">
        <ele>1159.400024</ele>
        <time>2010-04-25T10:19:25Z</time>
      </trkpt>
      <trkpt lat="45.37475" lon="4.50202">
        <ele>1159.724976</ele>
        <time>2010-04-25T10:19:30Z</time>
      </trkpt>
      <trkpt lat="45.37471" lon="4.50211">
        <ele>1160.125</ele>
        <time>2010-04-25T10:19:35Z</time>
      </trkpt>
      <trkpt lat="45.37467" lon="4.50218">
        <ele>1160.625</ele>
        <time>2010-04-25T10:19:40Z</time>
      </trkpt>
      <trkpt lat="45.37461" lon="4.50229">
        <ele>1161.129883</ele>
        <time>2010-04-25T10:19:45Z</time>
      </trkpt>
      <trkpt lat="45.37455" lon="4.50242">
        <ele>1161.590332</ele>
        <time>2010-04-25T10:19:50Z</time>
      </trkpt>
      <trkpt lat="45.37448" lon="4.50256">
        <ele>1161.938721</ele>
        <time>2010-04-25T10:19:55Z</time>
      </trkpt>
      <trkpt lat="45.3744" lon="4.50271">
        <ele>1162.393799</ele>
        <time>2010-04-25T10:20:00Z</time>
      </trkpt>
      <trkpt lat="45.37433" lon="4.50284">
        <ele>1162.792114</ele>
        <time>2010-04-25T10:20:05Z</time>
      </trkpt>
      <trkpt lat="45.37424" lon="4.50297">
        <ele>1163.207397</ele>
        <time>2010-04-25T10:20:10Z</time>
      </trkpt>
      <trkpt lat="45.37416" lon="4.50307">
        <ele>1163.702148</ele>
        <time>2010-04-25T10:20:15Z</time>
      </trkpt>
      <trkpt lat="45.37408" lon="4.50312">
        <ele>1164.494629</ele>
        <time>2010-04-25T10:20:21Z</time>
      </trkpt>
      <trkpt lat="45.37406" lon="4.50312">
        <ele>1164.437378</ele>
        <time>2010-04-25T10:20:29Z</time>
      </trkpt>
      <trkpt lat="45.37401" lon="4.50306">
        <ele>1164.189941</ele>
        <time>2010-04-25T10:20:34Z</time>
      </trkpt>
      <trkpt lat="45.37402" lon="4.5031">
        <ele>1164.259644</ele>
        <time>2010-04-25T10:20:45Z</time>
      </trkpt>
      <trkpt lat="45.37402" lon="4.50316">
        <ele>1164.178711</ele>
        <time>2010-04-25T10:20:51Z</time>
      </trkpt>
      <trkpt lat="45.37403" lon="4.50312">
        <ele>1164.306885</ele>
        <time>2010-04-25T10:20:56Z</time>
      </trkpt>
      <trkpt lat="45.37409" lon="4.50304">
        <ele>1164.552124</ele>
        <time>2010-04-25T10:21:02Z</time>
      </trkpt>
      <trkpt lat="45.37408" lon="4.50312">
        <ele>1164.457275</ele>
        <time>2010-04-25T10:21:10Z</time>
      </trkpt>
      <trkpt lat="45.37405" lon="4.50316">
        <ele>1164.369507</ele>
        <time>2010-04-25T10:21:16Z</time>
      </trkpt>
      <trkpt lat="45.37402" lon="4.50304">
        <ele>1164.312744</ele>
        <time>2010-04-25T10:21:25Z</time>
      </trkpt>
      <trkpt lat="45.37403" lon="4.5031">
        <ele>1164.325684</ele>
        <time>2010-04-25T10:21:32Z</time>
      </trkpt>
      <trkpt lat="45.37391" lon="4.50324">
        <ele>1163.617188</ele>
        <time>2010-04-25T10:21:37Z</time>
      </trkpt>
      <trkpt lat="45.37376" lon="4.50329">
        <ele>1163.034058</ele>
        <time>2010-04-25T10:21:42Z</time>
      </trkpt>
      <trkpt lat="45.37371" lon="4.50348">
        <ele>1163.309204</ele>
        <time>2010-04-25T10:21:47Z</time>
      </trkpt>
      <trkpt lat="45.37365" lon="4.50369">
        <ele>1164.144409</ele>
        <time>2010-04-25T10:21:52Z</time>
      </trkpt>
      <trkpt lat="45.37355" lon="4.50387">
        <ele>1164.220947</ele>
        <time>2010-04-25T10:21:57Z</time>
      </trkpt>
      <trkpt lat="45.37345" lon="4.50403">
        <ele>1163.886719</ele>
        <time>2010-04-25T10:22:02Z</time>
      </trkpt>
      <trkpt lat="45.37337" lon="4.50417">
        <ele>1164.233521</ele>
        <time>2010-04-25T10:22:07Z</time>
      </trkpt>
      <trkpt lat="45.3733" lon="4.50431">
        <ele>1164.809082</ele>
        <time>2010-04-25T10:22:12Z</time>
      </trkpt>
      <trkpt lat="45.3732" lon="4.50447">
        <ele>1165.643677</ele>
        <time>2010-04-25T10:22:18Z</time>
      </trkpt>
      <trkpt lat="45.37312" lon="4.50459">
        <ele>1166.424316</ele>
        <time>2010-04-25T10:22:23Z</time>
      </trkpt>
      <trkpt lat="45.37306" lon="4.50472">
        <ele>1167.060791</ele>
        <time>2010-04-25T10:22:28Z</time>
      </trkpt>
      <trkpt lat="45.37299" lon="4.50484">
        <ele>1167.535645</ele>
        <time>2010-04-25T10:22:33Z</time>
      </trkpt>
      <trkpt lat="45.37294" lon="4.50494">
        <ele>1168.131226</ele>
        <time>2010-04-25T10:22:38Z</time>
      </trkpt>
      <trkpt lat="45.37289" lon="4.50505">
        <ele>1168.769653</ele>
        <time>2010-04-25T10:22:43Z</time>
      </trkpt>
      <trkpt lat="45.37283" lon="4.50515">
        <ele>1169.332031</ele>
        <time>2010-04-25T10:22:48Z</time>
      </trkpt>
      <trkpt lat="45.37279" lon="4.50524">
        <ele>1169.961914</ele>
        <time>2010-04-25T10:22:53Z</time>
      </trkpt>
      <trkpt lat="45.37273" lon="4.50533">
        <ele>1170.503296</ele>
        <time>2010-04-25T10:22:58Z</time>
      </trkpt>
      <trkpt lat="45.37268" lon="4.50544">
        <ele>1171.586304</ele>
        <time>2010-04-25T10:23:04Z</time>
      </trkpt>
      <trkpt lat="45.37264" lon="4.50553">
        <ele>1172.23877</ele>
        <time>2010-04-25T10:23:09Z</time>
      </trkpt>
      <trkpt lat="45.37258" lon="4.50563">
        <ele>1172.83252</ele>
        <time>2010-04-25T10:23:14Z</time>
      </trkpt>
      <trkpt lat="45.37253" lon="4.50574">
        <ele>1173.59375</ele>
        <time>2010-04-25T10:23:19Z</time>
      </trkpt>
      <trkpt lat="45.37246" lon="4.50586">
        <ele>1174.316284</ele>
        <time>2010-04-25T10:23:24Z</time>
      </trkpt>
      <trkpt lat="45.3724" lon="4.50598">
        <ele>1174.941162</ele>
        <time>2010-04-25T10:23:29Z</time>
      </trkpt>
      <trkpt lat="45.37234" lon="4.50609">
        <ele>1175.261597</ele>
        <time>2010-04-25T10:23:34Z</time>
      </trkpt>
      <trkpt lat="45.3723" lon="4.50621">
        <ele>1175.845947</ele>
        <time>2010-04-25T10:23:39Z</time>
      </trkpt>
      <trkpt lat="45.37227" lon="4.50631">
        <ele>1176.51123</ele>
        <time>2010-04-25T10:23:44Z</time>
      </trkpt>
      <trkpt lat="45.37224" lon="4.50641">
        <ele>1177.293823</ele>
        <time>2010-04-25T10:23:49Z</time>
      </trkpt>
      <trkpt lat="45.37221" lon="4.50652">
        <ele>1178.238647</ele>
        <time>2010-04-25T10:23:54Z</time>
      </trkpt>
      <trkpt lat="45.37219" lon="4.50663">
        <ele>1178.785034</ele>
        <time>2010-04-25T10:23:59Z</time>
      </trkpt>
      <trkpt lat="45.37217" lon="4.50674">
        <ele>1178.862793</ele>
        <time>2010-04-25T10:24:04Z</time>
      </trkpt>
      <trkpt lat="45.37212" lon="4.50686">
        <ele>1178.662598</ele>
        <time>2010-04-25T10:24:09Z</time>
      </trkpt>
      <trkpt lat="45.3721" lon="4.50698">
        <ele>1178.831177</ele>
        <time>2010-04-25T10:24:14Z</time>
      </trkpt>
      <trkpt lat="45.37207" lon="4.50711">
        <ele>1179.023193</ele>
        <time>2010-04-25T10:24:19Z</time>
      </trkpt>
      <trkpt lat="45.37204" lon="4.50726">
        <ele>1179.31543</ele>
        <time>2010-04-25T10:24:24Z</time>
      </trkpt>
      <trkpt lat="45.37199" lon="4.50744">
        <ele>1179.336304</ele>
        <time>2010-04-25T10:24:29Z</time>
      </trkpt>
      <trkpt lat="45.37196" lon="4.50772">
        <ele>1179.642944</ele>
        <time>2010-04-25T10:24:35Z</time>
      </trkpt>
      <trkpt lat="45.37194" lon="4.50803">
        <ele>1179.265015</ele>
        <time>2010-04-25T10:24:40Z</time>
      </trkpt>
      <trkpt lat="45.37196" lon="4.5084">
        <ele>1178.442505</ele>
        <time>2010-04-25T10:24:45Z</time>
      </trkpt>
      <trkpt lat="45.37201" lon="4.50888">
        <ele>1178.182373</ele>
        <time>2010-04-25T10:24:50Z</time>
      </trkpt>
      <trkpt lat="45.37204" lon="4.50936">
        <ele>1177.857544</ele>
        <time>2010-04-25T10:24:55Z</time>
      </trkpt>
      <trkpt lat="45.37201" lon="4.50983">
        <ele>1176.882446</ele>
        <time>2010-04-25T10:25:00Z</time>
      </trkpt>
      <trkpt lat="45.37195" lon="4.51029">
        <ele>1176.077515</ele>
        <time>2010-04-25T10:25:05Z</time>
      </trkpt>
      <trkpt lat="45.37186" lon="4.51076">
        <ele>1174.125122</ele>
        <time>2010-04-25T10:25:10Z</time>
      </trkpt>
      <trkpt lat="45.37173" lon="4.51126">
        <ele>1172.031982</ele>
        <time>2010-04-25T10:25:15Z</time>
      </trkpt>
      <trkpt lat="45.37149" lon="4.51187">
        <ele>1169.905029</ele>
        <time>2010-04-25T10:25:20Z</time>
      </trkpt>
      <trkpt lat="45.37109" lon="4.51244">
        <ele>1168.392944</ele>
        <time>2010-04-25T10:25:25Z</time>
      </trkpt>
      <trkpt lat="45.37081" lon="4.5128">
        <ele>1167.663696</ele>
        <time>2010-04-25T10:25:30Z</time>
      </trkpt>
      <trkpt lat="45.3708" lon="4.51289">
        <ele>1168.114014</ele>
        <time>2010-04-25T10:25:35Z</time>
      </trkpt>
      <trkpt lat="45.37081" lon="4.51294">
        <ele>1168.099609</ele>
        <time>2010-04-25T10:25:44Z</time>
      </trkpt>
      <trkpt lat="45.37084" lon="4.51289">
        <ele>1167.751831</ele>
        <time>2010-04-25T10:25:50Z</time>
      </trkpt>
      <trkpt lat="45.37083" lon="4.51299">
        <ele>1167.605591</ele>
        <time>2010-04-25T10:26:05Z</time>
      </trkpt>
      <trkpt lat="45.37084" lon="4.51315">
        <ele>1166.576782</ele>
        <time>2010-04-25T10:26:10Z</time>
      </trkpt>
      <trkpt lat="45.37085" lon="4.51335">
        <ele>1165.350952</ele>
        <time>2010-04-25T10:26:15Z</time>
      </trkpt>
      <trkpt lat="45.37085" lon="4.51357">
        <ele>1164.155029</ele>
        <time>2010-04-25T10:26:20Z</time>
      </trkpt>
      <trkpt lat="45.37084" lon="4.51383">
        <ele>1162.51001</ele>
        <time>2010-04-25T10:26:25Z</time>
      </trkpt>
      <trkpt lat="45.37085" lon="4.51412">
        <ele>1160.464966</ele>
        <time>2010-04-25T10:26:30Z</time>
      </trkpt>
      <trkpt lat="45.37081" lon="4.51448">
        <ele>1158.241943</ele>
        <time>2010-04-25T10:26:35Z</time>
      </trkpt>
      <trkpt lat="45.37072" lon="4.5149">
        <ele>1156.279785</ele>
        <time>2010-04-25T10:26:40Z</time>
      </trkpt>
      <trkpt lat="45.37065" lon="4.51532">
        <ele>1152.033081</ele>
        <time>2010-04-25T10:26:45Z</time>
      </trkpt>
      <trkpt lat="45.37058" lon="4.51564">
        <ele>1148.968994</ele>
        <time>2010-04-25T10:26:51Z</time>
      </trkpt>
      <trkpt lat="45.37052" lon="4.5159">
        <ele>1146.526367</ele>
        <time>2010-04-25T10:26:56Z</time>
      </trkpt>
      <trkpt lat="45.37051" lon="4.51621">
        <ele>1142.522461</ele>
        <time>2010-04-25T10:27:01Z</time>
      </trkpt>
      <trkpt lat="45.37048" lon="4.51646">
        <ele>1141.057495</ele>
        <time>2010-04-25T10:27:06Z</time>
      </trkpt>
      <trkpt lat="45.37047" lon="4.51656">
        <ele>1140.244995</ele>
        <time>2010-04-25T10:27:11Z</time>
      </trkpt>
      <trkpt lat="45.37044" lon="4.51699">
        <ele>1135.920288</ele>
        <time>2010-04-25T10:27:16Z</time>
      </trkpt>
      <trkpt lat="45.3704" lon="4.51741">
        <ele>1130.98999</ele>
        <time>2010-04-25T10:27:21Z</time>
      </trkpt>
      <trkpt lat="45.3704" lon="4.51779">
        <ele>1124.152466</ele>
        <time>2010-04-25T10:27:26Z</time>
      </trkpt>
      <trkpt lat="45.37038" lon="4.51807">
        <ele>1120.312378</ele>
        <time>2010-04-25T10:27:31Z</time>
      </trkpt>
      <trkpt lat="45.37033" lon="4.5183">
        <ele>1119.183472</ele>
        <time>2010-04-25T10:27:36Z</time>
      </trkpt>
      <trkpt lat="45.3703" lon="4.51847">
        <ele>1118.555786</ele>
        <time>2010-04-25T10:27:41Z</time>
      </trkpt>
      <trkpt lat="45.3703" lon="4.51871">
        <ele>1117.668213</ele>
        <time>2010-04-25T10:27:46Z</time>
      </trkpt>
      <trkpt lat="45.37042" lon="4.51896">
        <ele>1117.484619</ele>
        <time>2010-04-25T10:27:52Z</time>
      </trkpt>
      <trkpt lat="45.3706" lon="4.51919">
        <ele>1115.470825</ele>
        <time>2010-04-25T10:27:57Z</time>
      </trkpt>
      <trkpt lat="45.37081" lon="4.51948">
        <ele>1115.392334</ele>
        <time>2010-04-25T10:28:03Z</time>
      </trkpt>
      <trkpt lat="45.37117" lon="4.5198">
        <ele>1113.143677</ele>
        <time>2010-04-25T10:28:09Z</time>
      </trkpt>
      <trkpt lat="45.37139" lon="4.52007">
        <ele>1111.171021</ele>
        <time>2010-04-25T10:28:14Z</time>
      </trkpt>
      <trkpt lat="45.37157" lon="4.52025">
        <ele>1106.3125</ele>
        <time>2010-04-25T10:28:19Z</time>
      </trkpt>
      <trkpt lat="45.37169" lon="4.52045">
        <ele>1103.712891</ele>
        <time>2010-04-25T10:28:24Z</time>
      </trkpt>
      <trkpt lat="45.3718" lon="4.52078">
        <ele>1100.595581</ele>
        <time>2010-04-25T10:28:29Z</time>
      </trkpt>
      <trkpt lat="45.37186" lon="4.5211">
        <ele>1098.542603</ele>
        <time>2010-04-25T10:28:34Z</time>
      </trkpt>
      <trkpt lat="45.37192" lon="4.52134">
        <ele>1095.360596</ele>
        <time>2010-04-25T10:28:39Z</time>
      </trkpt>
      <trkpt lat="45.37196" lon="4.52142">
        <ele>1093.101074</ele>
        <time>2010-04-25T10:28:46Z</time>
      </trkpt>
      <trkpt lat="45.37199" lon="4.52165">
        <ele>1089.491333</ele>
        <time>2010-04-25T10:28:51Z</time>
      </trkpt>
      <trkpt lat="45.37205" lon="4.5219">
        <ele>1085.020508</ele>
        <time>2010-04-25T10:28:56Z</time>
      </trkpt>
      <trkpt lat="45.37199" lon="4.52221">
        <ele>1084.331421</ele>
        <time>2010-04-25T10:29:01Z</time>
      </trkpt>
      <trkpt lat="45.37193" lon="4.5226">
        <ele>1082.814087</ele>
        <time>2010-04-25T10:29:06Z</time>
      </trkpt>
      <trkpt lat="45.37184" lon="4.52302">
        <ele>1081.920166</ele>
        <time>2010-04-25T10:29:11Z</time>
      </trkpt>
      <trkpt lat="45.37182" lon="4.52341">
        <ele>1080.453735</ele>
        <time>2010-04-25T10:29:16Z</time>
      </trkpt>
      <trkpt lat="45.37188" lon="4.52378">
        <ele>1077.959106</ele>
        <time>2010-04-25T10:29:21Z</time>
      </trkpt>
      <trkpt lat="45.37196" lon="4.52399">
        <ele>1081.747192</ele>
        <time>2010-04-25T10:29:26Z</time>
      </trkpt>
      <trkpt lat="45.37215" lon="4.52385">
        <ele>1078.096191</ele>
        <time>2010-04-25T10:29:32Z</time>
      </trkpt>
      <trkpt lat="45.37232" lon="4.5237">
        <ele>1073.891968</ele>
        <time>2010-04-25T10:29:37Z</time>
      </trkpt>
      <trkpt lat="45.37245" lon="4.52358">
        <ele>1071.198608</ele>
        <time>2010-04-25T10:29:42Z</time>
      </trkpt>
      <trkpt lat="45.37262" lon="4.5235">
        <ele>1068.907593</ele>
        <time>2010-04-25T10:29:47Z</time>
      </trkpt>
      <trkpt lat="45.37277" lon="4.52346">
        <ele>1067.547485</ele>
        <time>2010-04-25T10:29:52Z</time>
      </trkpt>
      <trkpt lat="45.37293" lon="4.52343">
        <ele>1066.726563</ele>
        <time>2010-04-25T10:29:57Z</time>
      </trkpt>
      <trkpt lat="45.37297" lon="4.52343">
        <ele>1066.522827</ele>
        <time>2010-04-25T10:30:03Z</time>
      </trkpt>
      <trkpt lat="45.37308" lon="4.52332">
        <ele>1063.072266</ele>
        <time>2010-04-25T10:30:08Z</time>
      </trkpt>
      <trkpt lat="45.37313" lon="4.52327">
        <ele>1061.241211</ele>
        <time>2010-04-25T10:30:13Z</time>
      </trkpt>
      <trkpt lat="45.37319" lon="4.52324">
        <ele>1060.487549</ele>
        <time>2010-04-25T10:30:18Z</time>
      </trkpt>
      <trkpt lat="45.3733" lon="4.52319">
        <ele>1057.962646</ele>
        <time>2010-04-25T10:30:24Z</time>
      </trkpt>
      <trkpt lat="45.37341" lon="4.52315">
        <ele>1055.713257</ele>
        <time>2010-04-25T10:30:29Z</time>
      </trkpt>
      <trkpt lat="45.37349" lon="4.52314">
        <ele>1054.803955</ele>
        <time>2010-04-25T10:30:34Z</time>
      </trkpt>
      <trkpt lat="45.37353" lon="4.52313">
        <ele>1054.359375</ele>
        <time>2010-04-25T10:30:39Z</time>
      </trkpt>
      <trkpt lat="45.37358" lon="4.52311">
        <ele>1053.643921</ele>
        <time>2010-04-25T10:30:45Z</time>
      </trkpt>
      <trkpt lat="45.37367" lon="4.52315">
        <ele>1054.057983</ele>
        <time>2010-04-25T10:30:54Z</time>
      </trkpt>
      <trkpt lat="45.37383" lon="4.52325">
        <ele>1053.448364</ele>
        <time>2010-04-25T10:30:59Z</time>
      </trkpt>
      <trkpt lat="45.37412" lon="4.52339">
        <ele>1051.427124</ele>
        <time>2010-04-25T10:31:04Z</time>
      </trkpt>
      <trkpt lat="45.37446" lon="4.52355">
        <ele>1047.87146</ele>
        <time>2010-04-25T10:31:09Z</time>
      </trkpt>
      <trkpt lat="45.37485" lon="4.52362">
        <ele>1044.905029</ele>
        <time>2010-04-25T10:31:14Z</time>
      </trkpt>
      <trkpt lat="45.37517" lon="4.52367">
        <ele>1044.1604</ele>
        <time>2010-04-25T10:31:19Z</time>
      </trkpt>
      <trkpt lat="45.37548" lon="4.52367">
        <ele>1042.731567</ele>
        <time>2010-04-25T10:31:24Z</time>
      </trkpt>
      <trkpt lat="45.3759" lon="4.52361">
        <ele>1039.606689</ele>
        <time>2010-04-25T10:31:29Z</time>
      </trkpt>
      <trkpt lat="45.37621" lon="4.52355">
        <ele>1037.797485</ele>
        <time>2010-04-25T10:31:34Z</time>
      </trkpt>
      <trkpt lat="45.37658" lon="4.52346">
        <ele>1034.476929</ele>
        <time>2010-04-25T10:31:39Z</time>
      </trkpt>
      <trkpt lat="45.37699" lon="4.52337">
        <ele>1031.287598</ele>
        <time>2010-04-25T10:31:44Z</time>
      </trkpt>
      <trkpt lat="45.37742" lon="4.52325">
        <ele>1026.748535</ele>
        <time>2010-04-25T10:31:50Z</time>
      </trkpt>
      <trkpt lat="45.37773" lon="4.52318">
        <ele>1021.844849</ele>
        <time>2010-04-25T10:31:55Z</time>
      </trkpt>
      <trkpt lat="45.37801" lon="4.5233">
        <ele>1014.951721</ele>
        <time>2010-04-25T10:32:00Z</time>
      </trkpt>
      <trkpt lat="45.37822" lon="4.5236">
        <ele>1011.710388</ele>
        <time>2010-04-25T10:32:05Z</time>
      </trkpt>
      <trkpt lat="45.37842" lon="4.52406">
        <ele>1008.751465</ele>
        <time>2010-04-25T10:32:10Z</time>
      </trkpt>
      <trkpt lat="45.37865" lon="4.52444">
        <ele>1006.479492</ele>
        <time>2010-04-25T10:32:16Z</time>
      </trkpt>
      <trkpt lat="45.37889" lon="4.52447">
        <ele>1008.184387</ele>
        <time>2010-04-25T10:32:21Z</time>
      </trkpt>
      <trkpt lat="45.37897" lon="4.52444">
        <ele>1008.140015</ele>
        <time>2010-04-25T10:32:26Z</time>
      </trkpt>
      <trkpt lat="45.379" lon="4.52441">
        <ele>1007.555908</ele>
        <time>2010-04-25T10:32:32Z</time>
      </trkpt>
      <trkpt lat="45.37906" lon="4.52433">
        <ele>1006.178162</ele>
        <time>2010-04-25T10:32:37Z</time>
      </trkpt>
      <trkpt lat="45.37916" lon="4.52426">
        <ele>1007.317993</ele>
        <time>2010-04-25T10:32:42Z</time>
      </trkpt>
      <trkpt lat="45.37922" lon="4.52419">
        <ele>1007.829529</ele>
        <time>2010-04-25T10:32:47Z</time>
      </trkpt>
      <trkpt lat="45.37929" lon="4.52412">
        <ele>1008.269165</ele>
        <time>2010-04-25T10:32:52Z</time>
      </trkpt>
      <trkpt lat="45.37934" lon="4.52406">
        <ele>1008.875</ele>
        <time>2010-04-25T10:32:57Z</time>
      </trkpt>
      <trkpt lat="45.3794" lon="4.524">
        <ele>1009.351257</ele>
        <time>2010-04-25T10:33:02Z</time>
      </trkpt>
      <trkpt lat="45.37945" lon="4.52392">
        <ele>1009.696228</ele>
        <time>2010-04-25T10:33:07Z</time>
      </trkpt>
      <trkpt lat="45.3795" lon="4.52386">
        <ele>1010.005005</ele>
        <time>2010-04-25T10:33:12Z</time>
      </trkpt>
      <trkpt lat="45.37954" lon="4.52378">
        <ele>1010.121216</ele>
        <time>2010-04-25T10:33:17Z</time>
      </trkpt>
      <trkpt lat="45.37959" lon="4.52369">
        <ele>1010.33374</ele>
        <time>2010-04-25T10:33:23Z</time>
      </trkpt>
      <trkpt lat="45.37959" lon="4.52362">
        <ele>1009.188782</ele>
        <time>2010-04-25T10:33:28Z</time>
      </trkpt>
      <trkpt lat="45.37956" lon="4.52356">
        <ele>1006.772522</ele>
        <time>2010-04-25T10:33:34Z</time>
      </trkpt>
      <trkpt lat="45.37958" lon="4.52366">
        <ele>1009.222473</ele>
        <time>2010-04-25T10:33:40Z</time>
      </trkpt>
      <trkpt lat="45.37961" lon="4.5237">
        <ele>1011.128723</ele>
        <time>2010-04-25T10:33:47Z</time>
      </trkpt>
      <trkpt lat="45.3796" lon="4.52373">
        <ele>1011.173767</ele>
        <time>2010-04-25T10:33:52Z</time>
      </trkpt>
      <trkpt lat="45.37956" lon="4.52369">
        <ele>1009.14624</ele>
        <time>2010-04-25T10:33:59Z</time>
      </trkpt>
      <trkpt lat="45.37957" lon="4.52364">
        <ele>1008.73999</ele>
        <time>2010-04-25T10:34:04Z</time>
      </trkpt>
      <trkpt lat="45.37962" lon="4.52352">
        <ele>1008.391235</ele>
        <time>2010-04-25T10:34:09Z</time>
      </trkpt>
      <trkpt lat="45.37969" lon="4.52339">
        <ele>1008.939148</ele>
        <time>2010-04-25T10:34:14Z</time>
      </trkpt>
      <trkpt lat="45.37976" lon="4.52323">
        <ele>1009.760498</ele>
        <time>2010-04-25T10:34:19Z</time>
      </trkpt>
      <trkpt lat="45.37986" lon="4.52305">
        <ele>1010.816895</ele>
        <time>2010-04-25T10:34:24Z</time>
      </trkpt>
      <trkpt lat="45.37997" lon="4.52272">
        <ele>1011.30249</ele>
        <time>2010-04-25T10:34:29Z</time>
      </trkpt>
      <trkpt lat="45.38012" lon="4.52236">
        <ele>1010.582764</ele>
        <time>2010-04-25T10:34:34Z</time>
      </trkpt>
      <trkpt lat="45.38005" lon="4.52196">
        <ele>1004.098328</ele>
        <time>2010-04-25T10:34:39Z</time>
      </trkpt>
      <trkpt lat="45.37997" lon="4.52143">
        <ele>996.876587</ele>
        <time>2010-04-25T10:34:44Z</time>
      </trkpt>
      <trkpt lat="45.38007" lon="4.52119">
        <ele>994.235229</ele>
        <time>2010-04-25T10:34:49Z</time>
      </trkpt>
      <trkpt lat="45.38022" lon="4.52111">
        <ele>992.172913</ele>
        <time>2010-04-25T10:34:54Z</time>
      </trkpt>
      <trkpt lat="45.38024" lon="4.52092">
        <ele>988.01001</ele>
        <time>2010-04-25T10:34:59Z</time>
      </trkpt>
      <trkpt lat="45.38008" lon="4.52058">
        <ele>981.712524</ele>
        <time>2010-04-25T10:35:04Z</time>
      </trkpt>
      <trkpt lat="45.38" lon="4.52019">
        <ele>973.785034</ele>
        <time>2010-04-25T10:35:09Z</time>
      </trkpt>
      <trkpt lat="45.38014" lon="4.51983">
        <ele>966.932434</ele>
        <time>2010-04-25T10:35:14Z</time>
      </trkpt>
      <trkpt lat="45.3801" lon="4.51967">
        <ele>964.526489</ele>
        <time>2010-04-25T10:35:19Z</time>
      </trkpt>
      <trkpt lat="45.37983" lon="4.51962">
        <ele>961.746155</ele>
        <time>2010-04-25T10:35:24Z</time>
      </trkpt>
      <trkpt lat="45.37955" lon="4.51968">
        <ele>959.22998</ele>
        <time>2010-04-25T10:35:29Z</time>
      </trkpt>
      <trkpt lat="45.37966" lon="4.51945">
        <ele>956.042847</ele>
        <time>2010-04-25T10:35:34Z</time>
      </trkpt>
      <trkpt lat="45.37988" lon="4.5191">
        <ele>950.771484</ele>
        <time>2010-04-25T10:35:39Z</time>
      </trkpt>
      <trkpt lat="45.38011" lon="4.51885">
        <ele>946.241577</ele>
        <time>2010-04-25T10:35:44Z</time>
      </trkpt>
      <trkpt lat="45.38033" lon="4.51867">
        <ele>939.681885</ele>
        <time>2010-04-25T10:35:49Z</time>
      </trkpt>
      <trkpt lat="45.38057" lon="4.51864">
        <ele>936.521912</ele>
        <time>2010-04-25T10:35:54Z</time>
      </trkpt>
      <trkpt lat="45.38071" lon="4.51872">
        <ele>935.297974</ele>
        <time>2010-04-25T10:35:59Z</time>
      </trkpt>
      <trkpt lat="45.38071" lon="4.51877">
        <ele>936.315247</ele>
        <time>2010-04-25T10:36:05Z</time>
      </trkpt>
      <trkpt lat="45.38091" lon="4.51883">
        <ele>933.56311</ele>
        <time>2010-04-25T10:36:10Z</time>
      </trkpt>
      <trkpt lat="45.38123" lon="4.51871">
        <ele>931.237488</ele>
        <time>2010-04-25T10:36:15Z</time>
      </trkpt>
      <trkpt lat="45.38132" lon="4.51856">
        <ele>927.830688</ele>
        <time>2010-04-25T10:36:21Z</time>
      </trkpt>
      <trkpt lat="45.38133" lon="4.51849">
        <ele>925.823425</ele>
        <time>2010-04-25T10:36:29Z</time>
      </trkpt>
      <trkpt lat="45.38144" lon="4.51839">
        <ele>924.197693</ele>
        <time>2010-04-25T10:36:34Z</time>
      </trkpt>
      <trkpt lat="45.38158" lon="4.51818">
        <ele>924.40863</ele>
        <time>2010-04-25T10:36:39Z</time>
      </trkpt>
      <trkpt lat="45.38166" lon="4.51787">
        <ele>921.064636</ele>
        <time>2010-04-25T10:36:44Z</time>
      </trkpt>
      <trkpt lat="45.38175" lon="4.51762">
        <ele>918.737122</ele>
        <time>2010-04-25T10:36:49Z</time>
      </trkpt>
      <trkpt lat="45.38187" lon="4.51728">
        <ele>915.909912</ele>
        <time>2010-04-25T10:36:54Z</time>
      </trkpt>
      <trkpt lat="45.38199" lon="4.51698">
        <ele>913.194153</ele>
        <time>2010-04-25T10:36:59Z</time>
      </trkpt>
      <trkpt lat="45.38203" lon="4.51682">
        <ele>910.958984</ele>
        <time>2010-04-25T10:37:04Z</time>
      </trkpt>
      <trkpt lat="45.38194" lon="4.51692">
        <ele>909.766418</ele>
        <time>2010-04-25T10:37:09Z</time>
      </trkpt>
      <trkpt lat="45.38178" lon="4.51709">
        <ele>907.449341</ele>
        <time>2010-04-25T10:37:14Z</time>
      </trkpt>
      <trkpt lat="45.38147" lon="4.51732">
        <ele>900.603271</ele>
        <time>2010-04-25T10:37:19Z</time>
      </trkpt>
      <trkpt lat="45.38122" lon="4.51756">
        <ele>900.654175</ele>
        <time>2010-04-25T10:37:25Z</time>
      </trkpt>
      <trkpt lat="45.38102" lon="4.51751">
        <ele>895.138672</ele>
        <time>2010-04-25T10:37:30Z</time>
      </trkpt>
      <trkpt lat="45.38094" lon="4.51749">
        <ele>894.695313</ele>
        <time>2010-04-25T10:37:35Z</time>
      </trkpt>
      <trkpt lat="45.38088" lon="4.51738">
        <ele>892.133057</ele>
        <time>2010-04-25T10:37:40Z</time>
      </trkpt>
      <trkpt lat="45.38068" lon="4.51717">
        <ele>888.200439</ele>
        <time>2010-04-25T10:37:45Z</time>
      </trkpt>
      <trkpt lat="45.38042" lon="4.51699">
        <ele>881.723511</ele>
        <time>2010-04-25T10:37:50Z</time>
      </trkpt>
      <trkpt lat="45.38023" lon="4.51697">
        <ele>878.847473</ele>
        <time>2010-04-25T10:37:55Z</time>
      </trkpt>
      <trkpt lat="45.38012" lon="4.51698">
        <ele>877.880432</ele>
        <time>2010-04-25T10:38:00Z</time>
      </trkpt>
      <trkpt lat="45.38" lon="4.51703">
        <ele>877.464722</ele>
        <time>2010-04-25T10:38:05Z</time>
      </trkpt>
      <trkpt lat="45.37984" lon="4.5171">
        <ele>875.655579</ele>
        <time>2010-04-25T10:38:10Z</time>
      </trkpt>
      <trkpt lat="45.37972" lon="4.51719">
        <ele>876.642639</ele>
        <time>2010-04-25T10:38:15Z</time>
      </trkpt>
      <trkpt lat="45.3797" lon="4.51728">
        <ele>880.185547</ele>
        <time>2010-04-25T10:38:20Z</time>
      </trkpt>
      <trkpt lat="45.37962" lon="4.51733">
        <ele>880.721069</ele>
        <time>2010-04-25T10:38:25Z</time>
      </trkpt>
      <trkpt lat="45.37954" lon="4.51738">
        <ele>882.205322</ele>
        <time>2010-04-25T10:38:30Z</time>
      </trkpt>
      <trkpt lat="45.37939" lon="4.51746">
        <ele>882.429749</ele>
        <time>2010-04-25T10:38:35Z</time>
      </trkpt>
      <trkpt lat="45.37916" lon="4.51757">
        <ele>879.981934</ele>
        <time>2010-04-25T10:38:40Z</time>
      </trkpt>
      <trkpt lat="45.37899" lon="4.51766">
        <ele>884.308899</ele>
        <time>2010-04-25T10:38:46Z</time>
      </trkpt>
      <trkpt lat="45.37903" lon="4.51769">
        <ele>883.097168</ele>
        <time>2010-04-25T10:38:52Z</time>
      </trkpt>
      <trkpt lat="45.37907" lon="4.51772">
        <ele>882.325745</ele>
        <time>2010-04-25T10:38:57Z</time>
      </trkpt>
      <trkpt lat="45.37909" lon="4.51774">
        <ele>882.581604</ele>
        <time>2010-04-25T10:39:03Z</time>
      </trkpt>
      <trkpt lat="45.37909" lon="4.51778">
        <ele>883.715271</ele>
        <time>2010-04-25T10:39:08Z</time>
      </trkpt>
      <trkpt lat="45.37907" lon="4.51781">
        <ele>885.03949</ele>
        <time>2010-04-25T10:39:15Z</time>
      </trkpt>
      <trkpt lat="45.37905" lon="4.51784">
        <ele>886.225342</ele>
        <time>2010-04-25T10:39:20Z</time>
      </trkpt>
      <trkpt lat="45.37903" lon="4.51786">
        <ele>886.957275</ele>
        <time>2010-04-25T10:39:27Z</time>
      </trkpt>
      <trkpt lat="45.37903" lon="4.51777">
        <ele>884.489502</ele>
        <time>2010-04-25T10:39:34Z</time>
      </trkpt>
      <trkpt lat="45.37915" lon="4.51755">
        <ele>880.49585</ele>
        <time>2010-04-25T10:39:39Z</time>
      </trkpt>
      <trkpt lat="45.37937" lon="4.51722">
        <ele>878.165894</ele>
        <time>2010-04-25T10:39:44Z</time>
      </trkpt>
      <trkpt lat="45.37972" lon="4.51681">
        <ele>871.980896</ele>
        <time>2010-04-25T10:39:49Z</time>
      </trkpt>
      <trkpt lat="45.37993" lon="4.51646">
        <ele>866.213257</ele>
        <time>2010-04-25T10:39:54Z</time>
      </trkpt>
      <trkpt lat="45.38017" lon="4.5163">
        <ele>865.259766</ele>
        <time>2010-04-25T10:39:59Z</time>
      </trkpt>
      <trkpt lat="45.38052" lon="4.51616">
        <ele>861.022034</ele>
        <time>2010-04-25T10:40:04Z</time>
      </trkpt>
      <trkpt lat="45.38095" lon="4.51592">
        <ele>852.30481</ele>
        <time>2010-04-25T10:40:09Z</time>
      </trkpt>
      <trkpt lat="45.38126" lon="4.51563">
        <ele>851.983398</ele>
        <time>2010-04-25T10:40:14Z</time>
      </trkpt>
      <trkpt lat="45.38138" lon="4.51547">
        <ele>847.975586</ele>
        <time>2010-04-25T10:40:19Z</time>
      </trkpt>
      <trkpt lat="45.38146" lon="4.51527">
        <ele>840.65094</ele>
        <time>2010-04-25T10:40:24Z</time>
      </trkpt>
      <trkpt lat="45.38157" lon="4.51507">
        <ele>841.65448</ele>
        <time>2010-04-25T10:40:29Z</time>
      </trkpt>
      <trkpt lat="45.3816" lon="4.51483">
        <ele>841.268921</ele>
        <time>2010-04-25T10:40:34Z</time>
      </trkpt>
      <trkpt lat="45.38167" lon="4.51453">
        <ele>840.385803</ele>
        <time>2010-04-25T10:40:39Z</time>
      </trkpt>
      <trkpt lat="45.38178" lon="4.51431">
        <ele>838.25415</ele>
        <time>2010-04-25T10:40:44Z</time>
      </trkpt>
      <trkpt lat="45.38193" lon="4.51411">
        <ele>832.92395</ele>
        <time>2010-04-25T10:40:49Z</time>
      </trkpt>
      <trkpt lat="45.38211" lon="4.51383">
        <ele>834.133972</ele>
        <time>2010-04-25T10:40:54Z</time>
      </trkpt>
      <trkpt lat="45.38223" lon="4.51342">
        <ele>829.822998</ele>
        <time>2010-04-25T10:40:59Z</time>
      </trkpt>
      <trkpt lat="45.38231" lon="4.51306">
        <ele>825.239014</ele>
        <time>2010-04-25T10:41:04Z</time>
      </trkpt>
      <trkpt lat="45.38247" lon="4.51282">
        <ele>818.704407</ele>
        <time>2010-04-25T10:41:09Z</time>
      </trkpt>
      <trkpt lat="45.38262" lon="4.5126">
        <ele>819.116516</ele>
        <time>2010-04-25T10:41:14Z</time>
      </trkpt>
      <trkpt lat="45.38266" lon="4.51235">
        <ele>818.541687</ele>
        <time>2010-04-25T10:41:19Z</time>
      </trkpt>
      <trkpt lat="45.38287" lon="4.51224">
        <ele>813.995178</ele>
        <time>2010-04-25T10:41:24Z</time>
      </trkpt>
      <trkpt lat="45.38313" lon="4.51216">
        <ele>812.916687</ele>
        <time>2010-04-25T10:41:29Z</time>
      </trkpt>
      <trkpt lat="45.38338" lon="4.51199">
        <ele>811.860352</ele>
        <time>2010-04-25T10:41:34Z</time>
      </trkpt>
      <trkpt lat="45.38354" lon="4.51184">
        <ele>810.443359</ele>
        <time>2010-04-25T10:41:39Z</time>
      </trkpt>
      <trkpt lat="45.3838" lon="4.51166">
        <ele>805.957031</ele>
        <time>2010-04-25T10:41:44Z</time>
      </trkpt>
      <trkpt lat="45.38401" lon="4.51153">
        <ele>805.86853</ele>
        <time>2010-04-25T10:41:49Z</time>
      </trkpt>
      <trkpt lat="45.38413" lon="4.51124">
        <ele>803.68158</ele>
        <time>2010-04-25T10:41:54Z</time>
      </trkpt>
      <trkpt lat="45.38441" lon="4.51102">
        <ele>803.206726</ele>
        <time>2010-04-25T10:41:59Z</time>
      </trkpt>
      <trkpt lat="45.38461" lon="4.51081">
        <ele>803.353027</ele>
        <time>2010-04-25T10:42:04Z</time>
      </trkpt>
      <trkpt lat="45.38475" lon="4.51056">
        <ele>799.221008</ele>
        <time>2010-04-25T10:42:09Z</time>
      </trkpt>
      <trkpt lat="45.38489" lon="4.51029">
        <ele>795.747192</ele>
        <time>2010-04-25T10:42:14Z</time>
      </trkpt>
      <trkpt lat="45.38511" lon="4.50996">
        <ele>793.533142</ele>
        <time>2010-04-25T10:42:19Z</time>
      </trkpt>
      <trkpt lat="45.38527" lon="4.50968">
        <ele>788.45343</ele>
        <time>2010-04-25T10:42:24Z</time>
      </trkpt>
      <trkpt lat="45.38533" lon="4.50952">
        <ele>787.943726</ele>
        <time>2010-04-25T10:42:29Z</time>
      </trkpt>
      <trkpt lat="45.38543" lon="4.5094">
        <ele>788.105286</ele>
        <time>2010-04-25T10:42:34Z</time>
      </trkpt>
      <trkpt lat="45.38552" lon="4.50925">
        <ele>786.190613</ele>
        <time>2010-04-25T10:42:39Z</time>
      </trkpt>
      <trkpt lat="45.38564" lon="4.50904">
        <ele>780.535217</ele>
        <time>2010-04-25T10:42:44Z</time>
      </trkpt>
      <trkpt lat="45.38584" lon="4.50872">
        <ele>781.177856</ele>
        <time>2010-04-25T10:42:49Z</time>
      </trkpt>
      <trkpt lat="45.38599" lon="4.50843">
        <ele>777.078674</ele>
        <time>2010-04-25T10:42:54Z</time>
      </trkpt>
      <trkpt lat="45.38605" lon="4.5082">
        <ele>773.789795</ele>
        <time>2010-04-25T10:42:59Z</time>
      </trkpt>
      <trkpt lat="45.38613" lon="4.50804">
        <ele>770.154053</ele>
        <time>2010-04-25T10:43:04Z</time>
      </trkpt>
      <trkpt lat="45.38623" lon="4.50789">
        <ele>769.652283</ele>
        <time>2010-04-25T10:43:09Z</time>
      </trkpt>
      <trkpt lat="45.38639" lon="4.5077">
        <ele>769.680054</ele>
        <time>2010-04-25T10:43:14Z</time>
      </trkpt>
      <trkpt lat="45.38647" lon="4.50752">
        <ele>767.604492</ele>
        <time>2010-04-25T10:43:19Z</time>
      </trkpt>
      <trkpt lat="45.38656" lon="4.50734">
        <ele>763.310547</ele>
        <time>2010-04-25T10:43:24Z</time>
      </trkpt>
      <trkpt lat="45.38674" lon="4.50709">
        <ele>761.470398</ele>
        <time>2010-04-25T10:43:29Z</time>
      </trkpt>
      <trkpt lat="45.38689" lon="4.50694">
        <ele>761.99176</ele>
        <time>2010-04-25T10:43:35Z</time>
      </trkpt>
      <trkpt lat="45.38684" lon="4.5069">
        <ele>761.022888</ele>
        <time>2010-04-25T10:43:40Z</time>
      </trkpt>
      <trkpt lat="45.38681" lon="4.50686">
        <ele>760.473328</ele>
        <time>2010-04-25T10:43:49Z</time>
      </trkpt>
      <trkpt lat="45.38676" lon="4.50684">
        <ele>760.16156</ele>
        <time>2010-04-25T10:43:55Z</time>
      </trkpt>
      <trkpt lat="45.38673" lon="4.50682">
        <ele>760.082397</ele>
        <time>2010-04-25T10:44:01Z</time>
      </trkpt>
      <trkpt lat="45.38678" lon="4.50687">
        <ele>760.477234</ele>
        <time>2010-04-25T10:44:07Z</time>
      </trkpt>
      <trkpt lat="45.38681" lon="4.50673">
        <ele>759.161865</ele>
        <time>2010-04-25T10:44:12Z</time>
      </trkpt>
      <trkpt lat="45.38684" lon="4.50664">
        <ele>757.832397</ele>
        <time>2010-04-25T10:44:17Z</time>
      </trkpt>
      <trkpt lat="45.38691" lon="4.50661">
        <ele>756.062317</ele>
        <time>2010-04-25T10:44:28Z</time>
      </trkpt>
      <trkpt lat="45.38693" lon="4.50663">
        <ele>756.219543</ele>
        <time>2010-04-25T10:44:34Z</time>
      </trkpt>
      <trkpt lat="45.38697" lon="4.50661">
        <ele>754.884399</ele>
        <time>2010-04-25T10:44:42Z</time>
      </trkpt>
      <trkpt lat="45.38696" lon="4.50651">
        <ele>753.668884</ele>
        <time>2010-04-25T10:44:48Z</time>
      </trkpt>
      <trkpt lat="45.38699" lon="4.50628">
        <ele>757.61084</ele>
        <time>2010-04-25T10:44:53Z</time>
      </trkpt>
      <trkpt lat="45.3871" lon="4.506">
        <ele>758.399475</ele>
        <time>2010-04-25T10:44:58Z</time>
      </trkpt>
      <trkpt lat="45.38726" lon="4.50579">
        <ele>757.536072</ele>
        <time>2010-04-25T10:45:04Z</time>
      </trkpt>
      <trkpt lat="45.3873" lon="4.50567">
        <ele>758.954895</ele>
        <time>2010-04-25T10:45:09Z</time>
      </trkpt>
      <trkpt lat="45.38734" lon="4.50562">
        <ele>758.797424</ele>
        <time>2010-04-25T10:45:14Z</time>
      </trkpt>
      <trkpt lat="45.38733" lon="4.50559">
        <ele>760.159668</ele>
        <time>2010-04-25T10:45:20Z</time>
      </trkpt>
      <trkpt lat="45.38733" lon="4.50554">
        <ele>761.478638</ele>
        <time>2010-04-25T10:45:26Z</time>
      </trkpt>
      <trkpt lat="45.38736" lon="4.5055">
        <ele>760.761658</ele>
        <time>2010-04-25T10:45:32Z</time>
      </trkpt>
      <trkpt lat="45.38739" lon="4.50551">
        <ele>759.206665</ele>
        <time>2010-04-25T10:45:39Z</time>
      </trkpt>
      <trkpt lat="45.38743" lon="4.50545">
        <ele>758.160095</ele>
        <time>2010-04-25T10:45:47Z</time>
      </trkpt>
      <trkpt lat="45.38744" lon="4.50542">
        <ele>758.618286</ele>
        <time>2010-04-25T10:45:54Z</time>
      </trkpt>
      <trkpt lat="45.38745" lon="4.50535">
        <ele>759.510925</ele>
        <time>2010-04-25T10:45:59Z</time>
      </trkpt>
      <trkpt lat="45.38748" lon="4.50528">
        <ele>758.987854</ele>
        <time>2010-04-25T10:46:04Z</time>
      </trkpt>
      <trkpt lat="45.3875" lon="4.50522">
        <ele>759.684448</ele>
        <time>2010-04-25T10:46:09Z</time>
      </trkpt>
      <trkpt lat="45.38755" lon="4.50513">
        <ele>760.103271</ele>
        <time>2010-04-25T10:46:15Z</time>
      </trkpt>
      <trkpt lat="45.3876" lon="4.50506">
        <ele>760.919006</ele>
        <time>2010-04-25T10:46:20Z</time>
      </trkpt>
      <trkpt lat="45.38765" lon="4.50499">
        <ele>760.784302</ele>
        <time>2010-04-25T10:46:25Z</time>
      </trkpt>
      <trkpt lat="45.38768" lon="4.50492">
        <ele>761.612976</ele>
        <time>2010-04-25T10:46:30Z</time>
      </trkpt>
      <trkpt lat="45.3877" lon="4.50486">
        <ele>763.148682</ele>
        <time>2010-04-25T10:46:35Z</time>
      </trkpt>
      <trkpt lat="45.38776" lon="4.5048">
        <ele>762.144226</ele>
        <time>2010-04-25T10:46:40Z</time>
      </trkpt>
      <trkpt lat="45.38778" lon="4.5047">
        <ele>763.971741</ele>
        <time>2010-04-25T10:46:45Z</time>
      </trkpt>
      <trkpt lat="45.38781" lon="4.50461">
        <ele>765.628601</ele>
        <time>2010-04-25T10:46:50Z</time>
      </trkpt>
      <trkpt lat="45.38785" lon="4.50448">
        <ele>766.681091</ele>
        <time>2010-04-25T10:46:56Z</time>
      </trkpt>
      <trkpt lat="45.38787" lon="4.50437">
        <ele>768.52887</ele>
        <time>2010-04-25T10:47:02Z</time>
      </trkpt>
      <trkpt lat="45.38793" lon="4.50428">
        <ele>767.724731</ele>
        <time>2010-04-25T10:47:07Z</time>
      </trkpt>
      <trkpt lat="45.38796" lon="4.50419">
        <ele>768.438171</ele>
        <time>2010-04-25T10:47:12Z</time>
      </trkpt>
      <trkpt lat="45.388" lon="4.50412">
        <ele>767.530396</ele>
        <time>2010-04-25T10:47:17Z</time>
      </trkpt>
      <trkpt lat="45.388" lon="4.50402">
        <ele>769.981018</ele>
        <time>2010-04-25T10:47:24Z</time>
      </trkpt>
      <trkpt lat="45.38802" lon="4.50394">
        <ele>771.000183</ele>
        <time>2010-04-25T10:47:29Z</time>
      </trkpt>
      <trkpt lat="45.38803" lon="4.50384">
        <ele>772.276917</ele>
        <time>2010-04-25T10:47:34Z</time>
      </trkpt>
      <trkpt lat="45.38805" lon="4.50374">
        <ele>773.730896</ele>
        <time>2010-04-25T10:47:39Z</time>
      </trkpt>
      <trkpt lat="45.38807" lon="4.50374">
        <ele>772.383728</ele>
        <time>2010-04-25T10:47:44Z</time>
      </trkpt>
      <trkpt lat="45.38808" lon="4.50378">
        <ele>771.267395</ele>
        <time>2010-04-25T10:47:49Z</time>
      </trkpt>
      <trkpt lat="45.38811" lon="4.50378">
        <ele>769.543091</ele>
        <time>2010-04-25T10:47:55Z</time>
      </trkpt>
      <trkpt lat="45.38811" lon="4.50371">
        <ele>770.805664</ele>
        <time>2010-04-25T10:48:00Z</time>
      </trkpt>
      <trkpt lat="45.38811" lon="4.50363">
        <ele>772.68103</ele>
        <time>2010-04-25T10:48:06Z</time>
      </trkpt>
      <trkpt lat="45.38811" lon="4.50356">
        <ele>774.311279</ele>
        <time>2010-04-25T10:48:11Z</time>
      </trkpt>
      <trkpt lat="45.3881" lon="4.5035">
        <ele>775.88446</ele>
        <time>2010-04-25T10:48:17Z</time>
      </trkpt>
      <trkpt lat="45.38813" lon="4.50343">
        <ele>776.30719</ele>
        <time>2010-04-25T10:48:23Z</time>
      </trkpt>
      <trkpt lat="45.38813" lon="4.50338">
        <ele>777.003784</ele>
        <time>2010-04-25T10:48:29Z</time>
      </trkpt>
      <trkpt lat="45.38816" lon="4.50333">
        <ele>776.708069</ele>
        <time>2010-04-25T10:48:35Z</time>
      </trkpt>
      <trkpt lat="45.38817" lon="4.5033">
        <ele>776.666931</ele>
        <time>2010-04-25T10:48:40Z</time>
      </trkpt>
      <trkpt lat="45.38818" lon="4.50328">
        <ele>776.518188</ele>
        <time>2010-04-25T10:48:45Z</time>
      </trkpt>
      <trkpt lat="45.3882" lon="4.5032">
        <ele>777.517761</ele>
        <time>2010-04-25T10:48:51Z</time>
      </trkpt>
      <trkpt lat="45.38826" lon="4.50308">
        <ele>776.910522</ele>
        <time>2010-04-25T10:48:56Z</time>
      </trkpt>
      <trkpt lat="45.38836" lon="4.50294">
        <ele>775.427795</ele>
        <time>2010-04-25T10:49:01Z</time>
      </trkpt>
      <trkpt lat="45.3885" lon="4.50269">
        <ele>773.954895</ele>
        <time>2010-04-25T10:49:06Z</time>
      </trkpt>
      <trkpt lat="45.38867" lon="4.50234">
        <ele>769.299927</ele>
        <time>2010-04-25T10:49:11Z</time>
      </trkpt>
      <trkpt lat="45.38874" lon="4.50205">
        <ele>766.656555</ele>
        <time>2010-04-25T10:49:16Z</time>
      </trkpt>
      <trkpt lat="45.38862" lon="4.50166">
        <ele>766.911987</ele>
        <time>2010-04-25T10:49:21Z</time>
      </trkpt>
      <trkpt lat="45.38851" lon="4.50131">
        <ele>765.985901</ele>
        <time>2010-04-25T10:49:26Z</time>
      </trkpt>
      <trkpt lat="45.38839" lon="4.50099">
        <ele>763.700439</ele>
        <time>2010-04-25T10:49:31Z</time>
      </trkpt>
      <trkpt lat="45.38828" lon="4.50073">
        <ele>765.440918</ele>
        <time>2010-04-25T10:49:36Z</time>
      </trkpt>
      <trkpt lat="45.38816" lon="4.5005">
        <ele>769.122986</ele>
        <time>2010-04-25T10:49:41Z</time>
      </trkpt>
      <trkpt lat="45.38817" lon="4.50056">
        <ele>768.978638</ele>
        <time>2010-04-25T10:49:46Z</time>
      </trkpt>
      <trkpt lat="45.38832" lon="4.50076">
        <ele>763.534058</ele>
        <time>2010-04-25T10:49:51Z</time>
      </trkpt>
      <trkpt lat="45.38856" lon="4.50094">
        <ele>757.186279</ele>
        <time>2010-04-25T10:49:56Z</time>
      </trkpt>
      <trkpt lat="45.38884" lon="4.50118">
        <ele>755.110413</ele>
        <time>2010-04-25T10:50:01Z</time>
      </trkpt>
      <trkpt lat="45.38912" lon="4.50148">
        <ele>746.694824</ele>
        <time>2010-04-25T10:50:06Z</time>
      </trkpt>
      <trkpt lat="45.38929" lon="4.50172">
        <ele>744.240051</ele>
        <time>2010-04-25T10:50:11Z</time>
      </trkpt>
      <trkpt lat="45.38952" lon="4.50195">
        <ele>739.791077</ele>
        <time>2010-04-25T10:50:16Z</time>
      </trkpt>
      <trkpt lat="45.3898" lon="4.50222">
        <ele>730.566162</ele>
        <time>2010-04-25T10:50:21Z</time>
      </trkpt>
      <trkpt lat="45.39015" lon="4.50242">
        <ele>726.632629</ele>
        <time>2010-04-25T10:50:26Z</time>
      </trkpt>
      <trkpt lat="45.39043" lon="4.50253">
        <ele>722.190002</ele>
        <time>2010-04-25T10:50:31Z</time>
      </trkpt>
      <trkpt lat="45.39069" lon="4.50248">
        <ele>721.330017</ele>
        <time>2010-04-25T10:50:36Z</time>
      </trkpt>
      <trkpt lat="45.39104" lon="4.5025">
        <ele>716.85498</ele>
        <time>2010-04-25T10:50:42Z</time>
      </trkpt>
      <trkpt lat="45.39144" lon="4.50245">
        <ele>712.866394</ele>
        <time>2010-04-25T10:50:47Z</time>
      </trkpt>
      <trkpt lat="45.39185" lon="4.50227">
        <ele>708.702637</ele>
        <time>2010-04-25T10:50:52Z</time>
      </trkpt>
      <trkpt lat="45.39219" lon="4.50219">
        <ele>704.643738</ele>
        <time>2010-04-25T10:50:57Z</time>
      </trkpt>
      <trkpt lat="45.39255" lon="4.5021">
        <ele>701.853271</ele>
        <time>2010-04-25T10:51:02Z</time>
      </trkpt>
      <trkpt lat="45.39294" lon="4.50209">
        <ele>697.847656</ele>
        <time>2010-04-25T10:51:07Z</time>
      </trkpt>
      <trkpt lat="45.39325" lon="4.50211">
        <ele>694.138</ele>
        <time>2010-04-25T10:51:12Z</time>
      </trkpt>
      <trkpt lat="45.39357" lon="4.50214">
        <ele>689.32605</ele>
        <time>2010-04-25T10:51:17Z</time>
      </trkpt>
      <trkpt lat="45.39402" lon="4.50205">
        <ele>685.467163</ele>
        <time>2010-04-25T10:51:22Z</time>
      </trkpt>
      <trkpt lat="45.39446" lon="4.50208">
        <ele>681.390076</ele>
        <time>2010-04-25T10:51:27Z</time>
      </trkpt>
      <trkpt lat="45.39482" lon="4.50209">
        <ele>680.134399</ele>
        <time>2010-04-25T10:51:32Z</time>
      </trkpt>
      <trkpt lat="45.39519" lon="4.50212">
        <ele>679.646057</ele>
        <time>2010-04-25T10:51:37Z</time>
      </trkpt>
      <trkpt lat="45.39555" lon="4.50223">
        <ele>675.017944</ele>
        <time>2010-04-25T10:51:42Z</time>
      </trkpt>
      <trkpt lat="45.39591" lon="4.50226">
        <ele>671.905029</ele>
        <time>2010-04-25T10:51:47Z</time>
      </trkpt>
      <trkpt lat="45.39624" lon="4.5023">
        <ele>669.574219</ele>
        <time>2010-04-25T10:51:52Z</time>
      </trkpt>
      <trkpt lat="45.39651" lon="4.50233">
        <ele>669.16156</ele>
        <time>2010-04-25T10:51:57Z</time>
      </trkpt>
      <trkpt lat="45.39685" lon="4.50228">
        <ele>669.496582</ele>
        <time>2010-04-25T10:52:02Z</time>
      </trkpt>
      <trkpt lat="45.39729" lon="4.50219">
        <ele>667.737305</ele>
        <time>2010-04-25T10:52:07Z</time>
      </trkpt>
      <trkpt lat="45.39748" lon="4.5021">
        <ele>664.731628</ele>
        <time>2010-04-25T10:52:12Z</time>
      </trkpt>
      <trkpt lat="45.39758" lon="4.50201">
        <ele>663.012817</ele>
        <time>2010-04-25T10:52:17Z</time>
      </trkpt>
      <trkpt lat="45.39764" lon="4.50195">
        <ele>661.61615</ele>
        <time>2010-04-25T10:52:22Z</time>
      </trkpt>
      <trkpt lat="45.39766" lon="4.50198">
        <ele>662.29541</ele>
        <time>2010-04-25T10:52:27Z</time>
      </trkpt>
      <trkpt lat="45.39763" lon="4.50201">
        <ele>662.907593</ele>
        <time>2010-04-25T10:52:33Z</time>
      </trkpt>
      <trkpt lat="45.39772" lon="4.50199">
        <ele>662.275452</ele>
        <time>2010-04-25T10:52:38Z</time>
      </trkpt>
      <trkpt lat="45.39782" lon="4.50191">
        <ele>659.339661</ele>
        <time>2010-04-25T10:52:43Z</time>
      </trkpt>
      <trkpt lat="45.39795" lon="4.50178">
        <ele>656.742188</ele>
        <time>2010-04-25T10:52:48Z</time>
      </trkpt>
      <trkpt lat="45.39805" lon="4.50166">
        <ele>659.687439</ele>
        <time>2010-04-25T10:52:53Z</time>
      </trkpt>
      <trkpt lat="45.39811" lon="4.50149">
        <ele>660.263428</ele>
        <time>2010-04-25T10:52:58Z</time>
      </trkpt>
      <trkpt lat="45.39818" lon="4.50137">
        <ele>659.376465</ele>
        <time>2010-04-25T10:53:03Z</time>
      </trkpt>
      <trkpt lat="45.39822" lon="4.5013">
        <ele>658.047485</ele>
        <time>2010-04-25T10:53:08Z</time>
      </trkpt>
      <trkpt lat="45.39829" lon="4.50107">
        <ele>654.141296</ele>
        <time>2010-04-25T10:53:13Z</time>
      </trkpt>
      <trkpt lat="45.39835" lon="4.50086">
        <ele>649.137146</ele>
        <time>2010-04-25T10:53:18Z</time>
      </trkpt>
      <trkpt lat="45.39846" lon="4.50063">
        <ele>641.731567</ele>
        <time>2010-04-25T10:53:23Z</time>
      </trkpt>
      <trkpt lat="45.39866" lon="4.50032">
        <ele>644.782227</ele>
        <time>2010-04-25T10:53:28Z</time>
      </trkpt>
      <trkpt lat="45.39891" lon="4.50006">
        <ele>639.66394</ele>
        <time>2010-04-25T10:53:33Z</time>
      </trkpt>
      <trkpt lat="45.39913" lon="4.49974">
        <ele>642.639221</ele>
        <time>2010-04-25T10:53:38Z</time>
      </trkpt>
      <trkpt lat="45.39935" lon="4.49959">
        <ele>641.005127</ele>
        <time>2010-04-25T10:53:43Z</time>
      </trkpt>
      <trkpt lat="45.39954" lon="4.49942">
        <ele>639.004333</ele>
        <time>2010-04-25T10:53:48Z</time>
      </trkpt>
      <trkpt lat="45.3998" lon="4.49914">
        <ele>637.813538</ele>
        <time>2010-04-25T10:53:53Z</time>
      </trkpt>
      <trkpt lat="45.40012" lon="4.49878">
        <ele>630.143982</ele>
        <time>2010-04-25T10:53:58Z</time>
      </trkpt>
      <trkpt lat="45.40042" lon="4.49858">
        <ele>630.965637</ele>
        <time>2010-04-25T10:54:03Z</time>
      </trkpt>
      <trkpt lat="45.4007" lon="4.49851">
        <ele>629.76123</ele>
        <time>2010-04-25T10:54:08Z</time>
      </trkpt>
      <trkpt lat="45.40091" lon="4.49845">
        <ele>629.362915</ele>
        <time>2010-04-25T10:54:13Z</time>
      </trkpt>
      <trkpt lat="45.40115" lon="4.49842">
        <ele>628.046753</ele>
        <time>2010-04-25T10:54:18Z</time>
      </trkpt>
      <trkpt lat="45.40151" lon="4.49848">
        <ele>624.632629</ele>
        <time>2010-04-25T10:54:23Z</time>
      </trkpt>
      <trkpt lat="45.40182" lon="4.49858">
        <ele>618.900757</ele>
        <time>2010-04-25T10:54:28Z</time>
      </trkpt>
      <trkpt lat="45.40216" lon="4.49865">
        <ele>613.745667</ele>
        <time>2010-04-25T10:54:33Z</time>
      </trkpt>
      <trkpt lat="45.40248" lon="4.49878">
        <ele>609.488586</ele>
        <time>2010-04-25T10:54:39Z</time>
      </trkpt>
      <trkpt lat="45.40275" lon="4.49875">
        <ele>609.720337</ele>
        <time>2010-04-25T10:54:44Z</time>
      </trkpt>
      <trkpt lat="45.40305" lon="4.49892">
        <ele>608.518738</ele>
        <time>2010-04-25T10:54:50Z</time>
      </trkpt>
      <trkpt lat="45.40336" lon="4.49911">
        <ele>610.990662</ele>
        <time>2010-04-25T10:54:56Z</time>
      </trkpt>
      <trkpt lat="45.40358" lon="4.49932">
        <ele>609.884888</ele>
        <time>2010-04-25T10:55:01Z</time>
      </trkpt>
      <trkpt lat="45.40388" lon="4.49945">
        <ele>609.680725</ele>
        <time>2010-04-25T10:55:06Z</time>
      </trkpt>
      <trkpt lat="45.40415" lon="4.49969">
        <ele>607.760376</ele>
        <time>2010-04-25T10:55:12Z</time>
      </trkpt>
      <trkpt lat="45.40434" lon="4.49986">
        <ele>606.057312</ele>
        <time>2010-04-25T10:55:17Z</time>
      </trkpt>
      <trkpt lat="45.4046" lon="4.50009">
        <ele>601.759155</ele>
        <time>2010-04-25T10:55:22Z</time>
      </trkpt>
      <trkpt lat="45.40494" lon="4.50048">
        <ele>600.785522</ele>
        <time>2010-04-25T10:55:28Z</time>
      </trkpt>
      <trkpt lat="45.40521" lon="4.50076">
        <ele>595.251892</ele>
        <time>2010-04-25T10:55:33Z</time>
      </trkpt>
      <trkpt lat="45.40546" lon="4.50103">
        <ele>597.600281</ele>
        <time>2010-04-25T10:55:39Z</time>
      </trkpt>
      <trkpt lat="45.40569" lon="4.50118">
        <ele>599.69928</ele>
        <time>2010-04-25T10:55:44Z</time>
      </trkpt>
      <trkpt lat="45.40592" lon="4.50143">
        <ele>599.901978</ele>
        <time>2010-04-25T10:55:49Z</time>
      </trkpt>
      <trkpt lat="45.40625" lon="4.50176">
        <ele>599.865662</ele>
        <time>2010-04-25T10:55:55Z</time>
      </trkpt>
      <trkpt lat="45.4064" lon="4.50202">
        <ele>600.478699</ele>
        <time>2010-04-25T10:56:00Z</time>
      </trkpt>
      <trkpt lat="45.40648" lon="4.50214">
        <ele>598.86792</ele>
        <time>2010-04-25T10:56:05Z</time>
      </trkpt>
      <trkpt lat="45.40655" lon="4.50219">
        <ele>597.439026</ele>
        <time>2010-04-25T10:56:10Z</time>
      </trkpt>
      <trkpt lat="45.40659" lon="4.50229">
        <ele>597.687683</ele>
        <time>2010-04-25T10:56:16Z</time>
      </trkpt>
      <trkpt lat="45.40662" lon="4.5024">
        <ele>598.055298</ele>
        <time>2010-04-25T10:56:23Z</time>
      </trkpt>
      <trkpt lat="45.40665" lon="4.50247">
        <ele>597.810181</ele>
        <time>2010-04-25T10:56:28Z</time>
      </trkpt>
      <trkpt lat="45.4067" lon="4.50256">
        <ele>597.098267</ele>
        <time>2010-04-25T10:56:33Z</time>
      </trkpt>
      <trkpt lat="45.40673" lon="4.50264">
        <ele>596.697754</ele>
        <time>2010-04-25T10:56:38Z</time>
      </trkpt>
      <trkpt lat="45.40673" lon="4.50277">
        <ele>597.848755</ele>
        <time>2010-04-25T10:56:44Z</time>
      </trkpt>
      <trkpt lat="45.40669" lon="4.50289">
        <ele>600.923645</ele>
        <time>2010-04-25T10:56:49Z</time>
      </trkpt>
      <trkpt lat="45.40669" lon="4.50301">
        <ele>602.174988</ele>
        <time>2010-04-25T10:56:55Z</time>
      </trkpt>
      <trkpt lat="45.40672" lon="4.50308">
        <ele>602.228333</ele>
        <time>2010-04-25T10:57:00Z</time>
      </trkpt>
      <trkpt lat="45.40679" lon="4.50311">
        <ele>600.259033</ele>
        <time>2010-04-25T10:57:06Z</time>
      </trkpt>
      <trkpt lat="45.40689" lon="4.50311">
        <ele>596.825745</ele>
        <time>2010-04-25T10:57:11Z</time>
      </trkpt>
      <trkpt lat="45.40698" lon="4.50315">
        <ele>595.530884</ele>
        <time>2010-04-25T10:57:18Z</time>
      </trkpt>
      <trkpt lat="45.40703" lon="4.50316">
        <ele>594.638245</ele>
        <time>2010-04-25T10:57:23Z</time>
      </trkpt>
      <trkpt lat="45.4071" lon="4.50316">
        <ele>593.009827</ele>
        <time>2010-04-25T10:57:28Z</time>
      </trkpt>
      <trkpt lat="45.40719" lon="4.50319">
        <ele>591.83252</ele>
        <time>2010-04-25T10:57:34Z</time>
      </trkpt>
      <trkpt lat="45.40723" lon="4.50328">
        <ele>592.965576</ele>
        <time>2010-04-25T10:57:39Z</time>
      </trkpt>
      <trkpt lat="45.40723" lon="4.50338">
        <ele>594.946045</ele>
        <time>2010-04-25T10:57:44Z</time>
      </trkpt>
      <trkpt lat="45.40723" lon="4.50343">
        <ele>596.122803</ele>
        <time>2010-04-25T10:57:54Z</time>
      </trkpt>
      <trkpt lat="45.40724" lon="4.50341">
        <ele>595.341919</ele>
        <time>2010-04-25T10:58:01Z</time>
      </trkpt>
      <trkpt lat="45.40722" lon="4.50343">
        <ele>596.530762</ele>
        <time>2010-04-25T10:58:06Z</time>
      </trkpt>
      <trkpt lat="45.40726" lon="4.50345">
        <ele>595.806885</ele>
        <time>2010-04-25T10:58:16Z</time>
      </trkpt>
      <trkpt lat="45.4073" lon="4.50343">
        <ele>594.415833</ele>
        <time>2010-04-25T10:58:23Z</time>
      </trkpt>
      <trkpt lat="45.40731" lon="4.50343">
        <ele>594.131165</ele>
        <time>2010-04-25T10:58:28Z</time>
      </trkpt>
      <trkpt lat="45.40728" lon="4.50345">
        <ele>595.147034</ele>
        <time>2010-04-25T10:58:34Z</time>
      </trkpt>
      <trkpt lat="45.40725" lon="4.50349">
        <ele>596.743103</ele>
        <time>2010-04-25T10:58:39Z</time>
      </trkpt>
      <trkpt lat="45.40728" lon="4.50355">
        <ele>597.662231</ele>
        <time>2010-04-25T10:58:44Z</time>
      </trkpt>
      <trkpt lat="45.4073" lon="4.50364">
        <ele>599.333984</ele>
        <time>2010-04-25T10:58:49Z</time>
      </trkpt>
      <trkpt lat="45.40733" lon="4.50372">
        <ele>600.423767</ele>
        <time>2010-04-25T10:58:54Z</time>
      </trkpt>
      <trkpt lat="45.40737" lon="4.5038">
        <ele>601.323792</ele>
        <time>2010-04-25T10:58:59Z</time>
      </trkpt>
      <trkpt lat="45.40739" lon="4.50387">
        <ele>602.177063</ele>
        <time>2010-04-25T10:59:04Z</time>
      </trkpt>
      <trkpt lat="45.40741" lon="4.50396">
        <ele>603.722656</ele>
        <time>2010-04-25T10:59:10Z</time>
      </trkpt>
      <trkpt lat="45.40744" lon="4.50405">
        <ele>604.838745</ele>
        <time>2010-04-25T10:59:16Z</time>
      </trkpt>
      <trkpt lat="45.40747" lon="4.50414">
        <ele>605.663025</ele>
        <time>2010-04-25T10:59:23Z</time>
      </trkpt>
      <trkpt lat="45.40749" lon="4.50421">
        <ele>606.78717</ele>
        <time>2010-04-25T10:59:28Z</time>
      </trkpt>
      <trkpt lat="45.40753" lon="4.50429">
        <ele>607.685486</ele>
        <time>2010-04-25T10:59:34Z</time>
      </trkpt>
      <trkpt lat="45.40756" lon="4.50436">
        <ele>608.333313</ele>
        <time>2010-04-25T10:59:40Z</time>
      </trkpt>
      <trkpt lat="45.40758" lon="4.50443">
        <ele>609.470947</ele>
        <time>2010-04-25T10:59:46Z</time>
      </trkpt>
      <trkpt lat="45.40762" lon="4.50451">
        <ele>610.065186</ele>
        <time>2010-04-25T10:59:52Z</time>
      </trkpt>
      <trkpt lat="45.40765" lon="4.50458">
        <ele>610.89502</ele>
        <time>2010-04-25T10:59:58Z</time>
      </trkpt>
      <trkpt lat="45.40768" lon="4.50465">
        <ele>611.884216</ele>
        <time>2010-04-25T11:00:04Z</time>
      </trkpt>
      <trkpt lat="45.40771" lon="4.50473">
        <ele>612.958435</ele>
        <time>2010-04-25T11:00:10Z</time>
      </trkpt>
      <trkpt lat="45.40777" lon="4.50481">
        <ele>613.036194</ele>
        <time>2010-04-25T11:00:16Z</time>
      </trkpt>
      <trkpt lat="45.40781" lon="4.50488">
        <ele>613.434937</ele>
        <time>2010-04-25T11:00:21Z</time>
      </trkpt>
      <trkpt lat="45.40786" lon="4.50495">
        <ele>613.470764</ele>
        <time>2010-04-25T11:00:27Z</time>
      </trkpt>
      <trkpt lat="45.40789" lon="4.50503">
        <ele>614.205017</ele>
        <time>2010-04-25T11:00:33Z</time>
      </trkpt>
      <trkpt lat="45.40792" lon="4.50511">
        <ele>614.867615</ele>
        <time>2010-04-25T11:00:38Z</time>
      </trkpt>
      <trkpt lat="45.40796" lon="4.50519">
        <ele>616.000488</ele>
        <time>2010-04-25T11:00:44Z</time>
      </trkpt>
      <trkpt lat="45.408" lon="4.50525">
        <ele>616.121094</ele>
        <time>2010-04-25T11:00:49Z</time>
      </trkpt>
      <trkpt lat="45.40805" lon="4.50532">
        <ele>616.412231</ele>
        <time>2010-04-25T11:00:54Z</time>
      </trkpt>
      <trkpt lat="45.40808" lon="4.50539">
        <ele>617.289063</ele>
        <time>2010-04-25T11:00:59Z</time>
      </trkpt>
      <trkpt lat="45.40813" lon="4.50547">
        <ele>617.441467</ele>
        <time>2010-04-25T11:01:04Z</time>
      </trkpt>
      <trkpt lat="45.40818" lon="4.50557">
        <ele>617.834961</ele>
        <time>2010-04-25T11:01:10Z</time>
      </trkpt>
      <trkpt lat="45.40822" lon="4.50565">
        <ele>617.944824</ele>
        <time>2010-04-25T11:01:15Z</time>
      </trkpt>
      <trkpt lat="45.40826" lon="4.50574">
        <ele>617.826538</ele>
        <time>2010-04-25T11:01:21Z</time>
      </trkpt>
      <trkpt lat="45.40831" lon="4.5058">
        <ele>616.377563</ele>
        <time>2010-04-25T11:01:26Z</time>
      </trkpt>
      <trkpt lat="45.40837" lon="4.50586">
        <ele>614.711426</ele>
        <time>2010-04-25T11:01:31Z</time>
      </trkpt>
      <trkpt lat="45.40844" lon="4.50597">
        <ele>613.983887</ele>
        <time>2010-04-25T11:01:36Z</time>
      </trkpt>
      <trkpt lat="45.40848" lon="4.50614">
        <ele>615.400024</ele>
        <time>2010-04-25T11:01:41Z</time>
      </trkpt>
      <trkpt lat="45.40853" lon="4.50633">
        <ele>617.275024</ele>
        <time>2010-04-25T11:01:46Z</time>
      </trkpt>
      <trkpt lat="45.40855" lon="4.50652">
        <ele>620.631226</ele>
        <time>2010-04-25T11:01:51Z</time>
      </trkpt>
      <trkpt lat="45.40857" lon="4.50669">
        <ele>623.84375</ele>
        <time>2010-04-25T11:01:56Z</time>
      </trkpt>
      <trkpt lat="45.40866" lon="4.50683">
        <ele>621.684448</ele>
        <time>2010-04-25T11:02:01Z</time>
      </trkpt>
      <trkpt lat="45.40876" lon="4.50699">
        <ele>618.673157</ele>
        <time>2010-04-25T11:02:07Z</time>
      </trkpt>
      <trkpt lat="45.40881" lon="4.50711">
        <ele>617.340088</ele>
        <time>2010-04-25T11:02:12Z</time>
      </trkpt>
      <trkpt lat="45.40884" lon="4.5072">
        <ele>617.178345</ele>
        <time>2010-04-25T11:02:17Z</time>
      </trkpt>
      <trkpt lat="45.40885" lon="4.50729">
        <ele>617.444946</ele>
        <time>2010-04-25T11:02:22Z</time>
      </trkpt>
      <trkpt lat="45.40884" lon="4.50736">
        <ele>618.722534</ele>
        <time>2010-04-25T11:02:27Z</time>
      </trkpt>
      <trkpt lat="45.40884" lon="4.50745">
        <ele>619.407104</ele>
        <time>2010-04-25T11:02:32Z</time>
      </trkpt>
      <trkpt lat="45.40882" lon="4.50753">
        <ele>621.223633</ele>
        <time>2010-04-25T11:02:37Z</time>
      </trkpt>
      <trkpt lat="45.40881" lon="4.50764">
        <ele>622.553345</ele>
        <time>2010-04-25T11:02:42Z</time>
      </trkpt>
      <trkpt lat="45.40879" lon="4.50775">
        <ele>624.144775</ele>
        <time>2010-04-25T11:02:47Z</time>
      </trkpt>
      <trkpt lat="45.40878" lon="4.50788">
        <ele>625.562561</ele>
        <time>2010-04-25T11:02:52Z</time>
      </trkpt>
      <trkpt lat="45.40878" lon="4.50804">
        <ele>627.025635</ele>
        <time>2010-04-25T11:02:58Z</time>
      </trkpt>
      <trkpt lat="45.40878" lon="4.50813">
        <ele>628.297607</ele>
        <time>2010-04-25T11:03:03Z</time>
      </trkpt>
      <trkpt lat="45.40877" lon="4.50816">
        <ele>628.994019</ele>
        <time>2010-04-25T11:03:08Z</time>
      </trkpt>
      <trkpt lat="45.40881" lon="4.50821">
        <ele>628.455811</ele>
        <time>2010-04-25T11:03:15Z</time>
      </trkpt>
      <trkpt lat="45.40887" lon="4.5082">
        <ele>626.817749</ele>
        <time>2010-04-25T11:03:22Z</time>
      </trkpt>
      <trkpt lat="45.40882" lon="4.50822">
        <ele>628.243835</ele>
        <time>2010-04-25T11:03:28Z</time>
      </trkpt>
      <trkpt lat="45.40879" lon="4.50826">
        <ele>629.700806</ele>
        <time>2010-04-25T11:03:34Z</time>
      </trkpt>
      <trkpt lat="45.40878" lon="4.50833">
        <ele>630.9422</ele>
        <time>2010-04-25T11:03:39Z</time>
      </trkpt>
      <trkpt lat="45.40877" lon="4.5084">
        <ele>632.296997</ele>
        <time>2010-04-25T11:03:44Z</time>
      </trkpt>
      <trkpt lat="45.40878" lon="4.50849">
        <ele>633.441467</ele>
        <time>2010-04-25T11:03:50Z</time>
      </trkpt>
      <trkpt lat="45.40881" lon="4.50855">
        <ele>634.184387</ele>
        <time>2010-04-25T11:03:56Z</time>
      </trkpt>
      <trkpt lat="45.40886" lon="4.50861">
        <ele>635.001587</ele>
        <time>2010-04-25T11:04:02Z</time>
      </trkpt>
      <trkpt lat="45.40892" lon="4.50859">
        <ele>634.177185</ele>
        <time>2010-04-25T11:04:07Z</time>
      </trkpt>
      <trkpt lat="45.40901" lon="4.50855">
        <ele>632.677307</ele>
        <time>2010-04-25T11:04:13Z</time>
      </trkpt>
      <trkpt lat="45.40907" lon="4.50852">
        <ele>631.330017</ele>
        <time>2010-04-25T11:04:18Z</time>
      </trkpt>
      <trkpt lat="45.40913" lon="4.5085">
        <ele>630.265015</ele>
        <time>2010-04-25T11:04:23Z</time>
      </trkpt>
      <trkpt lat="45.40919" lon="4.50851">
        <ele>630.26001</ele>
        <time>2010-04-25T11:04:28Z</time>
      </trkpt>
      <trkpt lat="45.40926" lon="4.50852">
        <ele>630.085022</ele>
        <time>2010-04-25T11:04:34Z</time>
      </trkpt>
      <trkpt lat="45.40931" lon="4.50854">
        <ele>630.529968</ele>
        <time>2010-04-25T11:04:40Z</time>
      </trkpt>
      <trkpt lat="45.4094" lon="4.50857">
        <ele>630.945007</ele>
        <time>2010-04-25T11:04:48Z</time>
      </trkpt>
      <trkpt lat="45.40953" lon="4.50863">
        <ele>632.02002</ele>
        <time>2010-04-25T11:04:53Z</time>
      </trkpt>
      <trkpt lat="45.40964" lon="4.50869">
        <ele>632.294983</ele>
        <time>2010-04-25T11:04:58Z</time>
      </trkpt>
      <trkpt lat="45.40975" lon="4.50877">
        <ele>633.14917</ele>
        <time>2010-04-25T11:05:03Z</time>
      </trkpt>
      <trkpt lat="45.40986" lon="4.50886">
        <ele>634.396606</ele>
        <time>2010-04-25T11:05:08Z</time>
      </trkpt>
      <trkpt lat="45.40997" lon="4.50895">
        <ele>635.280029</ele>
        <time>2010-04-25T11:05:13Z</time>
      </trkpt>
      <trkpt lat="45.41009" lon="4.50902">
        <ele>635.290039</ele>
        <time>2010-04-25T11:05:18Z</time>
      </trkpt>
      <trkpt lat="45.4102" lon="4.50909">
        <ele>635.434998</ele>
        <time>2010-04-25T11:05:23Z</time>
      </trkpt>
      <trkpt lat="45.4103" lon="4.50918">
        <ele>636.340027</ele>
        <time>2010-04-25T11:05:28Z</time>
      </trkpt>
      <trkpt lat="45.41037" lon="4.50923">
        <ele>636.585022</ele>
        <time>2010-04-25T11:05:33Z</time>
      </trkpt>
      <trkpt lat="45.41047" lon="4.50931">
        <ele>636.464294</ele>
        <time>2010-04-25T11:05:38Z</time>
      </trkpt>
      <trkpt lat="45.41061" lon="4.50939">
        <ele>634.465454</ele>
        <time>2010-04-25T11:05:43Z</time>
      </trkpt>
      <trkpt lat="45.41075" lon="4.50951">
        <ele>633.685791</ele>
        <time>2010-04-25T11:05:48Z</time>
      </trkpt>
      <trkpt lat="45.41091" lon="4.50966">
        <ele>632.615417</ele>
        <time>2010-04-25T11:05:53Z</time>
      </trkpt>
      <trkpt lat="45.41108" lon="4.50982">
        <ele>630.942261</ele>
        <time>2010-04-25T11:05:58Z</time>
      </trkpt>
      <trkpt lat="45.41142" lon="4.51009">
        <ele>626.421326</ele>
        <time>2010-04-25T11:06:04Z</time>
      </trkpt>
      <trkpt lat="45.41164" lon="4.51036">
        <ele>625.770386</ele>
        <time>2010-04-25T11:06:09Z</time>
      </trkpt>
      <trkpt lat="45.41182" lon="4.51062">
        <ele>627.28241</ele>
        <time>2010-04-25T11:06:14Z</time>
      </trkpt>
      <trkpt lat="45.412" lon="4.51091">
        <ele>625.811157</ele>
        <time>2010-04-25T11:06:19Z</time>
      </trkpt>
      <trkpt lat="45.41218" lon="4.51126">
        <ele>625.031738</ele>
        <time>2010-04-25T11:06:24Z</time>
      </trkpt>
      <trkpt lat="45.41223" lon="4.5116">
        <ele>622.079956</ele>
        <time>2010-04-25T11:06:29Z</time>
      </trkpt>
      <trkpt lat="45.41215" lon="4.51206">
        <ele>619.532532</ele>
        <time>2010-04-25T11:06:34Z</time>
      </trkpt>
      <trkpt lat="45.412" lon="4.51276">
        <ele>611.956543</ele>
        <time>2010-04-25T11:06:39Z</time>
      </trkpt>
      <trkpt lat="45.41179" lon="4.51358">
        <ele>605.578918</ele>
        <time>2010-04-25T11:06:44Z</time>
      </trkpt>
      <trkpt lat="45.41157" lon="4.51444">
        <ele>600.160583</ele>
        <time>2010-04-25T11:06:49Z</time>
      </trkpt>
      <trkpt lat="45.41137" lon="4.51502">
        <ele>594.751038</ele>
        <time>2010-04-25T11:06:54Z</time>
      </trkpt>
      <trkpt lat="45.41121" lon="4.51529">
        <ele>593.360962</ele>
        <time>2010-04-25T11:06:59Z</time>
      </trkpt>
      <trkpt lat="45.41098" lon="4.51557">
        <ele>591.105896</ele>
        <time>2010-04-25T11:07:04Z</time>
      </trkpt>
      <trkpt lat="45.41065" lon="4.51594">
        <ele>590.267273</ele>
        <time>2010-04-25T11:07:09Z</time>
      </trkpt>
      <trkpt lat="45.41036" lon="4.51636">
        <ele>587.058838</ele>
        <time>2010-04-25T11:07:14Z</time>
      </trkpt>
      <trkpt lat="45.41036" lon="4.5167">
        <ele>591.771973</ele>
        <time>2010-04-25T11:07:19Z</time>
      </trkpt>
      <trkpt lat="45.4105" lon="4.51674">
        <ele>593.215759</ele>
        <time>2010-04-25T11:07:25Z</time>
      </trkpt>
      <trkpt lat="45.41057" lon="4.51673">
        <ele>593.093262</ele>
        <time>2010-04-25T11:07:31Z</time>
      </trkpt>
      <trkpt lat="45.41061" lon="4.51671">
        <ele>592.864075</ele>
        <time>2010-04-25T11:07:37Z</time>
      </trkpt>
      <trkpt lat="45.41067" lon="4.51671">
        <ele>593.08905</ele>
        <time>2010-04-25T11:07:42Z</time>
      </trkpt>
      <trkpt lat="45.41073" lon="4.5167">
        <ele>593.129517</ele>
        <time>2010-04-25T11:07:48Z</time>
      </trkpt>
      <trkpt lat="45.41078" lon="4.51669">
        <ele>593.43335</ele>
        <time>2010-04-25T11:07:53Z</time>
      </trkpt>
      <trkpt lat="45.41082" lon="4.5167">
        <ele>594.553345</ele>
        <time>2010-04-25T11:07:58Z</time>
      </trkpt>
      <trkpt lat="45.41088" lon="4.5167">
        <ele>595.339905</ele>
        <time>2010-04-25T11:08:05Z</time>
      </trkpt>
      <trkpt lat="45.41094" lon="4.51669">
        <ele>595.851624</ele>
        <time>2010-04-25T11:08:11Z</time>
      </trkpt>
      <trkpt lat="45.41099" lon="4.51667">
        <ele>595.773682</ele>
        <time>2010-04-25T11:08:17Z</time>
      </trkpt>
      <trkpt lat="45.41104" lon="4.51667">
        <ele>596.521423</ele>
        <time>2010-04-25T11:08:23Z</time>
      </trkpt>
      <trkpt lat="45.41108" lon="4.51667">
        <ele>597.244019</ele>
        <time>2010-04-25T11:08:29Z</time>
      </trkpt>
      <trkpt lat="45.41113" lon="4.51667">
        <ele>597.75708</ele>
        <time>2010-04-25T11:08:35Z</time>
      </trkpt>
      <trkpt lat="45.41119" lon="4.51666">
        <ele>598.169678</ele>
        <time>2010-04-25T11:08:41Z</time>
      </trkpt>
      <trkpt lat="45.41125" lon="4.51666">
        <ele>598.928345</ele>
        <time>2010-04-25T11:08:47Z</time>
      </trkpt>
      <trkpt lat="45.4113" lon="4.51666">
        <ele>599.164185</ele>
        <time>2010-04-25T11:08:53Z</time>
      </trkpt>
      <trkpt lat="45.41134" lon="4.51666">
        <ele>599.645142</ele>
        <time>2010-04-25T11:08:59Z</time>
      </trkpt>
      <trkpt lat="45.4114" lon="4.51667">
        <ele>600.509216</ele>
        <time>2010-04-25T11:09:05Z</time>
      </trkpt>
      <trkpt lat="45.41146" lon="4.51667">
        <ele>601.113892</ele>
        <time>2010-04-25T11:09:11Z</time>
      </trkpt>
      <trkpt lat="45.41151" lon="4.51667">
        <ele>601.639099</ele>
        <time>2010-04-25T11:09:16Z</time>
      </trkpt>
      <trkpt lat="45.41156" lon="4.51668">
        <ele>602.525024</ele>
        <time>2010-04-25T11:09:21Z</time>
      </trkpt>
      <trkpt lat="45.41162" lon="4.5167">
        <ele>603.859863</ele>
        <time>2010-04-25T11:09:27Z</time>
      </trkpt>
      <trkpt lat="45.41167" lon="4.51672">
        <ele>605.2052</ele>
        <time>2010-04-25T11:09:33Z</time>
      </trkpt>
      <trkpt lat="45.41172" lon="4.51673">
        <ele>606.250793</ele>
        <time>2010-04-25T11:09:39Z</time>
      </trkpt>
      <trkpt lat="45.41175" lon="4.51675">
        <ele>607.22522</ele>
        <time>2010-04-25T11:09:45Z</time>
      </trkpt>
      <trkpt lat="45.41175" lon="4.51681">
        <ele>609.665466</ele>
        <time>2010-04-25T11:10:01Z</time>
      </trkpt>
      <trkpt lat="45.41176" lon="4.51679">
        <ele>608.937012</ele>
        <time>2010-04-25T11:10:08Z</time>
      </trkpt>
      <trkpt lat="45.41176" lon="4.51679">
        <ele>608.937012</ele>
        <time>2010-04-25T11:10:18Z</time>
      </trkpt>
      <trkpt lat="45.41174" lon="4.51683">
        <ele>610.18158</ele>
        <time>2010-04-25T11:10:24Z</time>
      </trkpt>
      <trkpt lat="45.41175" lon="4.51681">
        <ele>609.570618</ele>
        <time>2010-04-25T11:10:34Z</time>
      </trkpt>
      <trkpt lat="45.41173" lon="4.51685">
        <ele>610.699158</ele>
        <time>2010-04-25T11:10:39Z</time>
      </trkpt>
      <trkpt lat="45.41173" lon="4.51683">
        <ele>610.135742</ele>
        <time>2010-04-25T11:10:44Z</time>
      </trkpt>
      <trkpt lat="45.41176" lon="4.51678">
        <ele>608.582031</ele>
        <time>2010-04-25T11:10:52Z</time>
      </trkpt>
      <trkpt lat="45.41184" lon="4.51677">
        <ele>608.889343</ele>
        <time>2010-04-25T11:10:58Z</time>
      </trkpt>
      <trkpt lat="45.41188" lon="4.51676">
        <ele>609.110718</ele>
        <time>2010-04-25T11:11:04Z</time>
      </trkpt>
      <trkpt lat="45.41192" lon="4.51675">
        <ele>609.253662</ele>
        <time>2010-04-25T11:11:10Z</time>
      </trkpt>
      <trkpt lat="45.41196" lon="4.51672">
        <ele>608.477661</ele>
        <time>2010-04-25T11:11:15Z</time>
      </trkpt>
      <trkpt lat="45.41202" lon="4.51672">
        <ele>608.939941</ele>
        <time>2010-04-25T11:11:21Z</time>
      </trkpt>
      <trkpt lat="45.41207" lon="4.51672">
        <ele>609.90625</ele>
        <time>2010-04-25T11:11:26Z</time>
      </trkpt>
      <trkpt lat="45.41213" lon="4.51673">
        <ele>611.238708</ele>
        <time>2010-04-25T11:11:31Z</time>
      </trkpt>
      <trkpt lat="45.41218" lon="4.51672">
        <ele>612.01123</ele>
        <time>2010-04-25T11:11:36Z</time>
      </trkpt>
      <trkpt lat="45.41224" lon="4.51672">
        <ele>613.125</ele>
        <time>2010-04-25T11:11:42Z</time>
      </trkpt>
      <trkpt lat="45.4123" lon="4.51671">
        <ele>614.1875</ele>
        <time>2010-04-25T11:11:48Z</time>
      </trkpt>
      <trkpt lat="45.41235" lon="4.51669">
        <ele>614.38501</ele>
        <time>2010-04-25T11:11:54Z</time>
      </trkpt>
      <trkpt lat="45.41239" lon="4.51668">
        <ele>614.993774</ele>
        <time>2010-04-25T11:12:00Z</time>
      </trkpt>
      <trkpt lat="45.41245" lon="4.51668">
        <ele>616.067505</ele>
        <time>2010-04-25T11:12:06Z</time>
      </trkpt>
      <trkpt lat="45.4125" lon="4.51666">
        <ele>616.678772</ele>
        <time>2010-04-25T11:12:12Z</time>
      </trkpt>
      <trkpt lat="45.41255" lon="4.51665">
        <ele>617.708496</ele>
        <time>2010-04-25T11:12:18Z</time>
      </trkpt>
      <trkpt lat="45.41261" lon="4.51663">
        <ele>618.577637</ele>
        <time>2010-04-25T11:12:24Z</time>
      </trkpt>
      <trkpt lat="45.41266" lon="4.5166">
        <ele>619.236633</ele>
        <time>2010-04-25T11:12:30Z</time>
      </trkpt>
      <trkpt lat="45.41271" lon="4.51657">
        <ele>620.017029</ele>
        <time>2010-04-25T11:12:36Z</time>
      </trkpt>
      <trkpt lat="45.4128" lon="4.51653">
        <ele>621.865295</ele>
        <time>2010-04-25T11:12:43Z</time>
      </trkpt>
      <trkpt lat="45.41285" lon="4.51649">
        <ele>622.241638</ele>
        <time>2010-04-25T11:12:49Z</time>
      </trkpt>
      <trkpt lat="45.4129" lon="4.51644">
        <ele>622.350586</ele>
        <time>2010-04-25T11:12:55Z</time>
      </trkpt>
      <trkpt lat="45.41294" lon="4.51639">
        <ele>622.373596</ele>
        <time>2010-04-25T11:13:01Z</time>
      </trkpt>
      <trkpt lat="45.41299" lon="4.51634">
        <ele>622.915833</ele>
        <time>2010-04-25T11:13:07Z</time>
      </trkpt>
      <trkpt lat="45.41305" lon="4.5163">
        <ele>623.560242</ele>
        <time>2010-04-25T11:13:13Z</time>
      </trkpt>
      <trkpt lat="45.4131" lon="4.51626">
        <ele>623.904053</ele>
        <time>2010-04-25T11:13:19Z</time>
      </trkpt>
      <trkpt lat="45.41315" lon="4.51621">
        <ele>624.099243</ele>
        <time>2010-04-25T11:13:25Z</time>
      </trkpt>
      <trkpt lat="45.4132" lon="4.51617">
        <ele>624.787903</ele>
        <time>2010-04-25T11:13:31Z</time>
      </trkpt>
      <trkpt lat="45.41325" lon="4.51612">
        <ele>625.059387</ele>
        <time>2010-04-25T11:13:37Z</time>
      </trkpt>
      <trkpt lat="45.41331" lon="4.51608">
        <ele>625.706177</ele>
        <time>2010-04-25T11:13:43Z</time>
      </trkpt>
      <trkpt lat="45.41337" lon="4.51604">
        <ele>626.532227</ele>
        <time>2010-04-25T11:13:49Z</time>
      </trkpt>
      <trkpt lat="45.41343" lon="4.516">
        <ele>627.450012</ele>
        <time>2010-04-25T11:13:55Z</time>
      </trkpt>
      <trkpt lat="45.4135" lon="4.51596">
        <ele>628.200012</ele>
        <time>2010-04-25T11:14:01Z</time>
      </trkpt>
      <trkpt lat="45.41355" lon="4.51593">
        <ele>628.710022</ele>
        <time>2010-04-25T11:14:06Z</time>
      </trkpt>
      <trkpt lat="45.41362" lon="4.51589">
        <ele>629.48999</ele>
        <time>2010-04-25T11:14:12Z</time>
      </trkpt>
      <trkpt lat="45.41367" lon="4.51586">
        <ele>629.918518</ele>
        <time>2010-04-25T11:14:17Z</time>
      </trkpt>
      <trkpt lat="45.41374" lon="4.51582">
        <ele>630.565491</ele>
        <time>2010-04-25T11:14:23Z</time>
      </trkpt>
      <trkpt lat="45.4138" lon="4.51579">
        <ele>631.254395</ele>
        <time>2010-04-25T11:14:28Z</time>
      </trkpt>
      <trkpt lat="45.41386" lon="4.51576">
        <ele>631.927551</ele>
        <time>2010-04-25T11:14:33Z</time>
      </trkpt>
      <trkpt lat="45.41392" lon="4.51573">
        <ele>632.948425</ele>
        <time>2010-04-25T11:14:39Z</time>
      </trkpt>
      <trkpt lat="45.41397" lon="4.5157">
        <ele>633.707153</ele>
        <time>2010-04-25T11:14:44Z</time>
      </trkpt>
      <trkpt lat="45.41404" lon="4.51566">
        <ele>634.525391</ele>
        <time>2010-04-25T11:14:50Z</time>
      </trkpt>
      <trkpt lat="45.41409" lon="4.51562">
        <ele>635.19873</ele>
        <time>2010-04-25T11:14:56Z</time>
      </trkpt>
      <trkpt lat="45.41415" lon="4.51558">
        <ele>635.839111</ele>
        <time>2010-04-25T11:15:02Z</time>
      </trkpt>
      <trkpt lat="45.4142" lon="4.51554">
        <ele>636.387207</ele>
        <time>2010-04-25T11:15:07Z</time>
      </trkpt>
      <trkpt lat="45.41425" lon="4.5155">
        <ele>636.950317</ele>
        <time>2010-04-25T11:15:12Z</time>
      </trkpt>
      <trkpt lat="45.4143" lon="4.51546">
        <ele>637.497681</ele>
        <time>2010-04-25T11:15:17Z</time>
      </trkpt>
      <trkpt lat="45.41436" lon="4.51542">
        <ele>638.067932</ele>
        <time>2010-04-25T11:15:23Z</time>
      </trkpt>
      <trkpt lat="45.41441" lon="4.51538">
        <ele>638.355164</ele>
        <time>2010-04-25T11:15:29Z</time>
      </trkpt>
      <trkpt lat="45.41446" lon="4.51534">
        <ele>638.67395</ele>
        <time>2010-04-25T11:15:35Z</time>
      </trkpt>
      <trkpt lat="45.41452" lon="4.5153">
        <ele>638.900513</ele>
        <time>2010-04-25T11:15:41Z</time>
      </trkpt>
      <trkpt lat="45.41457" lon="4.51526">
        <ele>639.434998</ele>
        <time>2010-04-25T11:15:47Z</time>
      </trkpt>
      <trkpt lat="45.41462" lon="4.51523">
        <ele>639.844971</ele>
        <time>2010-04-25T11:15:53Z</time>
      </trkpt>
      <trkpt lat="45.41468" lon="4.5152">
        <ele>640.317505</ele>
        <time>2010-04-25T11:15:59Z</time>
      </trkpt>
      <trkpt lat="45.41473" lon="4.51517">
        <ele>640.952515</ele>
        <time>2010-04-25T11:16:05Z</time>
      </trkpt>
      <trkpt lat="45.41479" lon="4.51516">
        <ele>641.846008</ele>
        <time>2010-04-25T11:16:11Z</time>
      </trkpt>
      <trkpt lat="45.41485" lon="4.51513">
        <ele>641.84082</ele>
        <time>2010-04-25T11:16:17Z</time>
      </trkpt>
      <trkpt lat="45.41491" lon="4.51512">
        <ele>642.306152</ele>
        <time>2010-04-25T11:16:23Z</time>
      </trkpt>
      <trkpt lat="45.41496" lon="4.51513">
        <ele>642.962708</ele>
        <time>2010-04-25T11:16:28Z</time>
      </trkpt>
      <trkpt lat="45.41502" lon="4.51513">
        <ele>643.54126</ele>
        <time>2010-04-25T11:16:33Z</time>
      </trkpt>
      <trkpt lat="45.41507" lon="4.51513">
        <ele>644.075928</ele>
        <time>2010-04-25T11:16:38Z</time>
      </trkpt>
      <trkpt lat="45.41513" lon="4.51513">
        <ele>644.804077</ele>
        <time>2010-04-25T11:16:44Z</time>
      </trkpt>
      <trkpt lat="45.41518" lon="4.51514">
        <ele>645.43927</ele>
        <time>2010-04-25T11:16:49Z</time>
      </trkpt>
      <trkpt lat="45.41524" lon="4.51513">
        <ele>645.961182</ele>
        <time>2010-04-25T11:16:55Z</time>
      </trkpt>
      <trkpt lat="45.41527" lon="4.51519">
        <ele>647.224976</ele>
        <time>2010-04-25T11:17:03Z</time>
      </trkpt>
      <trkpt lat="45.41521" lon="4.51519">
        <ele>647.126892</ele>
        <time>2010-04-25T11:17:08Z</time>
      </trkpt>
      <trkpt lat="45.41517" lon="4.5152">
        <ele>646.894897</ele>
        <time>2010-04-25T11:17:13Z</time>
      </trkpt>
      <trkpt lat="45.4151" lon="4.51522">
        <ele>646.721252</ele>
        <time>2010-04-25T11:17:19Z</time>
      </trkpt>
      <trkpt lat="45.41503" lon="4.51526">
        <ele>646.823669</ele>
        <time>2010-04-25T11:17:25Z</time>
      </trkpt>
      <trkpt lat="45.41498" lon="4.51531">
        <ele>647.458679</ele>
        <time>2010-04-25T11:17:30Z</time>
      </trkpt>
      <trkpt lat="45.41493" lon="4.51537">
        <ele>648.4505</ele>
        <time>2010-04-25T11:17:36Z</time>
      </trkpt>
      <trkpt lat="45.41487" lon="4.51543">
        <ele>649.487244</ele>
        <time>2010-04-25T11:17:42Z</time>
      </trkpt>
      <trkpt lat="45.41482" lon="4.5155">
        <ele>650.616333</ele>
        <time>2010-04-25T11:17:48Z</time>
      </trkpt>
      <trkpt lat="45.41477" lon="4.51556">
        <ele>651.61145</ele>
        <time>2010-04-25T11:17:53Z</time>
      </trkpt>
      <trkpt lat="45.41472" lon="4.51563">
        <ele>652.28772</ele>
        <time>2010-04-25T11:17:59Z</time>
      </trkpt>
      <trkpt lat="45.41467" lon="4.5157">
        <ele>652.615845</ele>
        <time>2010-04-25T11:18:05Z</time>
      </trkpt>
      <trkpt lat="45.41462" lon="4.51577">
        <ele>653.122253</ele>
        <time>2010-04-25T11:18:10Z</time>
      </trkpt>
      <trkpt lat="45.41457" lon="4.51583">
        <ele>653.636841</ele>
        <time>2010-04-25T11:18:15Z</time>
      </trkpt>
      <trkpt lat="45.41452" lon="4.51591">
        <ele>654.29071</ele>
        <time>2010-04-25T11:18:20Z</time>
      </trkpt>
      <trkpt lat="45.41448" lon="4.51599">
        <ele>655.180115</ele>
        <time>2010-04-25T11:18:25Z</time>
      </trkpt>
      <trkpt lat="45.41444" lon="4.51608">
        <ele>656.068054</ele>
        <time>2010-04-25T11:18:30Z</time>
      </trkpt>
      <trkpt lat="45.41444" lon="4.51617">
        <ele>658.453979</ele>
        <time>2010-04-25T11:18:35Z</time>
      </trkpt>
      <trkpt lat="45.41451" lon="4.51616">
        <ele>660.121399</ele>
        <time>2010-04-25T11:18:40Z</time>
      </trkpt>
      <trkpt lat="45.41458" lon="4.51613">
        <ele>660.846436</ele>
        <time>2010-04-25T11:18:45Z</time>
      </trkpt>
      <trkpt lat="45.41465" lon="4.5161">
        <ele>661.854553</ele>
        <time>2010-04-25T11:18:50Z</time>
      </trkpt>
      <trkpt lat="45.41471" lon="4.51607">
        <ele>662.644287</ele>
        <time>2010-04-25T11:18:55Z</time>
      </trkpt>
      <trkpt lat="45.41477" lon="4.51602">
        <ele>663.1875</ele>
        <time>2010-04-25T11:19:00Z</time>
      </trkpt>
      <trkpt lat="45.41483" lon="4.51599">
        <ele>662.784241</ele>
        <time>2010-04-25T11:19:05Z</time>
      </trkpt>
      <trkpt lat="45.4149" lon="4.51595">
        <ele>662.391174</ele>
        <time>2010-04-25T11:19:10Z</time>
      </trkpt>
      <trkpt lat="45.41496" lon="4.51592">
        <ele>661.926392</ele>
        <time>2010-04-25T11:19:15Z</time>
      </trkpt>
      <trkpt lat="45.41504" lon="4.51588">
        <ele>661.544678</ele>
        <time>2010-04-25T11:19:20Z</time>
      </trkpt>
      <trkpt lat="45.41523" lon="4.5158">
        <ele>660.849121</ele>
        <time>2010-04-25T11:19:26Z</time>
      </trkpt>
      <trkpt lat="45.4155" lon="4.51588">
        <ele>660.118591</ele>
        <time>2010-04-25T11:19:31Z</time>
      </trkpt>
      <trkpt lat="45.41576" lon="4.51604">
        <ele>660.308716</ele>
        <time>2010-04-25T11:19:36Z</time>
      </trkpt>
      <trkpt lat="45.41592" lon="4.51608">
        <ele>659.158752</ele>
        <time>2010-04-25T11:19:41Z</time>
      </trkpt>
      <trkpt lat="45.41606" lon="4.51609">
        <ele>657.628723</ele>
        <time>2010-04-25T11:19:46Z</time>
      </trkpt>
      <trkpt lat="45.41628" lon="4.51613">
        <ele>656.252869</ele>
        <time>2010-04-25T11:19:51Z</time>
      </trkpt>
      <trkpt lat="45.4165" lon="4.51623">
        <ele>656.274536</ele>
        <time>2010-04-25T11:19:56Z</time>
      </trkpt>
      <trkpt lat="45.41666" lon="4.51627">
        <ele>656.598145</ele>
        <time>2010-04-25T11:20:01Z</time>
      </trkpt>
      <trkpt lat="45.41676" lon="4.51628">
        <ele>656.842285</ele>
        <time>2010-04-25T11:20:06Z</time>
      </trkpt>
      <trkpt lat="45.4169" lon="4.51628">
        <ele>657.05835</ele>
        <time>2010-04-25T11:20:11Z</time>
      </trkpt>
      <trkpt lat="45.41699" lon="4.5163">
        <ele>657.715759</ele>
        <time>2010-04-25T11:20:16Z</time>
      </trkpt>
      <trkpt lat="45.41705" lon="4.51631">
        <ele>658.066284</ele>
        <time>2010-04-25T11:20:21Z</time>
      </trkpt>
      <trkpt lat="45.4171" lon="4.51633">
        <ele>658.835571</ele>
        <time>2010-04-25T11:20:26Z</time>
      </trkpt>
      <trkpt lat="45.41716" lon="4.51635">
        <ele>659.667969</ele>
        <time>2010-04-25T11:20:31Z</time>
      </trkpt>
      <trkpt lat="45.41723" lon="4.51636">
        <ele>660.097839</ele>
        <time>2010-04-25T11:20:36Z</time>
      </trkpt>
      <trkpt lat="45.4173" lon="4.51637">
        <ele>660.631592</ele>
        <time>2010-04-25T11:20:41Z</time>
      </trkpt>
      <trkpt lat="45.41736" lon="4.51639">
        <ele>661.706299</ele>
        <time>2010-04-25T11:20:46Z</time>
      </trkpt>
      <trkpt lat="45.41743" lon="4.51642">
        <ele>663.027039</ele>
        <time>2010-04-25T11:20:52Z</time>
      </trkpt>
      <trkpt lat="45.41749" lon="4.51644">
        <ele>663.786438</ele>
        <time>2010-04-25T11:20:57Z</time>
      </trkpt>
      <trkpt lat="45.41754" lon="4.51645">
        <ele>664.240662</ele>
        <time>2010-04-25T11:21:02Z</time>
      </trkpt>
      <trkpt lat="45.4176" lon="4.51646">
        <ele>664.33313</ele>
        <time>2010-04-25T11:21:07Z</time>
      </trkpt>
      <trkpt lat="45.41766" lon="4.51646">
        <ele>664.454956</ele>
        <time>2010-04-25T11:21:12Z</time>
      </trkpt>
      <trkpt lat="45.41772" lon="4.51645">
        <ele>664.028381</ele>
        <time>2010-04-25T11:21:18Z</time>
      </trkpt>
      <trkpt lat="45.41778" lon="4.51645">
        <ele>664.310364</ele>
        <time>2010-04-25T11:21:23Z</time>
      </trkpt>
      <trkpt lat="45.41785" lon="4.51646">
        <ele>664.663574</ele>
        <time>2010-04-25T11:21:28Z</time>
      </trkpt>
      <trkpt lat="45.41794" lon="4.51648">
        <ele>664.961853</ele>
        <time>2010-04-25T11:21:33Z</time>
      </trkpt>
      <trkpt lat="45.41802" lon="4.51649">
        <ele>664.486328</ele>
        <time>2010-04-25T11:21:38Z</time>
      </trkpt>
      <trkpt lat="45.4181" lon="4.51652">
        <ele>664.470825</ele>
        <time>2010-04-25T11:21:43Z</time>
      </trkpt>
      <trkpt lat="45.41817" lon="4.51655">
        <ele>664.489319</ele>
        <time>2010-04-25T11:21:48Z</time>
      </trkpt>
      <trkpt lat="45.41826" lon="4.51658">
        <ele>664.586975</ele>
        <time>2010-04-25T11:21:53Z</time>
      </trkpt>
      <trkpt lat="45.41834" lon="4.51663">
        <ele>665.160889</ele>
        <time>2010-04-25T11:21:58Z</time>
      </trkpt>
      <trkpt lat="45.41842" lon="4.51667">
        <ele>665.210876</ele>
        <time>2010-04-25T11:22:04Z</time>
      </trkpt>
      <trkpt lat="45.41848" lon="4.51672">
        <ele>665.813721</ele>
        <time>2010-04-25T11:22:09Z</time>
      </trkpt>
      <trkpt lat="45.41856" lon="4.51677">
        <ele>666.435669</ele>
        <time>2010-04-25T11:22:14Z</time>
      </trkpt>
      <trkpt lat="45.41862" lon="4.51683">
        <ele>667.306763</ele>
        <time>2010-04-25T11:22:19Z</time>
      </trkpt>
      <trkpt lat="45.41868" lon="4.51687">
        <ele>668.054077</ele>
        <time>2010-04-25T11:22:24Z</time>
      </trkpt>
      <trkpt lat="45.41875" lon="4.51691">
        <ele>668.408752</ele>
        <time>2010-04-25T11:22:29Z</time>
      </trkpt>
      <trkpt lat="45.41881" lon="4.51696">
        <ele>669.288696</ele>
        <time>2010-04-25T11:22:34Z</time>
      </trkpt>
      <trkpt lat="45.41887" lon="4.51701">
        <ele>670.264893</ele>
        <time>2010-04-25T11:22:40Z</time>
      </trkpt>
      <trkpt lat="45.41893" lon="4.51704">
        <ele>670.602356</ele>
        <time>2010-04-25T11:22:46Z</time>
      </trkpt>
      <trkpt lat="45.41899" lon="4.5171">
        <ele>671.897705</ele>
        <time>2010-04-25T11:22:52Z</time>
      </trkpt>
      <trkpt lat="45.41904" lon="4.51713">
        <ele>672.367676</ele>
        <time>2010-04-25T11:22:57Z</time>
      </trkpt>
      <trkpt lat="45.4191" lon="4.51717">
        <ele>672.984375</ele>
        <time>2010-04-25T11:23:02Z</time>
      </trkpt>
      <trkpt lat="45.41916" lon="4.51721">
        <ele>673.620483</ele>
        <time>2010-04-25T11:23:07Z</time>
      </trkpt>
      <trkpt lat="45.41922" lon="4.51724">
        <ele>673.757751</ele>
        <time>2010-04-25T11:23:12Z</time>
      </trkpt>
      <trkpt lat="45.41928" lon="4.51726">
        <ele>674.11084</ele>
        <time>2010-04-25T11:23:17Z</time>
      </trkpt>
      <trkpt lat="45.41934" lon="4.51728">
        <ele>674.566467</ele>
        <time>2010-04-25T11:23:22Z</time>
      </trkpt>
      <trkpt lat="45.41941" lon="4.51732">
        <ele>675.405457</ele>
        <time>2010-04-25T11:23:28Z</time>
      </trkpt>
      <trkpt lat="45.41947" lon="4.51734">
        <ele>675.587769</ele>
        <time>2010-04-25T11:23:33Z</time>
      </trkpt>
      <trkpt lat="45.41953" lon="4.51736">
        <ele>675.963928</ele>
        <time>2010-04-25T11:23:38Z</time>
      </trkpt>
      <trkpt lat="45.41959" lon="4.51739">
        <ele>676.338135</ele>
        <time>2010-04-25T11:23:43Z</time>
      </trkpt>
      <trkpt lat="45.41966" lon="4.51742">
        <ele>676.768982</ele>
        <time>2010-04-25T11:23:48Z</time>
      </trkpt>
      <trkpt lat="45.41973" lon="4.51745">
        <ele>677.077515</ele>
        <time>2010-04-25T11:23:53Z</time>
      </trkpt>
      <trkpt lat="45.41979" lon="4.51749">
        <ele>677.4151</ele>
        <time>2010-04-25T11:23:58Z</time>
      </trkpt>
      <trkpt lat="45.41986" lon="4.51755">
        <ele>677.96936</ele>
        <time>2010-04-25T11:24:03Z</time>
      </trkpt>
      <trkpt lat="45.41993" lon="4.51759">
        <ele>678.333191</ele>
        <time>2010-04-25T11:24:08Z</time>
      </trkpt>
      <trkpt lat="45.41999" lon="4.51764">
        <ele>678.683899</ele>
        <time>2010-04-25T11:24:13Z</time>
      </trkpt>
      <trkpt lat="45.42006" lon="4.51769">
        <ele>679.026184</ele>
        <time>2010-04-25T11:24:18Z</time>
      </trkpt>
      <trkpt lat="45.42012" lon="4.51774">
        <ele>679.446411</ele>
        <time>2010-04-25T11:24:23Z</time>
      </trkpt>
      <trkpt lat="45.42019" lon="4.51779">
        <ele>679.561035</ele>
        <time>2010-04-25T11:24:28Z</time>
      </trkpt>
      <trkpt lat="45.42025" lon="4.51784">
        <ele>679.932983</ele>
        <time>2010-04-25T11:24:33Z</time>
      </trkpt>
      <trkpt lat="45.42031" lon="4.51788">
        <ele>679.884583</ele>
        <time>2010-04-25T11:24:38Z</time>
      </trkpt>
      <trkpt lat="45.42038" lon="4.51793">
        <ele>680.018921</ele>
        <time>2010-04-25T11:24:43Z</time>
      </trkpt>
      <trkpt lat="45.42045" lon="4.51801">
        <ele>680.681763</ele>
        <time>2010-04-25T11:24:49Z</time>
      </trkpt>
      <trkpt lat="45.4205" lon="4.51806">
        <ele>681.078613</ele>
        <time>2010-04-25T11:24:54Z</time>
      </trkpt>
      <trkpt lat="45.42056" lon="4.51812">
        <ele>680.86969</ele>
        <time>2010-04-25T11:24:59Z</time>
      </trkpt>
      <trkpt lat="45.42059" lon="4.51817">
        <ele>680.727234</ele>
        <time>2010-04-25T11:25:06Z</time>
      </trkpt>
      <trkpt lat="45.42063" lon="4.51823">
        <ele>680.534668</ele>
        <time>2010-04-25T11:25:12Z</time>
      </trkpt>
      <trkpt lat="45.42066" lon="4.51829">
        <ele>680.475037</ele>
        <time>2010-04-25T11:25:18Z</time>
      </trkpt>
      <trkpt lat="45.42068" lon="4.5183">
        <ele>680.112427</ele>
        <time>2010-04-25T11:25:23Z</time>
      </trkpt>
      <trkpt lat="45.4207" lon="4.51834">
        <ele>679.922241</ele>
        <time>2010-04-25T11:25:29Z</time>
      </trkpt>
      <trkpt lat="45.42065" lon="4.51824">
        <ele>680.241516</ele>
        <time>2010-04-25T11:25:47Z</time>
      </trkpt>
      <trkpt lat="45.42068" lon="4.51824">
        <ele>679.645752</ele>
        <time>2010-04-25T11:25:52Z</time>
      </trkpt>
      <trkpt lat="45.42066" lon="4.51838">
        <ele>681.072876</ele>
        <time>2010-04-25T11:25:59Z</time>
      </trkpt>
      <trkpt lat="45.4206" lon="4.51841">
        <ele>682.548645</ele>
        <time>2010-04-25T11:26:05Z</time>
      </trkpt>
      <trkpt lat="45.42056" lon="4.51843">
        <ele>683.774597</ele>
        <time>2010-04-25T11:26:11Z</time>
      </trkpt>
      <trkpt lat="45.42051" lon="4.51845">
        <ele>684.755127</ele>
        <time>2010-04-25T11:26:17Z</time>
      </trkpt>
      <trkpt lat="45.42046" lon="4.51847">
        <ele>685.780396</ele>
        <time>2010-04-25T11:26:23Z</time>
      </trkpt>
      <trkpt lat="45.42043" lon="4.5185">
        <ele>686.785645</ele>
        <time>2010-04-25T11:26:29Z</time>
      </trkpt>
      <trkpt lat="45.42041" lon="4.51853">
        <ele>687.463623</ele>
        <time>2010-04-25T11:26:34Z</time>
      </trkpt>
      <trkpt lat="45.42039" lon="4.51857">
        <ele>688.20166</ele>
        <time>2010-04-25T11:26:39Z</time>
      </trkpt>
      <trkpt lat="45.42036" lon="4.5186">
        <ele>689.014526</ele>
        <time>2010-04-25T11:26:44Z</time>
      </trkpt>
      <trkpt lat="45.42034" lon="4.51863">
        <ele>689.818176</ele>
        <time>2010-04-25T11:26:49Z</time>
      </trkpt>
      <trkpt lat="45.42032" lon="4.51866">
        <ele>690.608032</ele>
        <time>2010-04-25T11:26:54Z</time>
      </trkpt>
      <trkpt lat="45.42029" lon="4.51869">
        <ele>691.598206</ele>
        <time>2010-04-25T11:27:00Z</time>
      </trkpt>
      <trkpt lat="45.42026" lon="4.51872">
        <ele>692.248718</ele>
        <time>2010-04-25T11:27:07Z</time>
      </trkpt>
      <trkpt lat="45.42025" lon="4.51875">
        <ele>692.683533</ele>
        <time>2010-04-25T11:27:14Z</time>
      </trkpt>
      <trkpt lat="45.42022" lon="4.51878">
        <ele>693.331421</ele>
        <time>2010-04-25T11:27:20Z</time>
      </trkpt>
      <trkpt lat="45.42021" lon="4.5188">
        <ele>693.66272</ele>
        <time>2010-04-25T11:27:26Z</time>
      </trkpt>
      <trkpt lat="45.41992" lon="4.51913">
        <ele>703.464355</ele>
        <time>2010-04-25T11:27:38Z</time>
      </trkpt>
      <trkpt lat="45.4199" lon="4.51915">
        <ele>704.304016</ele>
        <time>2010-04-25T11:27:45Z</time>
      </trkpt>
      <trkpt lat="45.41988" lon="4.51918">
        <ele>705.255493</ele>
        <time>2010-04-25T11:27:52Z</time>
      </trkpt>
      <trkpt lat="45.41985" lon="4.51921">
        <ele>706.217896</ele>
        <time>2010-04-25T11:27:59Z</time>
      </trkpt>
      <trkpt lat="45.41983" lon="4.51925">
        <ele>707.218506</ele>
        <time>2010-04-25T11:28:08Z</time>
      </trkpt>
      <trkpt lat="45.41981" lon="4.51928">
        <ele>708.083374</ele>
        <time>2010-04-25T11:28:16Z</time>
      </trkpt>
      <trkpt lat="45.41965" lon="4.5195">
        <ele>714.532776</ele>
        <time>2010-04-25T11:28:26Z</time>
      </trkpt>
      <trkpt lat="45.41963" lon="4.51952">
        <ele>715.358826</ele>
        <time>2010-04-25T11:28:33Z</time>
      </trkpt>
      <trkpt lat="45.41935" lon="4.51989">
        <ele>726.776062</ele>
        <time>2010-04-25T11:28:44Z</time>
      </trkpt>
      <trkpt lat="45.41933" lon="4.5199">
        <ele>727.323425</ele>
        <time>2010-04-25T11:28:49Z</time>
      </trkpt>
      <trkpt lat="45.41931" lon="4.51994">
        <ele>728.408936</ele>
        <time>2010-04-25T11:28:55Z</time>
      </trkpt>
      <trkpt lat="45.41929" lon="4.51997">
        <ele>729.150635</ele>
        <time>2010-04-25T11:29:01Z</time>
      </trkpt>
      <trkpt lat="45.41927" lon="4.52">
        <ele>730.055664</ele>
        <time>2010-04-25T11:29:06Z</time>
      </trkpt>
      <trkpt lat="45.41925" lon="4.52003">
        <ele>731.044434</ele>
        <time>2010-04-25T11:29:12Z</time>
      </trkpt>
      <trkpt lat="45.41922" lon="4.52006">
        <ele>732.022461</ele>
        <time>2010-04-25T11:29:18Z</time>
      </trkpt>
      <trkpt lat="45.41914" lon="4.52018">
        <ele>735.244568</ele>
        <time>2010-04-25T11:29:28Z</time>
      </trkpt>
      <trkpt lat="45.41913" lon="4.52021">
        <ele>735.910522</ele>
        <time>2010-04-25T11:29:35Z</time>
      </trkpt>
      <trkpt lat="45.41911" lon="4.52024">
        <ele>736.679932</ele>
        <time>2010-04-25T11:29:42Z</time>
      </trkpt>
      <trkpt lat="45.41909" lon="4.52028">
        <ele>737.398499</ele>
        <time>2010-04-25T11:29:48Z</time>
      </trkpt>
      <trkpt lat="45.41903" lon="4.52039">
        <ele>740.234436</ele>
        <time>2010-04-25T11:29:57Z</time>
      </trkpt>
      <trkpt lat="45.41901" lon="4.52042">
        <ele>741.032227</ele>
        <time>2010-04-25T11:30:05Z</time>
      </trkpt>
      <trkpt lat="45.41898" lon="4.52046">
        <ele>742.094788</ele>
        <time>2010-04-25T11:30:11Z</time>
      </trkpt>
      <trkpt lat="45.41895" lon="4.52049">
        <ele>743.088379</ele>
        <time>2010-04-25T11:30:17Z</time>
      </trkpt>
      <trkpt lat="45.41893" lon="4.52052">
        <ele>744.12207</ele>
        <time>2010-04-25T11:30:24Z</time>
      </trkpt>
      <trkpt lat="45.4189" lon="4.52056">
        <ele>745.07843</ele>
        <time>2010-04-25T11:30:30Z</time>
      </trkpt>
      <trkpt lat="45.41888" lon="4.52059">
        <ele>745.652466</ele>
        <time>2010-04-25T11:30:36Z</time>
      </trkpt>
      <trkpt lat="45.41886" lon="4.52063">
        <ele>746.239868</ele>
        <time>2010-04-25T11:30:42Z</time>
      </trkpt>
      <trkpt lat="45.41884" lon="4.52067">
        <ele>746.709167</ele>
        <time>2010-04-25T11:30:48Z</time>
      </trkpt>
      <trkpt lat="45.41882" lon="4.5207">
        <ele>747.209106</ele>
        <time>2010-04-25T11:30:54Z</time>
      </trkpt>
      <trkpt lat="45.4188" lon="4.52073">
        <ele>747.8797</ele>
        <time>2010-04-25T11:31:01Z</time>
      </trkpt>
      <trkpt lat="45.41872" lon="4.5208">
        <ele>750.295532</ele>
        <time>2010-04-25T11:31:07Z</time>
      </trkpt>
      <trkpt lat="45.4187" lon="4.52083">
        <ele>750.892029</ele>
        <time>2010-04-25T11:31:14Z</time>
      </trkpt>
      <trkpt lat="45.41869" lon="4.52086">
        <ele>751.272461</ele>
        <time>2010-04-25T11:31:19Z</time>
      </trkpt>
      <trkpt lat="45.41867" lon="4.52089">
        <ele>751.997131</ele>
        <time>2010-04-25T11:31:26Z</time>
      </trkpt>
      <trkpt lat="45.41864" lon="4.52093">
        <ele>752.922119</ele>
        <time>2010-04-25T11:31:32Z</time>
      </trkpt>
      <trkpt lat="45.41862" lon="4.52095">
        <ele>753.696899</ele>
        <time>2010-04-25T11:31:39Z</time>
      </trkpt>
      <trkpt lat="45.41859" lon="4.52097">
        <ele>754.713196</ele>
        <time>2010-04-25T11:31:45Z</time>
      </trkpt>
      <trkpt lat="45.41856" lon="4.521">
        <ele>755.665955</ele>
        <time>2010-04-25T11:31:52Z</time>
      </trkpt>
      <trkpt lat="45.41853" lon="4.52103">
        <ele>756.596008</ele>
        <time>2010-04-25T11:31:59Z</time>
      </trkpt>
      <trkpt lat="45.41851" lon="4.52107">
        <ele>757.546326</ele>
        <time>2010-04-25T11:32:05Z</time>
      </trkpt>
      <trkpt lat="45.4185" lon="4.52108">
        <ele>757.966492</ele>
        <time>2010-04-25T11:32:10Z</time>
      </trkpt>
      <trkpt lat="45.41848" lon="4.52111">
        <ele>758.647766</ele>
        <time>2010-04-25T11:32:16Z</time>
      </trkpt>
      <trkpt lat="45.41845" lon="4.52114">
        <ele>759.489807</ele>
        <time>2010-04-25T11:32:22Z</time>
      </trkpt>
      <trkpt lat="45.41843" lon="4.52117">
        <ele>760.455444</ele>
        <time>2010-04-25T11:32:28Z</time>
      </trkpt>
      <trkpt lat="45.4184" lon="4.52119">
        <ele>761.416382</ele>
        <time>2010-04-25T11:32:34Z</time>
      </trkpt>
      <trkpt lat="45.41837" lon="4.52121">
        <ele>762.395447</ele>
        <time>2010-04-25T11:32:41Z</time>
      </trkpt>
      <trkpt lat="45.41834" lon="4.52122">
        <ele>763.320374</ele>
        <time>2010-04-25T11:32:47Z</time>
      </trkpt>
      <trkpt lat="45.41832" lon="4.5212">
        <ele>764.197205</ele>
        <time>2010-04-25T11:32:52Z</time>
      </trkpt>
      <trkpt lat="45.4183" lon="4.52117">
        <ele>764.82373</ele>
        <time>2010-04-25T11:32:57Z</time>
      </trkpt>
      <trkpt lat="45.41829" lon="4.52112">
        <ele>765.233948</ele>
        <time>2010-04-25T11:33:03Z</time>
      </trkpt>
      <trkpt lat="45.41827" lon="4.52108">
        <ele>765.680664</ele>
        <time>2010-04-25T11:33:08Z</time>
      </trkpt>
      <trkpt lat="45.41825" lon="4.52103">
        <ele>766.150024</ele>
        <time>2010-04-25T11:33:14Z</time>
      </trkpt>
      <trkpt lat="45.4182" lon="4.52088">
        <ele>767.44751</ele>
        <time>2010-04-25T11:33:24Z</time>
      </trkpt>
      <trkpt lat="45.41816" lon="4.52081">
        <ele>768.472473</ele>
        <time>2010-04-25T11:33:30Z</time>
      </trkpt>
      <trkpt lat="45.41813" lon="4.52074">
        <ele>769.347473</ele>
        <time>2010-04-25T11:33:35Z</time>
      </trkpt>
      <trkpt lat="45.41809" lon="4.52066">
        <ele>770.467468</ele>
        <time>2010-04-25T11:33:41Z</time>
      </trkpt>
      <trkpt lat="45.41804" lon="4.52057">
        <ele>771.67749</ele>
        <time>2010-04-25T11:33:47Z</time>
      </trkpt>
      <trkpt lat="45.41801" lon="4.5205">
        <ele>772.312378</ele>
        <time>2010-04-25T11:33:52Z</time>
      </trkpt>
      <trkpt lat="45.41797" lon="4.52042">
        <ele>772.178406</ele>
        <time>2010-04-25T11:33:58Z</time>
      </trkpt>
      <trkpt lat="45.41793" lon="4.52035">
        <ele>772.303223</ele>
        <time>2010-04-25T11:34:03Z</time>
      </trkpt>
      <trkpt lat="45.41789" lon="4.52027">
        <ele>772.296204</ele>
        <time>2010-04-25T11:34:09Z</time>
      </trkpt>
      <trkpt lat="45.41784" lon="4.52019">
        <ele>772.31134</ele>
        <time>2010-04-25T11:34:14Z</time>
      </trkpt>
      <trkpt lat="45.41779" lon="4.52011">
        <ele>772.114563</ele>
        <time>2010-04-25T11:34:19Z</time>
      </trkpt>
      <trkpt lat="45.41774" lon="4.52004">
        <ele>771.989807</ele>
        <time>2010-04-25T11:34:24Z</time>
      </trkpt>
      <trkpt lat="45.41768" lon="4.51998">
        <ele>772.177612</ele>
        <time>2010-04-25T11:34:29Z</time>
      </trkpt>
      <trkpt lat="45.41761" lon="4.51992">
        <ele>772.758362</ele>
        <time>2010-04-25T11:34:34Z</time>
      </trkpt>
      <trkpt lat="45.41754" lon="4.51988">
        <ele>773.406616</ele>
        <time>2010-04-25T11:34:39Z</time>
      </trkpt>
      <trkpt lat="45.41742" lon="4.5198">
        <ele>773.930786</ele>
        <time>2010-04-25T11:34:46Z</time>
      </trkpt>
      <trkpt lat="45.41733" lon="4.51976">
        <ele>773.03125</ele>
        <time>2010-04-25T11:34:51Z</time>
      </trkpt>
      <trkpt lat="45.41721" lon="4.51971">
        <ele>771.701233</ele>
        <time>2010-04-25T11:34:56Z</time>
      </trkpt>
      <trkpt lat="45.4171" lon="4.51969">
        <ele>771.368774</ele>
        <time>2010-04-25T11:35:01Z</time>
      </trkpt>
      <trkpt lat="45.41697" lon="4.51973">
        <ele>772.627502</ele>
        <time>2010-04-25T11:35:06Z</time>
      </trkpt>
      <trkpt lat="45.41684" lon="4.51978">
        <ele>772.88446</ele>
        <time>2010-04-25T11:35:11Z</time>
      </trkpt>
      <trkpt lat="45.41669" lon="4.51982">
        <ele>772.672668</ele>
        <time>2010-04-25T11:35:16Z</time>
      </trkpt>
      <trkpt lat="45.41653" lon="4.51989">
        <ele>772.864197</ele>
        <time>2010-04-25T11:35:21Z</time>
      </trkpt>
      <trkpt lat="45.41636" lon="4.51998">
        <ele>772.647766</ele>
        <time>2010-04-25T11:35:26Z</time>
      </trkpt>
      <trkpt lat="45.41621" lon="4.52011">
        <ele>773.288574</ele>
        <time>2010-04-25T11:35:31Z</time>
      </trkpt>
      <trkpt lat="45.41606" lon="4.52024">
        <ele>773.827209</ele>
        <time>2010-04-25T11:35:36Z</time>
      </trkpt>
      <trkpt lat="45.41592" lon="4.52037">
        <ele>774.17749</ele>
        <time>2010-04-25T11:35:41Z</time>
      </trkpt>
      <trkpt lat="45.41579" lon="4.52048">
        <ele>774.844421</ele>
        <time>2010-04-25T11:35:46Z</time>
      </trkpt>
      <trkpt lat="45.41568" lon="4.52059">
        <ele>776.01001</ele>
        <time>2010-04-25T11:35:51Z</time>
      </trkpt>
      <trkpt lat="45.41557" lon="4.52067">
        <ele>776.998108</ele>
        <time>2010-04-25T11:35:56Z</time>
      </trkpt>
      <trkpt lat="45.41546" lon="4.52075">
        <ele>777.68158</ele>
        <time>2010-04-25T11:36:01Z</time>
      </trkpt>
      <trkpt lat="45.41534" lon="4.52083">
        <ele>777.487366</ele>
        <time>2010-04-25T11:36:06Z</time>
      </trkpt>
      <trkpt lat="45.41519" lon="4.52094">
        <ele>777.179565</ele>
        <time>2010-04-25T11:36:11Z</time>
      </trkpt>
      <trkpt lat="45.41504" lon="4.52107">
        <ele>776.563049</ele>
        <time>2010-04-25T11:36:16Z</time>
      </trkpt>
      <trkpt lat="45.4149" lon="4.5212">
        <ele>776.081299</ele>
        <time>2010-04-25T11:36:21Z</time>
      </trkpt>
      <trkpt lat="45.41476" lon="4.52133">
        <ele>775.843079</ele>
        <time>2010-04-25T11:36:26Z</time>
      </trkpt>
      <trkpt lat="45.41462" lon="4.52147">
        <ele>775.948914</ele>
        <time>2010-04-25T11:36:31Z</time>
      </trkpt>
      <trkpt lat="45.41448" lon="4.52159">
        <ele>776.302246</ele>
        <time>2010-04-25T11:36:36Z</time>
      </trkpt>
      <trkpt lat="45.41434" lon="4.5217">
        <ele>776.21405</ele>
        <time>2010-04-25T11:36:41Z</time>
      </trkpt>
      <trkpt lat="45.41421" lon="4.52181">
        <ele>776.031189</ele>
        <time>2010-04-25T11:36:46Z</time>
      </trkpt>
      <trkpt lat="45.41407" lon="4.5219">
        <ele>776.068359</ele>
        <time>2010-04-25T11:36:51Z</time>
      </trkpt>
      <trkpt lat="45.41393" lon="4.522">
        <ele>776.413269</ele>
        <time>2010-04-25T11:36:56Z</time>
      </trkpt>
      <trkpt lat="45.41381" lon="4.5221">
        <ele>777.308655</ele>
        <time>2010-04-25T11:37:01Z</time>
      </trkpt>
      <trkpt lat="45.41368" lon="4.52222">
        <ele>777.907532</ele>
        <time>2010-04-25T11:37:06Z</time>
      </trkpt>
      <trkpt lat="45.41354" lon="4.52241">
        <ele>776.079346</ele>
        <time>2010-04-25T11:37:11Z</time>
      </trkpt>
      <trkpt lat="45.41336" lon="4.52253">
        <ele>773.965942</ele>
        <time>2010-04-25T11:37:16Z</time>
      </trkpt>
      <trkpt lat="45.41318" lon="4.52264">
        <ele>772.641968</ele>
        <time>2010-04-25T11:37:21Z</time>
      </trkpt>
      <trkpt lat="45.41301" lon="4.52285">
        <ele>772.83667</ele>
        <time>2010-04-25T11:37:26Z</time>
      </trkpt>
      <trkpt lat="45.41281" lon="4.52309">
        <ele>771.935913</ele>
        <time>2010-04-25T11:37:31Z</time>
      </trkpt>
      <trkpt lat="45.41256" lon="4.52335">
        <ele>772.486755</ele>
        <time>2010-04-25T11:37:36Z</time>
      </trkpt>
      <trkpt lat="45.41237" lon="4.5236">
        <ele>773.843933</ele>
        <time>2010-04-25T11:37:41Z</time>
      </trkpt>
      <trkpt lat="45.41226" lon="4.52375">
        <ele>774.184265</ele>
        <time>2010-04-25T11:37:46Z</time>
      </trkpt>
      <trkpt lat="45.41223" lon="4.52383">
        <ele>774.478394</ele>
        <time>2010-04-25T11:37:51Z</time>
      </trkpt>
      <trkpt lat="45.41221" lon="4.52388">
        <ele>774.656433</ele>
        <time>2010-04-25T11:37:58Z</time>
      </trkpt>
      <trkpt lat="45.41225" lon="4.52378">
        <ele>774.273743</ele>
        <time>2010-04-25T11:38:03Z</time>
      </trkpt>
      <trkpt lat="45.41227" lon="4.52378">
        <ele>774.136475</ele>
        <time>2010-04-25T11:38:09Z</time>
      </trkpt>
      <trkpt lat="45.41232" lon="4.5237">
        <ele>773.891602</ele>
        <time>2010-04-25T11:38:17Z</time>
      </trkpt>
      <trkpt lat="45.4123" lon="4.5238">
        <ele>773.995178</ele>
        <time>2010-04-25T11:38:26Z</time>
      </trkpt>
      <trkpt lat="45.41235" lon="4.52393">
        <ele>773.484131</ele>
        <time>2010-04-25T11:38:32Z</time>
      </trkpt>
      <trkpt lat="45.41245" lon="4.52412">
        <ele>771.929688</ele>
        <time>2010-04-25T11:38:37Z</time>
      </trkpt>
      <trkpt lat="45.41255" lon="4.52438">
        <ele>768.784424</ele>
        <time>2010-04-25T11:38:42Z</time>
      </trkpt>
      <trkpt lat="45.41253" lon="4.52469">
        <ele>767.036682</ele>
        <time>2010-04-25T11:38:47Z</time>
      </trkpt>
      <trkpt lat="45.41261" lon="4.52488">
        <ele>763.878967</ele>
        <time>2010-04-25T11:38:52Z</time>
      </trkpt>
      <trkpt lat="45.41257" lon="4.52506">
        <ele>763.15741</ele>
        <time>2010-04-25T11:38:57Z</time>
      </trkpt>
      <trkpt lat="45.4125" lon="4.52524">
        <ele>763.241882</ele>
        <time>2010-04-25T11:39:02Z</time>
      </trkpt>
      <trkpt lat="45.41244" lon="4.52533">
        <ele>764.052856</ele>
        <time>2010-04-25T11:39:08Z</time>
      </trkpt>
      <trkpt lat="45.41238" lon="4.5254">
        <ele>764.954163</ele>
        <time>2010-04-25T11:39:14Z</time>
      </trkpt>
      <trkpt lat="45.41234" lon="4.52547">
        <ele>765.599976</ele>
        <time>2010-04-25T11:39:19Z</time>
      </trkpt>
      <trkpt lat="45.4123" lon="4.52556">
        <ele>766.007507</ele>
        <time>2010-04-25T11:39:25Z</time>
      </trkpt>
      <trkpt lat="45.41225" lon="4.52565">
        <ele>766.594971</ele>
        <time>2010-04-25T11:39:30Z</time>
      </trkpt>
      <trkpt lat="45.41215" lon="4.5258">
        <ele>767.982483</ele>
        <time>2010-04-25T11:39:35Z</time>
      </trkpt>
      <trkpt lat="45.41211" lon="4.52589">
        <ele>768.234985</ele>
        <time>2010-04-25T11:39:40Z</time>
      </trkpt>
      <trkpt lat="45.41214" lon="4.52608">
        <ele>766.142883</ele>
        <time>2010-04-25T11:39:45Z</time>
      </trkpt>
      <trkpt lat="45.41214" lon="4.52646">
        <ele>761.566223</ele>
        <time>2010-04-25T11:39:50Z</time>
      </trkpt>
      <trkpt lat="45.41218" lon="4.52694">
        <ele>756.190125</ele>
        <time>2010-04-25T11:39:55Z</time>
      </trkpt>
      <trkpt lat="45.4122" lon="4.52744">
        <ele>753.283752</ele>
        <time>2010-04-25T11:40:00Z</time>
      </trkpt>
      <trkpt lat="45.41223" lon="4.52786">
        <ele>752.56842</ele>
        <time>2010-04-25T11:40:05Z</time>
      </trkpt>
      <trkpt lat="45.41225" lon="4.52824">
        <ele>750.493774</ele>
        <time>2010-04-25T11:40:10Z</time>
      </trkpt>
      <trkpt lat="45.41233" lon="4.52852">
        <ele>746.950317</ele>
        <time>2010-04-25T11:40:15Z</time>
      </trkpt>
      <trkpt lat="45.41235" lon="4.52886">
        <ele>741.870728</ele>
        <time>2010-04-25T11:40:20Z</time>
      </trkpt>
      <trkpt lat="45.41224" lon="4.5293">
        <ele>737.565552</ele>
        <time>2010-04-25T11:40:25Z</time>
      </trkpt>
      <trkpt lat="45.41212" lon="4.52976">
        <ele>733.057373</ele>
        <time>2010-04-25T11:40:30Z</time>
      </trkpt>
      <trkpt lat="45.412" lon="4.53029">
        <ele>727.549683</ele>
        <time>2010-04-25T11:40:35Z</time>
      </trkpt>
      <trkpt lat="45.41184" lon="4.53088">
        <ele>726.596436</ele>
        <time>2010-04-25T11:40:40Z</time>
      </trkpt>
      <trkpt lat="45.41179" lon="4.5314">
        <ele>724.7276</ele>
        <time>2010-04-25T11:40:45Z</time>
      </trkpt>
      <trkpt lat="45.41177" lon="4.53177">
        <ele>724.793579</ele>
        <time>2010-04-25T11:40:50Z</time>
      </trkpt>
      <trkpt lat="45.41175" lon="4.53198">
        <ele>724.114136</ele>
        <time>2010-04-25T11:40:55Z</time>
      </trkpt>
      <trkpt lat="45.41174" lon="4.53216">
        <ele>723.104004</ele>
        <time>2010-04-25T11:41:00Z</time>
      </trkpt>
      <trkpt lat="45.41173" lon="4.53257">
        <ele>717.862061</ele>
        <time>2010-04-25T11:41:05Z</time>
      </trkpt>
      <trkpt lat="45.41154" lon="4.53273">
        <ele>716.371399</ele>
        <time>2010-04-25T11:41:10Z</time>
      </trkpt>
      <trkpt lat="45.41128" lon="4.53281">
        <ele>716.685608</ele>
        <time>2010-04-25T11:41:15Z</time>
      </trkpt>
      <trkpt lat="45.41097" lon="4.53305">
        <ele>716.300049</ele>
        <time>2010-04-25T11:41:20Z</time>
      </trkpt>
      <trkpt lat="45.4109" lon="4.53334">
        <ele>711.987</ele>
        <time>2010-04-25T11:41:25Z</time>
      </trkpt>
      <trkpt lat="45.41083" lon="4.53371">
        <ele>707.12738</ele>
        <time>2010-04-25T11:41:30Z</time>
      </trkpt>
      <trkpt lat="45.41078" lon="4.53393">
        <ele>704.095276</ele>
        <time>2010-04-25T11:41:35Z</time>
      </trkpt>
      <trkpt lat="45.41082" lon="4.53415">
        <ele>700.195251</ele>
        <time>2010-04-25T11:41:40Z</time>
      </trkpt>
      <trkpt lat="45.41089" lon="4.53438">
        <ele>694.485168</ele>
        <time>2010-04-25T11:41:45Z</time>
      </trkpt>
      <trkpt lat="45.4111" lon="4.53453">
        <ele>687.899902</ele>
        <time>2010-04-25T11:41:50Z</time>
      </trkpt>
      <trkpt lat="45.41132" lon="4.53461">
        <ele>682.238586</ele>
        <time>2010-04-25T11:41:55Z</time>
      </trkpt>
      <trkpt lat="45.41154" lon="4.53452">
        <ele>676.070313</ele>
        <time>2010-04-25T11:42:00Z</time>
      </trkpt>
      <trkpt lat="45.41165" lon="4.53413">
        <ele>678.328003</ele>
        <time>2010-04-25T11:42:05Z</time>
      </trkpt>
      <trkpt lat="45.4119" lon="4.53393">
        <ele>679.284851</ele>
        <time>2010-04-25T11:42:11Z</time>
      </trkpt>
      <trkpt lat="45.4121" lon="4.53396">
        <ele>677.718445</ele>
        <time>2010-04-25T11:42:16Z</time>
      </trkpt>
      <trkpt lat="45.41224" lon="4.53399">
        <ele>675.552368</ele>
        <time>2010-04-25T11:42:21Z</time>
      </trkpt>
      <trkpt lat="45.4124" lon="4.534">
        <ele>673.711792</ele>
        <time>2010-04-25T11:42:26Z</time>
      </trkpt>
      <trkpt lat="45.41264" lon="4.53396">
        <ele>671.605591</ele>
        <time>2010-04-25T11:42:31Z</time>
      </trkpt>
      <trkpt lat="45.41288" lon="4.53382">
        <ele>667.461487</ele>
        <time>2010-04-25T11:42:36Z</time>
      </trkpt>
      <trkpt lat="45.41318" lon="4.53343">
        <ele>662.668396</ele>
        <time>2010-04-25T11:42:42Z</time>
      </trkpt>
      <trkpt lat="45.41345" lon="4.53309">
        <ele>656.057983</ele>
        <time>2010-04-25T11:42:47Z</time>
      </trkpt>
      <trkpt lat="45.41374" lon="4.53261">
        <ele>647.606262</ele>
        <time>2010-04-25T11:42:53Z</time>
      </trkpt>
      <trkpt lat="45.41392" lon="4.53224">
        <ele>639.81781</ele>
        <time>2010-04-25T11:42:59Z</time>
      </trkpt>
      <trkpt lat="45.41377" lon="4.53197">
        <ele>645.608643</ele>
        <time>2010-04-25T11:43:04Z</time>
      </trkpt>
      <trkpt lat="45.41366" lon="4.53176">
        <ele>650.378235</ele>
        <time>2010-04-25T11:43:09Z</time>
      </trkpt>
      <trkpt lat="45.41365" lon="4.53165">
        <ele>651.118958</ele>
        <time>2010-04-25T11:43:14Z</time>
      </trkpt>
      <trkpt lat="45.4137" lon="4.53155">
        <ele>649.93042</ele>
        <time>2010-04-25T11:43:20Z</time>
      </trkpt>
      <trkpt lat="45.41371" lon="4.5315">
        <ele>649.624573</ele>
        <time>2010-04-25T11:43:26Z</time>
      </trkpt>
      <trkpt lat="45.41375" lon="4.53143">
        <ele>648.690125</ele>
        <time>2010-04-25T11:43:32Z</time>
      </trkpt>
      <trkpt lat="45.41378" lon="4.53138">
        <ele>647.681519</ele>
        <time>2010-04-25T11:43:39Z</time>
      </trkpt>
      <trkpt lat="45.4138" lon="4.53135">
        <ele>647.043884</ele>
        <time>2010-04-25T11:43:44Z</time>
      </trkpt>
      <trkpt lat="45.41387" lon="4.53126">
        <ele>645.160767</ele>
        <time>2010-04-25T11:43:51Z</time>
      </trkpt>
      <trkpt lat="45.41394" lon="4.5312">
        <ele>643.874146</ele>
        <time>2010-04-25T11:43:57Z</time>
      </trkpt>
      <trkpt lat="45.41401" lon="4.53115">
        <ele>643.701538</ele>
        <time>2010-04-25T11:44:03Z</time>
      </trkpt>
      <trkpt lat="45.41405" lon="4.53109">
        <ele>645.088013</ele>
        <time>2010-04-25T11:44:08Z</time>
      </trkpt>
      <trkpt lat="45.41413" lon="4.53102">
        <ele>646.46759</ele>
        <time>2010-04-25T11:44:13Z</time>
      </trkpt>
      <trkpt lat="45.41421" lon="4.53096">
        <ele>647.341064</ele>
        <time>2010-04-25T11:44:18Z</time>
      </trkpt>
      <trkpt lat="45.41434" lon="4.5309">
        <ele>647.116699</ele>
        <time>2010-04-25T11:44:23Z</time>
      </trkpt>
      <trkpt lat="45.41457" lon="4.53079">
        <ele>647.138062</ele>
        <time>2010-04-25T11:44:28Z</time>
      </trkpt>
      <trkpt lat="45.41484" lon="4.53064">
        <ele>648.00177</ele>
        <time>2010-04-25T11:44:34Z</time>
      </trkpt>
      <trkpt lat="45.41497" lon="4.53054">
        <ele>647.715027</ele>
        <time>2010-04-25T11:44:39Z</time>
      </trkpt>
      <trkpt lat="45.41506" lon="4.53045">
        <ele>647.145081</ele>
        <time>2010-04-25T11:44:44Z</time>
      </trkpt>
      <trkpt lat="45.41514" lon="4.53034">
        <ele>646.713501</ele>
        <time>2010-04-25T11:44:50Z</time>
      </trkpt>
      <trkpt lat="45.41523" lon="4.53022">
        <ele>645.904846</ele>
        <time>2010-04-25T11:44:55Z</time>
      </trkpt>
      <trkpt lat="45.41528" lon="4.53003">
        <ele>646.707642</ele>
        <time>2010-04-25T11:45:00Z</time>
      </trkpt>
      <trkpt lat="45.41536" lon="4.52999">
        <ele>644.448975</ele>
        <time>2010-04-25T11:45:05Z</time>
      </trkpt>
      <trkpt lat="45.41549" lon="4.5302">
        <ele>637.914734</ele>
        <time>2010-04-25T11:45:10Z</time>
      </trkpt>
      <trkpt lat="45.41568" lon="4.53037">
        <ele>629.757507</ele>
        <time>2010-04-25T11:45:15Z</time>
      </trkpt>
      <trkpt lat="45.41579" lon="4.5306">
        <ele>623.968994</ele>
        <time>2010-04-25T11:45:20Z</time>
      </trkpt>
      <trkpt lat="45.41585" lon="4.53073">
        <ele>620.114319</ele>
        <time>2010-04-25T11:45:25Z</time>
      </trkpt>
      <trkpt lat="45.41599" lon="4.53093">
        <ele>611.703857</ele>
        <time>2010-04-25T11:45:31Z</time>
      </trkpt>
      <trkpt lat="45.41599" lon="4.53115">
        <ele>607.59668</ele>
        <time>2010-04-25T11:45:36Z</time>
      </trkpt>
      <trkpt lat="45.41598" lon="4.53137">
        <ele>603.114624</ele>
        <time>2010-04-25T11:45:41Z</time>
      </trkpt>
      <trkpt lat="45.41597" lon="4.53142">
        <ele>601.918457</ele>
        <time>2010-04-25T11:45:48Z</time>
      </trkpt>
      <trkpt lat="45.41596" lon="4.53152">
        <ele>598.916199</ele>
        <time>2010-04-25T11:45:53Z</time>
      </trkpt>
      <trkpt lat="45.41592" lon="4.53176">
        <ele>592.520081</ele>
        <time>2010-04-25T11:45:58Z</time>
      </trkpt>
      <trkpt lat="45.4159" lon="4.53192">
        <ele>588.066956</ele>
        <time>2010-04-25T11:46:03Z</time>
      </trkpt>
      <trkpt lat="45.41584" lon="4.532">
        <ele>587.315735</ele>
        <time>2010-04-25T11:46:13Z</time>
      </trkpt>
      <trkpt lat="45.41567" lon="4.53232">
        <ele>582.451355</ele>
        <time>2010-04-25T11:46:19Z</time>
      </trkpt>
      <trkpt lat="45.41545" lon="4.53264">
        <ele>578.362305</ele>
        <time>2010-04-25T11:46:24Z</time>
      </trkpt>
      <trkpt lat="45.41546" lon="4.53266">
        <ele>577.80603</ele>
        <time>2010-04-25T11:46:31Z</time>
      </trkpt>
      <trkpt lat="45.41549" lon="4.53261">
        <ele>577.868958</ele>
        <time>2010-04-25T11:46:38Z</time>
      </trkpt>
      <trkpt lat="45.41554" lon="4.5326">
        <ele>577.163757</ele>
        <time>2010-04-25T11:46:44Z</time>
      </trkpt>
      <trkpt lat="45.41561" lon="4.53254">
        <ele>577.066406</ele>
        <time>2010-04-25T11:46:49Z</time>
      </trkpt>
      <trkpt lat="45.4157" lon="4.53246">
        <ele>577.956604</ele>
        <time>2010-04-25T11:46:55Z</time>
      </trkpt>
      <trkpt lat="45.41582" lon="4.53236">
        <ele>578.288696</ele>
        <time>2010-04-25T11:47:00Z</time>
      </trkpt>
      <trkpt lat="45.41594" lon="4.53222">
        <ele>578.968567</ele>
        <time>2010-04-25T11:47:05Z</time>
      </trkpt>
      <trkpt lat="45.4161" lon="4.53207">
        <ele>578.871338</ele>
        <time>2010-04-25T11:47:10Z</time>
      </trkpt>
      <trkpt lat="45.41627" lon="4.53191">
        <ele>578.327698</ele>
        <time>2010-04-25T11:47:15Z</time>
      </trkpt>
      <trkpt lat="45.41645" lon="4.53174">
        <ele>578.791992</ele>
        <time>2010-04-25T11:47:21Z</time>
      </trkpt>
      <trkpt lat="45.41655" lon="4.53164">
        <ele>578.723511</ele>
        <time>2010-04-25T11:47:26Z</time>
      </trkpt>
      <trkpt lat="45.41666" lon="4.53153">
        <ele>578.567505</ele>
        <time>2010-04-25T11:47:31Z</time>
      </trkpt>
      <trkpt lat="45.41681" lon="4.53139">
        <ele>578.606018</ele>
        <time>2010-04-25T11:47:36Z</time>
      </trkpt>
      <trkpt lat="45.41695" lon="4.53126">
        <ele>578.903198</ele>
        <time>2010-04-25T11:47:41Z</time>
      </trkpt>
      <trkpt lat="45.41708" lon="4.53114">
        <ele>579.459412</ele>
        <time>2010-04-25T11:47:46Z</time>
      </trkpt>
      <trkpt lat="45.41722" lon="4.53101">
        <ele>580.020935</ele>
        <time>2010-04-25T11:47:51Z</time>
      </trkpt>
      <trkpt lat="45.41735" lon="4.53087">
        <ele>580.292175</ele>
        <time>2010-04-25T11:47:56Z</time>
      </trkpt>
      <trkpt lat="45.41746" lon="4.53075">
        <ele>580.711609</ele>
        <time>2010-04-25T11:48:01Z</time>
      </trkpt>
      <trkpt lat="45.41756" lon="4.53061">
        <ele>580.573669</ele>
        <time>2010-04-25T11:48:06Z</time>
      </trkpt>
      <trkpt lat="45.41765" lon="4.53045">
        <ele>581.109009</ele>
        <time>2010-04-25T11:48:11Z</time>
      </trkpt>
      <trkpt lat="45.41775" lon="4.5303">
        <ele>582.128418</ele>
        <time>2010-04-25T11:48:16Z</time>
      </trkpt>
      <trkpt lat="45.41786" lon="4.53019">
        <ele>582.833618</ele>
        <time>2010-04-25T11:48:21Z</time>
      </trkpt>
      <trkpt lat="45.41796" lon="4.53013">
        <ele>583.158752</ele>
        <time>2010-04-25T11:48:26Z</time>
      </trkpt>
      <trkpt lat="45.41807" lon="4.53009">
        <ele>582.963989</ele>
        <time>2010-04-25T11:48:31Z</time>
      </trkpt>
      <trkpt lat="45.41818" lon="4.53006">
        <ele>582.985596</ele>
        <time>2010-04-25T11:48:36Z</time>
      </trkpt>
      <trkpt lat="45.41831" lon="4.53002">
        <ele>583.178284</ele>
        <time>2010-04-25T11:48:41Z</time>
      </trkpt>
      <trkpt lat="45.41845" lon="4.52997">
        <ele>583.790466</ele>
        <time>2010-04-25T11:48:46Z</time>
      </trkpt>
      <trkpt lat="45.41858" lon="4.52992">
        <ele>585.080017</ele>
        <time>2010-04-25T11:48:51Z</time>
      </trkpt>
      <trkpt lat="45.41871" lon="4.52988">
        <ele>586.119995</ele>
        <time>2010-04-25T11:48:56Z</time>
      </trkpt>
      <trkpt lat="45.41885" lon="4.52986">
        <ele>586.460022</ele>
        <time>2010-04-25T11:49:01Z</time>
      </trkpt>
      <trkpt lat="45.41899" lon="4.52985">
        <ele>586.14502</ele>
        <time>2010-04-25T11:49:06Z</time>
      </trkpt>
      <trkpt lat="45.41911" lon="4.52985">
        <ele>585.513977</ele>
        <time>2010-04-25T11:49:11Z</time>
      </trkpt>
      <trkpt lat="45.41922" lon="4.52984">
        <ele>585.496643</ele>
        <time>2010-04-25T11:49:16Z</time>
      </trkpt>
      <trkpt lat="45.41932" lon="4.52982">
        <ele>586.158691</ele>
        <time>2010-04-25T11:49:21Z</time>
      </trkpt>
      <trkpt lat="45.4194" lon="4.52984">
        <ele>585.039856</ele>
        <time>2010-04-25T11:49:26Z</time>
      </trkpt>
      <trkpt lat="45.41923" lon="4.52991">
        <ele>582.620422</ele>
        <time>2010-04-25T11:49:31Z</time>
      </trkpt>
      <trkpt lat="45.4189" lon="4.52996">
        <ele>581.845032</ele>
        <time>2010-04-25T11:49:36Z</time>
      </trkpt>
      <trkpt lat="45.41859" lon="4.53008">
        <ele>578.152466</ele>
        <time>2010-04-25T11:49:41Z</time>
      </trkpt>
      <trkpt lat="45.41831" lon="4.53028">
        <ele>573.781311</ele>
        <time>2010-04-25T11:49:46Z</time>
      </trkpt>
      <trkpt lat="45.41806" lon="4.53045">
        <ele>571.096863</ele>
        <time>2010-04-25T11:49:51Z</time>
      </trkpt>
      <trkpt lat="45.41783" lon="4.53067">
        <ele>570.736328</ele>
        <time>2010-04-25T11:49:56Z</time>
      </trkpt>
      <trkpt lat="45.41765" lon="4.53103">
        <ele>567.061218</ele>
        <time>2010-04-25T11:50:02Z</time>
      </trkpt>
      <trkpt lat="45.41748" lon="4.53121">
        <ele>566.533875</ele>
        <time>2010-04-25T11:50:07Z</time>
      </trkpt>
      <trkpt lat="45.41726" lon="4.53152">
        <ele>565.895508</ele>
        <time>2010-04-25T11:50:12Z</time>
      </trkpt>
      <trkpt lat="45.41716" lon="4.53193">
        <ele>559.252686</ele>
        <time>2010-04-25T11:50:17Z</time>
      </trkpt>
      <trkpt lat="45.41725" lon="4.53211">
        <ele>561.454163</ele>
        <time>2010-04-25T11:50:22Z</time>
      </trkpt>
      <trkpt lat="45.41739" lon="4.53206">
        <ele>560.41571</ele>
        <time>2010-04-25T11:50:27Z</time>
      </trkpt>
      <trkpt lat="45.41752" lon="4.53203">
        <ele>559.752014</ele>
        <time>2010-04-25T11:50:32Z</time>
      </trkpt>
      <trkpt lat="45.41765" lon="4.532">
        <ele>560.100159</ele>
        <time>2010-04-25T11:50:37Z</time>
      </trkpt>
      <trkpt lat="45.41778" lon="4.53192">
        <ele>562.802368</ele>
        <time>2010-04-25T11:50:42Z</time>
      </trkpt>
      <trkpt lat="45.41788" lon="4.5318">
        <ele>562.957581</ele>
        <time>2010-04-25T11:50:47Z</time>
      </trkpt>
      <trkpt lat="45.41799" lon="4.53173">
        <ele>562.801636</ele>
        <time>2010-04-25T11:50:52Z</time>
      </trkpt>
      <trkpt lat="45.41813" lon="4.53159">
        <ele>560.408203</ele>
        <time>2010-04-25T11:50:57Z</time>
      </trkpt>
      <trkpt lat="45.41827" lon="4.53155">
        <ele>561.148987</ele>
        <time>2010-04-25T11:51:02Z</time>
      </trkpt>
      <trkpt lat="45.41837" lon="4.53152">
        <ele>561.204895</ele>
        <time>2010-04-25T11:51:07Z</time>
      </trkpt>
      <trkpt lat="45.41847" lon="4.53149">
        <ele>561.396729</ele>
        <time>2010-04-25T11:51:12Z</time>
      </trkpt>
      <trkpt lat="45.41858" lon="4.53144">
        <ele>560.416504</ele>
        <time>2010-04-25T11:51:17Z</time>
      </trkpt>
      <trkpt lat="45.41873" lon="4.5314">
        <ele>559.799927</ele>
        <time>2010-04-25T11:51:23Z</time>
      </trkpt>
      <trkpt lat="45.41887" lon="4.53141">
        <ele>560.445984</ele>
        <time>2010-04-25T11:51:28Z</time>
      </trkpt>
      <trkpt lat="45.41899" lon="4.53145">
        <ele>561.783081</ele>
        <time>2010-04-25T11:51:33Z</time>
      </trkpt>
      <trkpt lat="45.41911" lon="4.53146">
        <ele>562.108826</ele>
        <time>2010-04-25T11:51:38Z</time>
      </trkpt>
      <trkpt lat="45.41923" lon="4.53144">
        <ele>561.062927</ele>
        <time>2010-04-25T11:51:43Z</time>
      </trkpt>
      <trkpt lat="45.41944" lon="4.5314">
        <ele>560.740234</ele>
        <time>2010-04-25T11:51:48Z</time>
      </trkpt>
      <trkpt lat="45.41963" lon="4.5314">
        <ele>562.258423</ele>
        <time>2010-04-25T11:51:53Z</time>
      </trkpt>
      <trkpt lat="45.41974" lon="4.5314">
        <ele>563.006714</ele>
        <time>2010-04-25T11:51:58Z</time>
      </trkpt>
      <trkpt lat="45.4198" lon="4.53141">
        <ele>563.642029</ele>
        <time>2010-04-25T11:52:04Z</time>
      </trkpt>
      <trkpt lat="45.41985" lon="4.53143">
        <ele>564.254456</ele>
        <time>2010-04-25T11:52:10Z</time>
      </trkpt>
      <trkpt lat="45.41987" lon="4.53145">
        <ele>564.837036</ele>
        <time>2010-04-25T11:52:16Z</time>
      </trkpt>
      <trkpt lat="45.41992" lon="4.53148">
        <ele>566.340332</ele>
        <time>2010-04-25T11:52:22Z</time>
      </trkpt>
      <trkpt lat="45.41996" lon="4.53149">
        <ele>567.226807</ele>
        <time>2010-04-25T11:52:28Z</time>
      </trkpt>
      <trkpt lat="45.42001" lon="4.53149">
        <ele>567.669189</ele>
        <time>2010-04-25T11:52:34Z</time>
      </trkpt>
      <trkpt lat="45.42006" lon="4.53146">
        <ele>567.469421</ele>
        <time>2010-04-25T11:52:39Z</time>
      </trkpt>
      <trkpt lat="45.42016" lon="4.53136">
        <ele>566.327271</ele>
        <time>2010-04-25T11:52:45Z</time>
      </trkpt>
      <trkpt lat="45.42032" lon="4.53117">
        <ele>563.345642</ele>
        <time>2010-04-25T11:52:50Z</time>
      </trkpt>
      <trkpt lat="45.42052" lon="4.53096">
        <ele>557.99939</ele>
        <time>2010-04-25T11:52:55Z</time>
      </trkpt>
      <trkpt lat="45.42066" lon="4.53096">
        <ele>557.885925</ele>
        <time>2010-04-25T11:53:00Z</time>
      </trkpt>
      <trkpt lat="45.42078" lon="4.531">
        <ele>558.906921</ele>
        <time>2010-04-25T11:53:05Z</time>
      </trkpt>
      <trkpt lat="45.42089" lon="4.53108">
        <ele>560.588196</ele>
        <time>2010-04-25T11:53:10Z</time>
      </trkpt>
      <trkpt lat="45.421" lon="4.53113">
        <ele>561.234314</ele>
        <time>2010-04-25T11:53:15Z</time>
      </trkpt>
      <trkpt lat="45.42114" lon="4.53114">
        <ele>560.892151</ele>
        <time>2010-04-25T11:53:20Z</time>
      </trkpt>
      <trkpt lat="45.42126" lon="4.53116">
        <ele>561.016541</ele>
        <time>2010-04-25T11:53:25Z</time>
      </trkpt>
      <trkpt lat="45.42137" lon="4.53118">
        <ele>561.099304</ele>
        <time>2010-04-25T11:53:30Z</time>
      </trkpt>
      <trkpt lat="45.42152" lon="4.53122">
        <ele>561.366211</ele>
        <time>2010-04-25T11:53:35Z</time>
      </trkpt>
      <trkpt lat="45.42167" lon="4.53129">
        <ele>562.09021</ele>
        <time>2010-04-25T11:53:40Z</time>
      </trkpt>
      <trkpt lat="45.42182" lon="4.53133">
        <ele>561.955994</ele>
        <time>2010-04-25T11:53:45Z</time>
      </trkpt>
      <trkpt lat="45.42198" lon="4.53135">
        <ele>561.208862</ele>
        <time>2010-04-25T11:53:50Z</time>
      </trkpt>
      <trkpt lat="45.42212" lon="4.53133">
        <ele>559.982361</ele>
        <time>2010-04-25T11:53:55Z</time>
      </trkpt>
      <trkpt lat="45.42226" lon="4.5313">
        <ele>558.925293</ele>
        <time>2010-04-25T11:54:00Z</time>
      </trkpt>
      <trkpt lat="45.42238" lon="4.53129">
        <ele>558.233337</ele>
        <time>2010-04-25T11:54:05Z</time>
      </trkpt>
      <trkpt lat="45.42253" lon="4.53127">
        <ele>557.374512</ele>
        <time>2010-04-25T11:54:10Z</time>
      </trkpt>
      <trkpt lat="45.42258" lon="4.53134">
        <ele>557.763184</ele>
        <time>2010-04-25T11:54:17Z</time>
      </trkpt>
      <trkpt lat="45.42255" lon="4.53139">
        <ele>558.501587</ele>
        <time>2010-04-25T11:54:23Z</time>
      </trkpt>
      <trkpt lat="45.42254" lon="4.53143">
        <ele>558.867065</ele>
        <time>2010-04-25T11:54:30Z</time>
      </trkpt>
      <trkpt lat="45.42252" lon="4.53146">
        <ele>559.298279</ele>
        <time>2010-04-25T11:54:36Z</time>
      </trkpt>
      <trkpt lat="45.42253" lon="4.53151">
        <ele>559.708679</ele>
        <time>2010-04-25T11:54:45Z</time>
      </trkpt>
      <trkpt lat="45.42257" lon="4.53163">
        <ele>560.864624</ele>
        <time>2010-04-25T11:54:50Z</time>
      </trkpt>
      <trkpt lat="45.42258" lon="4.53174">
        <ele>562.200134</ele>
        <time>2010-04-25T11:54:55Z</time>
      </trkpt>
      <trkpt lat="45.42258" lon="4.53184">
        <ele>563.376465</ele>
        <time>2010-04-25T11:55:00Z</time>
      </trkpt>
      <trkpt lat="45.42259" lon="4.53194">
        <ele>564.480164</ele>
        <time>2010-04-25T11:55:06Z</time>
      </trkpt>
      <trkpt lat="45.42259" lon="4.53197">
        <ele>564.994812</ele>
        <time>2010-04-25T11:55:13Z</time>
      </trkpt>
      <trkpt lat="45.42261" lon="4.53208">
        <ele>565.782349</ele>
        <time>2010-04-25T11:55:20Z</time>
      </trkpt>
      <trkpt lat="45.42262" lon="4.53215">
        <ele>566.30127</ele>
        <time>2010-04-25T11:55:25Z</time>
      </trkpt>
      <trkpt lat="45.42261" lon="4.5322">
        <ele>567.200012</ele>
        <time>2010-04-25T11:55:31Z</time>
      </trkpt>
      <trkpt lat="45.42261" lon="4.53227">
        <ele>567.54718</ele>
        <time>2010-04-25T11:55:37Z</time>
      </trkpt>
      <trkpt lat="45.42261" lon="4.53233">
        <ele>567.649048</ele>
        <time>2010-04-25T11:55:42Z</time>
      </trkpt>
      <trkpt lat="45.42261" lon="4.53241">
        <ele>567.995178</ele>
        <time>2010-04-25T11:55:48Z</time>
      </trkpt>
      <trkpt lat="45.4226" lon="4.53245">
        <ele>568.207947</ele>
        <time>2010-04-25T11:55:53Z</time>
      </trkpt>
      <trkpt lat="45.4226" lon="4.53249">
        <ele>568.577393</ele>
        <time>2010-04-25T11:55:58Z</time>
      </trkpt>
      <trkpt lat="45.42258" lon="4.53255">
        <ele>569.168579</ele>
        <time>2010-04-25T11:56:04Z</time>
      </trkpt>
      <trkpt lat="45.42257" lon="4.53259">
        <ele>569.712036</ele>
        <time>2010-04-25T11:56:09Z</time>
      </trkpt>
      <trkpt lat="45.42255" lon="4.53264">
        <ele>570.163513</ele>
        <time>2010-04-25T11:56:15Z</time>
      </trkpt>
      <trkpt lat="45.42256" lon="4.53277">
        <ele>570.308228</ele>
        <time>2010-04-25T11:56:20Z</time>
      </trkpt>
      <trkpt lat="45.42263" lon="4.53295">
        <ele>569.592041</ele>
        <time>2010-04-25T11:56:25Z</time>
      </trkpt>
      <trkpt lat="45.42266" lon="4.53311">
        <ele>569.904175</ele>
        <time>2010-04-25T11:56:30Z</time>
      </trkpt>
      <trkpt lat="45.42274" lon="4.53314">
        <ele>568.559082</ele>
        <time>2010-04-25T11:56:36Z</time>
      </trkpt>
      <trkpt lat="45.42281" lon="4.53313">
        <ele>566.806641</ele>
        <time>2010-04-25T11:56:41Z</time>
      </trkpt>
      <trkpt lat="45.42286" lon="4.53311">
        <ele>565.502686</ele>
        <time>2010-04-25T11:56:46Z</time>
      </trkpt>
      <trkpt lat="45.42291" lon="4.53305">
        <ele>563.767395</ele>
        <time>2010-04-25T11:56:51Z</time>
      </trkpt>
      <trkpt lat="45.42298" lon="4.53289">
        <ele>560.632324</ele>
        <time>2010-04-25T11:56:56Z</time>
      </trkpt>
      <trkpt lat="45.42301" lon="4.53284">
        <ele>560.780457</ele>
        <time>2010-04-25T11:57:04Z</time>
      </trkpt>
      <trkpt lat="45.42305" lon="4.5327">
        <ele>561.648682</ele>
        <time>2010-04-25T11:57:09Z</time>
      </trkpt>
      <trkpt lat="45.42309" lon="4.53256">
        <ele>562.269043</ele>
        <time>2010-04-25T11:57:14Z</time>
      </trkpt>
      <trkpt lat="45.42313" lon="4.53248">
        <ele>563.11676</ele>
        <time>2010-04-25T11:57:19Z</time>
      </trkpt>
      <trkpt lat="45.42314" lon="4.53244">
        <ele>563.501038</ele>
        <time>2010-04-25T11:57:25Z</time>
      </trkpt>
      <trkpt lat="45.42316" lon="4.53239">
        <ele>563.868225</ele>
        <time>2010-04-25T11:57:31Z</time>
      </trkpt>
      <trkpt lat="45.42318" lon="4.53233">
        <ele>564.36676</ele>
        <time>2010-04-25T11:57:37Z</time>
      </trkpt>
      <trkpt lat="45.42321" lon="4.5323">
        <ele>565.100403</ele>
        <time>2010-04-25T11:57:46Z</time>
      </trkpt>
      <trkpt lat="45.4232" lon="4.53226">
        <ele>564.331787</ele>
        <time>2010-04-25T11:57:54Z</time>
      </trkpt>
      <trkpt lat="45.42322" lon="4.53225">
        <ele>565.281616</ele>
        <time>2010-04-25T11:57:59Z</time>
      </trkpt>
      <trkpt lat="45.42324" lon="4.53221">
        <ele>565.667786</ele>
        <time>2010-04-25T11:58:04Z</time>
      </trkpt>
      <trkpt lat="45.42326" lon="4.53218">
        <ele>566.634033</ele>
        <time>2010-04-25T11:58:10Z</time>
      </trkpt>
      <trkpt lat="45.42329" lon="4.53215">
        <ele>567.317505</ele>
        <time>2010-04-25T11:58:16Z</time>
      </trkpt>
      <trkpt lat="45.42331" lon="4.53214">
        <ele>568.371582</ele>
        <time>2010-04-25T11:58:26Z</time>
      </trkpt>
      <trkpt lat="45.4234" lon="4.53198">
        <ele>569.962402</ele>
        <time>2010-04-25T11:58:32Z</time>
      </trkpt>
      <trkpt lat="45.42342" lon="4.53193">
        <ele>570.213135</ele>
        <time>2010-04-25T11:58:40Z</time>
      </trkpt>
      <trkpt lat="45.42343" lon="4.53181">
        <ele>568.822449</ele>
        <time>2010-04-25T11:58:45Z</time>
      </trkpt>
      <trkpt lat="45.42346" lon="4.53159">
        <ele>566.733887</ele>
        <time>2010-04-25T11:58:50Z</time>
      </trkpt>
      <trkpt lat="45.42349" lon="4.53135">
        <ele>563.565369</ele>
        <time>2010-04-25T11:58:55Z</time>
      </trkpt>
      <trkpt lat="45.42358" lon="4.53111">
        <ele>562.12146</ele>
        <time>2010-04-25T11:59:00Z</time>
      </trkpt>
      <trkpt lat="45.42366" lon="4.53103">
        <ele>562.998535</ele>
        <time>2010-04-25T11:59:05Z</time>
      </trkpt>
      <trkpt lat="45.42376" lon="4.53102">
        <ele>565.34375</ele>
        <time>2010-04-25T11:59:12Z</time>
      </trkpt>
      <trkpt lat="45.42381" lon="4.53103">
        <ele>566.903748</ele>
        <time>2010-04-25T11:59:18Z</time>
      </trkpt>
      <trkpt lat="45.42387" lon="4.53103">
        <ele>568.47644</ele>
        <time>2010-04-25T11:59:24Z</time>
      </trkpt>
      <trkpt lat="45.42392" lon="4.53103">
        <ele>569.996826</ele>
        <time>2010-04-25T11:59:30Z</time>
      </trkpt>
      <trkpt lat="45.42398" lon="4.53103">
        <ele>570.888</ele>
        <time>2010-04-25T11:59:36Z</time>
      </trkpt>
      <trkpt lat="45.42404" lon="4.53102">
        <ele>571.56311</ele>
        <time>2010-04-25T11:59:42Z</time>
      </trkpt>
      <trkpt lat="45.4241" lon="4.53102">
        <ele>572.169067</ele>
        <time>2010-04-25T11:59:47Z</time>
      </trkpt>
      <trkpt lat="45.42414" lon="4.53102">
        <ele>572.890442</ele>
        <time>2010-04-25T11:59:54Z</time>
      </trkpt>
      <trkpt lat="45.42418" lon="4.53102">
        <ele>573.351501</ele>
        <time>2010-04-25T12:00:00Z</time>
      </trkpt>
      <trkpt lat="45.42421" lon="4.53101">
        <ele>573.817444</ele>
        <time>2010-04-25T12:00:06Z</time>
      </trkpt>
      <trkpt lat="45.42427" lon="4.53099">
        <ele>574.28125</ele>
        <time>2010-04-25T12:00:12Z</time>
      </trkpt>
      <trkpt lat="45.42433" lon="4.53096">
        <ele>574.017334</ele>
        <time>2010-04-25T12:00:17Z</time>
      </trkpt>
      <trkpt lat="45.42441" lon="4.53091">
        <ele>572.766785</ele>
        <time>2010-04-25T12:00:22Z</time>
      </trkpt>
      <trkpt lat="45.42453" lon="4.5309">
        <ele>570.617554</ele>
        <time>2010-04-25T12:00:27Z</time>
      </trkpt>
      <trkpt lat="45.42461" lon="4.53091">
        <ele>569.77771</ele>
        <time>2010-04-25T12:00:32Z</time>
      </trkpt>
      <trkpt lat="45.42468" lon="4.53088">
        <ele>568.007202</ele>
        <time>2010-04-25T12:00:38Z</time>
      </trkpt>
      <trkpt lat="45.42477" lon="4.53105">
        <ele>570.532532</ele>
        <time>2010-04-25T12:00:43Z</time>
      </trkpt>
      <trkpt lat="45.42495" lon="4.53113">
        <ele>571.574158</ele>
        <time>2010-04-25T12:00:48Z</time>
      </trkpt>
      <trkpt lat="45.42513" lon="4.53084">
        <ele>566.334106</ele>
        <time>2010-04-25T12:00:53Z</time>
      </trkpt>
      <trkpt lat="45.42515" lon="4.53058">
        <ele>560.96991</ele>
        <time>2010-04-25T12:00:58Z</time>
      </trkpt>
      <trkpt lat="45.42529" lon="4.53057">
        <ele>561.555908</ele>
        <time>2010-04-25T12:01:03Z</time>
      </trkpt>
      <trkpt lat="45.42547" lon="4.53069">
        <ele>562.077942</ele>
        <time>2010-04-25T12:01:08Z</time>
      </trkpt>
      <trkpt lat="45.42562" lon="4.5308">
        <ele>562.318176</ele>
        <time>2010-04-25T12:01:13Z</time>
      </trkpt>
      <trkpt lat="45.42573" lon="4.53089">
        <ele>562.398621</ele>
        <time>2010-04-25T12:01:18Z</time>
      </trkpt>
      <trkpt lat="45.42585" lon="4.53105">
        <ele>564.916931</ele>
        <time>2010-04-25T12:01:23Z</time>
      </trkpt>
      <trkpt lat="45.4259" lon="4.53115">
        <ele>567.2276</ele>
        <time>2010-04-25T12:01:29Z</time>
      </trkpt>
      <trkpt lat="45.42597" lon="4.5312">
        <ele>568.28833</ele>
        <time>2010-04-25T12:01:34Z</time>
      </trkpt>
      <trkpt lat="45.42604" lon="4.53113">
        <ele>566.424805</ele>
        <time>2010-04-25T12:01:39Z</time>
      </trkpt>
      <trkpt lat="45.42606" lon="4.53101">
        <ele>565.213196</ele>
        <time>2010-04-25T12:01:44Z</time>
      </trkpt>
      <trkpt lat="45.42605" lon="4.53088">
        <ele>565.590515</ele>
        <time>2010-04-25T12:01:50Z</time>
      </trkpt>
      <trkpt lat="45.42605" lon="4.53074">
        <ele>565.957153</ele>
        <time>2010-04-25T12:01:55Z</time>
      </trkpt>
      <trkpt lat="45.42605" lon="4.53055">
        <ele>566.420227</ele>
        <time>2010-04-25T12:02:00Z</time>
      </trkpt>
      <trkpt lat="45.42602" lon="4.53038">
        <ele>565.743408</ele>
        <time>2010-04-25T12:02:05Z</time>
      </trkpt>
      <trkpt lat="45.42596" lon="4.53016">
        <ele>564.400879</ele>
        <time>2010-04-25T12:02:10Z</time>
      </trkpt>
      <trkpt lat="45.42593" lon="4.53002">
        <ele>564.079041</ele>
        <time>2010-04-25T12:02:15Z</time>
      </trkpt>
      <trkpt lat="45.42591" lon="4.52991">
        <ele>563.508606</ele>
        <time>2010-04-25T12:02:20Z</time>
      </trkpt>
      <trkpt lat="45.42587" lon="4.5298">
        <ele>562.283447</ele>
        <time>2010-04-25T12:02:25Z</time>
      </trkpt>
      <trkpt lat="45.42583" lon="4.52966">
        <ele>560.455505</ele>
        <time>2010-04-25T12:02:30Z</time>
      </trkpt>
      <trkpt lat="45.42575" lon="4.52951">
        <ele>556.977478</ele>
        <time>2010-04-25T12:02:35Z</time>
      </trkpt>
      <trkpt lat="45.42579" lon="4.52917">
        <ele>557.943848</ele>
        <time>2010-04-25T12:02:41Z</time>
      </trkpt>
      <trkpt lat="45.42589" lon="4.52897">
        <ele>560.100952</ele>
        <time>2010-04-25T12:02:46Z</time>
      </trkpt>
      <trkpt lat="45.42601" lon="4.52876">
        <ele>560.909729</ele>
        <time>2010-04-25T12:02:52Z</time>
      </trkpt>
      <trkpt lat="45.42611" lon="4.52858">
        <ele>560.31488</ele>
        <time>2010-04-25T12:02:57Z</time>
      </trkpt>
      <trkpt lat="45.42637" lon="4.5283">
        <ele>563.971252</ele>
        <time>2010-04-25T12:03:07Z</time>
      </trkpt>
      <trkpt lat="45.42644" lon="4.52806">
        <ele>562.629272</ele>
        <time>2010-04-25T12:03:12Z</time>
      </trkpt>
      <trkpt lat="45.42651" lon="4.52779">
        <ele>559.145081</ele>
        <time>2010-04-25T12:03:17Z</time>
      </trkpt>
      <trkpt lat="45.42664" lon="4.52761">
        <ele>558.803772</ele>
        <time>2010-04-25T12:03:22Z</time>
      </trkpt>
      <trkpt lat="45.42661" lon="4.5276">
        <ele>557.674866</ele>
        <time>2010-04-25T12:03:27Z</time>
      </trkpt>
      <trkpt lat="45.42653" lon="4.52763">
        <ele>555.652649</ele>
        <time>2010-04-25T12:03:32Z</time>
      </trkpt>
      <trkpt lat="45.42643" lon="4.52763">
        <ele>552.855713</ele>
        <time>2010-04-25T12:03:37Z</time>
      </trkpt>
      <trkpt lat="45.42633" lon="4.52763">
        <ele>550.125977</ele>
        <time>2010-04-25T12:03:43Z</time>
      </trkpt>
      <trkpt lat="45.42626" lon="4.52762">
        <ele>547.632874</ele>
        <time>2010-04-25T12:03:48Z</time>
      </trkpt>
      <trkpt lat="45.42614" lon="4.52759">
        <ele>546.438171</ele>
        <time>2010-04-25T12:03:54Z</time>
      </trkpt>
      <trkpt lat="45.42603" lon="4.52754">
        <ele>545.12384</ele>
        <time>2010-04-25T12:03:59Z</time>
      </trkpt>
      <trkpt lat="45.42592" lon="4.52748">
        <ele>543.273315</ele>
        <time>2010-04-25T12:04:04Z</time>
      </trkpt>
      <trkpt lat="45.42581" lon="4.52739">
        <ele>540.722839</ele>
        <time>2010-04-25T12:04:10Z</time>
      </trkpt>
      <trkpt lat="45.4257" lon="4.52728">
        <ele>541.387024</ele>
        <time>2010-04-25T12:04:15Z</time>
      </trkpt>
      <trkpt lat="45.42559" lon="4.52713">
        <ele>543.204102</ele>
        <time>2010-04-25T12:04:20Z</time>
      </trkpt>
      <trkpt lat="45.42549" lon="4.52696">
        <ele>544.645447</ele>
        <time>2010-04-25T12:04:25Z</time>
      </trkpt>
      <trkpt lat="45.4254" lon="4.52676">
        <ele>545.811157</ele>
        <time>2010-04-25T12:04:30Z</time>
      </trkpt>
      <trkpt lat="45.42533" lon="4.52654">
        <ele>547.686646</ele>
        <time>2010-04-25T12:04:35Z</time>
      </trkpt>
      <trkpt lat="45.42529" lon="4.5263">
        <ele>556.929382</ele>
        <time>2010-04-25T12:04:40Z</time>
      </trkpt>
      <trkpt lat="45.42529" lon="4.52611">
        <ele>562.063538</ele>
        <time>2010-04-25T12:04:45Z</time>
      </trkpt>
      <trkpt lat="45.42536" lon="4.52606">
        <ele>560.025879</ele>
        <time>2010-04-25T12:04:52Z</time>
      </trkpt>
      <trkpt lat="45.42536" lon="4.52605">
        <ele>560.38031</ele>
        <time>2010-04-25T12:05:04Z</time>
      </trkpt>
      <trkpt lat="45.42528" lon="4.526">
        <ele>565.49176</ele>
        <time>2010-04-25T12:05:09Z</time>
      </trkpt>
      <trkpt lat="45.42524" lon="4.52599">
        <ele>567.925171</ele>
        <time>2010-04-25T12:05:15Z</time>
      </trkpt>
      <trkpt lat="45.4253" lon="4.52602">
        <ele>564.412354</ele>
        <time>2010-04-25T12:05:20Z</time>
      </trkpt>
      <trkpt lat="45.42528" lon="4.52601">
        <ele>565.515015</ele>
        <time>2010-04-25T12:05:26Z</time>
      </trkpt>
      <trkpt lat="45.42527" lon="4.526">
        <ele>565.954041</ele>
        <time>2010-04-25T12:05:33Z</time>
      </trkpt>
      <trkpt lat="45.42532" lon="4.52602">
        <ele>563.475708</ele>
        <time>2010-04-25T12:05:38Z</time>
      </trkpt>
      <trkpt lat="45.42537" lon="4.52599">
        <ele>561.280518</ele>
        <time>2010-04-25T12:05:46Z</time>
      </trkpt>
      <trkpt lat="45.42538" lon="4.52593">
        <ele>562.482788</ele>
        <time>2010-04-25T12:05:51Z</time>
      </trkpt>
      <trkpt lat="45.42539" lon="4.52587">
        <ele>562.605225</ele>
        <time>2010-04-25T12:05:57Z</time>
      </trkpt>
      <trkpt lat="45.42544" lon="4.52575">
        <ele>560.204407</ele>
        <time>2010-04-25T12:06:02Z</time>
      </trkpt>
      <trkpt lat="45.42548" lon="4.5256">
        <ele>558.445679</ele>
        <time>2010-04-25T12:06:07Z</time>
      </trkpt>
      <trkpt lat="45.42548" lon="4.52545">
        <ele>558.520325</ele>
        <time>2010-04-25T12:06:12Z</time>
      </trkpt>
      <trkpt lat="45.42549" lon="4.52541">
        <ele>558.176392</ele>
        <time>2010-04-25T12:06:17Z</time>
      </trkpt>
      <trkpt lat="45.42549" lon="4.52537">
        <ele>558.020935</ele>
        <time>2010-04-25T12:06:23Z</time>
      </trkpt>
      <trkpt lat="45.42547" lon="4.52529">
        <ele>559.49939</ele>
        <time>2010-04-25T12:06:28Z</time>
      </trkpt>
      <trkpt lat="45.42545" lon="4.52518">
        <ele>558.715881</ele>
        <time>2010-04-25T12:06:33Z</time>
      </trkpt>
      <trkpt lat="45.42539" lon="4.52507">
        <ele>559.92749</ele>
        <time>2010-04-25T12:06:38Z</time>
      </trkpt>
      <trkpt lat="45.42532" lon="4.52498">
        <ele>561.669983</ele>
        <time>2010-04-25T12:06:43Z</time>
      </trkpt>
      <trkpt lat="45.42524" lon="4.52492">
        <ele>564.008728</ele>
        <time>2010-04-25T12:06:49Z</time>
      </trkpt>
      <trkpt lat="45.42518" lon="4.52484">
        <ele>565.130005</ele>
        <time>2010-04-25T12:06:55Z</time>
      </trkpt>
      <trkpt lat="45.42514" lon="4.52477">
        <ele>565.857483</ele>
        <time>2010-04-25T12:07:00Z</time>
      </trkpt>
      <trkpt lat="45.42508" lon="4.52468">
        <ele>566.961243</ele>
        <time>2010-04-25T12:07:06Z</time>
      </trkpt>
      <trkpt lat="45.42503" lon="4.52461">
        <ele>567.654907</ele>
        <time>2010-04-25T12:07:11Z</time>
      </trkpt>
      <trkpt lat="45.42498" lon="4.52453">
        <ele>568.364319</ele>
        <time>2010-04-25T12:07:16Z</time>
      </trkpt>
      <trkpt lat="45.42493" lon="4.52443">
        <ele>569.043335</ele>
        <time>2010-04-25T12:07:22Z</time>
      </trkpt>
      <trkpt lat="45.42488" lon="4.52435">
        <ele>569.382141</ele>
        <time>2010-04-25T12:07:27Z</time>
      </trkpt>
      <trkpt lat="45.42485" lon="4.52427">
        <ele>569.63678</ele>
        <time>2010-04-25T12:07:32Z</time>
      </trkpt>
      <trkpt lat="45.42481" lon="4.52419">
        <ele>569.855957</ele>
        <time>2010-04-25T12:07:37Z</time>
      </trkpt>
      <trkpt lat="45.42477" lon="4.52412">
        <ele>570.558411</ele>
        <time>2010-04-25T12:07:42Z</time>
      </trkpt>
      <trkpt lat="45.42473" lon="4.52403">
        <ele>570.856873</ele>
        <time>2010-04-25T12:07:47Z</time>
      </trkpt>
      <trkpt lat="45.42469" lon="4.52395">
        <ele>571.942017</ele>
        <time>2010-04-25T12:07:52Z</time>
      </trkpt>
      <trkpt lat="45.42466" lon="4.52379">
        <ele>571.707031</ele>
        <time>2010-04-25T12:07:57Z</time>
      </trkpt>
      <trkpt lat="45.42463" lon="4.52355">
        <ele>571.236511</ele>
        <time>2010-04-25T12:08:02Z</time>
      </trkpt>
      <trkpt lat="45.42458" lon="4.52324">
        <ele>570.685791</ele>
        <time>2010-04-25T12:08:07Z</time>
      </trkpt>
      <trkpt lat="45.42452" lon="4.52283">
        <ele>568.790955</ele>
        <time>2010-04-25T12:08:12Z</time>
      </trkpt>
      <trkpt lat="45.42445" lon="4.52236">
        <ele>568.720947</ele>
        <time>2010-04-25T12:08:17Z</time>
      </trkpt>
      <trkpt lat="45.42452" lon="4.52183">
        <ele>565.257996</ele>
        <time>2010-04-25T12:08:22Z</time>
      </trkpt>
      <trkpt lat="45.42468" lon="4.52131">
        <ele>561.503601</ele>
        <time>2010-04-25T12:08:27Z</time>
      </trkpt>
      <trkpt lat="45.42478" lon="4.52073">
        <ele>557.407776</ele>
        <time>2010-04-25T12:08:32Z</time>
      </trkpt>
      <trkpt lat="45.42496" lon="4.52024">
        <ele>550.288147</ele>
        <time>2010-04-25T12:08:37Z</time>
      </trkpt>
      <trkpt lat="45.42498" lon="4.51978">
        <ele>546.533142</ele>
        <time>2010-04-25T12:08:42Z</time>
      </trkpt>
      <trkpt lat="45.42457" lon="4.51947">
        <ele>548.787598</ele>
        <time>2010-04-25T12:08:47Z</time>
      </trkpt>
      <trkpt lat="45.42413" lon="4.51922">
        <ele>552.373718</ele>
        <time>2010-04-25T12:08:52Z</time>
      </trkpt>
      <trkpt lat="45.42411" lon="4.51869">
        <ele>551.88678</ele>
        <time>2010-04-25T12:08:57Z</time>
      </trkpt>
      <trkpt lat="45.42464" lon="4.51848">
        <ele>543.05542</ele>
        <time>2010-04-25T12:09:02Z</time>
      </trkpt>
      <trkpt lat="45.4251" lon="4.51825">
        <ele>535.999268</ele>
        <time>2010-04-25T12:09:07Z</time>
      </trkpt>
      <trkpt lat="45.42552" lon="4.51782">
        <ele>529.679382</ele>
        <time>2010-04-25T12:09:12Z</time>
      </trkpt>
      <trkpt lat="45.42581" lon="4.51726">
        <ele>526.284058</ele>
        <time>2010-04-25T12:09:17Z</time>
      </trkpt>
      <trkpt lat="45.42589" lon="4.51675">
        <ele>526.726379</ele>
        <time>2010-04-25T12:09:22Z</time>
      </trkpt>
      <trkpt lat="45.42597" lon="4.51653">
        <ele>522.030701</ele>
        <time>2010-04-25T12:09:27Z</time>
      </trkpt>
      <trkpt lat="45.42602" lon="4.51646">
        <ele>519.804565</ele>
        <time>2010-04-25T12:09:39Z</time>
      </trkpt>
      <trkpt lat="45.42613" lon="4.51642">
        <ele>517.295593</ele>
        <time>2010-04-25T12:09:45Z</time>
      </trkpt>
      <trkpt lat="45.42625" lon="4.51638">
        <ele>514.834106</ele>
        <time>2010-04-25T12:09:50Z</time>
      </trkpt>
      <trkpt lat="45.42642" lon="4.51634">
        <ele>510.829987</ele>
        <time>2010-04-25T12:09:55Z</time>
      </trkpt>
      <trkpt lat="45.42651" lon="4.51629">
        <ele>507.597198</ele>
        <time>2010-04-25T12:10:01Z</time>
      </trkpt>
      <trkpt lat="45.42653" lon="4.51633">
        <ele>507.95639</ele>
        <time>2010-04-25T12:10:06Z</time>
      </trkpt>
      <trkpt lat="45.42662" lon="4.51647">
        <ele>505.702515</ele>
        <time>2010-04-25T12:10:11Z</time>
      </trkpt>
      <trkpt lat="45.42659" lon="4.51673">
        <ele>504.440094</ele>
        <time>2010-04-25T12:10:16Z</time>
      </trkpt>
      <trkpt lat="45.42662" lon="4.51686">
        <ele>502.091461</ele>
        <time>2010-04-25T12:10:21Z</time>
      </trkpt>
      <trkpt lat="45.42674" lon="4.51675">
        <ele>498.893921</ele>
        <time>2010-04-25T12:10:26Z</time>
      </trkpt>
      <trkpt lat="45.42685" lon="4.51664">
        <ele>496.612305</ele>
        <time>2010-04-25T12:10:31Z</time>
      </trkpt>
      <trkpt lat="45.42696" lon="4.51647">
        <ele>495.848724</ele>
        <time>2010-04-25T12:10:36Z</time>
      </trkpt>
      <trkpt lat="45.427" lon="4.51617">
        <ele>494.042206</ele>
        <time>2010-04-25T12:10:41Z</time>
      </trkpt>
      <trkpt lat="45.42711" lon="4.51629">
        <ele>492.1651</ele>
        <time>2010-04-25T12:10:46Z</time>
      </trkpt>
      <trkpt lat="45.42705" lon="4.51634">
        <ele>493.921234</ele>
        <time>2010-04-25T12:10:54Z</time>
      </trkpt>
      <trkpt lat="45.42712" lon="4.51644">
        <ele>492.07251</ele>
        <time>2010-04-25T12:11:03Z</time>
      </trkpt>
      <trkpt lat="45.42709" lon="4.51663">
        <ele>490.791168</ele>
        <time>2010-04-25T12:11:08Z</time>
      </trkpt>
      <trkpt lat="45.42696" lon="4.51695">
        <ele>489.435944</ele>
        <time>2010-04-25T12:11:13Z</time>
      </trkpt>
      <trkpt lat="45.42673" lon="4.51726">
        <ele>493.588013</ele>
        <time>2010-04-25T12:11:18Z</time>
      </trkpt>
      <trkpt lat="45.42666" lon="4.51758">
        <ele>491.214905</ele>
        <time>2010-04-25T12:11:23Z</time>
      </trkpt>
      <trkpt lat="45.42689" lon="4.51773">
        <ele>489.546692</ele>
        <time>2010-04-25T12:11:28Z</time>
      </trkpt>
      <trkpt lat="45.42703" lon="4.51772">
        <ele>491.82309</ele>
        <time>2010-04-25T12:11:33Z</time>
      </trkpt>
      <trkpt lat="45.4271" lon="4.51768">
        <ele>492.274719</ele>
        <time>2010-04-25T12:11:38Z</time>
      </trkpt>
      <trkpt lat="45.42716" lon="4.51766">
        <ele>492.794128</ele>
        <time>2010-04-25T12:11:43Z</time>
      </trkpt>
      <trkpt lat="45.42721" lon="4.51762">
        <ele>492.915405</ele>
        <time>2010-04-25T12:11:49Z</time>
      </trkpt>
      <trkpt lat="45.42725" lon="4.51759">
        <ele>492.94751</ele>
        <time>2010-04-25T12:11:54Z</time>
      </trkpt>
      <trkpt lat="45.4273" lon="4.51756">
        <ele>492.761414</ele>
        <time>2010-04-25T12:11:59Z</time>
      </trkpt>
      <trkpt lat="45.42737" lon="4.51755">
        <ele>493.584412</ele>
        <time>2010-04-25T12:12:05Z</time>
      </trkpt>
      <trkpt lat="45.42741" lon="4.51754">
        <ele>494.229126</ele>
        <time>2010-04-25T12:12:10Z</time>
      </trkpt>
      <trkpt lat="45.42744" lon="4.51755">
        <ele>495.280701</ele>
        <time>2010-04-25T12:12:15Z</time>
      </trkpt>
      <trkpt lat="45.42748" lon="4.51755">
        <ele>496.336609</ele>
        <time>2010-04-25T12:12:21Z</time>
      </trkpt>
      <trkpt lat="45.42751" lon="4.51756">
        <ele>497.351044</ele>
        <time>2010-04-25T12:12:27Z</time>
      </trkpt>
      <trkpt lat="45.42755" lon="4.51755">
        <ele>497.990753</ele>
        <time>2010-04-25T12:12:33Z</time>
      </trkpt>
      <trkpt lat="45.42758" lon="4.51755">
        <ele>498.758514</ele>
        <time>2010-04-25T12:12:38Z</time>
      </trkpt>
      <trkpt lat="45.42762" lon="4.51755">
        <ele>499.482361</ele>
        <time>2010-04-25T12:12:44Z</time>
      </trkpt>
      <trkpt lat="45.42765" lon="4.51754">
        <ele>499.949219</ele>
        <time>2010-04-25T12:12:49Z</time>
      </trkpt>
      <trkpt lat="45.42768" lon="4.51753">
        <ele>500.352509</ele>
        <time>2010-04-25T12:12:54Z</time>
      </trkpt>
      <trkpt lat="45.42773" lon="4.51752">
        <ele>501.086945</ele>
        <time>2010-04-25T12:13:01Z</time>
      </trkpt>
      <trkpt lat="45.42776" lon="4.51749">
        <ele>501.089386</ele>
        <time>2010-04-25T12:13:07Z</time>
      </trkpt>
      <trkpt lat="45.42779" lon="4.51747">
        <ele>501.022614</ele>
        <time>2010-04-25T12:13:12Z</time>
      </trkpt>
      <trkpt lat="45.42782" lon="4.51746">
        <ele>501.923279</ele>
        <time>2010-04-25T12:13:19Z</time>
      </trkpt>
      <trkpt lat="45.42785" lon="4.51744">
        <ele>502.632416</ele>
        <time>2010-04-25T12:13:25Z</time>
      </trkpt>
      <trkpt lat="45.42788" lon="4.51743">
        <ele>503.554993</ele>
        <time>2010-04-25T12:13:30Z</time>
      </trkpt>
      <trkpt lat="45.4279" lon="4.51742">
        <ele>504.543488</ele>
        <time>2010-04-25T12:13:35Z</time>
      </trkpt>
      <trkpt lat="45.42797" lon="4.51733">
        <ele>504.978912</ele>
        <time>2010-04-25T12:13:42Z</time>
      </trkpt>
      <trkpt lat="45.428" lon="4.51728">
        <ele>505.027435</ele>
        <time>2010-04-25T12:13:48Z</time>
      </trkpt>
      <trkpt lat="45.42804" lon="4.51723">
        <ele>505.512024</ele>
        <time>2010-04-25T12:13:54Z</time>
      </trkpt>
      <trkpt lat="45.42806" lon="4.51717">
        <ele>505.087708</ele>
        <time>2010-04-25T12:14:00Z</time>
      </trkpt>
      <trkpt lat="45.4281" lon="4.51704">
        <ele>503.782379</ele>
        <time>2010-04-25T12:14:05Z</time>
      </trkpt>
      <trkpt lat="45.42812" lon="4.51696">
        <ele>503.948853</ele>
        <time>2010-04-25T12:14:10Z</time>
      </trkpt>
      <trkpt lat="45.42818" lon="4.51685">
        <ele>505.26709</ele>
        <time>2010-04-25T12:14:15Z</time>
      </trkpt>
      <trkpt lat="45.42823" lon="4.51675">
        <ele>506.00119</ele>
        <time>2010-04-25T12:14:20Z</time>
      </trkpt>
      <trkpt lat="45.42827" lon="4.51663">
        <ele>506.048309</ele>
        <time>2010-04-25T12:14:25Z</time>
      </trkpt>
      <trkpt lat="45.42832" lon="4.51655">
        <ele>506.018433</ele>
        <time>2010-04-25T12:14:30Z</time>
      </trkpt>
      <trkpt lat="45.42839" lon="4.51648">
        <ele>506.591248</ele>
        <time>2010-04-25T12:14:36Z</time>
      </trkpt>
      <trkpt lat="45.42845" lon="4.51642">
        <ele>506.548889</ele>
        <time>2010-04-25T12:14:42Z</time>
      </trkpt>
      <trkpt lat="45.42851" lon="4.51638">
        <ele>506.569</ele>
        <time>2010-04-25T12:14:47Z</time>
      </trkpt>
      <trkpt lat="45.42858" lon="4.51635">
        <ele>507.201935</ele>
        <time>2010-04-25T12:14:52Z</time>
      </trkpt>
      <trkpt lat="45.42865" lon="4.51632">
        <ele>508.041443</ele>
        <time>2010-04-25T12:14:57Z</time>
      </trkpt>
      <trkpt lat="45.42871" lon="4.51631">
        <ele>508.852936</ele>
        <time>2010-04-25T12:15:02Z</time>
      </trkpt>
      <trkpt lat="45.42876" lon="4.51629">
        <ele>509.140015</ele>
        <time>2010-04-25T12:15:07Z</time>
      </trkpt>
      <trkpt lat="45.42883" lon="4.51628">
        <ele>509.763763</ele>
        <time>2010-04-25T12:15:12Z</time>
      </trkpt>
      <trkpt lat="45.4289" lon="4.51627">
        <ele>510.423737</ele>
        <time>2010-04-25T12:15:18Z</time>
      </trkpt>
      <trkpt lat="45.42897" lon="4.51626">
        <ele>511.065002</ele>
        <time>2010-04-25T12:15:23Z</time>
      </trkpt>
      <trkpt lat="45.42904" lon="4.51624">
        <ele>511.351257</ele>
        <time>2010-04-25T12:15:28Z</time>
      </trkpt>
      <trkpt lat="45.4291" lon="4.51624">
        <ele>512.071228</ele>
        <time>2010-04-25T12:15:33Z</time>
      </trkpt>
      <trkpt lat="45.42916" lon="4.51624">
        <ele>512.95874</ele>
        <time>2010-04-25T12:15:38Z</time>
      </trkpt>
      <trkpt lat="45.42923" lon="4.51627">
        <ele>513.682922</ele>
        <time>2010-04-25T12:15:43Z</time>
      </trkpt>
      <trkpt lat="45.42931" lon="4.51629">
        <ele>513.925476</ele>
        <time>2010-04-25T12:15:49Z</time>
      </trkpt>
      <trkpt lat="45.42939" lon="4.51631">
        <ele>514.435913</ele>
        <time>2010-04-25T12:15:54Z</time>
      </trkpt>
      <trkpt lat="45.42943" lon="4.51634">
        <ele>515.421692</ele>
        <time>2010-04-25T12:16:00Z</time>
      </trkpt>
      <trkpt lat="45.42946" lon="4.51636">
        <ele>516.050415</ele>
        <time>2010-04-25T12:16:06Z</time>
      </trkpt>
      <trkpt lat="45.4295" lon="4.5164">
        <ele>517.415283</ele>
        <time>2010-04-25T12:16:12Z</time>
      </trkpt>
      <trkpt lat="45.42956" lon="4.51644">
        <ele>518.452209</ele>
        <time>2010-04-25T12:16:18Z</time>
      </trkpt>
      <trkpt lat="45.42961" lon="4.51647">
        <ele>519.35791</ele>
        <time>2010-04-25T12:16:23Z</time>
      </trkpt>
      <trkpt lat="45.42964" lon="4.51651">
        <ele>520.846924</ele>
        <time>2010-04-25T12:16:29Z</time>
      </trkpt>
      <trkpt lat="45.42967" lon="4.51653">
        <ele>521.125305</ele>
        <time>2010-04-25T12:16:34Z</time>
      </trkpt>
      <trkpt lat="45.42978" lon="4.51659">
        <ele>522.23584</ele>
        <time>2010-04-25T12:16:43Z</time>
      </trkpt>
      <trkpt lat="45.42985" lon="4.51662">
        <ele>522.786621</ele>
        <time>2010-04-25T12:16:49Z</time>
      </trkpt>
      <trkpt lat="45.42992" lon="4.51666">
        <ele>523.645081</ele>
        <time>2010-04-25T12:16:55Z</time>
      </trkpt>
      <trkpt lat="45.42999" lon="4.51669">
        <ele>524.510498</ele>
        <time>2010-04-25T12:17:01Z</time>
      </trkpt>
      <trkpt lat="45.43005" lon="4.51671">
        <ele>524.835938</ele>
        <time>2010-04-25T12:17:06Z</time>
      </trkpt>
      <trkpt lat="45.43013" lon="4.51672">
        <ele>525.539063</ele>
        <time>2010-04-25T12:17:11Z</time>
      </trkpt>
      <trkpt lat="45.43016" lon="4.51672">
        <ele>525.927856</ele>
        <time>2010-04-25T12:17:16Z</time>
      </trkpt>
      <trkpt lat="45.43021" lon="4.51672">
        <ele>526.161377</ele>
        <time>2010-04-25T12:17:22Z</time>
      </trkpt>
      <trkpt lat="45.43026" lon="4.51672">
        <ele>526.677368</ele>
        <time>2010-04-25T12:17:28Z</time>
      </trkpt>
      <trkpt lat="45.4303" lon="4.51672">
        <ele>527.006348</ele>
        <time>2010-04-25T12:17:34Z</time>
      </trkpt>
      <trkpt lat="45.43035" lon="4.51671">
        <ele>526.960022</ele>
        <time>2010-04-25T12:17:40Z</time>
      </trkpt>
      <trkpt lat="45.43041" lon="4.5167">
        <ele>526.800293</ele>
        <time>2010-04-25T12:17:45Z</time>
      </trkpt>
      <trkpt lat="45.43051" lon="4.51668">
        <ele>527.026855</ele>
        <time>2010-04-25T12:17:50Z</time>
      </trkpt>
      <trkpt lat="45.43063" lon="4.51667">
        <ele>526.117493</ele>
        <time>2010-04-25T12:17:55Z</time>
      </trkpt>
      <trkpt lat="45.43076" lon="4.51665">
        <ele>525.091003</ele>
        <time>2010-04-25T12:18:01Z</time>
      </trkpt>
      <trkpt lat="45.43092" lon="4.51669">
        <ele>525.886108</ele>
        <time>2010-04-25T12:18:06Z</time>
      </trkpt>
      <trkpt lat="45.43106" lon="4.51678">
        <ele>525.719421</ele>
        <time>2010-04-25T12:18:11Z</time>
      </trkpt>
      <trkpt lat="45.4312" lon="4.51689">
        <ele>525.261719</ele>
        <time>2010-04-25T12:18:17Z</time>
      </trkpt>
      <trkpt lat="45.4313" lon="4.51703">
        <ele>526.221985</ele>
        <time>2010-04-25T12:18:22Z</time>
      </trkpt>
      <trkpt lat="45.43139" lon="4.51717">
        <ele>527.071838</ele>
        <time>2010-04-25T12:18:27Z</time>
      </trkpt>
      <trkpt lat="45.43145" lon="4.5173">
        <ele>525.979675</ele>
        <time>2010-04-25T12:18:32Z</time>
      </trkpt>
      <trkpt lat="45.43152" lon="4.51749">
        <ele>524.31781</ele>
        <time>2010-04-25T12:18:37Z</time>
      </trkpt>
      <trkpt lat="45.43163" lon="4.51767">
        <ele>519.480408</ele>
        <time>2010-04-25T12:18:42Z</time>
      </trkpt>
      <trkpt lat="45.43168" lon="4.51792">
        <ele>517.645752</ele>
        <time>2010-04-25T12:18:47Z</time>
      </trkpt>
      <trkpt lat="45.43165" lon="4.51831">
        <ele>521.149109</ele>
        <time>2010-04-25T12:18:52Z</time>
      </trkpt>
      <trkpt lat="45.43164" lon="4.51861">
        <ele>522.905701</ele>
        <time>2010-04-25T12:18:57Z</time>
      </trkpt>
      <trkpt lat="45.43164" lon="4.51888">
        <ele>523.901062</ele>
        <time>2010-04-25T12:19:03Z</time>
      </trkpt>
      <trkpt lat="45.43167" lon="4.51906">
        <ele>523.156616</ele>
        <time>2010-04-25T12:19:08Z</time>
      </trkpt>
      <trkpt lat="45.43168" lon="4.51915">
        <ele>523.143921</ele>
        <time>2010-04-25T12:19:13Z</time>
      </trkpt>
      <trkpt lat="45.43171" lon="4.51925">
        <ele>522.672668</ele>
        <time>2010-04-25T12:19:18Z</time>
      </trkpt>
      <trkpt lat="45.43176" lon="4.51935">
        <ele>521.717468</ele>
        <time>2010-04-25T12:19:23Z</time>
      </trkpt>
      <trkpt lat="45.43179" lon="4.51942">
        <ele>520.630737</ele>
        <time>2010-04-25T12:19:31Z</time>
      </trkpt>
      <trkpt lat="45.43184" lon="4.5194">
        <ele>521.007568</ele>
        <time>2010-04-25T12:19:38Z</time>
      </trkpt>
      <trkpt lat="45.43189" lon="4.51934">
        <ele>522.380981</ele>
        <time>2010-04-25T12:19:44Z</time>
      </trkpt>
      <trkpt lat="45.4319" lon="4.51927">
        <ele>521.895386</ele>
        <time>2010-04-25T12:19:49Z</time>
      </trkpt>
      <trkpt lat="45.43192" lon="4.51917">
        <ele>521.86499</ele>
        <time>2010-04-25T12:19:55Z</time>
      </trkpt>
      <trkpt lat="45.43193" lon="4.5191">
        <ele>521.563904</ele>
        <time>2010-04-25T12:20:00Z</time>
      </trkpt>
      <trkpt lat="45.43193" lon="4.51904">
        <ele>520.859558</ele>
        <time>2010-04-25T12:20:07Z</time>
      </trkpt>
      <trkpt lat="45.43198" lon="4.51892">
        <ele>521.108093</ele>
        <time>2010-04-25T12:20:13Z</time>
      </trkpt>
      <trkpt lat="45.43202" lon="4.51884">
        <ele>521.501587</ele>
        <time>2010-04-25T12:20:18Z</time>
      </trkpt>
      <trkpt lat="45.43205" lon="4.51874">
        <ele>521.43811</ele>
        <time>2010-04-25T12:20:24Z</time>
      </trkpt>
      <trkpt lat="45.43209" lon="4.51867">
        <ele>521.916504</ele>
        <time>2010-04-25T12:20:30Z</time>
      </trkpt>
      <trkpt lat="45.43213" lon="4.51862">
        <ele>522.389343</ele>
        <time>2010-04-25T12:20:35Z</time>
      </trkpt>
      <trkpt lat="45.4322" lon="4.51858">
        <ele>523.620422</ele>
        <time>2010-04-25T12:20:44Z</time>
      </trkpt>
      <trkpt lat="45.43224" lon="4.51853">
        <ele>524.239502</ele>
        <time>2010-04-25T12:20:50Z</time>
      </trkpt>
      <trkpt lat="45.43227" lon="4.51849">
        <ele>524.17749</ele>
        <time>2010-04-25T12:21:00Z</time>
      </trkpt>
      <trkpt lat="45.4323" lon="4.51843">
        <ele>523.81781</ele>
        <time>2010-04-25T12:21:06Z</time>
      </trkpt>
      <trkpt lat="45.43234" lon="4.51837">
        <ele>524.044373</ele>
        <time>2010-04-25T12:21:12Z</time>
      </trkpt>
      <trkpt lat="45.43238" lon="4.51832">
        <ele>524.327087</ele>
        <time>2010-04-25T12:21:18Z</time>
      </trkpt>
      <trkpt lat="45.43242" lon="4.51827">
        <ele>524.957275</ele>
        <time>2010-04-25T12:21:24Z</time>
      </trkpt>
      <trkpt lat="45.43246" lon="4.51821">
        <ele>525.387695</ele>
        <time>2010-04-25T12:21:31Z</time>
      </trkpt>
      <trkpt lat="45.43249" lon="4.51816">
        <ele>525.661072</ele>
        <time>2010-04-25T12:21:37Z</time>
      </trkpt>
      <trkpt lat="45.43253" lon="4.51811">
        <ele>526.338989</ele>
        <time>2010-04-25T12:21:44Z</time>
      </trkpt>
      <trkpt lat="45.43256" lon="4.51809">
        <ele>526.999207</ele>
        <time>2010-04-25T12:21:50Z</time>
      </trkpt>
      <trkpt lat="45.43258" lon="4.51806">
        <ele>527.719177</ele>
        <time>2010-04-25T12:21:57Z</time>
      </trkpt>
      <trkpt lat="45.43262" lon="4.51803">
        <ele>528.674316</ele>
        <time>2010-04-25T12:22:04Z</time>
      </trkpt>
      <trkpt lat="45.43269" lon="4.51795">
        <ele>530.386292</ele>
        <time>2010-04-25T12:22:10Z</time>
      </trkpt>
      <trkpt lat="45.43274" lon="4.5179">
        <ele>532.061829</ele>
        <time>2010-04-25T12:22:16Z</time>
      </trkpt>
      <trkpt lat="45.4328" lon="4.51785">
        <ele>532.699463</ele>
        <time>2010-04-25T12:22:22Z</time>
      </trkpt>
      <trkpt lat="45.43285" lon="4.51781">
        <ele>533.508606</ele>
        <time>2010-04-25T12:22:27Z</time>
      </trkpt>
      <trkpt lat="45.43291" lon="4.5178">
        <ele>534.668396</ele>
        <time>2010-04-25T12:22:33Z</time>
      </trkpt>
      <trkpt lat="45.43297" lon="4.5178">
        <ele>535.886475</ele>
        <time>2010-04-25T12:22:39Z</time>
      </trkpt>
      <trkpt lat="45.43302" lon="4.5178">
        <ele>536.899231</ele>
        <time>2010-04-25T12:22:44Z</time>
      </trkpt>
      <trkpt lat="45.43308" lon="4.5178">
        <ele>538.133606</ele>
        <time>2010-04-25T12:22:50Z</time>
      </trkpt>
      <trkpt lat="45.43314" lon="4.5178">
        <ele>539.45874</ele>
        <time>2010-04-25T12:22:56Z</time>
      </trkpt>
      <trkpt lat="45.4332" lon="4.51781">
        <ele>540.527039</ele>
        <time>2010-04-25T12:23:01Z</time>
      </trkpt>
      <trkpt lat="45.43328" lon="4.51783">
        <ele>541.049316</ele>
        <time>2010-04-25T12:23:07Z</time>
      </trkpt>
      <trkpt lat="45.43334" lon="4.51786">
        <ele>541.598633</ele>
        <time>2010-04-25T12:23:12Z</time>
      </trkpt>
      <trkpt lat="45.43342" lon="4.51787">
        <ele>542.104492</ele>
        <time>2010-04-25T12:23:18Z</time>
      </trkpt>
      <trkpt lat="45.43349" lon="4.51791">
        <ele>542.894226</ele>
        <time>2010-04-25T12:23:24Z</time>
      </trkpt>
      <trkpt lat="45.43354" lon="4.51796">
        <ele>543.841797</ele>
        <time>2010-04-25T12:23:29Z</time>
      </trkpt>
      <trkpt lat="45.4336" lon="4.51798">
        <ele>544.56134</ele>
        <time>2010-04-25T12:23:34Z</time>
      </trkpt>
      <trkpt lat="45.43366" lon="4.51801">
        <ele>545.356445</ele>
        <time>2010-04-25T12:23:40Z</time>
      </trkpt>
      <trkpt lat="45.43373" lon="4.51801">
        <ele>545.77771</ele>
        <time>2010-04-25T12:23:45Z</time>
      </trkpt>
      <trkpt lat="45.4338" lon="4.51802">
        <ele>546.460205</ele>
        <time>2010-04-25T12:23:50Z</time>
      </trkpt>
      <trkpt lat="45.43387" lon="4.51803">
        <ele>547.021118</ele>
        <time>2010-04-25T12:23:55Z</time>
      </trkpt>
      <trkpt lat="45.43394" lon="4.51801">
        <ele>547.246277</ele>
        <time>2010-04-25T12:24:00Z</time>
      </trkpt>
      <trkpt lat="45.43401" lon="4.518">
        <ele>547.308289</ele>
        <time>2010-04-25T12:24:05Z</time>
      </trkpt>
      <trkpt lat="45.43407" lon="4.51797">
        <ele>547.213257</ele>
        <time>2010-04-25T12:24:10Z</time>
      </trkpt>
      <trkpt lat="45.43414" lon="4.51795">
        <ele>547.460754</ele>
        <time>2010-04-25T12:24:15Z</time>
      </trkpt>
      <trkpt lat="45.4342" lon="4.51791">
        <ele>547.656128</ele>
        <time>2010-04-25T12:24:20Z</time>
      </trkpt>
      <trkpt lat="45.43427" lon="4.51788">
        <ele>547.974243</ele>
        <time>2010-04-25T12:24:25Z</time>
      </trkpt>
      <trkpt lat="45.43435" lon="4.51784">
        <ele>548.259094</ele>
        <time>2010-04-25T12:24:31Z</time>
      </trkpt>
      <trkpt lat="45.43442" lon="4.5178">
        <ele>548.453735</ele>
        <time>2010-04-25T12:24:36Z</time>
      </trkpt>
      <trkpt lat="45.43447" lon="4.51778">
        <ele>548.709595</ele>
        <time>2010-04-25T12:24:41Z</time>
      </trkpt>
      <trkpt lat="45.43454" lon="4.51776">
        <ele>549.118347</ele>
        <time>2010-04-25T12:24:46Z</time>
      </trkpt>
      <trkpt lat="45.4346" lon="4.51774">
        <ele>549.565002</ele>
        <time>2010-04-25T12:24:51Z</time>
      </trkpt>
      <trkpt lat="45.43467" lon="4.51772">
        <ele>549.997498</ele>
        <time>2010-04-25T12:24:56Z</time>
      </trkpt>
      <trkpt lat="45.43473" lon="4.51769">
        <ele>550.205017</ele>
        <time>2010-04-25T12:25:01Z</time>
      </trkpt>
      <trkpt lat="45.4348" lon="4.51766">
        <ele>550.335022</ele>
        <time>2010-04-25T12:25:06Z</time>
      </trkpt>
      <trkpt lat="45.43487" lon="4.51764">
        <ele>550.609985</ele>
        <time>2010-04-25T12:25:11Z</time>
      </trkpt>
      <trkpt lat="45.43494" lon="4.51762">
        <ele>551.142517</ele>
        <time>2010-04-25T12:25:16Z</time>
      </trkpt>
      <trkpt lat="45.43501" lon="4.51762">
        <ele>551.79718</ele>
        <time>2010-04-25T12:25:21Z</time>
      </trkpt>
      <trkpt lat="45.43508" lon="4.51762">
        <ele>552.422668</ele>
        <time>2010-04-25T12:25:26Z</time>
      </trkpt>
      <trkpt lat="45.43515" lon="4.51764">
        <ele>553.265747</ele>
        <time>2010-04-25T12:25:31Z</time>
      </trkpt>
      <trkpt lat="45.43517" lon="4.51765">
        <ele>553.63385</ele>
        <time>2010-04-25T12:25:36Z</time>
      </trkpt>
      <trkpt lat="45.43523" lon="4.51765">
        <ele>554.065369</ele>
        <time>2010-04-25T12:25:41Z</time>
      </trkpt>
      <trkpt lat="45.43528" lon="4.51767">
        <ele>554.818176</ele>
        <time>2010-04-25T12:25:47Z</time>
      </trkpt>
      <trkpt lat="45.43533" lon="4.51769">
        <ele>555.524048</ele>
        <time>2010-04-25T12:25:53Z</time>
      </trkpt>
      <trkpt lat="45.43537" lon="4.51768">
        <ele>555.789368</ele>
        <time>2010-04-25T12:25:59Z</time>
      </trkpt>
      <trkpt lat="45.43541" lon="4.51769">
        <ele>556.186707</ele>
        <time>2010-04-25T12:26:04Z</time>
      </trkpt>
      <trkpt lat="45.43545" lon="4.51771">
        <ele>556.743774</ele>
        <time>2010-04-25T12:26:10Z</time>
      </trkpt>
      <trkpt lat="45.4355" lon="4.51771">
        <ele>556.837524</ele>
        <time>2010-04-25T12:26:15Z</time>
      </trkpt>
      <trkpt lat="45.43555" lon="4.51773">
        <ele>557.15625</ele>
        <time>2010-04-25T12:26:21Z</time>
      </trkpt>
      <trkpt lat="45.4356" lon="4.51775">
        <ele>557.493774</ele>
        <time>2010-04-25T12:26:27Z</time>
      </trkpt>
      <trkpt lat="45.43565" lon="4.51777">
        <ele>558</ele>
        <time>2010-04-25T12:26:33Z</time>
      </trkpt>
      <trkpt lat="45.43569" lon="4.51777">
        <ele>557.887512</ele>
        <time>2010-04-25T12:26:39Z</time>
      </trkpt>
      <trkpt lat="45.43565" lon="4.51777">
        <ele>558</ele>
        <time>2010-04-25T12:26:46Z</time>
      </trkpt>
      <trkpt lat="45.43563" lon="4.51778">
        <ele>558.243774</ele>
        <time>2010-04-25T12:26:52Z</time>
      </trkpt>
      <trkpt lat="45.43567" lon="4.51773">
        <ele>557.006226</ele>
        <time>2010-04-25T12:26:57Z</time>
      </trkpt>
      <trkpt lat="45.43565" lon="4.5177">
        <ele>556.40625</ele>
        <time>2010-04-25T12:27:03Z</time>
      </trkpt>
      <trkpt lat="45.43566" lon="4.5177">
        <ele>556.5</ele>
        <time>2010-04-25T12:27:10Z</time>
      </trkpt>
      <trkpt lat="45.43576" lon="4.51776">
        <ele>557.625</ele>
        <time>2010-04-25T12:27:15Z</time>
      </trkpt>
      <trkpt lat="45.43581" lon="4.51778">
        <ele>558.018738</ele>
        <time>2010-04-25T12:27:20Z</time>
      </trkpt>
      <trkpt lat="45.43578" lon="4.51782">
        <ele>559.03125</ele>
        <time>2010-04-25T12:27:31Z</time>
      </trkpt>
      <trkpt lat="45.43576" lon="4.51785">
        <ele>559.78125</ele>
        <time>2010-04-25T12:27:36Z</time>
      </trkpt>
      <trkpt lat="45.43586" lon="4.5178">
        <ele>558.506226</ele>
        <time>2010-04-25T12:27:50Z</time>
      </trkpt>
      <trkpt lat="45.43584" lon="4.51778">
        <ele>558.037476</ele>
        <time>2010-04-25T12:27:55Z</time>
      </trkpt>
      <trkpt lat="45.43586" lon="4.51772">
        <ele>556.724976</ele>
        <time>2010-04-25T12:28:00Z</time>
      </trkpt>
      <trkpt lat="45.43585" lon="4.51785">
        <ele>559.668762</ele>
        <time>2010-04-25T12:28:05Z</time>
      </trkpt>
      <trkpt lat="45.43583" lon="4.51786">
        <ele>560.043762</ele>
        <time>2010-04-25T12:28:10Z</time>
      </trkpt>
      <trkpt lat="45.43585" lon="4.51781">
        <ele>558.731262</ele>
        <time>2010-04-25T12:28:15Z</time>
      </trkpt>
      <trkpt lat="45.43589" lon="4.51787">
        <ele>560.162476</ele>
        <time>2010-04-25T12:28:22Z</time>
      </trkpt>
      <trkpt lat="45.43591" lon="4.51794">
        <ele>561.518738</ele>
        <time>2010-04-25T12:28:28Z</time>
      </trkpt>
      <trkpt lat="45.43596" lon="4.51799">
        <ele>562.150024</ele>
        <time>2010-04-25T12:28:34Z</time>
      </trkpt>
      <trkpt lat="45.436" lon="4.51803">
        <ele>562.450012</ele>
        <time>2010-04-25T12:28:40Z</time>
      </trkpt>
      <trkpt lat="45.43606" lon="4.51807">
        <ele>562.717896</ele>
        <time>2010-04-25T12:28:46Z</time>
      </trkpt>
      <trkpt lat="45.43611" lon="4.51811">
        <ele>562.875122</ele>
        <time>2010-04-25T12:28:52Z</time>
      </trkpt>
      <trkpt lat="45.43616" lon="4.51815">
        <ele>563.048462</ele>
        <time>2010-04-25T12:28:58Z</time>
      </trkpt>
      <trkpt lat="45.43621" lon="4.5182">
        <ele>563.531311</ele>
        <time>2010-04-25T12:29:04Z</time>
      </trkpt>
      <trkpt lat="45.43626" lon="4.51823">
        <ele>563.616394</ele>
        <time>2010-04-25T12:29:09Z</time>
      </trkpt>
      <trkpt lat="45.4363" lon="4.51827">
        <ele>563.844238</ele>
        <time>2010-04-25T12:29:14Z</time>
      </trkpt>
      <trkpt lat="45.43635" lon="4.51832">
        <ele>563.928284</ele>
        <time>2010-04-25T12:29:19Z</time>
      </trkpt>
      <trkpt lat="45.43641" lon="4.51836">
        <ele>563.25708</ele>
        <time>2010-04-25T12:29:24Z</time>
      </trkpt>
      <trkpt lat="45.43655" lon="4.51849">
        <ele>562.779175</ele>
        <time>2010-04-25T12:29:29Z</time>
      </trkpt>
      <trkpt lat="45.43684" lon="4.51871">
        <ele>563.75</ele>
        <time>2010-04-25T12:29:34Z</time>
      </trkpt>
      <trkpt lat="45.43717" lon="4.51851">
        <ele>563.805786</ele>
        <time>2010-04-25T12:29:39Z</time>
      </trkpt>
      <trkpt lat="45.43736" lon="4.5181">
        <ele>561.585022</ele>
        <time>2010-04-25T12:29:44Z</time>
      </trkpt>
      <trkpt lat="45.43752" lon="4.51776">
        <ele>561.086609</ele>
        <time>2010-04-25T12:29:49Z</time>
      </trkpt>
      <trkpt lat="45.43765" lon="4.5175">
        <ele>560.487244</ele>
        <time>2010-04-25T12:29:54Z</time>
      </trkpt>
      <trkpt lat="45.43783" lon="4.51714">
        <ele>557.711304</ele>
        <time>2010-04-25T12:29:59Z</time>
      </trkpt>
      <trkpt lat="45.43816" lon="4.51684">
        <ele>555.931213</ele>
        <time>2010-04-25T12:30:04Z</time>
      </trkpt>
      <trkpt lat="45.43853" lon="4.51681">
        <ele>554.985596</ele>
        <time>2010-04-25T12:30:09Z</time>
      </trkpt>
      <trkpt lat="45.43882" lon="4.51686">
        <ele>554.867493</ele>
        <time>2010-04-25T12:30:14Z</time>
      </trkpt>
      <trkpt lat="45.43914" lon="4.51697">
        <ele>554.859314</ele>
        <time>2010-04-25T12:30:20Z</time>
      </trkpt>
      <trkpt lat="45.4394" lon="4.51706">
        <ele>554.179138</ele>
        <time>2010-04-25T12:30:25Z</time>
      </trkpt>
      <trkpt lat="45.43968" lon="4.51716">
        <ele>552.999512</ele>
        <time>2010-04-25T12:30:30Z</time>
      </trkpt>
      <trkpt lat="45.43996" lon="4.51733">
        <ele>552.59375</ele>
        <time>2010-04-25T12:30:35Z</time>
      </trkpt>
      <trkpt lat="45.4402" lon="4.51752">
        <ele>551.616821</ele>
        <time>2010-04-25T12:30:40Z</time>
      </trkpt>
      <trkpt lat="45.44045" lon="4.51775">
        <ele>550.16333</ele>
        <time>2010-04-25T12:30:45Z</time>
      </trkpt>
      <trkpt lat="45.44077" lon="4.51805">
        <ele>547.77594</ele>
        <time>2010-04-25T12:30:50Z</time>
      </trkpt>
      <trkpt lat="45.44115" lon="4.51836">
        <ele>545.153748</ele>
        <time>2010-04-25T12:30:55Z</time>
      </trkpt>
      <trkpt lat="45.4415" lon="4.51872">
        <ele>542.413452</ele>
        <time>2010-04-25T12:31:00Z</time>
      </trkpt>
      <trkpt lat="45.44184" lon="4.5191">
        <ele>542.417969</ele>
        <time>2010-04-25T12:31:05Z</time>
      </trkpt>
      <trkpt lat="45.4421" lon="4.51931">
        <ele>542.785828</ele>
        <time>2010-04-25T12:31:10Z</time>
      </trkpt>
      <trkpt lat="45.4423" lon="4.51946">
        <ele>544.853455</ele>
        <time>2010-04-25T12:31:15Z</time>
      </trkpt>
      <trkpt lat="45.4425" lon="4.5195">
        <ele>543.797729</ele>
        <time>2010-04-25T12:31:20Z</time>
      </trkpt>
      <trkpt lat="45.44277" lon="4.51941">
        <ele>541.444153</ele>
        <time>2010-04-25T12:31:25Z</time>
      </trkpt>
      <trkpt lat="45.44311" lon="4.51931">
        <ele>541.418274</ele>
        <time>2010-04-25T12:31:30Z</time>
      </trkpt>
      <trkpt lat="45.44348" lon="4.51923">
        <ele>540.515686</ele>
        <time>2010-04-25T12:31:35Z</time>
      </trkpt>
      <trkpt lat="45.44379" lon="4.51909">
        <ele>541.751099</ele>
        <time>2010-04-25T12:31:40Z</time>
      </trkpt>
      <trkpt lat="45.44372" lon="4.51884">
        <ele>543.45636</ele>
        <time>2010-04-25T12:31:45Z</time>
      </trkpt>
      <trkpt lat="45.44364" lon="4.51874">
        <ele>544.354858</ele>
        <time>2010-04-25T12:31:50Z</time>
      </trkpt>
      <trkpt lat="45.44358" lon="4.51869">
        <ele>544.650635</ele>
        <time>2010-04-25T12:31:55Z</time>
      </trkpt>
      <trkpt lat="45.44352" lon="4.51864">
        <ele>544.856262</ele>
        <time>2010-04-25T12:32:00Z</time>
      </trkpt>
      <trkpt lat="45.44346" lon="4.5186">
        <ele>544.965454</ele>
        <time>2010-04-25T12:32:05Z</time>
      </trkpt>
      <trkpt lat="45.4434" lon="4.51855">
        <ele>545.237793</ele>
        <time>2010-04-25T12:32:10Z</time>
      </trkpt>
      <trkpt lat="45.44334" lon="4.5185">
        <ele>545.381165</ele>
        <time>2010-04-25T12:32:15Z</time>
      </trkpt>
      <trkpt lat="45.44327" lon="4.51846">
        <ele>545.135315</ele>
        <time>2010-04-25T12:32:20Z</time>
      </trkpt>
      <trkpt lat="45.44321" lon="4.51841">
        <ele>545.228882</ele>
        <time>2010-04-25T12:32:25Z</time>
      </trkpt>
      <trkpt lat="45.44315" lon="4.51837">
        <ele>545.151489</ele>
        <time>2010-04-25T12:32:30Z</time>
      </trkpt>
      <trkpt lat="45.44309" lon="4.51831">
        <ele>545.286926</ele>
        <time>2010-04-25T12:32:36Z</time>
      </trkpt>
      <trkpt lat="45.44303" lon="4.51826">
        <ele>544.661194</ele>
        <time>2010-04-25T12:32:42Z</time>
      </trkpt>
      <trkpt lat="45.44299" lon="4.5182">
        <ele>544.539307</ele>
        <time>2010-04-25T12:32:48Z</time>
      </trkpt>
      <trkpt lat="45.44295" lon="4.51813">
        <ele>544.960083</ele>
        <time>2010-04-25T12:32:54Z</time>
      </trkpt>
      <trkpt lat="45.44292" lon="4.51806">
        <ele>545.355164</ele>
        <time>2010-04-25T12:33:00Z</time>
      </trkpt>
      <trkpt lat="45.44289" lon="4.51798">
        <ele>545.929871</ele>
        <time>2010-04-25T12:33:06Z</time>
      </trkpt>
      <trkpt lat="45.44286" lon="4.51791">
        <ele>546.224792</ele>
        <time>2010-04-25T12:33:12Z</time>
      </trkpt>
      <trkpt lat="45.44284" lon="4.51784">
        <ele>546.967957</ele>
        <time>2010-04-25T12:33:18Z</time>
      </trkpt>
      <trkpt lat="45.44283" lon="4.51776">
        <ele>547.950867</ele>
        <time>2010-04-25T12:33:23Z</time>
      </trkpt>
      <trkpt lat="45.44281" lon="4.51768">
        <ele>548.674622</ele>
        <time>2010-04-25T12:33:29Z</time>
      </trkpt>
      <trkpt lat="45.44279" lon="4.51761">
        <ele>548.739014</ele>
        <time>2010-04-25T12:33:35Z</time>
      </trkpt>
      <trkpt lat="45.44278" lon="4.51753">
        <ele>549.131165</ele>
        <time>2010-04-25T12:33:40Z</time>
      </trkpt>
      <trkpt lat="45.44276" lon="4.51746">
        <ele>549.372253</ele>
        <time>2010-04-25T12:33:45Z</time>
      </trkpt>
      <trkpt lat="45.44275" lon="4.51737">
        <ele>549.870178</ele>
        <time>2010-04-25T12:33:50Z</time>
      </trkpt>
      <trkpt lat="45.44274" lon="4.51728">
        <ele>550.434509</ele>
        <time>2010-04-25T12:33:55Z</time>
      </trkpt>
      <trkpt lat="45.44273" lon="4.51719">
        <ele>550.877808</ele>
        <time>2010-04-25T12:34:00Z</time>
      </trkpt>
      <trkpt lat="45.44272" lon="4.5171">
        <ele>551.699829</ele>
        <time>2010-04-25T12:34:05Z</time>
      </trkpt>
      <trkpt lat="45.44271" lon="4.51703">
        <ele>552.043152</ele>
        <time>2010-04-25T12:34:10Z</time>
      </trkpt>
      <trkpt lat="45.4427" lon="4.51695">
        <ele>552.167175</ele>
        <time>2010-04-25T12:34:16Z</time>
      </trkpt>
      <trkpt lat="45.44269" lon="4.51688">
        <ele>552.242126</ele>
        <time>2010-04-25T12:34:21Z</time>
      </trkpt>
      <trkpt lat="45.44269" lon="4.5168">
        <ele>552.661926</ele>
        <time>2010-04-25T12:34:26Z</time>
      </trkpt>
      <trkpt lat="45.44268" lon="4.51671">
        <ele>552.760559</ele>
        <time>2010-04-25T12:34:31Z</time>
      </trkpt>
      <trkpt lat="45.44268" lon="4.51657">
        <ele>553.625488</ele>
        <time>2010-04-25T12:34:36Z</time>
      </trkpt>
      <trkpt lat="45.44269" lon="4.51643">
        <ele>554.617676</ele>
        <time>2010-04-25T12:34:41Z</time>
      </trkpt>
      <trkpt lat="45.44269" lon="4.51628">
        <ele>554.906555</ele>
        <time>2010-04-25T12:34:46Z</time>
      </trkpt>
      <trkpt lat="45.4427" lon="4.51616">
        <ele>555.062378</ele>
        <time>2010-04-25T12:34:51Z</time>
      </trkpt>
      <trkpt lat="45.44271" lon="4.51606">
        <ele>555.411316</ele>
        <time>2010-04-25T12:34:56Z</time>
      </trkpt>
      <trkpt lat="45.44273" lon="4.5159">
        <ele>556.033691</ele>
        <time>2010-04-25T12:35:01Z</time>
      </trkpt>
      <trkpt lat="45.44282" lon="4.5157">
        <ele>557.023682</ele>
        <time>2010-04-25T12:35:06Z</time>
      </trkpt>
      <trkpt lat="45.44298" lon="4.51547">
        <ele>556.344055</ele>
        <time>2010-04-25T12:35:11Z</time>
      </trkpt>
      <trkpt lat="45.44324" lon="4.51529">
        <ele>555.543823</ele>
        <time>2010-04-25T12:35:16Z</time>
      </trkpt>
      <trkpt lat="45.44353" lon="4.51513">
        <ele>554.554016</ele>
        <time>2010-04-25T12:35:21Z</time>
      </trkpt>
      <trkpt lat="45.44378" lon="4.51501">
        <ele>555.51886</ele>
        <time>2010-04-25T12:35:26Z</time>
      </trkpt>
      <trkpt lat="45.44393" lon="4.51491">
        <ele>556.068726</ele>
        <time>2010-04-25T12:35:31Z</time>
      </trkpt>
      <trkpt lat="45.44403" lon="4.51484">
        <ele>556.279053</ele>
        <time>2010-04-25T12:35:36Z</time>
      </trkpt>
      <trkpt lat="45.44411" lon="4.51477">
        <ele>556.736267</ele>
        <time>2010-04-25T12:35:41Z</time>
      </trkpt>
      <trkpt lat="45.44419" lon="4.51471">
        <ele>557.658752</ele>
        <time>2010-04-25T12:35:46Z</time>
      </trkpt>
      <trkpt lat="45.44426" lon="4.51462">
        <ele>557.533752</ele>
        <time>2010-04-25T12:35:51Z</time>
      </trkpt>
      <trkpt lat="45.44436" lon="4.51451">
        <ele>557.800415</ele>
        <time>2010-04-25T12:35:56Z</time>
      </trkpt>
      <trkpt lat="45.44448" lon="4.51437">
        <ele>557.22699</ele>
        <time>2010-04-25T12:36:01Z</time>
      </trkpt>
      <trkpt lat="45.4446" lon="4.51425">
        <ele>556.605591</ele>
        <time>2010-04-25T12:36:06Z</time>
      </trkpt>
      <trkpt lat="45.44471" lon="4.51414">
        <ele>556.216553</ele>
        <time>2010-04-25T12:36:11Z</time>
      </trkpt>
      <trkpt lat="45.44482" lon="4.51404">
        <ele>556.358582</ele>
        <time>2010-04-25T12:36:16Z</time>
      </trkpt>
      <trkpt lat="45.44494" lon="4.51396">
        <ele>557.451416</ele>
        <time>2010-04-25T12:36:21Z</time>
      </trkpt>
      <trkpt lat="45.44507" lon="4.51391">
        <ele>557.696228</ele>
        <time>2010-04-25T12:36:26Z</time>
      </trkpt>
      <trkpt lat="45.4452" lon="4.51386">
        <ele>557.55249</ele>
        <time>2010-04-25T12:36:31Z</time>
      </trkpt>
      <trkpt lat="45.44534" lon="4.51382">
        <ele>557.80127</ele>
        <time>2010-04-25T12:36:36Z</time>
      </trkpt>
      <trkpt lat="45.44553" lon="4.51382">
        <ele>556.94751</ele>
        <time>2010-04-25T12:36:41Z</time>
      </trkpt>
      <trkpt lat="45.44577" lon="4.51392">
        <ele>556.334106</ele>
        <time>2010-04-25T12:36:46Z</time>
      </trkpt>
      <trkpt lat="45.44605" lon="4.51398">
        <ele>555.557251</ele>
        <time>2010-04-25T12:36:51Z</time>
      </trkpt>
      <trkpt lat="45.44628" lon="4.514">
        <ele>554.832214</ele>
        <time>2010-04-25T12:36:56Z</time>
      </trkpt>
      <trkpt lat="45.44652" lon="4.51402">
        <ele>554.44751</ele>
        <time>2010-04-25T12:37:01Z</time>
      </trkpt>
      <trkpt lat="45.44683" lon="4.51397">
        <ele>552.754883</ele>
        <time>2010-04-25T12:37:06Z</time>
      </trkpt>
      <trkpt lat="45.4472" lon="4.51379">
        <ele>549.172791</ele>
        <time>2010-04-25T12:37:11Z</time>
      </trkpt>
      <trkpt lat="45.44756" lon="4.51345">
        <ele>545.679504</ele>
        <time>2010-04-25T12:37:16Z</time>
      </trkpt>
      <trkpt lat="45.44784" lon="4.51306">
        <ele>541.828247</ele>
        <time>2010-04-25T12:37:21Z</time>
      </trkpt>
      <trkpt lat="45.44821" lon="4.51285">
        <ele>540.016541</ele>
        <time>2010-04-25T12:37:26Z</time>
      </trkpt>
      <trkpt lat="45.44849" lon="4.51279">
        <ele>536.188538</ele>
        <time>2010-04-25T12:37:31Z</time>
      </trkpt>
      <trkpt lat="45.44856" lon="4.51276">
        <ele>535.131592</ele>
        <time>2010-04-25T12:37:36Z</time>
      </trkpt>
      <trkpt lat="45.44861" lon="4.51284">
        <ele>535.308655</ele>
        <time>2010-04-25T12:37:41Z</time>
      </trkpt>
      <trkpt lat="45.44861" lon="4.51286">
        <ele>535.457642</ele>
        <time>2010-04-25T12:37:46Z</time>
      </trkpt>
      <trkpt lat="45.44855" lon="4.51302">
        <ele>537.670044</ele>
        <time>2010-04-25T12:37:52Z</time>
      </trkpt>
      <trkpt lat="45.44852" lon="4.51309">
        <ele>538.673462</ele>
        <time>2010-04-25T12:37:58Z</time>
      </trkpt>
      <trkpt lat="45.4485" lon="4.51316">
        <ele>539.553406</ele>
        <time>2010-04-25T12:38:03Z</time>
      </trkpt>
      <trkpt lat="45.4485" lon="4.51324">
        <ele>540.314392</ele>
        <time>2010-04-25T12:38:08Z</time>
      </trkpt>
      <trkpt lat="45.44849" lon="4.51332">
        <ele>541.159058</ele>
        <time>2010-04-25T12:38:13Z</time>
      </trkpt>
      <trkpt lat="45.44848" lon="4.51341">
        <ele>542.167419</ele>
        <time>2010-04-25T12:38:19Z</time>
      </trkpt>
      <trkpt lat="45.44848" lon="4.51349">
        <ele>542.506592</ele>
        <time>2010-04-25T12:38:25Z</time>
      </trkpt>
      <trkpt lat="45.44847" lon="4.51357">
        <ele>542.904602</ele>
        <time>2010-04-25T12:38:31Z</time>
      </trkpt>
      <trkpt lat="45.44845" lon="4.5136">
        <ele>543.356018</ele>
        <time>2010-04-25T12:38:37Z</time>
      </trkpt>
      <trkpt lat="45.44857" lon="4.5136">
        <ele>541.590271</ele>
        <time>2010-04-25T12:38:49Z</time>
      </trkpt>
      <trkpt lat="45.4485" lon="4.5136">
        <ele>542.5448</ele>
        <time>2010-04-25T12:38:58Z</time>
      </trkpt>
      <trkpt lat="45.44852" lon="4.51356">
        <ele>542.132324</ele>
        <time>2010-04-25T12:39:12Z</time>
      </trkpt>
      <trkpt lat="45.44852" lon="4.51355">
        <ele>542.051025</ele>
        <time>2010-04-25T12:39:22Z</time>
      </trkpt>
      <trkpt lat="45.44857" lon="4.51353">
        <ele>541.319153</ele>
        <time>2010-04-25T12:39:29Z</time>
      </trkpt>
      <trkpt lat="45.44859" lon="4.5135">
        <ele>540.916138</ele>
        <time>2010-04-25T12:39:43Z</time>
      </trkpt>
      <trkpt lat="45.44852" lon="4.51351">
        <ele>542.040222</ele>
        <time>2010-04-25T12:39:49Z</time>
      </trkpt>
      <trkpt lat="45.44849" lon="4.5136">
        <ele>542.659851</ele>
        <time>2010-04-25T12:39:56Z</time>
      </trkpt>
      <trkpt lat="45.44852" lon="4.5136">
        <ele>542.202332</ele>
        <time>2010-04-25T12:40:05Z</time>
      </trkpt>
      <trkpt lat="45.44849" lon="4.51364">
        <ele>542.867493</ele>
        <time>2010-04-25T12:40:11Z</time>
      </trkpt>
      <trkpt lat="45.44847" lon="4.51372">
        <ele>543.378418</ele>
        <time>2010-04-25T12:40:17Z</time>
      </trkpt>
      <trkpt lat="45.44847" lon="4.51388">
        <ele>544.039185</ele>
        <time>2010-04-25T12:40:22Z</time>
      </trkpt>
      <trkpt lat="45.44845" lon="4.51406">
        <ele>544.924255</ele>
        <time>2010-04-25T12:40:27Z</time>
      </trkpt>
      <trkpt lat="45.44844" lon="4.51419">
        <ele>545.710938</ele>
        <time>2010-04-25T12:40:32Z</time>
      </trkpt>
      <trkpt lat="45.44843" lon="4.51431">
        <ele>546.606812</ele>
        <time>2010-04-25T12:40:37Z</time>
      </trkpt>
      <trkpt lat="45.44841" lon="4.51443">
        <ele>547.407288</ele>
        <time>2010-04-25T12:40:42Z</time>
      </trkpt>
      <trkpt lat="45.44844" lon="4.51456">
        <ele>547.525879</ele>
        <time>2010-04-25T12:40:47Z</time>
      </trkpt>
      <trkpt lat="45.44847" lon="4.51468">
        <ele>547.537903</ele>
        <time>2010-04-25T12:40:52Z</time>
      </trkpt>
      <trkpt lat="45.44849" lon="4.51479">
        <ele>547.639648</ele>
        <time>2010-04-25T12:40:57Z</time>
      </trkpt>
      <trkpt lat="45.44854" lon="4.51489">
        <ele>547.205017</ele>
        <time>2010-04-25T12:41:02Z</time>
      </trkpt>
      <trkpt lat="45.44863" lon="4.51502">
        <ele>545.974976</ele>
        <time>2010-04-25T12:41:07Z</time>
      </trkpt>
      <trkpt lat="45.44873" lon="4.51525">
        <ele>545.034973</ele>
        <time>2010-04-25T12:41:16Z</time>
      </trkpt>
      <trkpt lat="45.4488" lon="4.5155">
        <ele>544.935486</ele>
        <time>2010-04-25T12:41:21Z</time>
      </trkpt>
      <trkpt lat="45.44887" lon="4.51582">
        <ele>544.682129</ele>
        <time>2010-04-25T12:41:26Z</time>
      </trkpt>
      <trkpt lat="45.44897" lon="4.51616">
        <ele>544.699341</ele>
        <time>2010-04-25T12:41:31Z</time>
      </trkpt>
      <trkpt lat="45.44915" lon="4.51645">
        <ele>544.563171</ele>
        <time>2010-04-25T12:41:36Z</time>
      </trkpt>
      <trkpt lat="45.44934" lon="4.51658">
        <ele>543.16095</ele>
        <time>2010-04-25T12:41:41Z</time>
      </trkpt>
      <trkpt lat="45.44951" lon="4.51673">
        <ele>542.826965</ele>
        <time>2010-04-25T12:41:46Z</time>
      </trkpt>
      <trkpt lat="45.44966" lon="4.51688">
        <ele>542.955444</ele>
        <time>2010-04-25T12:41:51Z</time>
      </trkpt>
      <trkpt lat="45.4498" lon="4.51707">
        <ele>543.335266</ele>
        <time>2010-04-25T12:41:56Z</time>
      </trkpt>
      <trkpt lat="45.44991" lon="4.51724">
        <ele>543.763062</ele>
        <time>2010-04-25T12:42:01Z</time>
      </trkpt>
      <trkpt lat="45.44996" lon="4.51739">
        <ele>544.367493</ele>
        <time>2010-04-25T12:42:06Z</time>
      </trkpt>
      <trkpt lat="45.44998" lon="4.51754">
        <ele>545.520752</ele>
        <time>2010-04-25T12:42:11Z</time>
      </trkpt>
      <trkpt lat="45.44999" lon="4.51764">
        <ele>546.590393</ele>
        <time>2010-04-25T12:42:16Z</time>
      </trkpt>
      <trkpt lat="45.44999" lon="4.51774">
        <ele>547.429443</ele>
        <time>2010-04-25T12:42:21Z</time>
      </trkpt>
      <trkpt lat="45.45" lon="4.51783">
        <ele>548.167847</ele>
        <time>2010-04-25T12:42:26Z</time>
      </trkpt>
      <trkpt lat="45.45001" lon="4.51792">
        <ele>548.914795</ele>
        <time>2010-04-25T12:42:31Z</time>
      </trkpt>
      <trkpt lat="45.45002" lon="4.51801">
        <ele>549.239624</ele>
        <time>2010-04-25T12:42:36Z</time>
      </trkpt>
      <trkpt lat="45.45003" lon="4.51811">
        <ele>549.60498</ele>
        <time>2010-04-25T12:42:41Z</time>
      </trkpt>
      <trkpt lat="45.45004" lon="4.5182">
        <ele>549.869446</ele>
        <time>2010-04-25T12:42:46Z</time>
      </trkpt>
      <trkpt lat="45.45004" lon="4.5183">
        <ele>550.261292</ele>
        <time>2010-04-25T12:42:51Z</time>
      </trkpt>
      <trkpt lat="45.45004" lon="4.5184">
        <ele>550.658081</ele>
        <time>2010-04-25T12:42:56Z</time>
      </trkpt>
      <trkpt lat="45.45005" lon="4.5185">
        <ele>551.042175</ele>
        <time>2010-04-25T12:43:01Z</time>
      </trkpt>
      <trkpt lat="45.45005" lon="4.51861">
        <ele>551.478149</ele>
        <time>2010-04-25T12:43:06Z</time>
      </trkpt>
      <trkpt lat="45.45004" lon="4.51871">
        <ele>551.627014</ele>
        <time>2010-04-25T12:43:11Z</time>
      </trkpt>
      <trkpt lat="45.45004" lon="4.51884">
        <ele>551.756165</ele>
        <time>2010-04-25T12:43:16Z</time>
      </trkpt>
      <trkpt lat="45.45003" lon="4.51896">
        <ele>552.097534</ele>
        <time>2010-04-25T12:43:21Z</time>
      </trkpt>
      <trkpt lat="45.45002" lon="4.51906">
        <ele>552.419434</ele>
        <time>2010-04-25T12:43:26Z</time>
      </trkpt>
      <trkpt lat="45.45" lon="4.51917">
        <ele>552.862793</ele>
        <time>2010-04-25T12:43:31Z</time>
      </trkpt>
      <trkpt lat="45.44999" lon="4.51928">
        <ele>552.861694</ele>
        <time>2010-04-25T12:43:36Z</time>
      </trkpt>
      <trkpt lat="45.44997" lon="4.51939">
        <ele>552.626099</ele>
        <time>2010-04-25T12:43:41Z</time>
      </trkpt>
      <trkpt lat="45.44994" lon="4.51953">
        <ele>552.332825</ele>
        <time>2010-04-25T12:43:46Z</time>
      </trkpt>
      <trkpt lat="45.4499" lon="4.5197">
        <ele>552.131104</ele>
        <time>2010-04-25T12:43:51Z</time>
      </trkpt>
      <trkpt lat="45.44987" lon="4.51989">
        <ele>551.748047</ele>
        <time>2010-04-25T12:43:56Z</time>
      </trkpt>
      <trkpt lat="45.44983" lon="4.52012">
        <ele>551.712097</ele>
        <time>2010-04-25T12:44:01Z</time>
      </trkpt>
      <trkpt lat="45.44979" lon="4.5204">
        <ele>550.615234</ele>
        <time>2010-04-25T12:44:06Z</time>
      </trkpt>
      <trkpt lat="45.44978" lon="4.52059">
        <ele>551.515686</ele>
        <time>2010-04-25T12:44:11Z</time>
      </trkpt>
      <trkpt lat="45.44988" lon="4.52057">
        <ele>551.415161</ele>
        <time>2010-04-25T12:44:16Z</time>
      </trkpt>
      <trkpt lat="45.45021" lon="4.52022">
        <ele>546.630005</ele>
        <time>2010-04-25T12:44:22Z</time>
      </trkpt>
      <trkpt lat="45.45055" lon="4.52003">
        <ele>539.150635</ele>
        <time>2010-04-25T12:44:27Z</time>
      </trkpt>
      <trkpt lat="45.45084" lon="4.51984">
        <ele>532.110352</ele>
        <time>2010-04-25T12:44:32Z</time>
      </trkpt>
      <trkpt lat="45.45118" lon="4.51987">
        <ele>527.783325</ele>
        <time>2010-04-25T12:44:38Z</time>
      </trkpt>
      <trkpt lat="45.4515" lon="4.52001">
        <ele>525.391663</ele>
        <time>2010-04-25T12:44:43Z</time>
      </trkpt>
      <trkpt lat="45.45187" lon="4.52009">
        <ele>522.198547</ele>
        <time>2010-04-25T12:44:48Z</time>
      </trkpt>
      <trkpt lat="45.45229" lon="4.52011">
        <ele>518.611023</ele>
        <time>2010-04-25T12:44:53Z</time>
      </trkpt>
      <trkpt lat="45.45273" lon="4.52016">
        <ele>517.256226</ele>
        <time>2010-04-25T12:44:58Z</time>
      </trkpt>
      <trkpt lat="45.4532" lon="4.5201">
        <ele>514.534302</ele>
        <time>2010-04-25T12:45:03Z</time>
      </trkpt>
      <trkpt lat="45.45367" lon="4.52005">
        <ele>512.101868</ele>
        <time>2010-04-25T12:45:08Z</time>
      </trkpt>
      <trkpt lat="45.45417" lon="4.52002">
        <ele>509.327911</ele>
        <time>2010-04-25T12:45:14Z</time>
      </trkpt>
      <trkpt lat="45.4546" lon="4.51997">
        <ele>506.912506</ele>
        <time>2010-04-25T12:45:19Z</time>
      </trkpt>
      <trkpt lat="45.45527" lon="4.51966">
        <ele>499.943329</ele>
        <time>2010-04-25T12:45:25Z</time>
      </trkpt>
      <trkpt lat="45.45583" lon="4.51938">
        <ele>493.190582</ele>
        <time>2010-04-25T12:45:30Z</time>
      </trkpt>
      <trkpt lat="45.45639" lon="4.51913">
        <ele>489.301941</ele>
        <time>2010-04-25T12:45:35Z</time>
      </trkpt>
      <trkpt lat="45.45687" lon="4.51871">
        <ele>483.400391</ele>
        <time>2010-04-25T12:45:40Z</time>
      </trkpt>
      <trkpt lat="45.45723" lon="4.51836">
        <ele>478.440002</ele>
        <time>2010-04-25T12:45:45Z</time>
      </trkpt>
      <trkpt lat="45.45772" lon="4.5184">
        <ele>476.067627</ele>
        <time>2010-04-25T12:45:51Z</time>
      </trkpt>
      <trkpt lat="45.45798" lon="4.51866">
        <ele>477.589996</ele>
        <time>2010-04-25T12:45:56Z</time>
      </trkpt>
      <trkpt lat="45.45821" lon="4.51888">
        <ele>478.607483</ele>
        <time>2010-04-25T12:46:02Z</time>
      </trkpt>
      <trkpt lat="45.45838" lon="4.51897">
        <ele>478.454529</ele>
        <time>2010-04-25T12:46:07Z</time>
      </trkpt>
      <trkpt lat="45.45862" lon="4.51905">
        <ele>476.909454</ele>
        <time>2010-04-25T12:46:12Z</time>
      </trkpt>
      <trkpt lat="45.45884" lon="4.5192">
        <ele>476.882507</ele>
        <time>2010-04-25T12:46:17Z</time>
      </trkpt>
      <trkpt lat="45.45908" lon="4.51939">
        <ele>478.032501</ele>
        <time>2010-04-25T12:46:23Z</time>
      </trkpt>
      <trkpt lat="45.45924" lon="4.51956">
        <ele>479.577515</ele>
        <time>2010-04-25T12:46:28Z</time>
      </trkpt>
      <trkpt lat="45.45939" lon="4.51972">
        <ele>480.830109</ele>
        <time>2010-04-25T12:46:34Z</time>
      </trkpt>
      <trkpt lat="45.45949" lon="4.51983">
        <ele>481.528046</ele>
        <time>2010-04-25T12:46:39Z</time>
      </trkpt>
      <trkpt lat="45.4596" lon="4.51994">
        <ele>481.946594</ele>
        <time>2010-04-25T12:46:45Z</time>
      </trkpt>
      <trkpt lat="45.45969" lon="4.52003">
        <ele>482.354065</ele>
        <time>2010-04-25T12:46:50Z</time>
      </trkpt>
      <trkpt lat="45.45977" lon="4.52012">
        <ele>482.98999</ele>
        <time>2010-04-25T12:46:55Z</time>
      </trkpt>
      <trkpt lat="45.45986" lon="4.52023">
        <ele>483.875</ele>
        <time>2010-04-25T12:47:01Z</time>
      </trkpt>
      <trkpt lat="45.45991" lon="4.5203">
        <ele>484.579071</ele>
        <time>2010-04-25T12:47:06Z</time>
      </trkpt>
      <trkpt lat="45.45997" lon="4.52036">
        <ele>485.088287</ele>
        <time>2010-04-25T12:47:11Z</time>
      </trkpt>
      <trkpt lat="45.46004" lon="4.52043">
        <ele>485.6745</ele>
        <time>2010-04-25T12:47:17Z</time>
      </trkpt>
      <trkpt lat="45.4601" lon="4.52052">
        <ele>486.31781</ele>
        <time>2010-04-25T12:47:22Z</time>
      </trkpt>
      <trkpt lat="45.46016" lon="4.52061">
        <ele>487.202423</ele>
        <time>2010-04-25T12:47:27Z</time>
      </trkpt>
      <trkpt lat="45.46023" lon="4.52073">
        <ele>488.362823</ele>
        <time>2010-04-25T12:47:33Z</time>
      </trkpt>
      <trkpt lat="45.4603" lon="4.52081">
        <ele>489.011353</ele>
        <time>2010-04-25T12:47:38Z</time>
      </trkpt>
      <trkpt lat="45.46037" lon="4.52089">
        <ele>489.632629</ele>
        <time>2010-04-25T12:47:43Z</time>
      </trkpt>
      <trkpt lat="45.46043" lon="4.52098">
        <ele>490.070435</ele>
        <time>2010-04-25T12:47:48Z</time>
      </trkpt>
      <trkpt lat="45.46049" lon="4.52105">
        <ele>490.231995</ele>
        <time>2010-04-25T12:47:53Z</time>
      </trkpt>
      <trkpt lat="45.46057" lon="4.52116">
        <ele>490.473663</ele>
        <time>2010-04-25T12:47:59Z</time>
      </trkpt>
      <trkpt lat="45.46066" lon="4.52127">
        <ele>490.535736</ele>
        <time>2010-04-25T12:48:05Z</time>
      </trkpt>
      <trkpt lat="45.46072" lon="4.52135">
        <ele>490.365997</ele>
        <time>2010-04-25T12:48:10Z</time>
      </trkpt>
      <trkpt lat="45.46075" lon="4.52142">
        <ele>490.41272</ele>
        <time>2010-04-25T12:48:15Z</time>
      </trkpt>
      <trkpt lat="45.46072" lon="4.5215">
        <ele>490.942657</ele>
        <time>2010-04-25T12:48:20Z</time>
      </trkpt>
      <trkpt lat="45.46068" lon="4.52159">
        <ele>491.669769</ele>
        <time>2010-04-25T12:48:25Z</time>
      </trkpt>
      <trkpt lat="45.46064" lon="4.5217">
        <ele>492.048004</ele>
        <time>2010-04-25T12:48:30Z</time>
      </trkpt>
      <trkpt lat="45.46061" lon="4.52182">
        <ele>492.225006</ele>
        <time>2010-04-25T12:48:36Z</time>
      </trkpt>
      <trkpt lat="45.46058" lon="4.52192">
        <ele>492.601013</ele>
        <time>2010-04-25T12:48:42Z</time>
      </trkpt>
      <trkpt lat="45.46056" lon="4.52201">
        <ele>492.964569</ele>
        <time>2010-04-25T12:48:47Z</time>
      </trkpt>
      <trkpt lat="45.46053" lon="4.52213">
        <ele>493.382233</ele>
        <time>2010-04-25T12:48:53Z</time>
      </trkpt>
      <trkpt lat="45.4605" lon="4.52223">
        <ele>493.56665</ele>
        <time>2010-04-25T12:48:58Z</time>
      </trkpt>
      <trkpt lat="45.46046" lon="4.52233">
        <ele>493.418732</ele>
        <time>2010-04-25T12:49:03Z</time>
      </trkpt>
      <trkpt lat="45.46041" lon="4.52245">
        <ele>493.359039</ele>
        <time>2010-04-25T12:49:09Z</time>
      </trkpt>
      <trkpt lat="45.46038" lon="4.52254">
        <ele>493.284271</ele>
        <time>2010-04-25T12:49:14Z</time>
      </trkpt>
      <trkpt lat="45.4603" lon="4.52264">
        <ele>493.885315</ele>
        <time>2010-04-25T12:49:20Z</time>
      </trkpt>
      <trkpt lat="45.46024" lon="4.52271">
        <ele>494.708435</ele>
        <time>2010-04-25T12:49:25Z</time>
      </trkpt>
      <trkpt lat="45.46017" lon="4.52277">
        <ele>495.606873</ele>
        <time>2010-04-25T12:49:30Z</time>
      </trkpt>
      <trkpt lat="45.4601" lon="4.52283">
        <ele>496.673615</ele>
        <time>2010-04-25T12:49:35Z</time>
      </trkpt>
      <trkpt lat="45.46003" lon="4.52289">
        <ele>497.147034</ele>
        <time>2010-04-25T12:49:40Z</time>
      </trkpt>
      <trkpt lat="45.45995" lon="4.52296">
        <ele>497.705963</ele>
        <time>2010-04-25T12:49:46Z</time>
      </trkpt>
      <trkpt lat="45.45988" lon="4.52302">
        <ele>498.346069</ele>
        <time>2010-04-25T12:49:51Z</time>
      </trkpt>
      <trkpt lat="45.45981" lon="4.52309">
        <ele>498.798492</ele>
        <time>2010-04-25T12:49:56Z</time>
      </trkpt>
      <trkpt lat="45.45974" lon="4.52315">
        <ele>499.503693</ele>
        <time>2010-04-25T12:50:01Z</time>
      </trkpt>
      <trkpt lat="45.45966" lon="4.52322">
        <ele>500.146912</ele>
        <time>2010-04-25T12:50:06Z</time>
      </trkpt>
      <trkpt lat="45.45958" lon="4.52329">
        <ele>501.128754</ele>
        <time>2010-04-25T12:50:11Z</time>
      </trkpt>
      <trkpt lat="45.45951" lon="4.52336">
        <ele>502.259979</ele>
        <time>2010-04-25T12:50:16Z</time>
      </trkpt>
      <trkpt lat="45.45944" lon="4.52343">
        <ele>503.528717</ele>
        <time>2010-04-25T12:50:21Z</time>
      </trkpt>
      <trkpt lat="45.45936" lon="4.5235">
        <ele>504.552399</ele>
        <time>2010-04-25T12:50:27Z</time>
      </trkpt>
      <trkpt lat="45.4593" lon="4.52355">
        <ele>505.422119</ele>
        <time>2010-04-25T12:50:32Z</time>
      </trkpt>
      <trkpt lat="45.45924" lon="4.5236">
        <ele>506.01474</ele>
        <time>2010-04-25T12:50:37Z</time>
      </trkpt>
      <trkpt lat="45.45919" lon="4.52368">
        <ele>505.934418</ele>
        <time>2010-04-25T12:50:43Z</time>
      </trkpt>
      <trkpt lat="45.45913" lon="4.52373">
        <ele>506.368042</ele>
        <time>2010-04-25T12:50:48Z</time>
      </trkpt>
      <trkpt lat="45.45909" lon="4.52377">
        <ele>506.700928</ele>
        <time>2010-04-25T12:50:53Z</time>
      </trkpt>
      <trkpt lat="45.45903" lon="4.52383">
        <ele>507.189911</ele>
        <time>2010-04-25T12:50:58Z</time>
      </trkpt>
      <trkpt lat="45.45897" lon="4.52388">
        <ele>507.569611</ele>
        <time>2010-04-25T12:51:03Z</time>
      </trkpt>
      <trkpt lat="45.45891" lon="4.52394">
        <ele>507.765686</ele>
        <time>2010-04-25T12:51:08Z</time>
      </trkpt>
      <trkpt lat="45.45885" lon="4.524">
        <ele>507.940826</ele>
        <time>2010-04-25T12:51:13Z</time>
      </trkpt>
      <trkpt lat="45.45879" lon="4.52405">
        <ele>508.122314</ele>
        <time>2010-04-25T12:51:18Z</time>
      </trkpt>
      <trkpt lat="45.45872" lon="4.52413">
        <ele>508.865417</ele>
        <time>2010-04-25T12:51:24Z</time>
      </trkpt>
      <trkpt lat="45.45866" lon="4.52419">
        <ele>509.570984</ele>
        <time>2010-04-25T12:51:30Z</time>
      </trkpt>
      <trkpt lat="45.4586" lon="4.52426">
        <ele>509.935791</ele>
        <time>2010-04-25T12:51:36Z</time>
      </trkpt>
      <trkpt lat="45.45853" lon="4.52433">
        <ele>510.473724</ele>
        <time>2010-04-25T12:51:41Z</time>
      </trkpt>
      <trkpt lat="45.45848" lon="4.52437">
        <ele>510.852386</ele>
        <time>2010-04-25T12:51:46Z</time>
      </trkpt>
      <trkpt lat="45.45842" lon="4.52443">
        <ele>511.229126</ele>
        <time>2010-04-25T12:51:51Z</time>
      </trkpt>
      <trkpt lat="45.45835" lon="4.52449">
        <ele>511.658173</ele>
        <time>2010-04-25T12:51:56Z</time>
      </trkpt>
      <trkpt lat="45.45829" lon="4.52456">
        <ele>511.980682</ele>
        <time>2010-04-25T12:52:01Z</time>
      </trkpt>
      <trkpt lat="45.45823" lon="4.52464">
        <ele>511.772217</ele>
        <time>2010-04-25T12:52:06Z</time>
      </trkpt>
      <trkpt lat="45.45818" lon="4.52468">
        <ele>512.467224</ele>
        <time>2010-04-25T12:52:11Z</time>
      </trkpt>
      <trkpt lat="45.45818" lon="4.52465">
        <ele>512.741272</ele>
        <time>2010-04-25T12:52:17Z</time>
      </trkpt>
      <trkpt lat="45.45819" lon="4.5248">
        <ele>513.658142</ele>
        <time>2010-04-25T12:52:22Z</time>
      </trkpt>
      <trkpt lat="45.45819" lon="4.52493">
        <ele>514.8974</ele>
        <time>2010-04-25T12:52:27Z</time>
      </trkpt>
      <trkpt lat="45.45822" lon="4.52506">
        <ele>515.768982</ele>
        <time>2010-04-25T12:52:32Z</time>
      </trkpt>
      <trkpt lat="45.45826" lon="4.52517">
        <ele>516.201233</ele>
        <time>2010-04-25T12:52:37Z</time>
      </trkpt>
      <trkpt lat="45.45832" lon="4.52525">
        <ele>516.556274</ele>
        <time>2010-04-25T12:52:42Z</time>
      </trkpt>
      <trkpt lat="45.4584" lon="4.52532">
        <ele>516.671875</ele>
        <time>2010-04-25T12:52:47Z</time>
      </trkpt>
      <trkpt lat="45.45849" lon="4.52537">
        <ele>516.991699</ele>
        <time>2010-04-25T12:52:52Z</time>
      </trkpt>
      <trkpt lat="45.45858" lon="4.52541">
        <ele>516.802368</ele>
        <time>2010-04-25T12:52:57Z</time>
      </trkpt>
      <trkpt lat="45.45879" lon="4.52538">
        <ele>513.498413</ele>
        <time>2010-04-25T12:53:02Z</time>
      </trkpt>
      <trkpt lat="45.45905" lon="4.52541">
        <ele>510.319366</ele>
        <time>2010-04-25T12:53:07Z</time>
      </trkpt>
      <trkpt lat="45.45922" lon="4.52543">
        <ele>508.03125</ele>
        <time>2010-04-25T12:53:12Z</time>
      </trkpt>
      <trkpt lat="45.45937" lon="4.52542">
        <ele>504.982513</ele>
        <time>2010-04-25T12:53:17Z</time>
      </trkpt>
      <trkpt lat="45.45963" lon="4.52545">
        <ele>500.777496</ele>
        <time>2010-04-25T12:53:22Z</time>
      </trkpt>
      <trkpt lat="45.45986" lon="4.52547">
        <ele>497.497498</ele>
        <time>2010-04-25T12:53:28Z</time>
      </trkpt>
      <trkpt lat="45.46004" lon="4.52544">
        <ele>494.020569</ele>
        <time>2010-04-25T12:53:33Z</time>
      </trkpt>
      <trkpt lat="45.46025" lon="4.52543">
        <ele>491.265411</ele>
        <time>2010-04-25T12:53:38Z</time>
      </trkpt>
      <trkpt lat="45.4605" lon="4.5254">
        <ele>487.813782</ele>
        <time>2010-04-25T12:53:43Z</time>
      </trkpt>
      <trkpt lat="45.46065" lon="4.52537">
        <ele>485.717102</ele>
        <time>2010-04-25T12:53:48Z</time>
      </trkpt>
      <trkpt lat="45.46077" lon="4.52539">
        <ele>484.574066</ele>
        <time>2010-04-25T12:53:53Z</time>
      </trkpt>
      <trkpt lat="45.4609" lon="4.52547">
        <ele>484.076691</ele>
        <time>2010-04-25T12:53:58Z</time>
      </trkpt>
      <trkpt lat="45.46103" lon="4.52557">
        <ele>483.806519</ele>
        <time>2010-04-25T12:54:03Z</time>
      </trkpt>
      <trkpt lat="45.46118" lon="4.52571">
        <ele>483.561615</ele>
        <time>2010-04-25T12:54:08Z</time>
      </trkpt>
      <trkpt lat="45.46138" lon="4.52586">
        <ele>482.631989</ele>
        <time>2010-04-25T12:54:13Z</time>
      </trkpt>
      <trkpt lat="45.46165" lon="4.52598">
        <ele>480.393768</ele>
        <time>2010-04-25T12:54:18Z</time>
      </trkpt>
      <trkpt lat="45.46186" lon="4.52611">
        <ele>478.560486</ele>
        <time>2010-04-25T12:54:23Z</time>
      </trkpt>
      <trkpt lat="45.46194" lon="4.5262">
        <ele>477.561829</ele>
        <time>2010-04-25T12:54:28Z</time>
      </trkpt>
      <trkpt lat="45.46209" lon="4.52646">
        <ele>475.681763</ele>
        <time>2010-04-25T12:54:33Z</time>
      </trkpt>
      <trkpt lat="45.46233" lon="4.52685">
        <ele>471.413483</ele>
        <time>2010-04-25T12:54:38Z</time>
      </trkpt>
      <trkpt lat="45.46246" lon="4.52744">
        <ele>469.159393</ele>
        <time>2010-04-25T12:54:43Z</time>
      </trkpt>
      <trkpt lat="45.46266" lon="4.52816">
        <ele>468.700989</ele>
        <time>2010-04-25T12:54:49Z</time>
      </trkpt>
      <trkpt lat="45.46288" lon="4.52866">
        <ele>467.345001</ele>
        <time>2010-04-25T12:54:54Z</time>
      </trkpt>
      <trkpt lat="45.46301" lon="4.52894">
        <ele>464.881409</ele>
        <time>2010-04-25T12:54:59Z</time>
      </trkpt>
      <trkpt lat="45.46307" lon="4.52909">
        <ele>463.789612</ele>
        <time>2010-04-25T12:55:04Z</time>
      </trkpt>
      <trkpt lat="45.46326" lon="4.52905">
        <ele>458.932465</ele>
        <time>2010-04-25T12:55:09Z</time>
      </trkpt>
      <trkpt lat="45.46355" lon="4.52901">
        <ele>451.3255</ele>
        <time>2010-04-25T12:55:14Z</time>
      </trkpt>
      <trkpt lat="45.46382" lon="4.52912">
        <ele>445.020111</ele>
        <time>2010-04-25T12:55:19Z</time>
      </trkpt>
      <trkpt lat="45.46399" lon="4.52935">
        <ele>441.45639</ele>
        <time>2010-04-25T12:55:24Z</time>
      </trkpt>
      <trkpt lat="45.46417" lon="4.52967">
        <ele>437.692505</ele>
        <time>2010-04-25T12:55:30Z</time>
      </trkpt>
      <trkpt lat="45.46438" lon="4.53001">
        <ele>433.350006</ele>
        <time>2010-04-25T12:55:35Z</time>
      </trkpt>
      <trkpt lat="45.46464" lon="4.52998">
        <ele>428.987823</ele>
        <time>2010-04-25T12:55:40Z</time>
      </trkpt>
      <trkpt lat="45.46505" lon="4.52984">
        <ele>422.72226</ele>
        <time>2010-04-25T12:55:45Z</time>
      </trkpt>
      <trkpt lat="45.46553" lon="4.52968">
        <ele>417.991791</ele>
        <time>2010-04-25T12:55:50Z</time>
      </trkpt>
      <trkpt lat="45.46598" lon="4.5295">
        <ele>415.259918</ele>
        <time>2010-04-25T12:55:55Z</time>
      </trkpt>
      <trkpt lat="45.46642" lon="4.52939">
        <ele>413.269989</ele>
        <time>2010-04-25T12:56:00Z</time>
      </trkpt>
      <trkpt lat="45.46685" lon="4.52935">
        <ele>411.355011</ele>
        <time>2010-04-25T12:56:05Z</time>
      </trkpt>
      <trkpt lat="45.46726" lon="4.52935">
        <ele>409.540009</ele>
        <time>2010-04-25T12:56:10Z</time>
      </trkpt>
      <trkpt lat="45.46772" lon="4.52937">
        <ele>407.48999</ele>
        <time>2010-04-25T12:56:16Z</time>
      </trkpt>
      <trkpt lat="45.46806" lon="4.52939">
        <ele>405.992493</ele>
        <time>2010-04-25T12:56:21Z</time>
      </trkpt>
      <trkpt lat="45.46821" lon="4.52938">
        <ele>404.980011</ele>
        <time>2010-04-25T12:56:26Z</time>
      </trkpt>
      <trkpt lat="45.46822" lon="4.52918">
        <ele>404.92749</ele>
        <time>2010-04-25T12:56:31Z</time>
      </trkpt>
      <trkpt lat="45.46817" lon="4.52896">
        <ele>405.309998</ele>
        <time>2010-04-25T12:56:36Z</time>
      </trkpt>
      <trkpt lat="45.46812" lon="4.52875">
        <ele>405.647491</ele>
        <time>2010-04-25T12:56:41Z</time>
      </trkpt>
      <trkpt lat="45.46807" lon="4.52853">
        <ele>406.005005</ele>
        <time>2010-04-25T12:56:46Z</time>
      </trkpt>
      <trkpt lat="45.46801" lon="4.52829">
        <ele>406.295013</ele>
        <time>2010-04-25T12:56:51Z</time>
      </trkpt>
      <trkpt lat="45.46812" lon="4.52819">
        <ele>405.767487</ele>
        <time>2010-04-25T12:56:56Z</time>
      </trkpt>
      <trkpt lat="45.4683" lon="4.52823">
        <ele>404.567505</ele>
        <time>2010-04-25T12:57:01Z</time>
      </trkpt>
      <trkpt lat="45.46854" lon="4.52827">
        <ele>402.940002</ele>
        <time>2010-04-25T12:57:06Z</time>
      </trkpt>
      <trkpt lat="45.46883" lon="4.52834">
        <ele>401.679993</ele>
        <time>2010-04-25T12:57:11Z</time>
      </trkpt>
      <trkpt lat="45.46917" lon="4.52842">
        <ele>399.778748</ele>
        <time>2010-04-25T12:57:16Z</time>
      </trkpt>
      <trkpt lat="45.46957" lon="4.52853">
        <ele>397.907837</ele>
        <time>2010-04-25T12:57:21Z</time>
      </trkpt>
      <trkpt lat="45.4699" lon="4.52861">
        <ele>396.9375</ele>
        <time>2010-04-25T12:57:26Z</time>
      </trkpt>
      <trkpt lat="45.46992" lon="4.52879">
        <ele>396.887512</ele>
        <time>2010-04-25T12:57:31Z</time>
      </trkpt>
      <trkpt lat="45.46998" lon="4.52898">
        <ele>396.743744</ele>
        <time>2010-04-25T12:57:37Z</time>
      </trkpt>
      <trkpt lat="45.47006" lon="4.529">
        <ele>396.524994</ele>
        <time>2010-04-25T12:57:42Z</time>
      </trkpt>
      <trkpt lat="45.47007" lon="4.52904">
        <ele>396.432495</ele>
        <time>2010-04-25T12:57:51Z</time>
      </trkpt>
      <trkpt lat="45.47012" lon="4.52913">
        <ele>396.200012</ele>
        <time>2010-04-25T12:57:56Z</time>
      </trkpt>
      <trkpt lat="45.47025" lon="4.52928">
        <ele>395.67749</ele>
        <time>2010-04-25T12:58:01Z</time>
      </trkpt>
      <trkpt lat="45.47039" lon="4.52942">
        <ele>395.143738</ele>
        <time>2010-04-25T12:58:06Z</time>
      </trkpt>
      <trkpt lat="45.47057" lon="4.52949">
        <ele>394.644989</ele>
        <time>2010-04-25T12:58:11Z</time>
      </trkpt>
      <trkpt lat="45.47073" lon="4.52958">
        <ele>394.152496</ele>
        <time>2010-04-25T12:58:16Z</time>
      </trkpt>
      <trkpt lat="45.47083" lon="4.52961">
        <ele>393.892487</ele>
        <time>2010-04-25T12:58:21Z</time>
      </trkpt>
      <trkpt lat="45.47088" lon="4.52963">
        <ele>393.732483</ele>
        <time>2010-04-25T12:58:26Z</time>
      </trkpt>
      <trkpt lat="45.47089" lon="4.52962">
        <ele>393.75</ele>
        <time>2010-04-25T12:58:33Z</time>
      </trkpt>
      <trkpt lat="45.47085" lon="4.52966">
        <ele>393.753754</ele>
        <time>2010-04-25T12:58:42Z</time>
      </trkpt>
    </trkseg>
  </trk>
</gpx>